<?xml version="1.0" encoding="UTF-8" standalone="no" ?>
<gpx xmlns="http://www.topografix.com/GPX/1/1" xmlns:xsi="http://www.w3.org/2001/XMLSchema-instance" xsi:schemaLocation="http://www.topografix.com/GPX/1/1 http://www.topografix.com/GPX/1/1/gpx.xsd" version="1.1" creator="VisuGPX - https://www.visugpx.com">
  <metadata>
    <name>Etaples Le Touquet</name>
    <desc><![CDATA[22 Kms Assez facile !]]></desc>
  </metadata>
  <trk>
    <name><![CDATA[Etaples Le Touquet_1]]></name>
    <trkseg>
      <trkpt lat="50.51698" lon="1.64203">
        <ele>12</ele>
        <time>2015-03-01T10:21:15Z</time>
      </trkpt>
      <trkpt lat="50.51715" lon="1.64169">
        <ele>12</ele>
        <time>2015-03-01T10:21:49Z</time>
      </trkpt>
      <trkpt lat="50.51721" lon="1.64164">
        <ele>13</ele>
        <time>2015-03-01T10:21:55Z</time>
      </trkpt>
      <trkpt lat="50.51727" lon="1.64158">
        <ele>13</ele>
        <time>2015-03-01T10:22:01Z</time>
      </trkpt>
      <trkpt lat="50.5173" lon="1.64155">
        <ele>13</ele>
        <time>2015-03-01T10:22:06Z</time>
      </trkpt>
      <trkpt lat="50.51736" lon="1.64148">
        <ele>13</ele>
        <time>2015-03-01T10:22:12Z</time>
      </trkpt>
      <trkpt lat="50.51742" lon="1.64142">
        <ele>13</ele>
        <time>2015-03-01T10:22:18Z</time>
      </trkpt>
      <trkpt lat="50.51747" lon="1.64135">
        <ele>13</ele>
        <time>2015-03-01T10:22:24Z</time>
      </trkpt>
      <trkpt lat="50.51751" lon="1.64129">
        <ele>13</ele>
        <time>2015-03-01T10:22:30Z</time>
      </trkpt>
      <trkpt lat="50.51756" lon="1.64121">
        <ele>13</ele>
        <time>2015-03-01T10:22:36Z</time>
      </trkpt>
      <trkpt lat="50.51761" lon="1.64114">
        <ele>13</ele>
        <time>2015-03-01T10:22:42Z</time>
      </trkpt>
      <trkpt lat="50.51765" lon="1.64107">
        <ele>13</ele>
        <time>2015-03-01T10:22:47Z</time>
      </trkpt>
      <trkpt lat="50.51772" lon="1.64103">
        <ele>13</ele>
        <time>2015-03-01T10:22:52Z</time>
      </trkpt>
      <trkpt lat="50.51775" lon="1.64097">
        <ele>13</ele>
        <time>2015-03-01T10:22:58Z</time>
      </trkpt>
      <trkpt lat="50.51779" lon="1.64093">
        <ele>13</ele>
        <time>2015-03-01T10:23:04Z</time>
      </trkpt>
      <trkpt lat="50.51791" lon="1.64085">
        <ele>13</ele>
        <time>2015-03-01T10:23:09Z</time>
      </trkpt>
      <trkpt lat="50.51801" lon="1.64081">
        <ele>13</ele>
        <time>2015-03-01T10:23:14Z</time>
      </trkpt>
      <trkpt lat="50.51804" lon="1.64073">
        <ele>13</ele>
        <time>2015-03-01T10:23:19Z</time>
      </trkpt>
      <trkpt lat="50.51808" lon="1.64066">
        <ele>13</ele>
        <time>2015-03-01T10:23:25Z</time>
      </trkpt>
      <trkpt lat="50.51809" lon="1.64059">
        <ele>13</ele>
        <time>2015-03-01T10:23:30Z</time>
      </trkpt>
      <trkpt lat="50.51809" lon="1.64048">
        <ele>13</ele>
        <time>2015-03-01T10:23:35Z</time>
      </trkpt>
      <trkpt lat="50.51812" lon="1.64042">
        <ele>13</ele>
        <time>2015-03-01T10:23:40Z</time>
      </trkpt>
      <trkpt lat="50.51814" lon="1.64032">
        <ele>13</ele>
        <time>2015-03-01T10:23:46Z</time>
      </trkpt>
      <trkpt lat="50.51816" lon="1.64026">
        <ele>13</ele>
        <time>2015-03-01T10:23:51Z</time>
      </trkpt>
      <trkpt lat="50.5182" lon="1.64018">
        <ele>13</ele>
        <time>2015-03-01T10:23:56Z</time>
      </trkpt>
      <trkpt lat="50.51825" lon="1.64009">
        <ele>13</ele>
        <time>2015-03-01T10:24:02Z</time>
      </trkpt>
      <trkpt lat="50.51827" lon="1.63998">
        <ele>13</ele>
        <time>2015-03-01T10:24:08Z</time>
      </trkpt>
      <trkpt lat="50.51834" lon="1.63981">
        <ele>14</ele>
        <time>2015-03-01T10:24:13Z</time>
      </trkpt>
      <trkpt lat="50.51841" lon="1.63977">
        <ele>14</ele>
        <time>2015-03-01T10:24:19Z</time>
      </trkpt>
      <trkpt lat="50.51841" lon="1.63967">
        <ele>15</ele>
        <time>2015-03-01T10:24:24Z</time>
      </trkpt>
      <trkpt lat="50.51844" lon="1.63959">
        <ele>15</ele>
        <time>2015-03-01T10:24:29Z</time>
      </trkpt>
      <trkpt lat="50.51851" lon="1.63952">
        <ele>15</ele>
        <time>2015-03-01T10:24:34Z</time>
      </trkpt>
      <trkpt lat="50.51852" lon="1.63942">
        <ele>15</ele>
        <time>2015-03-01T10:24:39Z</time>
      </trkpt>
      <trkpt lat="50.5185" lon="1.63931">
        <ele>16</ele>
        <time>2015-03-01T10:24:44Z</time>
      </trkpt>
      <trkpt lat="50.51849" lon="1.6392">
        <ele>16</ele>
        <time>2015-03-01T10:24:49Z</time>
      </trkpt>
      <trkpt lat="50.51851" lon="1.63911">
        <ele>17</ele>
        <time>2015-03-01T10:24:54Z</time>
      </trkpt>
      <trkpt lat="50.51852" lon="1.63904">
        <ele>17</ele>
        <time>2015-03-01T10:24:59Z</time>
      </trkpt>
      <trkpt lat="50.51846" lon="1.63899">
        <ele>17</ele>
        <time>2015-03-01T10:25:05Z</time>
      </trkpt>
      <trkpt lat="50.51844" lon="1.63889">
        <ele>17</ele>
        <time>2015-03-01T10:25:10Z</time>
      </trkpt>
      <trkpt lat="50.51844" lon="1.6388">
        <ele>18</ele>
        <time>2015-03-01T10:25:16Z</time>
      </trkpt>
      <trkpt lat="50.5185" lon="1.63869">
        <ele>18</ele>
        <time>2015-03-01T10:25:21Z</time>
      </trkpt>
      <trkpt lat="50.51854" lon="1.6386">
        <ele>18</ele>
        <time>2015-03-01T10:25:26Z</time>
      </trkpt>
      <trkpt lat="50.51854" lon="1.63852">
        <ele>18</ele>
        <time>2015-03-01T10:25:31Z</time>
      </trkpt>
      <trkpt lat="50.51851" lon="1.63841">
        <ele>19</ele>
        <time>2015-03-01T10:25:36Z</time>
      </trkpt>
      <trkpt lat="50.5185" lon="1.63833">
        <ele>20</ele>
        <time>2015-03-01T10:25:41Z</time>
      </trkpt>
      <trkpt lat="50.51846" lon="1.63826">
        <ele>20</ele>
        <time>2015-03-01T10:25:46Z</time>
      </trkpt>
      <trkpt lat="50.51844" lon="1.63816">
        <ele>20</ele>
        <time>2015-03-01T10:25:51Z</time>
      </trkpt>
      <trkpt lat="50.51844" lon="1.63806">
        <ele>20</ele>
        <time>2015-03-01T10:25:56Z</time>
      </trkpt>
      <trkpt lat="50.51843" lon="1.63796">
        <ele>21</ele>
        <time>2015-03-01T10:26:01Z</time>
      </trkpt>
      <trkpt lat="50.51849" lon="1.63784">
        <ele>21</ele>
        <time>2015-03-01T10:26:07Z</time>
      </trkpt>
      <trkpt lat="50.51846" lon="1.63773">
        <ele>21</ele>
        <time>2015-03-01T10:26:12Z</time>
      </trkpt>
      <trkpt lat="50.5185" lon="1.63762">
        <ele>21</ele>
        <time>2015-03-01T10:26:18Z</time>
      </trkpt>
      <trkpt lat="50.51849" lon="1.63751">
        <ele>22</ele>
        <time>2015-03-01T10:26:23Z</time>
      </trkpt>
      <trkpt lat="50.51852" lon="1.63743">
        <ele>23</ele>
        <time>2015-03-01T10:26:28Z</time>
      </trkpt>
      <trkpt lat="50.51852" lon="1.63732">
        <ele>23</ele>
        <time>2015-03-01T10:26:33Z</time>
      </trkpt>
      <trkpt lat="50.5185" lon="1.63721">
        <ele>24</ele>
        <time>2015-03-01T10:26:38Z</time>
      </trkpt>
      <trkpt lat="50.51852" lon="1.63713">
        <ele>24</ele>
        <time>2015-03-01T10:26:43Z</time>
      </trkpt>
      <trkpt lat="50.5185" lon="1.63701">
        <ele>24</ele>
        <time>2015-03-01T10:26:48Z</time>
      </trkpt>
      <trkpt lat="50.51853" lon="1.63692">
        <ele>24</ele>
        <time>2015-03-01T10:26:54Z</time>
      </trkpt>
      <trkpt lat="50.5186" lon="1.63684">
        <ele>24</ele>
        <time>2015-03-01T10:27:00Z</time>
      </trkpt>
      <trkpt lat="50.51875" lon="1.63674">
        <ele>24</ele>
        <time>2015-03-01T10:27:06Z</time>
      </trkpt>
      <trkpt lat="50.51877" lon="1.63665">
        <ele>24</ele>
        <time>2015-03-01T10:27:11Z</time>
      </trkpt>
      <trkpt lat="50.5188" lon="1.63658">
        <ele>24</ele>
        <time>2015-03-01T10:27:16Z</time>
      </trkpt>
      <trkpt lat="50.51885" lon="1.63655">
        <ele>24</ele>
        <time>2015-03-01T10:27:21Z</time>
      </trkpt>
      <trkpt lat="50.5189" lon="1.63654">
        <ele>24</ele>
        <time>2015-03-01T10:27:27Z</time>
      </trkpt>
      <trkpt lat="50.51894" lon="1.63645">
        <ele>24</ele>
        <time>2015-03-01T10:27:33Z</time>
      </trkpt>
      <trkpt lat="50.51899" lon="1.63635">
        <ele>23</ele>
        <time>2015-03-01T10:27:39Z</time>
      </trkpt>
      <trkpt lat="50.51905" lon="1.63627">
        <ele>23</ele>
        <time>2015-03-01T10:27:45Z</time>
      </trkpt>
      <trkpt lat="50.5191" lon="1.63617">
        <ele>23</ele>
        <time>2015-03-01T10:27:51Z</time>
      </trkpt>
      <trkpt lat="50.51912" lon="1.63607">
        <ele>23</ele>
        <time>2015-03-01T10:27:56Z</time>
      </trkpt>
      <trkpt lat="50.51915" lon="1.63598">
        <ele>23</ele>
        <time>2015-03-01T10:28:01Z</time>
      </trkpt>
      <trkpt lat="50.51918" lon="1.63592">
        <ele>22</ele>
        <time>2015-03-01T10:28:06Z</time>
      </trkpt>
      <trkpt lat="50.51921" lon="1.63584">
        <ele>22</ele>
        <time>2015-03-01T10:28:11Z</time>
      </trkpt>
      <trkpt lat="50.51925" lon="1.63575">
        <ele>21</ele>
        <time>2015-03-01T10:28:16Z</time>
      </trkpt>
      <trkpt lat="50.51926" lon="1.63565">
        <ele>21</ele>
        <time>2015-03-01T10:28:21Z</time>
      </trkpt>
      <trkpt lat="50.51934" lon="1.63555">
        <ele>20</ele>
        <time>2015-03-01T10:28:27Z</time>
      </trkpt>
      <trkpt lat="50.51933" lon="1.6354">
        <ele>20</ele>
        <time>2015-03-01T10:28:32Z</time>
      </trkpt>
      <trkpt lat="50.51937" lon="1.63529">
        <ele>20</ele>
        <time>2015-03-01T10:28:37Z</time>
      </trkpt>
      <trkpt lat="50.51943" lon="1.63522">
        <ele>20</ele>
        <time>2015-03-01T10:28:42Z</time>
      </trkpt>
      <trkpt lat="50.5195" lon="1.63516">
        <ele>20</ele>
        <time>2015-03-01T10:28:48Z</time>
      </trkpt>
      <trkpt lat="50.51954" lon="1.63507">
        <ele>20</ele>
        <time>2015-03-01T10:28:53Z</time>
      </trkpt>
      <trkpt lat="50.51955" lon="1.63495">
        <ele>18</ele>
        <time>2015-03-01T10:28:58Z</time>
      </trkpt>
      <trkpt lat="50.51958" lon="1.63487">
        <ele>18</ele>
        <time>2015-03-01T10:29:03Z</time>
      </trkpt>
      <trkpt lat="50.5196" lon="1.63477">
        <ele>18</ele>
        <time>2015-03-01T10:29:08Z</time>
      </trkpt>
      <trkpt lat="50.51965" lon="1.6347">
        <ele>18</ele>
        <time>2015-03-01T10:29:13Z</time>
      </trkpt>
      <trkpt lat="50.51968" lon="1.63459">
        <ele>17</ele>
        <time>2015-03-01T10:29:18Z</time>
      </trkpt>
      <trkpt lat="50.51973" lon="1.63453">
        <ele>17</ele>
        <time>2015-03-01T10:29:23Z</time>
      </trkpt>
      <trkpt lat="50.51977" lon="1.63447">
        <ele>17</ele>
        <time>2015-03-01T10:29:28Z</time>
      </trkpt>
      <trkpt lat="50.5198" lon="1.63438">
        <ele>17</ele>
        <time>2015-03-01T10:29:33Z</time>
      </trkpt>
      <trkpt lat="50.51979" lon="1.63418">
        <ele>16</ele>
        <time>2015-03-01T10:29:38Z</time>
      </trkpt>
      <trkpt lat="50.51979" lon="1.63405">
        <ele>14</ele>
        <time>2015-03-01T10:29:44Z</time>
      </trkpt>
      <trkpt lat="50.51984" lon="1.63394">
        <ele>14</ele>
        <time>2015-03-01T10:29:49Z</time>
      </trkpt>
      <trkpt lat="50.51992" lon="1.63388">
        <ele>14</ele>
        <time>2015-03-01T10:29:55Z</time>
      </trkpt>
      <trkpt lat="50.51997" lon="1.6338">
        <ele>14</ele>
        <time>2015-03-01T10:30:00Z</time>
      </trkpt>
      <trkpt lat="50.52002" lon="1.63371">
        <ele>14</ele>
        <time>2015-03-01T10:30:06Z</time>
      </trkpt>
      <trkpt lat="50.52002" lon="1.63356">
        <ele>13</ele>
        <time>2015-03-01T10:30:12Z</time>
      </trkpt>
      <trkpt lat="50.52007" lon="1.63345">
        <ele>13</ele>
        <time>2015-03-01T10:30:18Z</time>
      </trkpt>
      <trkpt lat="50.52012" lon="1.6334">
        <ele>13</ele>
        <time>2015-03-01T10:30:23Z</time>
      </trkpt>
      <trkpt lat="50.52017" lon="1.63335">
        <ele>13</ele>
        <time>2015-03-01T10:30:28Z</time>
      </trkpt>
      <trkpt lat="50.52021" lon="1.63323">
        <ele>12</ele>
        <time>2015-03-01T10:30:33Z</time>
      </trkpt>
      <trkpt lat="50.52023" lon="1.63315">
        <ele>12</ele>
        <time>2015-03-01T10:30:38Z</time>
      </trkpt>
      <trkpt lat="50.52026" lon="1.63306">
        <ele>12</ele>
        <time>2015-03-01T10:30:43Z</time>
      </trkpt>
      <trkpt lat="50.5203" lon="1.63295">
        <ele>11</ele>
        <time>2015-03-01T10:30:48Z</time>
      </trkpt>
      <trkpt lat="50.52035" lon="1.63285">
        <ele>11</ele>
        <time>2015-03-01T10:30:54Z</time>
      </trkpt>
      <trkpt lat="50.5204" lon="1.63278">
        <ele>11</ele>
        <time>2015-03-01T10:30:59Z</time>
      </trkpt>
      <trkpt lat="50.52043" lon="1.63269">
        <ele>11</ele>
        <time>2015-03-01T10:31:04Z</time>
      </trkpt>
      <trkpt lat="50.52046" lon="1.63258">
        <ele>11</ele>
        <time>2015-03-01T10:31:09Z</time>
      </trkpt>
      <trkpt lat="50.52047" lon="1.63241">
        <ele>9</ele>
        <time>2015-03-01T10:31:15Z</time>
      </trkpt>
      <trkpt lat="50.5205" lon="1.6323">
        <ele>9</ele>
        <time>2015-03-01T10:31:21Z</time>
      </trkpt>
      <trkpt lat="50.52054" lon="1.63221">
        <ele>9</ele>
        <time>2015-03-01T10:31:26Z</time>
      </trkpt>
      <trkpt lat="50.52059" lon="1.63213">
        <ele>9</ele>
        <time>2015-03-01T10:31:31Z</time>
      </trkpt>
      <trkpt lat="50.52063" lon="1.63203">
        <ele>9</ele>
        <time>2015-03-01T10:31:36Z</time>
      </trkpt>
      <trkpt lat="50.52064" lon="1.63193">
        <ele>9</ele>
        <time>2015-03-01T10:31:41Z</time>
      </trkpt>
      <trkpt lat="50.52069" lon="1.63184">
        <ele>9</ele>
        <time>2015-03-01T10:31:47Z</time>
      </trkpt>
      <trkpt lat="50.52074" lon="1.63176">
        <ele>9</ele>
        <time>2015-03-01T10:31:52Z</time>
      </trkpt>
      <trkpt lat="50.52081" lon="1.63167">
        <ele>9</ele>
        <time>2015-03-01T10:31:58Z</time>
      </trkpt>
      <trkpt lat="50.52082" lon="1.63156">
        <ele>8</ele>
        <time>2015-03-01T10:32:03Z</time>
      </trkpt>
      <trkpt lat="50.52084" lon="1.63147">
        <ele>9</ele>
        <time>2015-03-01T10:32:09Z</time>
      </trkpt>
      <trkpt lat="50.52089" lon="1.63139">
        <ele>9</ele>
        <time>2015-03-01T10:32:14Z</time>
      </trkpt>
      <trkpt lat="50.52095" lon="1.63129">
        <ele>8</ele>
        <time>2015-03-01T10:32:20Z</time>
      </trkpt>
      <trkpt lat="50.52096" lon="1.63122">
        <ele>8</ele>
        <time>2015-03-01T10:32:25Z</time>
      </trkpt>
      <trkpt lat="50.52097" lon="1.63112">
        <ele>8</ele>
        <time>2015-03-01T10:32:30Z</time>
      </trkpt>
      <trkpt lat="50.52099" lon="1.63099">
        <ele>8</ele>
        <time>2015-03-01T10:32:35Z</time>
      </trkpt>
      <trkpt lat="50.52102" lon="1.63087">
        <ele>8</ele>
        <time>2015-03-01T10:32:40Z</time>
      </trkpt>
      <trkpt lat="50.52105" lon="1.63077">
        <ele>7</ele>
        <time>2015-03-01T10:32:45Z</time>
      </trkpt>
      <trkpt lat="50.52111" lon="1.63066">
        <ele>7</ele>
        <time>2015-03-01T10:32:50Z</time>
      </trkpt>
      <trkpt lat="50.52112" lon="1.63055">
        <ele>7</ele>
        <time>2015-03-01T10:32:55Z</time>
      </trkpt>
      <trkpt lat="50.52116" lon="1.63048">
        <ele>7</ele>
        <time>2015-03-01T10:33:00Z</time>
      </trkpt>
      <trkpt lat="50.52121" lon="1.63041">
        <ele>7</ele>
        <time>2015-03-01T10:33:05Z</time>
      </trkpt>
      <trkpt lat="50.52126" lon="1.63038">
        <ele>7</ele>
        <time>2015-03-01T10:33:10Z</time>
      </trkpt>
      <trkpt lat="50.5213" lon="1.63027">
        <ele>7</ele>
        <time>2015-03-01T10:33:15Z</time>
      </trkpt>
      <trkpt lat="50.52132" lon="1.63017">
        <ele>7</ele>
        <time>2015-03-01T10:33:20Z</time>
      </trkpt>
      <trkpt lat="50.52132" lon="1.63003">
        <ele>7</ele>
        <time>2015-03-01T10:33:25Z</time>
      </trkpt>
      <trkpt lat="50.52137" lon="1.62995">
        <ele>6</ele>
        <time>2015-03-01T10:33:30Z</time>
      </trkpt>
      <trkpt lat="50.52142" lon="1.62988">
        <ele>6</ele>
        <time>2015-03-01T10:33:35Z</time>
      </trkpt>
      <trkpt lat="50.52148" lon="1.6298">
        <ele>6</ele>
        <time>2015-03-01T10:33:40Z</time>
      </trkpt>
      <trkpt lat="50.52151" lon="1.6297">
        <ele>6</ele>
        <time>2015-03-01T10:33:45Z</time>
      </trkpt>
      <trkpt lat="50.52154" lon="1.62956">
        <ele>6</ele>
        <time>2015-03-01T10:33:51Z</time>
      </trkpt>
      <trkpt lat="50.52159" lon="1.62952">
        <ele>6</ele>
        <time>2015-03-01T10:33:57Z</time>
      </trkpt>
      <trkpt lat="50.52164" lon="1.62945">
        <ele>6</ele>
        <time>2015-03-01T10:34:03Z</time>
      </trkpt>
      <trkpt lat="50.52168" lon="1.62936">
        <ele>7</ele>
        <time>2015-03-01T10:34:08Z</time>
      </trkpt>
      <trkpt lat="50.52173" lon="1.62934">
        <ele>7</ele>
        <time>2015-03-01T10:34:13Z</time>
      </trkpt>
      <trkpt lat="50.5218" lon="1.62934">
        <ele>7</ele>
        <time>2015-03-01T10:34:18Z</time>
      </trkpt>
      <trkpt lat="50.52185" lon="1.62924">
        <ele>7</ele>
        <time>2015-03-01T10:34:24Z</time>
      </trkpt>
      <trkpt lat="50.52194" lon="1.62927">
        <ele>7</ele>
        <time>2015-03-01T10:34:29Z</time>
      </trkpt>
      <trkpt lat="50.52199" lon="1.62931">
        <ele>7</ele>
        <time>2015-03-01T10:34:34Z</time>
      </trkpt>
      <trkpt lat="50.52204" lon="1.62932">
        <ele>7</ele>
        <time>2015-03-01T10:34:42Z</time>
      </trkpt>
      <trkpt lat="50.52184" lon="1.62915">
        <ele>6</ele>
        <time>2015-03-01T10:40:48Z</time>
      </trkpt>
      <trkpt lat="50.52193" lon="1.62917">
        <ele>7</ele>
        <time>2015-03-01T10:40:53Z</time>
      </trkpt>
      <trkpt lat="50.52203" lon="1.62926">
        <ele>7</ele>
        <time>2015-03-01T10:40:58Z</time>
      </trkpt>
      <trkpt lat="50.5221" lon="1.62931">
        <ele>7</ele>
        <time>2015-03-01T10:41:03Z</time>
      </trkpt>
      <trkpt lat="50.52216" lon="1.62935">
        <ele>7</ele>
        <time>2015-03-01T10:41:08Z</time>
      </trkpt>
      <trkpt lat="50.52227" lon="1.62941">
        <ele>8</ele>
        <time>2015-03-01T10:41:15Z</time>
      </trkpt>
      <trkpt lat="50.52234" lon="1.62943">
        <ele>8</ele>
        <time>2015-03-01T10:41:20Z</time>
      </trkpt>
      <trkpt lat="50.52231" lon="1.62978">
        <ele>8</ele>
        <time>2015-03-01T10:41:35Z</time>
      </trkpt>
      <trkpt lat="50.52253" lon="1.62979">
        <ele>9</ele>
        <time>2015-03-01T10:41:41Z</time>
      </trkpt>
      <trkpt lat="50.52258" lon="1.62984">
        <ele>9</ele>
        <time>2015-03-01T10:41:46Z</time>
      </trkpt>
      <trkpt lat="50.52261" lon="1.6299">
        <ele>9</ele>
        <time>2015-03-01T10:41:52Z</time>
      </trkpt>
      <trkpt lat="50.52264" lon="1.63002">
        <ele>9</ele>
        <time>2015-03-01T10:41:58Z</time>
      </trkpt>
      <trkpt lat="50.52267" lon="1.63012">
        <ele>9</ele>
        <time>2015-03-01T10:42:03Z</time>
      </trkpt>
      <trkpt lat="50.5227" lon="1.63022">
        <ele>9</ele>
        <time>2015-03-01T10:42:08Z</time>
      </trkpt>
      <trkpt lat="50.52273" lon="1.63032">
        <ele>10</ele>
        <time>2015-03-01T10:42:13Z</time>
      </trkpt>
      <trkpt lat="50.52279" lon="1.6304">
        <ele>10</ele>
        <time>2015-03-01T10:42:18Z</time>
      </trkpt>
      <trkpt lat="50.52282" lon="1.63049">
        <ele>10</ele>
        <time>2015-03-01T10:42:23Z</time>
      </trkpt>
      <trkpt lat="50.52283" lon="1.63058">
        <ele>10</ele>
        <time>2015-03-01T10:42:28Z</time>
      </trkpt>
      <trkpt lat="50.52286" lon="1.63066">
        <ele>10</ele>
        <time>2015-03-01T10:42:34Z</time>
      </trkpt>
      <trkpt lat="50.52288" lon="1.63076">
        <ele>10</ele>
        <time>2015-03-01T10:42:39Z</time>
      </trkpt>
      <trkpt lat="50.52287" lon="1.63085">
        <ele>10</ele>
        <time>2015-03-01T10:42:44Z</time>
      </trkpt>
      <trkpt lat="50.52286" lon="1.63094">
        <ele>10</ele>
        <time>2015-03-01T10:42:49Z</time>
      </trkpt>
      <trkpt lat="50.52282" lon="1.63103">
        <ele>10</ele>
        <time>2015-03-01T10:42:54Z</time>
      </trkpt>
      <trkpt lat="50.52277" lon="1.6311">
        <ele>10</ele>
        <time>2015-03-01T10:42:59Z</time>
      </trkpt>
      <trkpt lat="50.52271" lon="1.63122">
        <ele>10</ele>
        <time>2015-03-01T10:43:05Z</time>
      </trkpt>
      <trkpt lat="50.52269" lon="1.63131">
        <ele>10</ele>
        <time>2015-03-01T10:43:10Z</time>
      </trkpt>
      <trkpt lat="50.52269" lon="1.63141">
        <ele>11</ele>
        <time>2015-03-01T10:43:15Z</time>
      </trkpt>
      <trkpt lat="50.52269" lon="1.63151">
        <ele>11</ele>
        <time>2015-03-01T10:43:20Z</time>
      </trkpt>
      <trkpt lat="50.52271" lon="1.63161">
        <ele>11</ele>
        <time>2015-03-01T10:43:25Z</time>
      </trkpt>
      <trkpt lat="50.52273" lon="1.63171">
        <ele>11</ele>
        <time>2015-03-01T10:43:30Z</time>
      </trkpt>
      <trkpt lat="50.52276" lon="1.6318">
        <ele>11</ele>
        <time>2015-03-01T10:43:35Z</time>
      </trkpt>
      <trkpt lat="50.5228" lon="1.63189">
        <ele>12</ele>
        <time>2015-03-01T10:43:40Z</time>
      </trkpt>
      <trkpt lat="50.52283" lon="1.63199">
        <ele>12</ele>
        <time>2015-03-01T10:43:45Z</time>
      </trkpt>
      <trkpt lat="50.52285" lon="1.63209">
        <ele>12</ele>
        <time>2015-03-01T10:43:50Z</time>
      </trkpt>
      <trkpt lat="50.5229" lon="1.63219">
        <ele>12</ele>
        <time>2015-03-01T10:43:56Z</time>
      </trkpt>
      <trkpt lat="50.52293" lon="1.63227">
        <ele>12</ele>
        <time>2015-03-01T10:44:01Z</time>
      </trkpt>
      <trkpt lat="50.52298" lon="1.63236">
        <ele>12</ele>
        <time>2015-03-01T10:44:06Z</time>
      </trkpt>
      <trkpt lat="50.52301" lon="1.63246">
        <ele>12</ele>
        <time>2015-03-01T10:44:11Z</time>
      </trkpt>
      <trkpt lat="50.52301" lon="1.63255">
        <ele>13</ele>
        <time>2015-03-01T10:44:16Z</time>
      </trkpt>
      <trkpt lat="50.52304" lon="1.63263">
        <ele>13</ele>
        <time>2015-03-01T10:44:21Z</time>
      </trkpt>
      <trkpt lat="50.52306" lon="1.63271">
        <ele>13</ele>
        <time>2015-03-01T10:44:27Z</time>
      </trkpt>
      <trkpt lat="50.52313" lon="1.63278">
        <ele>13</ele>
        <time>2015-03-01T10:44:32Z</time>
      </trkpt>
      <trkpt lat="50.52318" lon="1.63286">
        <ele>13</ele>
        <time>2015-03-01T10:44:37Z</time>
      </trkpt>
      <trkpt lat="50.52324" lon="1.63293">
        <ele>14</ele>
        <time>2015-03-01T10:44:42Z</time>
      </trkpt>
      <trkpt lat="50.52326" lon="1.63298">
        <ele>14</ele>
        <time>2015-03-01T10:44:47Z</time>
      </trkpt>
      <trkpt lat="50.5233" lon="1.633">
        <ele>14</ele>
        <time>2015-03-01T10:44:54Z</time>
      </trkpt>
      <trkpt lat="50.52338" lon="1.63301">
        <ele>17</ele>
        <time>2015-03-01T10:45:01Z</time>
      </trkpt>
      <trkpt lat="50.52343" lon="1.63303">
        <ele>17</ele>
        <time>2015-03-01T10:45:06Z</time>
      </trkpt>
      <trkpt lat="50.52353" lon="1.6331">
        <ele>17</ele>
        <time>2015-03-01T10:45:12Z</time>
      </trkpt>
      <trkpt lat="50.52357" lon="1.63312">
        <ele>17</ele>
        <time>2015-03-01T10:45:17Z</time>
      </trkpt>
      <trkpt lat="50.52365" lon="1.63321">
        <ele>17</ele>
        <time>2015-03-01T10:45:26Z</time>
      </trkpt>
      <trkpt lat="50.52372" lon="1.63327">
        <ele>18</ele>
        <time>2015-03-01T10:45:33Z</time>
      </trkpt>
      <trkpt lat="50.5238" lon="1.6333">
        <ele>18</ele>
        <time>2015-03-01T10:45:41Z</time>
      </trkpt>
      <trkpt lat="50.5239" lon="1.63334">
        <ele>20</ele>
        <time>2015-03-01T10:45:47Z</time>
      </trkpt>
      <trkpt lat="50.52399" lon="1.63338">
        <ele>21</ele>
        <time>2015-03-01T10:45:52Z</time>
      </trkpt>
      <trkpt lat="50.52404" lon="1.63343">
        <ele>21</ele>
        <time>2015-03-01T10:45:57Z</time>
      </trkpt>
      <trkpt lat="50.52412" lon="1.63346">
        <ele>21</ele>
        <time>2015-03-01T10:46:04Z</time>
      </trkpt>
      <trkpt lat="50.52417" lon="1.63349">
        <ele>23</ele>
        <time>2015-03-01T10:46:09Z</time>
      </trkpt>
      <trkpt lat="50.5242" lon="1.63356">
        <ele>23</ele>
        <time>2015-03-01T10:46:16Z</time>
      </trkpt>
      <trkpt lat="50.5242" lon="1.6336">
        <ele>23</ele>
        <time>2015-03-01T10:46:23Z</time>
      </trkpt>
      <trkpt lat="50.52414" lon="1.63364">
        <ele>21</ele>
        <time>2015-03-01T10:46:28Z</time>
      </trkpt>
      <trkpt lat="50.52409" lon="1.63358">
        <ele>21</ele>
        <time>2015-03-01T10:46:33Z</time>
      </trkpt>
      <trkpt lat="50.52404" lon="1.63356">
        <ele>21</ele>
        <time>2015-03-01T10:46:40Z</time>
      </trkpt>
      <trkpt lat="50.52407" lon="1.63354">
        <ele>21</ele>
        <time>2015-03-01T10:46:45Z</time>
      </trkpt>
      <trkpt lat="50.52407" lon="1.63348">
        <ele>21</ele>
        <time>2015-03-01T10:46:50Z</time>
      </trkpt>
      <trkpt lat="50.52414" lon="1.63347">
        <ele>21</ele>
        <time>2015-03-01T10:46:55Z</time>
      </trkpt>
      <trkpt lat="50.52414" lon="1.6336">
        <ele>21</ele>
        <time>2015-03-01T10:47:01Z</time>
      </trkpt>
      <trkpt lat="50.52418" lon="1.63372">
        <ele>23</ele>
        <time>2015-03-01T10:47:06Z</time>
      </trkpt>
      <trkpt lat="50.5242" lon="1.63381">
        <ele>24</ele>
        <time>2015-03-01T10:47:14Z</time>
      </trkpt>
      <trkpt lat="50.52406" lon="1.63392">
        <ele>21</ele>
        <time>2015-03-01T10:47:19Z</time>
      </trkpt>
      <trkpt lat="50.52402" lon="1.634">
        <ele>21</ele>
        <time>2015-03-01T10:47:25Z</time>
      </trkpt>
      <trkpt lat="50.52401" lon="1.63408">
        <ele>22</ele>
        <time>2015-03-01T10:47:30Z</time>
      </trkpt>
      <trkpt lat="50.524" lon="1.63418">
        <ele>23</ele>
        <time>2015-03-01T10:47:35Z</time>
      </trkpt>
      <trkpt lat="50.52406" lon="1.63426">
        <ele>23</ele>
        <time>2015-03-01T10:47:41Z</time>
      </trkpt>
      <trkpt lat="50.52407" lon="1.63435">
        <ele>23</ele>
        <time>2015-03-01T10:47:46Z</time>
      </trkpt>
      <trkpt lat="50.52406" lon="1.63446">
        <ele>23</ele>
        <time>2015-03-01T10:47:51Z</time>
      </trkpt>
      <trkpt lat="50.52406" lon="1.63456">
        <ele>23</ele>
        <time>2015-03-01T10:47:56Z</time>
      </trkpt>
      <trkpt lat="50.52412" lon="1.63468">
        <ele>23</ele>
        <time>2015-03-01T10:48:02Z</time>
      </trkpt>
      <trkpt lat="50.52409" lon="1.63478">
        <ele>24</ele>
        <time>2015-03-01T10:48:08Z</time>
      </trkpt>
      <trkpt lat="50.52409" lon="1.6349">
        <ele>24</ele>
        <time>2015-03-01T10:48:14Z</time>
      </trkpt>
      <trkpt lat="50.52405" lon="1.63497">
        <ele>24</ele>
        <time>2015-03-01T10:48:19Z</time>
      </trkpt>
      <trkpt lat="50.524" lon="1.63501">
        <ele>25</ele>
        <time>2015-03-01T10:48:24Z</time>
      </trkpt>
      <trkpt lat="50.52404" lon="1.63507">
        <ele>25</ele>
        <time>2015-03-01T10:48:30Z</time>
      </trkpt>
      <trkpt lat="50.52405" lon="1.63513">
        <ele>25</ele>
        <time>2015-03-01T10:48:35Z</time>
      </trkpt>
      <trkpt lat="50.52407" lon="1.63524">
        <ele>25</ele>
        <time>2015-03-01T10:48:40Z</time>
      </trkpt>
      <trkpt lat="50.52409" lon="1.63532">
        <ele>25</ele>
        <time>2015-03-01T10:48:45Z</time>
      </trkpt>
      <trkpt lat="50.52413" lon="1.63543">
        <ele>25</ele>
        <time>2015-03-01T10:48:50Z</time>
      </trkpt>
      <trkpt lat="50.52417" lon="1.63549">
        <ele>25</ele>
        <time>2015-03-01T10:48:55Z</time>
      </trkpt>
      <trkpt lat="50.52422" lon="1.63548">
        <ele>28</ele>
        <time>2015-03-01T10:49:01Z</time>
      </trkpt>
      <trkpt lat="50.52429" lon="1.63557">
        <ele>28</ele>
        <time>2015-03-01T10:49:06Z</time>
      </trkpt>
      <trkpt lat="50.52431" lon="1.63564">
        <ele>28</ele>
        <time>2015-03-01T10:49:12Z</time>
      </trkpt>
      <trkpt lat="50.52435" lon="1.63571">
        <ele>28</ele>
        <time>2015-03-01T10:49:18Z</time>
      </trkpt>
      <trkpt lat="50.52438" lon="1.63572">
        <ele>28</ele>
        <time>2015-03-01T10:49:24Z</time>
      </trkpt>
      <trkpt lat="50.52444" lon="1.63575">
        <ele>29</ele>
        <time>2015-03-01T10:49:31Z</time>
      </trkpt>
      <trkpt lat="50.52449" lon="1.63576">
        <ele>29</ele>
        <time>2015-03-01T10:49:37Z</time>
      </trkpt>
      <trkpt lat="50.52454" lon="1.63575">
        <ele>29</ele>
        <time>2015-03-01T10:49:42Z</time>
      </trkpt>
      <trkpt lat="50.52459" lon="1.63569">
        <ele>29</ele>
        <time>2015-03-01T10:49:47Z</time>
      </trkpt>
      <trkpt lat="50.52468" lon="1.63563">
        <ele>30</ele>
        <time>2015-03-01T10:49:52Z</time>
      </trkpt>
      <trkpt lat="50.52473" lon="1.63562">
        <ele>30</ele>
        <time>2015-03-01T10:49:57Z</time>
      </trkpt>
      <trkpt lat="50.52482" lon="1.63572">
        <ele>31</ele>
        <time>2015-03-01T10:50:03Z</time>
      </trkpt>
      <trkpt lat="50.52483" lon="1.63583">
        <ele>31</ele>
        <time>2015-03-01T10:50:08Z</time>
      </trkpt>
      <trkpt lat="50.52481" lon="1.63595">
        <ele>32</ele>
        <time>2015-03-01T10:50:13Z</time>
      </trkpt>
      <trkpt lat="50.52482" lon="1.63603">
        <ele>32</ele>
        <time>2015-03-01T10:50:18Z</time>
      </trkpt>
      <trkpt lat="50.52482" lon="1.63613">
        <ele>32</ele>
        <time>2015-03-01T10:50:23Z</time>
      </trkpt>
      <trkpt lat="50.52484" lon="1.6362">
        <ele>32</ele>
        <time>2015-03-01T10:50:28Z</time>
      </trkpt>
      <trkpt lat="50.52487" lon="1.63624">
        <ele>33</ele>
        <time>2015-03-01T10:50:33Z</time>
      </trkpt>
      <trkpt lat="50.52495" lon="1.63627">
        <ele>33</ele>
        <time>2015-03-01T10:50:39Z</time>
      </trkpt>
      <trkpt lat="50.525" lon="1.63634">
        <ele>33</ele>
        <time>2015-03-01T10:50:46Z</time>
      </trkpt>
      <trkpt lat="50.52507" lon="1.63637">
        <ele>36</ele>
        <time>2015-03-01T10:50:51Z</time>
      </trkpt>
      <trkpt lat="50.52514" lon="1.63637">
        <ele>36</ele>
        <time>2015-03-01T10:50:58Z</time>
      </trkpt>
      <trkpt lat="50.52518" lon="1.63645">
        <ele>36</ele>
        <time>2015-03-01T10:51:04Z</time>
      </trkpt>
      <trkpt lat="50.5252" lon="1.63656">
        <ele>36</ele>
        <time>2015-03-01T10:51:09Z</time>
      </trkpt>
      <trkpt lat="50.52518" lon="1.63666">
        <ele>36</ele>
        <time>2015-03-01T10:51:14Z</time>
      </trkpt>
      <trkpt lat="50.52521" lon="1.63676">
        <ele>39</ele>
        <time>2015-03-01T10:51:19Z</time>
      </trkpt>
      <trkpt lat="50.52523" lon="1.6368">
        <ele>39</ele>
        <time>2015-03-01T10:51:25Z</time>
      </trkpt>
      <trkpt lat="50.52526" lon="1.63684">
        <ele>39</ele>
        <time>2015-03-01T10:51:30Z</time>
      </trkpt>
      <trkpt lat="50.52529" lon="1.6369">
        <ele>39</ele>
        <time>2015-03-01T10:51:35Z</time>
      </trkpt>
      <trkpt lat="50.52534" lon="1.63695">
        <ele>39</ele>
        <time>2015-03-01T10:51:41Z</time>
      </trkpt>
      <trkpt lat="50.52539" lon="1.63705">
        <ele>40</ele>
        <time>2015-03-01T10:51:47Z</time>
      </trkpt>
      <trkpt lat="50.52541" lon="1.63711">
        <ele>40</ele>
        <time>2015-03-01T10:51:53Z</time>
      </trkpt>
      <trkpt lat="50.52546" lon="1.6372">
        <ele>40</ele>
        <time>2015-03-01T10:51:58Z</time>
      </trkpt>
      <trkpt lat="50.52549" lon="1.63728">
        <ele>40</ele>
        <time>2015-03-01T10:52:03Z</time>
      </trkpt>
      <trkpt lat="50.52551" lon="1.63737">
        <ele>41</ele>
        <time>2015-03-01T10:52:08Z</time>
      </trkpt>
      <trkpt lat="50.52554" lon="1.63745">
        <ele>41</ele>
        <time>2015-03-01T10:52:14Z</time>
      </trkpt>
      <trkpt lat="50.52556" lon="1.63755">
        <ele>44</ele>
        <time>2015-03-01T10:52:19Z</time>
      </trkpt>
      <trkpt lat="50.52556" lon="1.63764">
        <ele>44</ele>
        <time>2015-03-01T10:52:24Z</time>
      </trkpt>
      <trkpt lat="50.5256" lon="1.6377">
        <ele>44</ele>
        <time>2015-03-01T10:52:29Z</time>
      </trkpt>
      <trkpt lat="50.52562" lon="1.63778">
        <ele>44</ele>
        <time>2015-03-01T10:52:35Z</time>
      </trkpt>
      <trkpt lat="50.52563" lon="1.63786">
        <ele>45</ele>
        <time>2015-03-01T10:52:40Z</time>
      </trkpt>
      <trkpt lat="50.52563" lon="1.63798">
        <ele>45</ele>
        <time>2015-03-01T10:52:46Z</time>
      </trkpt>
      <trkpt lat="50.52568" lon="1.63801">
        <ele>45</ele>
        <time>2015-03-01T10:52:51Z</time>
      </trkpt>
      <trkpt lat="50.52573" lon="1.63807">
        <ele>46</ele>
        <time>2015-03-01T10:52:57Z</time>
      </trkpt>
      <trkpt lat="50.52578" lon="1.63811">
        <ele>47</ele>
        <time>2015-03-01T10:53:02Z</time>
      </trkpt>
      <trkpt lat="50.5258" lon="1.63815">
        <ele>47</ele>
        <time>2015-03-01T10:53:07Z</time>
      </trkpt>
      <trkpt lat="50.52584" lon="1.63822">
        <ele>48</ele>
        <time>2015-03-01T10:53:12Z</time>
      </trkpt>
      <trkpt lat="50.5259" lon="1.63825">
        <ele>48</ele>
        <time>2015-03-01T10:53:17Z</time>
      </trkpt>
      <trkpt lat="50.52594" lon="1.63833">
        <ele>49</ele>
        <time>2015-03-01T10:53:22Z</time>
      </trkpt>
      <trkpt lat="50.52594" lon="1.6384">
        <ele>50</ele>
        <time>2015-03-01T10:53:28Z</time>
      </trkpt>
      <trkpt lat="50.52593" lon="1.63847">
        <ele>50</ele>
        <time>2015-03-01T10:53:33Z</time>
      </trkpt>
      <trkpt lat="50.52595" lon="1.63853">
        <ele>50</ele>
        <time>2015-03-01T10:53:40Z</time>
      </trkpt>
      <trkpt lat="50.52604" lon="1.63856">
        <ele>50</ele>
        <time>2015-03-01T10:53:49Z</time>
      </trkpt>
      <trkpt lat="50.52611" lon="1.63857">
        <ele>50</ele>
        <time>2015-03-01T10:53:55Z</time>
      </trkpt>
      <trkpt lat="50.52617" lon="1.63857">
        <ele>50</ele>
        <time>2015-03-01T10:54:00Z</time>
      </trkpt>
      <trkpt lat="50.52624" lon="1.63856">
        <ele>50</ele>
        <time>2015-03-01T10:54:05Z</time>
      </trkpt>
      <trkpt lat="50.52631" lon="1.63856">
        <ele>50</ele>
        <time>2015-03-01T10:54:10Z</time>
      </trkpt>
      <trkpt lat="50.52638" lon="1.63855">
        <ele>50</ele>
        <time>2015-03-01T10:54:16Z</time>
      </trkpt>
      <trkpt lat="50.52643" lon="1.63854">
        <ele>50</ele>
        <time>2015-03-01T10:54:21Z</time>
      </trkpt>
      <trkpt lat="50.52649" lon="1.63854">
        <ele>49</ele>
        <time>2015-03-01T10:54:26Z</time>
      </trkpt>
      <trkpt lat="50.52655" lon="1.63854">
        <ele>49</ele>
        <time>2015-03-01T10:54:31Z</time>
      </trkpt>
      <trkpt lat="50.52661" lon="1.63854">
        <ele>49</ele>
        <time>2015-03-01T10:54:36Z</time>
      </trkpt>
      <trkpt lat="50.52668" lon="1.63855">
        <ele>48</ele>
        <time>2015-03-01T10:54:41Z</time>
      </trkpt>
      <trkpt lat="50.52676" lon="1.63855">
        <ele>48</ele>
        <time>2015-03-01T10:54:47Z</time>
      </trkpt>
      <trkpt lat="50.52682" lon="1.63856">
        <ele>48</ele>
        <time>2015-03-01T10:54:52Z</time>
      </trkpt>
      <trkpt lat="50.52689" lon="1.63856">
        <ele>48</ele>
        <time>2015-03-01T10:54:58Z</time>
      </trkpt>
      <trkpt lat="50.52696" lon="1.63855">
        <ele>48</ele>
        <time>2015-03-01T10:55:03Z</time>
      </trkpt>
      <trkpt lat="50.52703" lon="1.63855">
        <ele>48</ele>
        <time>2015-03-01T10:55:09Z</time>
      </trkpt>
      <trkpt lat="50.52707" lon="1.63854">
        <ele>48</ele>
        <time>2015-03-01T10:55:14Z</time>
      </trkpt>
      <trkpt lat="50.52714" lon="1.63855">
        <ele>48</ele>
        <time>2015-03-01T10:55:19Z</time>
      </trkpt>
      <trkpt lat="50.52723" lon="1.63855">
        <ele>48</ele>
        <time>2015-03-01T10:55:25Z</time>
      </trkpt>
      <trkpt lat="50.52731" lon="1.63855">
        <ele>48</ele>
        <time>2015-03-01T10:55:30Z</time>
      </trkpt>
      <trkpt lat="50.52739" lon="1.63855">
        <ele>48</ele>
        <time>2015-03-01T10:55:36Z</time>
      </trkpt>
      <trkpt lat="50.52748" lon="1.63857">
        <ele>48</ele>
        <time>2015-03-01T10:55:41Z</time>
      </trkpt>
      <trkpt lat="50.52756" lon="1.63858">
        <ele>48</ele>
        <time>2015-03-01T10:55:46Z</time>
      </trkpt>
      <trkpt lat="50.52763" lon="1.63859">
        <ele>48</ele>
        <time>2015-03-01T10:55:51Z</time>
      </trkpt>
      <trkpt lat="50.5277" lon="1.63859">
        <ele>48</ele>
        <time>2015-03-01T10:55:57Z</time>
      </trkpt>
      <trkpt lat="50.52775" lon="1.63863">
        <ele>48</ele>
        <time>2015-03-01T10:56:02Z</time>
      </trkpt>
      <trkpt lat="50.52781" lon="1.63866">
        <ele>48</ele>
        <time>2015-03-01T10:56:07Z</time>
      </trkpt>
      <trkpt lat="50.52787" lon="1.63868">
        <ele>48</ele>
        <time>2015-03-01T10:56:12Z</time>
      </trkpt>
      <trkpt lat="50.52796" lon="1.63869">
        <ele>48</ele>
        <time>2015-03-01T10:56:17Z</time>
      </trkpt>
      <trkpt lat="50.52804" lon="1.63871">
        <ele>48</ele>
        <time>2015-03-01T10:56:23Z</time>
      </trkpt>
      <trkpt lat="50.52811" lon="1.63871">
        <ele>48</ele>
        <time>2015-03-01T10:56:28Z</time>
      </trkpt>
      <trkpt lat="50.52818" lon="1.63872">
        <ele>48</ele>
        <time>2015-03-01T10:56:33Z</time>
      </trkpt>
      <trkpt lat="50.52825" lon="1.63872">
        <ele>48</ele>
        <time>2015-03-01T10:56:38Z</time>
      </trkpt>
      <trkpt lat="50.52831" lon="1.63875">
        <ele>48</ele>
        <time>2015-03-01T10:56:43Z</time>
      </trkpt>
      <trkpt lat="50.52836" lon="1.63876">
        <ele>48</ele>
        <time>2015-03-01T10:56:48Z</time>
      </trkpt>
      <trkpt lat="50.52842" lon="1.63878">
        <ele>48</ele>
        <time>2015-03-01T10:56:54Z</time>
      </trkpt>
      <trkpt lat="50.5285" lon="1.63879">
        <ele>48</ele>
        <time>2015-03-01T10:56:59Z</time>
      </trkpt>
      <trkpt lat="50.52858" lon="1.63881">
        <ele>48</ele>
        <time>2015-03-01T10:57:05Z</time>
      </trkpt>
      <trkpt lat="50.52864" lon="1.63882">
        <ele>48</ele>
        <time>2015-03-01T10:57:10Z</time>
      </trkpt>
      <trkpt lat="50.52873" lon="1.63885">
        <ele>48</ele>
        <time>2015-03-01T10:57:16Z</time>
      </trkpt>
      <trkpt lat="50.5288" lon="1.63888">
        <ele>48</ele>
        <time>2015-03-01T10:57:22Z</time>
      </trkpt>
      <trkpt lat="50.52886" lon="1.6389">
        <ele>47</ele>
        <time>2015-03-01T10:57:28Z</time>
      </trkpt>
      <trkpt lat="50.52892" lon="1.63893">
        <ele>47</ele>
        <time>2015-03-01T10:57:33Z</time>
      </trkpt>
      <trkpt lat="50.52899" lon="1.63894">
        <ele>47</ele>
        <time>2015-03-01T10:57:38Z</time>
      </trkpt>
      <trkpt lat="50.52908" lon="1.63893">
        <ele>47</ele>
        <time>2015-03-01T10:57:43Z</time>
      </trkpt>
      <trkpt lat="50.52913" lon="1.63893">
        <ele>47</ele>
        <time>2015-03-01T10:57:48Z</time>
      </trkpt>
      <trkpt lat="50.52919" lon="1.63894">
        <ele>47</ele>
        <time>2015-03-01T10:57:54Z</time>
      </trkpt>
      <trkpt lat="50.52925" lon="1.63895">
        <ele>47</ele>
        <time>2015-03-01T10:57:59Z</time>
      </trkpt>
      <trkpt lat="50.5293" lon="1.63897">
        <ele>47</ele>
        <time>2015-03-01T10:58:04Z</time>
      </trkpt>
      <trkpt lat="50.52935" lon="1.63898">
        <ele>46</ele>
        <time>2015-03-01T10:58:09Z</time>
      </trkpt>
      <trkpt lat="50.52941" lon="1.63899">
        <ele>46</ele>
        <time>2015-03-01T10:58:15Z</time>
      </trkpt>
      <trkpt lat="50.52947" lon="1.63901">
        <ele>46</ele>
        <time>2015-03-01T10:58:21Z</time>
      </trkpt>
      <trkpt lat="50.52953" lon="1.63902">
        <ele>46</ele>
        <time>2015-03-01T10:58:26Z</time>
      </trkpt>
      <trkpt lat="50.52959" lon="1.63904">
        <ele>46</ele>
        <time>2015-03-01T10:58:31Z</time>
      </trkpt>
      <trkpt lat="50.52965" lon="1.63906">
        <ele>46</ele>
        <time>2015-03-01T10:58:36Z</time>
      </trkpt>
      <trkpt lat="50.52971" lon="1.6391">
        <ele>46</ele>
        <time>2015-03-01T10:58:41Z</time>
      </trkpt>
      <trkpt lat="50.52979" lon="1.6391">
        <ele>46</ele>
        <time>2015-03-01T10:58:50Z</time>
      </trkpt>
      <trkpt lat="50.52984" lon="1.63911">
        <ele>46</ele>
        <time>2015-03-01T10:58:56Z</time>
      </trkpt>
      <trkpt lat="50.5299" lon="1.63914">
        <ele>46</ele>
        <time>2015-03-01T10:59:02Z</time>
      </trkpt>
      <trkpt lat="50.52996" lon="1.63915">
        <ele>46</ele>
        <time>2015-03-01T10:59:07Z</time>
      </trkpt>
      <trkpt lat="50.53002" lon="1.63917">
        <ele>46</ele>
        <time>2015-03-01T10:59:12Z</time>
      </trkpt>
      <trkpt lat="50.53011" lon="1.63919">
        <ele>46</ele>
        <time>2015-03-01T10:59:17Z</time>
      </trkpt>
      <trkpt lat="50.53019" lon="1.6392">
        <ele>46</ele>
        <time>2015-03-01T10:59:22Z</time>
      </trkpt>
      <trkpt lat="50.53024" lon="1.63921">
        <ele>46</ele>
        <time>2015-03-01T10:59:27Z</time>
      </trkpt>
      <trkpt lat="50.5303" lon="1.63925">
        <ele>46</ele>
        <time>2015-03-01T10:59:33Z</time>
      </trkpt>
      <trkpt lat="50.53036" lon="1.63926">
        <ele>46</ele>
        <time>2015-03-01T10:59:38Z</time>
      </trkpt>
      <trkpt lat="50.53046" lon="1.63926">
        <ele>47</ele>
        <time>2015-03-01T10:59:43Z</time>
      </trkpt>
      <trkpt lat="50.53056" lon="1.63926">
        <ele>47</ele>
        <time>2015-03-01T10:59:48Z</time>
      </trkpt>
      <trkpt lat="50.53061" lon="1.63927">
        <ele>47</ele>
        <time>2015-03-01T10:59:54Z</time>
      </trkpt>
      <trkpt lat="50.53066" lon="1.63929">
        <ele>47</ele>
        <time>2015-03-01T10:59:59Z</time>
      </trkpt>
      <trkpt lat="50.53073" lon="1.63933">
        <ele>47</ele>
        <time>2015-03-01T11:00:04Z</time>
      </trkpt>
      <trkpt lat="50.53082" lon="1.63933">
        <ele>47</ele>
        <time>2015-03-01T11:00:09Z</time>
      </trkpt>
      <trkpt lat="50.53087" lon="1.63933">
        <ele>47</ele>
        <time>2015-03-01T11:00:16Z</time>
      </trkpt>
      <trkpt lat="50.53093" lon="1.63934">
        <ele>47</ele>
        <time>2015-03-01T11:00:23Z</time>
      </trkpt>
      <trkpt lat="50.53098" lon="1.63936">
        <ele>47</ele>
        <time>2015-03-01T11:00:28Z</time>
      </trkpt>
      <trkpt lat="50.53103" lon="1.63938">
        <ele>47</ele>
        <time>2015-03-01T11:00:33Z</time>
      </trkpt>
      <trkpt lat="50.53111" lon="1.63939">
        <ele>47</ele>
        <time>2015-03-01T11:00:39Z</time>
      </trkpt>
      <trkpt lat="50.53116" lon="1.63942">
        <ele>46</ele>
        <time>2015-03-01T11:00:44Z</time>
      </trkpt>
      <trkpt lat="50.53122" lon="1.63944">
        <ele>46</ele>
        <time>2015-03-01T11:00:49Z</time>
      </trkpt>
      <trkpt lat="50.53128" lon="1.63949">
        <ele>46</ele>
        <time>2015-03-01T11:00:54Z</time>
      </trkpt>
      <trkpt lat="50.53138" lon="1.63953">
        <ele>46</ele>
        <time>2015-03-01T11:00:59Z</time>
      </trkpt>
      <trkpt lat="50.53143" lon="1.63959">
        <ele>46</ele>
        <time>2015-03-01T11:01:05Z</time>
      </trkpt>
      <trkpt lat="50.53151" lon="1.63964">
        <ele>46</ele>
        <time>2015-03-01T11:01:10Z</time>
      </trkpt>
      <trkpt lat="50.53155" lon="1.6397">
        <ele>45</ele>
        <time>2015-03-01T11:01:15Z</time>
      </trkpt>
      <trkpt lat="50.53158" lon="1.63977">
        <ele>45</ele>
        <time>2015-03-01T11:01:20Z</time>
      </trkpt>
      <trkpt lat="50.53159" lon="1.63985">
        <ele>45</ele>
        <time>2015-03-01T11:01:25Z</time>
      </trkpt>
      <trkpt lat="50.53166" lon="1.63992">
        <ele>44</ele>
        <time>2015-03-01T11:01:30Z</time>
      </trkpt>
      <trkpt lat="50.53171" lon="1.63998">
        <ele>43</ele>
        <time>2015-03-01T11:01:36Z</time>
      </trkpt>
      <trkpt lat="50.53176" lon="1.64005">
        <ele>42</ele>
        <time>2015-03-01T11:01:42Z</time>
      </trkpt>
      <trkpt lat="50.53183" lon="1.64011">
        <ele>42</ele>
        <time>2015-03-01T11:01:47Z</time>
      </trkpt>
      <trkpt lat="50.53192" lon="1.64017">
        <ele>42</ele>
        <time>2015-03-01T11:01:52Z</time>
      </trkpt>
      <trkpt lat="50.532" lon="1.64023">
        <ele>42</ele>
        <time>2015-03-01T11:01:58Z</time>
      </trkpt>
      <trkpt lat="50.53204" lon="1.6403">
        <ele>42</ele>
        <time>2015-03-01T11:02:03Z</time>
      </trkpt>
      <trkpt lat="50.53207" lon="1.64037">
        <ele>41</ele>
        <time>2015-03-01T11:02:09Z</time>
      </trkpt>
      <trkpt lat="50.53212" lon="1.64045">
        <ele>41</ele>
        <time>2015-03-01T11:02:14Z</time>
      </trkpt>
      <trkpt lat="50.5322" lon="1.64051">
        <ele>41</ele>
        <time>2015-03-01T11:02:19Z</time>
      </trkpt>
      <trkpt lat="50.53226" lon="1.64059">
        <ele>41</ele>
        <time>2015-03-01T11:02:24Z</time>
      </trkpt>
      <trkpt lat="50.53233" lon="1.64064">
        <ele>41</ele>
        <time>2015-03-01T11:02:29Z</time>
      </trkpt>
      <trkpt lat="50.53239" lon="1.6407">
        <ele>41</ele>
        <time>2015-03-01T11:02:35Z</time>
      </trkpt>
      <trkpt lat="50.53246" lon="1.64072">
        <ele>41</ele>
        <time>2015-03-01T11:02:40Z</time>
      </trkpt>
      <trkpt lat="50.53248" lon="1.64075">
        <ele>40</ele>
        <time>2015-03-01T11:02:45Z</time>
      </trkpt>
      <trkpt lat="50.53251" lon="1.64081">
        <ele>40</ele>
        <time>2015-03-01T11:02:51Z</time>
      </trkpt>
      <trkpt lat="50.5326" lon="1.64084">
        <ele>40</ele>
        <time>2015-03-01T11:02:57Z</time>
      </trkpt>
      <trkpt lat="50.53266" lon="1.64089">
        <ele>40</ele>
        <time>2015-03-01T11:03:02Z</time>
      </trkpt>
      <trkpt lat="50.5327" lon="1.64088">
        <ele>40</ele>
        <time>2015-03-01T11:03:08Z</time>
      </trkpt>
      <trkpt lat="50.53277" lon="1.64091">
        <ele>40</ele>
        <time>2015-03-01T11:03:13Z</time>
      </trkpt>
      <trkpt lat="50.53289" lon="1.64093">
        <ele>40</ele>
        <time>2015-03-01T11:03:18Z</time>
      </trkpt>
      <trkpt lat="50.53296" lon="1.64097">
        <ele>40</ele>
        <time>2015-03-01T11:03:25Z</time>
      </trkpt>
      <trkpt lat="50.53303" lon="1.64098">
        <ele>40</ele>
        <time>2015-03-01T11:03:30Z</time>
      </trkpt>
      <trkpt lat="50.53312" lon="1.64101">
        <ele>40</ele>
        <time>2015-03-01T11:03:35Z</time>
      </trkpt>
      <trkpt lat="50.53315" lon="1.64106">
        <ele>40</ele>
        <time>2015-03-01T11:03:40Z</time>
      </trkpt>
      <trkpt lat="50.5332" lon="1.64111">
        <ele>40</ele>
        <time>2015-03-01T11:03:45Z</time>
      </trkpt>
      <trkpt lat="50.53326" lon="1.64111">
        <ele>40</ele>
        <time>2015-03-01T11:03:50Z</time>
      </trkpt>
      <trkpt lat="50.53329" lon="1.64111">
        <ele>40</ele>
        <time>2015-03-01T11:03:55Z</time>
      </trkpt>
      <trkpt lat="50.53334" lon="1.64114">
        <ele>40</ele>
        <time>2015-03-01T11:04:01Z</time>
      </trkpt>
      <trkpt lat="50.5334" lon="1.64119">
        <ele>40</ele>
        <time>2015-03-01T11:04:06Z</time>
      </trkpt>
      <trkpt lat="50.53347" lon="1.6412">
        <ele>40</ele>
        <time>2015-03-01T11:04:11Z</time>
      </trkpt>
      <trkpt lat="50.53356" lon="1.64122">
        <ele>40</ele>
        <time>2015-03-01T11:04:17Z</time>
      </trkpt>
      <trkpt lat="50.53362" lon="1.64125">
        <ele>39</ele>
        <time>2015-03-01T11:04:22Z</time>
      </trkpt>
      <trkpt lat="50.53367" lon="1.64126">
        <ele>39</ele>
        <time>2015-03-01T11:04:27Z</time>
      </trkpt>
      <trkpt lat="50.53373" lon="1.64129">
        <ele>39</ele>
        <time>2015-03-01T11:04:32Z</time>
      </trkpt>
      <trkpt lat="50.53384" lon="1.64128">
        <ele>39</ele>
        <time>2015-03-01T11:04:37Z</time>
      </trkpt>
      <trkpt lat="50.53389" lon="1.64132">
        <ele>39</ele>
        <time>2015-03-01T11:04:43Z</time>
      </trkpt>
      <trkpt lat="50.53398" lon="1.64136">
        <ele>39</ele>
        <time>2015-03-01T11:04:49Z</time>
      </trkpt>
      <trkpt lat="50.53406" lon="1.64138">
        <ele>39</ele>
        <time>2015-03-01T11:04:54Z</time>
      </trkpt>
      <trkpt lat="50.53413" lon="1.64141">
        <ele>38</ele>
        <time>2015-03-01T11:04:59Z</time>
      </trkpt>
      <trkpt lat="50.53421" lon="1.64143">
        <ele>38</ele>
        <time>2015-03-01T11:05:04Z</time>
      </trkpt>
      <trkpt lat="50.53426" lon="1.64147">
        <ele>37</ele>
        <time>2015-03-01T11:05:09Z</time>
      </trkpt>
      <trkpt lat="50.53434" lon="1.64149">
        <ele>38</ele>
        <time>2015-03-01T11:05:15Z</time>
      </trkpt>
      <trkpt lat="50.53442" lon="1.64151">
        <ele>38</ele>
        <time>2015-03-01T11:05:20Z</time>
      </trkpt>
      <trkpt lat="50.53449" lon="1.64157">
        <ele>37</ele>
        <time>2015-03-01T11:05:25Z</time>
      </trkpt>
      <trkpt lat="50.53454" lon="1.64161">
        <ele>37</ele>
        <time>2015-03-01T11:05:30Z</time>
      </trkpt>
      <trkpt lat="50.5346" lon="1.64166">
        <ele>37</ele>
        <time>2015-03-01T11:05:35Z</time>
      </trkpt>
      <trkpt lat="50.53466" lon="1.64169">
        <ele>39</ele>
        <time>2015-03-01T11:05:40Z</time>
      </trkpt>
      <trkpt lat="50.53474" lon="1.64171">
        <ele>39</ele>
        <time>2015-03-01T11:05:45Z</time>
      </trkpt>
      <trkpt lat="50.53481" lon="1.64174">
        <ele>39</ele>
        <time>2015-03-01T11:05:50Z</time>
      </trkpt>
      <trkpt lat="50.53485" lon="1.64176">
        <ele>38</ele>
        <time>2015-03-01T11:05:55Z</time>
      </trkpt>
      <trkpt lat="50.53492" lon="1.64179">
        <ele>38</ele>
        <time>2015-03-01T11:06:03Z</time>
      </trkpt>
      <trkpt lat="50.53498" lon="1.64182">
        <ele>38</ele>
        <time>2015-03-01T11:06:09Z</time>
      </trkpt>
      <trkpt lat="50.53502" lon="1.64185">
        <ele>40</ele>
        <time>2015-03-01T11:06:15Z</time>
      </trkpt>
      <trkpt lat="50.5351" lon="1.6419">
        <ele>40</ele>
        <time>2015-03-01T11:06:21Z</time>
      </trkpt>
      <trkpt lat="50.53515" lon="1.64194">
        <ele>41</ele>
        <time>2015-03-01T11:06:27Z</time>
      </trkpt>
      <trkpt lat="50.53522" lon="1.64195">
        <ele>41</ele>
        <time>2015-03-01T11:06:32Z</time>
      </trkpt>
      <trkpt lat="50.53533" lon="1.64198">
        <ele>41</ele>
        <time>2015-03-01T11:06:37Z</time>
      </trkpt>
      <trkpt lat="50.53538" lon="1.64204">
        <ele>42</ele>
        <time>2015-03-01T11:06:42Z</time>
      </trkpt>
      <trkpt lat="50.53546" lon="1.64209">
        <ele>42</ele>
        <time>2015-03-01T11:06:49Z</time>
      </trkpt>
      <trkpt lat="50.53551" lon="1.64214">
        <ele>42</ele>
        <time>2015-03-01T11:06:55Z</time>
      </trkpt>
      <trkpt lat="50.53557" lon="1.64219">
        <ele>43</ele>
        <time>2015-03-01T11:07:00Z</time>
      </trkpt>
      <trkpt lat="50.5356" lon="1.64218">
        <ele>43</ele>
        <time>2015-03-01T11:07:05Z</time>
      </trkpt>
      <trkpt lat="50.53565" lon="1.64221">
        <ele>43</ele>
        <time>2015-03-01T11:07:10Z</time>
      </trkpt>
      <trkpt lat="50.5357" lon="1.64226">
        <ele>44</ele>
        <time>2015-03-01T11:07:15Z</time>
      </trkpt>
      <trkpt lat="50.53578" lon="1.64227">
        <ele>44</ele>
        <time>2015-03-01T11:07:21Z</time>
      </trkpt>
      <trkpt lat="50.53585" lon="1.64232">
        <ele>46</ele>
        <time>2015-03-01T11:07:26Z</time>
      </trkpt>
      <trkpt lat="50.53591" lon="1.64236">
        <ele>46</ele>
        <time>2015-03-01T11:07:31Z</time>
      </trkpt>
      <trkpt lat="50.53599" lon="1.64238">
        <ele>46</ele>
        <time>2015-03-01T11:07:36Z</time>
      </trkpt>
      <trkpt lat="50.53604" lon="1.64241">
        <ele>46</ele>
        <time>2015-03-01T11:07:41Z</time>
      </trkpt>
      <trkpt lat="50.53611" lon="1.64243">
        <ele>46</ele>
        <time>2015-03-01T11:07:46Z</time>
      </trkpt>
      <trkpt lat="50.5362" lon="1.64246">
        <ele>46</ele>
        <time>2015-03-01T11:07:51Z</time>
      </trkpt>
      <trkpt lat="50.53625" lon="1.64251">
        <ele>50</ele>
        <time>2015-03-01T11:07:57Z</time>
      </trkpt>
      <trkpt lat="50.53629" lon="1.64255">
        <ele>50</ele>
        <time>2015-03-01T11:08:03Z</time>
      </trkpt>
      <trkpt lat="50.53636" lon="1.64262">
        <ele>50</ele>
        <time>2015-03-01T11:08:08Z</time>
      </trkpt>
      <trkpt lat="50.53643" lon="1.64265">
        <ele>50</ele>
        <time>2015-03-01T11:08:13Z</time>
      </trkpt>
      <trkpt lat="50.53651" lon="1.64267">
        <ele>50</ele>
        <time>2015-03-01T11:08:18Z</time>
      </trkpt>
      <trkpt lat="50.53654" lon="1.64267">
        <ele>50</ele>
        <time>2015-03-01T11:08:23Z</time>
      </trkpt>
      <trkpt lat="50.53659" lon="1.64273">
        <ele>50</ele>
        <time>2015-03-01T11:08:28Z</time>
      </trkpt>
      <trkpt lat="50.53668" lon="1.64277">
        <ele>49</ele>
        <time>2015-03-01T11:08:33Z</time>
      </trkpt>
      <trkpt lat="50.53675" lon="1.6428">
        <ele>49</ele>
        <time>2015-03-01T11:08:38Z</time>
      </trkpt>
      <trkpt lat="50.53687" lon="1.64283">
        <ele>48</ele>
        <time>2015-03-01T11:08:43Z</time>
      </trkpt>
      <trkpt lat="50.53692" lon="1.64285">
        <ele>48</ele>
        <time>2015-03-01T11:08:48Z</time>
      </trkpt>
      <trkpt lat="50.53699" lon="1.64286">
        <ele>48</ele>
        <time>2015-03-01T11:08:53Z</time>
      </trkpt>
      <trkpt lat="50.53707" lon="1.64288">
        <ele>48</ele>
        <time>2015-03-01T11:08:59Z</time>
      </trkpt>
      <trkpt lat="50.53711" lon="1.64291">
        <ele>48</ele>
        <time>2015-03-01T11:09:05Z</time>
      </trkpt>
      <trkpt lat="50.53717" lon="1.64296">
        <ele>48</ele>
        <time>2015-03-01T11:09:11Z</time>
      </trkpt>
      <trkpt lat="50.5372" lon="1.64302">
        <ele>48</ele>
        <time>2015-03-01T11:09:17Z</time>
      </trkpt>
      <trkpt lat="50.53725" lon="1.64308">
        <ele>48</ele>
        <time>2015-03-01T11:09:23Z</time>
      </trkpt>
      <trkpt lat="50.53729" lon="1.64313">
        <ele>48</ele>
        <time>2015-03-01T11:09:28Z</time>
      </trkpt>
      <trkpt lat="50.53736" lon="1.64313">
        <ele>47</ele>
        <time>2015-03-01T11:09:33Z</time>
      </trkpt>
      <trkpt lat="50.53742" lon="1.64317">
        <ele>47</ele>
        <time>2015-03-01T11:09:39Z</time>
      </trkpt>
      <trkpt lat="50.53747" lon="1.64323">
        <ele>47</ele>
        <time>2015-03-01T11:09:44Z</time>
      </trkpt>
      <trkpt lat="50.53755" lon="1.64327">
        <ele>46</ele>
        <time>2015-03-01T11:09:49Z</time>
      </trkpt>
      <trkpt lat="50.53761" lon="1.64336">
        <ele>47</ele>
        <time>2015-03-01T11:09:54Z</time>
      </trkpt>
      <trkpt lat="50.53762" lon="1.64344">
        <ele>47</ele>
        <time>2015-03-01T11:09:59Z</time>
      </trkpt>
      <trkpt lat="50.53764" lon="1.64353">
        <ele>48</ele>
        <time>2015-03-01T11:10:04Z</time>
      </trkpt>
      <trkpt lat="50.53773" lon="1.64357">
        <ele>48</ele>
        <time>2015-03-01T11:10:09Z</time>
      </trkpt>
      <trkpt lat="50.5378" lon="1.64362">
        <ele>48</ele>
        <time>2015-03-01T11:10:15Z</time>
      </trkpt>
      <trkpt lat="50.53785" lon="1.64368">
        <ele>48</ele>
        <time>2015-03-01T11:10:21Z</time>
      </trkpt>
      <trkpt lat="50.53792" lon="1.64376">
        <ele>49</ele>
        <time>2015-03-01T11:10:27Z</time>
      </trkpt>
      <trkpt lat="50.53794" lon="1.64387">
        <ele>49</ele>
        <time>2015-03-01T11:10:32Z</time>
      </trkpt>
      <trkpt lat="50.53793" lon="1.64397">
        <ele>49</ele>
        <time>2015-03-01T11:10:37Z</time>
      </trkpt>
      <trkpt lat="50.53802" lon="1.64405">
        <ele>49</ele>
        <time>2015-03-01T11:10:42Z</time>
      </trkpt>
      <trkpt lat="50.53806" lon="1.64411">
        <ele>49</ele>
        <time>2015-03-01T11:10:47Z</time>
      </trkpt>
      <trkpt lat="50.5381" lon="1.64414">
        <ele>49</ele>
        <time>2015-03-01T11:10:52Z</time>
      </trkpt>
      <trkpt lat="50.53819" lon="1.6442">
        <ele>52</ele>
        <time>2015-03-01T11:10:58Z</time>
      </trkpt>
      <trkpt lat="50.53827" lon="1.64428">
        <ele>52</ele>
        <time>2015-03-01T11:11:04Z</time>
      </trkpt>
      <trkpt lat="50.53834" lon="1.64433">
        <ele>50</ele>
        <time>2015-03-01T11:11:09Z</time>
      </trkpt>
      <trkpt lat="50.53839" lon="1.64439">
        <ele>51</ele>
        <time>2015-03-01T11:11:15Z</time>
      </trkpt>
      <trkpt lat="50.53841" lon="1.64446">
        <ele>51</ele>
        <time>2015-03-01T11:11:21Z</time>
      </trkpt>
      <trkpt lat="50.53844" lon="1.64454">
        <ele>51</ele>
        <time>2015-03-01T11:11:27Z</time>
      </trkpt>
      <trkpt lat="50.53849" lon="1.64461">
        <ele>51</ele>
        <time>2015-03-01T11:11:33Z</time>
      </trkpt>
      <trkpt lat="50.53854" lon="1.64469">
        <ele>51</ele>
        <time>2015-03-01T11:11:39Z</time>
      </trkpt>
      <trkpt lat="50.53857" lon="1.64479">
        <ele>52</ele>
        <time>2015-03-01T11:11:44Z</time>
      </trkpt>
      <trkpt lat="50.53864" lon="1.64486">
        <ele>52</ele>
        <time>2015-03-01T11:11:49Z</time>
      </trkpt>
      <trkpt lat="50.53872" lon="1.64486">
        <ele>51</ele>
        <time>2015-03-01T11:11:54Z</time>
      </trkpt>
      <trkpt lat="50.53878" lon="1.64485">
        <ele>51</ele>
        <time>2015-03-01T11:11:59Z</time>
      </trkpt>
      <trkpt lat="50.53884" lon="1.64481">
        <ele>51</ele>
        <time>2015-03-01T11:12:04Z</time>
      </trkpt>
      <trkpt lat="50.53888" lon="1.64482">
        <ele>51</ele>
        <time>2015-03-01T11:12:10Z</time>
      </trkpt>
      <trkpt lat="50.53899" lon="1.64486">
        <ele>50</ele>
        <time>2015-03-01T11:12:16Z</time>
      </trkpt>
      <trkpt lat="50.53907" lon="1.64486">
        <ele>50</ele>
        <time>2015-03-01T11:12:22Z</time>
      </trkpt>
      <trkpt lat="50.5391" lon="1.64483">
        <ele>50</ele>
        <time>2015-03-01T11:12:27Z</time>
      </trkpt>
      <trkpt lat="50.53909" lon="1.64484">
        <ele>50</ele>
        <time>2015-03-01T11:12:34Z</time>
      </trkpt>
      <trkpt lat="50.53903" lon="1.64484">
        <ele>50</ele>
        <time>2015-03-01T11:12:40Z</time>
      </trkpt>
      <trkpt lat="50.53896" lon="1.64485">
        <ele>50</ele>
        <time>2015-03-01T11:12:46Z</time>
      </trkpt>
      <trkpt lat="50.53888" lon="1.64485">
        <ele>51</ele>
        <time>2015-03-01T11:12:51Z</time>
      </trkpt>
      <trkpt lat="50.5388" lon="1.64487">
        <ele>51</ele>
        <time>2015-03-01T11:12:56Z</time>
      </trkpt>
      <trkpt lat="50.5387" lon="1.64491">
        <ele>51</ele>
        <time>2015-03-01T11:13:02Z</time>
      </trkpt>
      <trkpt lat="50.53872" lon="1.64497">
        <ele>51</ele>
        <time>2015-03-01T11:13:07Z</time>
      </trkpt>
      <trkpt lat="50.53873" lon="1.64513">
        <ele>54</ele>
        <time>2015-03-01T11:13:12Z</time>
      </trkpt>
      <trkpt lat="50.53875" lon="1.64523">
        <ele>54</ele>
        <time>2015-03-01T11:13:17Z</time>
      </trkpt>
      <trkpt lat="50.53879" lon="1.64529">
        <ele>54</ele>
        <time>2015-03-01T11:13:22Z</time>
      </trkpt>
      <trkpt lat="50.53883" lon="1.64538">
        <ele>55</ele>
        <time>2015-03-01T11:13:27Z</time>
      </trkpt>
      <trkpt lat="50.53888" lon="1.64549">
        <ele>55</ele>
        <time>2015-03-01T11:13:33Z</time>
      </trkpt>
      <trkpt lat="50.53893" lon="1.64558">
        <ele>55</ele>
        <time>2015-03-01T11:13:39Z</time>
      </trkpt>
      <trkpt lat="50.53901" lon="1.64567">
        <ele>54</ele>
        <time>2015-03-01T11:13:45Z</time>
      </trkpt>
      <trkpt lat="50.53905" lon="1.64572">
        <ele>54</ele>
        <time>2015-03-01T11:13:50Z</time>
      </trkpt>
      <trkpt lat="50.5391" lon="1.64581">
        <ele>54</ele>
        <time>2015-03-01T11:13:56Z</time>
      </trkpt>
      <trkpt lat="50.53912" lon="1.64589">
        <ele>55</ele>
        <time>2015-03-01T11:14:01Z</time>
      </trkpt>
      <trkpt lat="50.53915" lon="1.64599">
        <ele>56</ele>
        <time>2015-03-01T11:14:06Z</time>
      </trkpt>
      <trkpt lat="50.53919" lon="1.64608">
        <ele>52</ele>
        <time>2015-03-01T11:14:11Z</time>
      </trkpt>
      <trkpt lat="50.53925" lon="1.64616">
        <ele>51</ele>
        <time>2015-03-01T11:14:17Z</time>
      </trkpt>
      <trkpt lat="50.53931" lon="1.64625">
        <ele>51</ele>
        <time>2015-03-01T11:14:22Z</time>
      </trkpt>
      <trkpt lat="50.53933" lon="1.64634">
        <ele>51</ele>
        <time>2015-03-01T11:14:27Z</time>
      </trkpt>
      <trkpt lat="50.53937" lon="1.64644">
        <ele>52</ele>
        <time>2015-03-01T11:14:33Z</time>
      </trkpt>
      <trkpt lat="50.5394" lon="1.64652">
        <ele>52</ele>
        <time>2015-03-01T11:14:39Z</time>
      </trkpt>
      <trkpt lat="50.53945" lon="1.64658">
        <ele>51</ele>
        <time>2015-03-01T11:14:44Z</time>
      </trkpt>
      <trkpt lat="50.53947" lon="1.64666">
        <ele>51</ele>
        <time>2015-03-01T11:14:49Z</time>
      </trkpt>
      <trkpt lat="50.53947" lon="1.64676">
        <ele>53</ele>
        <time>2015-03-01T11:14:55Z</time>
      </trkpt>
      <trkpt lat="50.53951" lon="1.64684">
        <ele>52</ele>
        <time>2015-03-01T11:15:00Z</time>
      </trkpt>
      <trkpt lat="50.53964" lon="1.6469">
        <ele>51</ele>
        <time>2015-03-01T11:15:06Z</time>
      </trkpt>
      <trkpt lat="50.53971" lon="1.64686">
        <ele>50</ele>
        <time>2015-03-01T11:15:11Z</time>
      </trkpt>
      <trkpt lat="50.53979" lon="1.6468">
        <ele>49</ele>
        <time>2015-03-01T11:15:16Z</time>
      </trkpt>
      <trkpt lat="50.53987" lon="1.64674">
        <ele>47</ele>
        <time>2015-03-01T11:15:21Z</time>
      </trkpt>
      <trkpt lat="50.53993" lon="1.64668">
        <ele>45</ele>
        <time>2015-03-01T11:15:26Z</time>
      </trkpt>
      <trkpt lat="50.54" lon="1.6466">
        <ele>45</ele>
        <time>2015-03-01T11:15:32Z</time>
      </trkpt>
      <trkpt lat="50.54005" lon="1.64655">
        <ele>44</ele>
        <time>2015-03-01T11:15:37Z</time>
      </trkpt>
      <trkpt lat="50.54011" lon="1.64647">
        <ele>44</ele>
        <time>2015-03-01T11:15:43Z</time>
      </trkpt>
      <trkpt lat="50.54016" lon="1.64644">
        <ele>44</ele>
        <time>2015-03-01T11:15:48Z</time>
      </trkpt>
      <trkpt lat="50.54021" lon="1.64639">
        <ele>44</ele>
        <time>2015-03-01T11:15:53Z</time>
      </trkpt>
      <trkpt lat="50.54026" lon="1.64634">
        <ele>45</ele>
        <time>2015-03-01T11:15:58Z</time>
      </trkpt>
      <trkpt lat="50.54032" lon="1.64628">
        <ele>45</ele>
        <time>2015-03-01T11:16:04Z</time>
      </trkpt>
      <trkpt lat="50.54037" lon="1.6462">
        <ele>45</ele>
        <time>2015-03-01T11:16:10Z</time>
      </trkpt>
      <trkpt lat="50.54042" lon="1.64612">
        <ele>45</ele>
        <time>2015-03-01T11:16:16Z</time>
      </trkpt>
      <trkpt lat="50.54047" lon="1.64604">
        <ele>45</ele>
        <time>2015-03-01T11:16:22Z</time>
      </trkpt>
      <trkpt lat="50.54052" lon="1.64598">
        <ele>45</ele>
        <time>2015-03-01T11:16:27Z</time>
      </trkpt>
      <trkpt lat="50.54057" lon="1.64592">
        <ele>46</ele>
        <time>2015-03-01T11:16:32Z</time>
      </trkpt>
      <trkpt lat="50.54063" lon="1.64585">
        <ele>46</ele>
        <time>2015-03-01T11:16:37Z</time>
      </trkpt>
      <trkpt lat="50.54068" lon="1.64578">
        <ele>47</ele>
        <time>2015-03-01T11:16:42Z</time>
      </trkpt>
      <trkpt lat="50.54074" lon="1.6457">
        <ele>47</ele>
        <time>2015-03-01T11:16:48Z</time>
      </trkpt>
      <trkpt lat="50.54079" lon="1.64564">
        <ele>47</ele>
        <time>2015-03-01T11:16:53Z</time>
      </trkpt>
      <trkpt lat="50.54086" lon="1.64556">
        <ele>48</ele>
        <time>2015-03-01T11:16:59Z</time>
      </trkpt>
      <trkpt lat="50.54092" lon="1.64548">
        <ele>48</ele>
        <time>2015-03-01T11:17:05Z</time>
      </trkpt>
      <trkpt lat="50.54098" lon="1.6454">
        <ele>48</ele>
        <time>2015-03-01T11:17:11Z</time>
      </trkpt>
      <trkpt lat="50.54103" lon="1.64533">
        <ele>48</ele>
        <time>2015-03-01T11:17:16Z</time>
      </trkpt>
      <trkpt lat="50.54108" lon="1.64527">
        <ele>48</ele>
        <time>2015-03-01T11:17:21Z</time>
      </trkpt>
      <trkpt lat="50.54114" lon="1.6452">
        <ele>48</ele>
        <time>2015-03-01T11:17:27Z</time>
      </trkpt>
      <trkpt lat="50.54119" lon="1.64514">
        <ele>48</ele>
        <time>2015-03-01T11:17:32Z</time>
      </trkpt>
      <trkpt lat="50.54126" lon="1.64507">
        <ele>48</ele>
        <time>2015-03-01T11:17:38Z</time>
      </trkpt>
      <trkpt lat="50.54131" lon="1.64501">
        <ele>48</ele>
        <time>2015-03-01T11:17:43Z</time>
      </trkpt>
      <trkpt lat="50.54136" lon="1.64495">
        <ele>51</ele>
        <time>2015-03-01T11:17:48Z</time>
      </trkpt>
      <trkpt lat="50.54141" lon="1.6449">
        <ele>50</ele>
        <time>2015-03-01T11:17:53Z</time>
      </trkpt>
      <trkpt lat="50.54147" lon="1.64483">
        <ele>50</ele>
        <time>2015-03-01T11:17:59Z</time>
      </trkpt>
      <trkpt lat="50.54153" lon="1.64476">
        <ele>51</ele>
        <time>2015-03-01T11:18:05Z</time>
      </trkpt>
      <trkpt lat="50.54159" lon="1.64471">
        <ele>51</ele>
        <time>2015-03-01T11:18:10Z</time>
      </trkpt>
      <trkpt lat="50.54164" lon="1.64465">
        <ele>51</ele>
        <time>2015-03-01T11:18:15Z</time>
      </trkpt>
      <trkpt lat="50.5417" lon="1.64458">
        <ele>51</ele>
        <time>2015-03-01T11:18:21Z</time>
      </trkpt>
      <trkpt lat="50.54176" lon="1.64447">
        <ele>52</ele>
        <time>2015-03-01T11:18:27Z</time>
      </trkpt>
      <trkpt lat="50.54181" lon="1.64441">
        <ele>52</ele>
        <time>2015-03-01T11:18:32Z</time>
      </trkpt>
      <trkpt lat="50.54186" lon="1.64435">
        <ele>52</ele>
        <time>2015-03-01T11:18:37Z</time>
      </trkpt>
      <trkpt lat="50.54192" lon="1.6443">
        <ele>52</ele>
        <time>2015-03-01T11:18:42Z</time>
      </trkpt>
      <trkpt lat="50.54197" lon="1.64424">
        <ele>52</ele>
        <time>2015-03-01T11:18:47Z</time>
      </trkpt>
      <trkpt lat="50.54201" lon="1.64416">
        <ele>55</ele>
        <time>2015-03-01T11:18:52Z</time>
      </trkpt>
      <trkpt lat="50.54206" lon="1.6441">
        <ele>54</ele>
        <time>2015-03-01T11:18:57Z</time>
      </trkpt>
      <trkpt lat="50.54211" lon="1.64406">
        <ele>54</ele>
        <time>2015-03-01T11:19:02Z</time>
      </trkpt>
      <trkpt lat="50.54219" lon="1.64401">
        <ele>54</ele>
        <time>2015-03-01T11:19:07Z</time>
      </trkpt>
      <trkpt lat="50.54223" lon="1.64398">
        <ele>54</ele>
        <time>2015-03-01T11:19:12Z</time>
      </trkpt>
      <trkpt lat="50.54228" lon="1.64395">
        <ele>54</ele>
        <time>2015-03-01T11:19:17Z</time>
      </trkpt>
      <trkpt lat="50.54236" lon="1.64393">
        <ele>53</ele>
        <time>2015-03-01T11:19:23Z</time>
      </trkpt>
      <trkpt lat="50.54243" lon="1.64393">
        <ele>53</ele>
        <time>2015-03-01T11:19:28Z</time>
      </trkpt>
      <trkpt lat="50.5425" lon="1.64391">
        <ele>52</ele>
        <time>2015-03-01T11:19:33Z</time>
      </trkpt>
      <trkpt lat="50.54258" lon="1.64391">
        <ele>52</ele>
        <time>2015-03-01T11:19:38Z</time>
      </trkpt>
      <trkpt lat="50.54264" lon="1.64388">
        <ele>52</ele>
        <time>2015-03-01T11:19:43Z</time>
      </trkpt>
      <trkpt lat="50.54271" lon="1.64385">
        <ele>52</ele>
        <time>2015-03-01T11:19:48Z</time>
      </trkpt>
      <trkpt lat="50.54278" lon="1.64383">
        <ele>52</ele>
        <time>2015-03-01T11:19:53Z</time>
      </trkpt>
      <trkpt lat="50.54284" lon="1.64382">
        <ele>53</ele>
        <time>2015-03-01T11:19:58Z</time>
      </trkpt>
      <trkpt lat="50.54291" lon="1.64381">
        <ele>53</ele>
        <time>2015-03-01T11:20:03Z</time>
      </trkpt>
      <trkpt lat="50.54297" lon="1.64378">
        <ele>53</ele>
        <time>2015-03-01T11:20:08Z</time>
      </trkpt>
      <trkpt lat="50.54301" lon="1.64376">
        <ele>53</ele>
        <time>2015-03-01T11:20:13Z</time>
      </trkpt>
      <trkpt lat="50.54306" lon="1.64375">
        <ele>53</ele>
        <time>2015-03-01T11:20:18Z</time>
      </trkpt>
      <trkpt lat="50.54312" lon="1.64375">
        <ele>53</ele>
        <time>2015-03-01T11:20:23Z</time>
      </trkpt>
      <trkpt lat="50.54318" lon="1.64377">
        <ele>53</ele>
        <time>2015-03-01T11:20:29Z</time>
      </trkpt>
      <trkpt lat="50.54322" lon="1.64381">
        <ele>53</ele>
        <time>2015-03-01T11:20:34Z</time>
      </trkpt>
      <trkpt lat="50.54329" lon="1.64385">
        <ele>53</ele>
        <time>2015-03-01T11:20:40Z</time>
      </trkpt>
      <trkpt lat="50.54334" lon="1.64392">
        <ele>56</ele>
        <time>2015-03-01T11:20:46Z</time>
      </trkpt>
      <trkpt lat="50.54341" lon="1.64395">
        <ele>56</ele>
        <time>2015-03-01T11:20:52Z</time>
      </trkpt>
      <trkpt lat="50.54348" lon="1.644">
        <ele>57</ele>
        <time>2015-03-01T11:20:58Z</time>
      </trkpt>
      <trkpt lat="50.54353" lon="1.64406">
        <ele>57</ele>
        <time>2015-03-01T11:21:04Z</time>
      </trkpt>
      <trkpt lat="50.54359" lon="1.64411">
        <ele>57</ele>
        <time>2015-03-01T11:21:09Z</time>
      </trkpt>
      <trkpt lat="50.54364" lon="1.64415">
        <ele>57</ele>
        <time>2015-03-01T11:21:14Z</time>
      </trkpt>
      <trkpt lat="50.5437" lon="1.6442">
        <ele>56</ele>
        <time>2015-03-01T11:21:19Z</time>
      </trkpt>
      <trkpt lat="50.54375" lon="1.64427">
        <ele>56</ele>
        <time>2015-03-01T11:21:25Z</time>
      </trkpt>
      <trkpt lat="50.54382" lon="1.64432">
        <ele>56</ele>
        <time>2015-03-01T11:21:30Z</time>
      </trkpt>
      <trkpt lat="50.54387" lon="1.64436">
        <ele>56</ele>
        <time>2015-03-01T11:21:35Z</time>
      </trkpt>
      <trkpt lat="50.54394" lon="1.64443">
        <ele>56</ele>
        <time>2015-03-01T11:21:41Z</time>
      </trkpt>
      <trkpt lat="50.544" lon="1.64449">
        <ele>56</ele>
        <time>2015-03-01T11:21:47Z</time>
      </trkpt>
      <trkpt lat="50.54405" lon="1.64454">
        <ele>56</ele>
        <time>2015-03-01T11:21:52Z</time>
      </trkpt>
      <trkpt lat="50.54411" lon="1.64459">
        <ele>56</ele>
        <time>2015-03-01T11:21:57Z</time>
      </trkpt>
      <trkpt lat="50.54417" lon="1.64464">
        <ele>56</ele>
        <time>2015-03-01T11:22:03Z</time>
      </trkpt>
      <trkpt lat="50.54422" lon="1.64469">
        <ele>57</ele>
        <time>2015-03-01T11:22:08Z</time>
      </trkpt>
      <trkpt lat="50.54428" lon="1.64473">
        <ele>57</ele>
        <time>2015-03-01T11:22:13Z</time>
      </trkpt>
      <trkpt lat="50.54434" lon="1.64478">
        <ele>57</ele>
        <time>2015-03-01T11:22:18Z</time>
      </trkpt>
      <trkpt lat="50.54441" lon="1.64481">
        <ele>57</ele>
        <time>2015-03-01T11:22:23Z</time>
      </trkpt>
      <trkpt lat="50.54448" lon="1.64485">
        <ele>57</ele>
        <time>2015-03-01T11:22:28Z</time>
      </trkpt>
      <trkpt lat="50.54453" lon="1.64488">
        <ele>57</ele>
        <time>2015-03-01T11:22:33Z</time>
      </trkpt>
      <trkpt lat="50.54459" lon="1.6449">
        <ele>57</ele>
        <time>2015-03-01T11:22:38Z</time>
      </trkpt>
      <trkpt lat="50.54464" lon="1.64492">
        <ele>57</ele>
        <time>2015-03-01T11:22:43Z</time>
      </trkpt>
      <trkpt lat="50.5447" lon="1.64495">
        <ele>57</ele>
        <time>2015-03-01T11:22:49Z</time>
      </trkpt>
      <trkpt lat="50.54475" lon="1.64496">
        <ele>57</ele>
        <time>2015-03-01T11:22:55Z</time>
      </trkpt>
      <trkpt lat="50.54481" lon="1.64497">
        <ele>57</ele>
        <time>2015-03-01T11:23:00Z</time>
      </trkpt>
      <trkpt lat="50.54486" lon="1.64497">
        <ele>57</ele>
        <time>2015-03-01T11:23:05Z</time>
      </trkpt>
      <trkpt lat="50.54492" lon="1.64497">
        <ele>56</ele>
        <time>2015-03-01T11:23:11Z</time>
      </trkpt>
      <trkpt lat="50.54497" lon="1.64496">
        <ele>56</ele>
        <time>2015-03-01T11:23:16Z</time>
      </trkpt>
      <trkpt lat="50.54503" lon="1.64495">
        <ele>57</ele>
        <time>2015-03-01T11:23:22Z</time>
      </trkpt>
      <trkpt lat="50.54509" lon="1.64493">
        <ele>58</ele>
        <time>2015-03-01T11:23:28Z</time>
      </trkpt>
      <trkpt lat="50.54515" lon="1.6449">
        <ele>59</ele>
        <time>2015-03-01T11:23:34Z</time>
      </trkpt>
      <trkpt lat="50.5452" lon="1.64488">
        <ele>60</ele>
        <time>2015-03-01T11:23:40Z</time>
      </trkpt>
      <trkpt lat="50.54525" lon="1.64484">
        <ele>60</ele>
        <time>2015-03-01T11:23:46Z</time>
      </trkpt>
      <trkpt lat="50.5453" lon="1.64479">
        <ele>61</ele>
        <time>2015-03-01T11:23:52Z</time>
      </trkpt>
      <trkpt lat="50.54535" lon="1.64474">
        <ele>61</ele>
        <time>2015-03-01T11:23:58Z</time>
      </trkpt>
      <trkpt lat="50.54539" lon="1.64468">
        <ele>62</ele>
        <time>2015-03-01T11:24:03Z</time>
      </trkpt>
      <trkpt lat="50.54544" lon="1.64462">
        <ele>62</ele>
        <time>2015-03-01T11:24:09Z</time>
      </trkpt>
      <trkpt lat="50.54548" lon="1.64455">
        <ele>62</ele>
        <time>2015-03-01T11:24:15Z</time>
      </trkpt>
      <trkpt lat="50.54553" lon="1.64449">
        <ele>63</ele>
        <time>2015-03-01T11:24:21Z</time>
      </trkpt>
      <trkpt lat="50.54557" lon="1.64443">
        <ele>63</ele>
        <time>2015-03-01T11:24:27Z</time>
      </trkpt>
      <trkpt lat="50.54562" lon="1.64436">
        <ele>64</ele>
        <time>2015-03-01T11:24:33Z</time>
      </trkpt>
      <trkpt lat="50.54566" lon="1.64429">
        <ele>65</ele>
        <time>2015-03-01T11:24:39Z</time>
      </trkpt>
      <trkpt lat="50.54571" lon="1.64423">
        <ele>65</ele>
        <time>2015-03-01T11:24:45Z</time>
      </trkpt>
      <trkpt lat="50.54575" lon="1.64416">
        <ele>68</ele>
        <time>2015-03-01T11:24:51Z</time>
      </trkpt>
      <trkpt lat="50.54579" lon="1.64409">
        <ele>68</ele>
        <time>2015-03-01T11:24:57Z</time>
      </trkpt>
      <trkpt lat="50.54583" lon="1.64401">
        <ele>67</ele>
        <time>2015-03-01T11:25:02Z</time>
      </trkpt>
      <trkpt lat="50.54586" lon="1.64394">
        <ele>71</ele>
        <time>2015-03-01T11:25:07Z</time>
      </trkpt>
      <trkpt lat="50.54591" lon="1.64386">
        <ele>71</ele>
        <time>2015-03-01T11:25:13Z</time>
      </trkpt>
      <trkpt lat="50.54596" lon="1.6438">
        <ele>72</ele>
        <time>2015-03-01T11:25:19Z</time>
      </trkpt>
      <trkpt lat="50.54599" lon="1.64373">
        <ele>72</ele>
        <time>2015-03-01T11:25:25Z</time>
      </trkpt>
      <trkpt lat="50.54602" lon="1.64366">
        <ele>72</ele>
        <time>2015-03-01T11:25:31Z</time>
      </trkpt>
      <trkpt lat="50.54607" lon="1.64359">
        <ele>73</ele>
        <time>2015-03-01T11:25:37Z</time>
      </trkpt>
      <trkpt lat="50.54611" lon="1.64351">
        <ele>73</ele>
        <time>2015-03-01T11:25:43Z</time>
      </trkpt>
      <trkpt lat="50.54615" lon="1.64345">
        <ele>73</ele>
        <time>2015-03-01T11:25:49Z</time>
      </trkpt>
      <trkpt lat="50.54619" lon="1.64338">
        <ele>73</ele>
        <time>2015-03-01T11:25:55Z</time>
      </trkpt>
      <trkpt lat="50.54623" lon="1.64331">
        <ele>76</ele>
        <time>2015-03-01T11:26:04Z</time>
      </trkpt>
      <trkpt lat="50.54624" lon="1.64328">
        <ele>76</ele>
        <time>2015-03-01T11:26:09Z</time>
      </trkpt>
      <trkpt lat="50.54626" lon="1.64321">
        <ele>76</ele>
        <time>2015-03-01T11:26:16Z</time>
      </trkpt>
      <trkpt lat="50.54631" lon="1.64315">
        <ele>77</ele>
        <time>2015-03-01T11:26:22Z</time>
      </trkpt>
      <trkpt lat="50.54634" lon="1.64309">
        <ele>77</ele>
        <time>2015-03-01T11:26:27Z</time>
      </trkpt>
      <trkpt lat="50.54638" lon="1.643">
        <ele>77</ele>
        <time>2015-03-01T11:26:33Z</time>
      </trkpt>
      <trkpt lat="50.54642" lon="1.64293">
        <ele>78</ele>
        <time>2015-03-01T11:26:39Z</time>
      </trkpt>
      <trkpt lat="50.54647" lon="1.64285">
        <ele>78</ele>
        <time>2015-03-01T11:26:45Z</time>
      </trkpt>
      <trkpt lat="50.5465" lon="1.64277">
        <ele>78</ele>
        <time>2015-03-01T11:26:50Z</time>
      </trkpt>
      <trkpt lat="50.54654" lon="1.6427">
        <ele>79</ele>
        <time>2015-03-01T11:26:56Z</time>
      </trkpt>
      <trkpt lat="50.54658" lon="1.64265">
        <ele>80</ele>
        <time>2015-03-01T11:27:02Z</time>
      </trkpt>
      <trkpt lat="50.54662" lon="1.64258">
        <ele>80</ele>
        <time>2015-03-01T11:27:08Z</time>
      </trkpt>
      <trkpt lat="50.54666" lon="1.6425">
        <ele>82</ele>
        <time>2015-03-01T11:27:14Z</time>
      </trkpt>
      <trkpt lat="50.5467" lon="1.64242">
        <ele>83</ele>
        <time>2015-03-01T11:27:20Z</time>
      </trkpt>
      <trkpt lat="50.54674" lon="1.64235">
        <ele>84</ele>
        <time>2015-03-01T11:27:26Z</time>
      </trkpt>
      <trkpt lat="50.54677" lon="1.64228">
        <ele>85</ele>
        <time>2015-03-01T11:27:31Z</time>
      </trkpt>
      <trkpt lat="50.54681" lon="1.64221">
        <ele>85</ele>
        <time>2015-03-01T11:27:36Z</time>
      </trkpt>
      <trkpt lat="50.54686" lon="1.64213">
        <ele>86</ele>
        <time>2015-03-01T11:27:42Z</time>
      </trkpt>
      <trkpt lat="50.54689" lon="1.64205">
        <ele>86</ele>
        <time>2015-03-01T11:27:48Z</time>
      </trkpt>
      <trkpt lat="50.54694" lon="1.64196">
        <ele>86</ele>
        <time>2015-03-01T11:27:54Z</time>
      </trkpt>
      <trkpt lat="50.54699" lon="1.64187">
        <ele>86</ele>
        <time>2015-03-01T11:28:00Z</time>
      </trkpt>
      <trkpt lat="50.54703" lon="1.64178">
        <ele>87</ele>
        <time>2015-03-01T11:28:06Z</time>
      </trkpt>
      <trkpt lat="50.54707" lon="1.64171">
        <ele>87</ele>
        <time>2015-03-01T11:28:12Z</time>
      </trkpt>
      <trkpt lat="50.54712" lon="1.64162">
        <ele>88</ele>
        <time>2015-03-01T11:28:18Z</time>
      </trkpt>
      <trkpt lat="50.54717" lon="1.64154">
        <ele>88</ele>
        <time>2015-03-01T11:28:24Z</time>
      </trkpt>
      <trkpt lat="50.54723" lon="1.64147">
        <ele>89</ele>
        <time>2015-03-01T11:28:30Z</time>
      </trkpt>
      <trkpt lat="50.54728" lon="1.6414">
        <ele>89</ele>
        <time>2015-03-01T11:28:36Z</time>
      </trkpt>
      <trkpt lat="50.54733" lon="1.64133">
        <ele>89</ele>
        <time>2015-03-01T11:28:42Z</time>
      </trkpt>
      <trkpt lat="50.54738" lon="1.64128">
        <ele>89</ele>
        <time>2015-03-01T11:28:48Z</time>
      </trkpt>
      <trkpt lat="50.54744" lon="1.64122">
        <ele>89</ele>
        <time>2015-03-01T11:28:54Z</time>
      </trkpt>
      <trkpt lat="50.5475" lon="1.64116">
        <ele>91</ele>
        <time>2015-03-01T11:29:00Z</time>
      </trkpt>
      <trkpt lat="50.54755" lon="1.64109">
        <ele>91</ele>
        <time>2015-03-01T11:29:06Z</time>
      </trkpt>
      <trkpt lat="50.5476" lon="1.64104">
        <ele>91</ele>
        <time>2015-03-01T11:29:11Z</time>
      </trkpt>
      <trkpt lat="50.54767" lon="1.64098">
        <ele>91</ele>
        <time>2015-03-01T11:29:17Z</time>
      </trkpt>
      <trkpt lat="50.54772" lon="1.64093">
        <ele>91</ele>
        <time>2015-03-01T11:29:22Z</time>
      </trkpt>
      <trkpt lat="50.54778" lon="1.64087">
        <ele>92</ele>
        <time>2015-03-01T11:29:28Z</time>
      </trkpt>
      <trkpt lat="50.54784" lon="1.64082">
        <ele>92</ele>
        <time>2015-03-01T11:29:33Z</time>
      </trkpt>
      <trkpt lat="50.54789" lon="1.64076">
        <ele>92</ele>
        <time>2015-03-01T11:29:39Z</time>
      </trkpt>
      <trkpt lat="50.54795" lon="1.64074">
        <ele>92</ele>
        <time>2015-03-01T11:29:44Z</time>
      </trkpt>
      <trkpt lat="50.548" lon="1.64069">
        <ele>92</ele>
        <time>2015-03-01T11:29:49Z</time>
      </trkpt>
      <trkpt lat="50.54806" lon="1.64063">
        <ele>92</ele>
        <time>2015-03-01T11:29:55Z</time>
      </trkpt>
      <trkpt lat="50.54812" lon="1.64056">
        <ele>93</ele>
        <time>2015-03-01T11:30:01Z</time>
      </trkpt>
      <trkpt lat="50.54818" lon="1.6405">
        <ele>93</ele>
        <time>2015-03-01T11:30:06Z</time>
      </trkpt>
      <trkpt lat="50.54824" lon="1.64043">
        <ele>93</ele>
        <time>2015-03-01T11:30:12Z</time>
      </trkpt>
      <trkpt lat="50.54829" lon="1.64036">
        <ele>93</ele>
        <time>2015-03-01T11:30:18Z</time>
      </trkpt>
      <trkpt lat="50.54835" lon="1.64029">
        <ele>95</ele>
        <time>2015-03-01T11:30:24Z</time>
      </trkpt>
      <trkpt lat="50.5484" lon="1.64024">
        <ele>95</ele>
        <time>2015-03-01T11:30:29Z</time>
      </trkpt>
      <trkpt lat="50.54845" lon="1.64018">
        <ele>95</ele>
        <time>2015-03-01T11:30:35Z</time>
      </trkpt>
      <trkpt lat="50.5485" lon="1.64011">
        <ele>95</ele>
        <time>2015-03-01T11:30:41Z</time>
      </trkpt>
      <trkpt lat="50.54856" lon="1.64004">
        <ele>95</ele>
        <time>2015-03-01T11:30:47Z</time>
      </trkpt>
      <trkpt lat="50.54858" lon="1.63994">
        <ele>95</ele>
        <time>2015-03-01T11:30:53Z</time>
      </trkpt>
      <trkpt lat="50.5486" lon="1.63988">
        <ele>95</ele>
        <time>2015-03-01T11:30:59Z</time>
      </trkpt>
      <trkpt lat="50.5486" lon="1.63985">
        <ele>95</ele>
        <time>2015-03-01T11:31:04Z</time>
      </trkpt>
      <trkpt lat="50.5486" lon="1.63981">
        <ele>95</ele>
        <time>2015-03-01T11:31:14Z</time>
      </trkpt>
      <trkpt lat="50.54864" lon="1.63974">
        <ele>95</ele>
        <time>2015-03-01T11:31:19Z</time>
      </trkpt>
      <trkpt lat="50.54867" lon="1.63966">
        <ele>95</ele>
        <time>2015-03-01T11:31:24Z</time>
      </trkpt>
      <trkpt lat="50.5487" lon="1.63961">
        <ele>95</ele>
        <time>2015-03-01T11:31:29Z</time>
      </trkpt>
      <trkpt lat="50.54873" lon="1.63952">
        <ele>95</ele>
        <time>2015-03-01T11:31:35Z</time>
      </trkpt>
      <trkpt lat="50.54875" lon="1.63946">
        <ele>96</ele>
        <time>2015-03-01T11:31:40Z</time>
      </trkpt>
      <trkpt lat="50.54879" lon="1.63938">
        <ele>96</ele>
        <time>2015-03-01T11:31:46Z</time>
      </trkpt>
      <trkpt lat="50.54883" lon="1.6393">
        <ele>96</ele>
        <time>2015-03-01T11:31:52Z</time>
      </trkpt>
      <trkpt lat="50.54887" lon="1.63923">
        <ele>96</ele>
        <time>2015-03-01T11:31:58Z</time>
      </trkpt>
      <trkpt lat="50.5489" lon="1.63916">
        <ele>96</ele>
        <time>2015-03-01T11:32:03Z</time>
      </trkpt>
      <trkpt lat="50.54892" lon="1.63907">
        <ele>96</ele>
        <time>2015-03-01T11:32:09Z</time>
      </trkpt>
      <trkpt lat="50.54895" lon="1.639">
        <ele>96</ele>
        <time>2015-03-01T11:32:14Z</time>
      </trkpt>
      <trkpt lat="50.54897" lon="1.63893">
        <ele>96</ele>
        <time>2015-03-01T11:32:20Z</time>
      </trkpt>
      <trkpt lat="50.549" lon="1.63881">
        <ele>96</ele>
        <time>2015-03-01T11:32:28Z</time>
      </trkpt>
      <trkpt lat="50.54903" lon="1.63874">
        <ele>95</ele>
        <time>2015-03-01T11:32:33Z</time>
      </trkpt>
      <trkpt lat="50.54907" lon="1.63866">
        <ele>95</ele>
        <time>2015-03-01T11:32:39Z</time>
      </trkpt>
      <trkpt lat="50.54911" lon="1.63857">
        <ele>95</ele>
        <time>2015-03-01T11:32:45Z</time>
      </trkpt>
      <trkpt lat="50.54915" lon="1.63849">
        <ele>95</ele>
        <time>2015-03-01T11:32:51Z</time>
      </trkpt>
      <trkpt lat="50.54919" lon="1.6384">
        <ele>95</ele>
        <time>2015-03-01T11:32:57Z</time>
      </trkpt>
      <trkpt lat="50.54921" lon="1.6383">
        <ele>94</ele>
        <time>2015-03-01T11:33:02Z</time>
      </trkpt>
      <trkpt lat="50.54923" lon="1.63823">
        <ele>92</ele>
        <time>2015-03-01T11:33:07Z</time>
      </trkpt>
      <trkpt lat="50.54926" lon="1.63815">
        <ele>91</ele>
        <time>2015-03-01T11:33:12Z</time>
      </trkpt>
      <trkpt lat="50.54927" lon="1.6381">
        <ele>91</ele>
        <time>2015-03-01T11:33:20Z</time>
      </trkpt>
      <trkpt lat="50.5493" lon="1.63801">
        <ele>90</ele>
        <time>2015-03-01T11:33:26Z</time>
      </trkpt>
      <trkpt lat="50.54935" lon="1.63794">
        <ele>89</ele>
        <time>2015-03-01T11:33:32Z</time>
      </trkpt>
      <trkpt lat="50.54939" lon="1.63789">
        <ele>89</ele>
        <time>2015-03-01T11:33:37Z</time>
      </trkpt>
      <trkpt lat="50.54945" lon="1.63788">
        <ele>89</ele>
        <time>2015-03-01T11:33:42Z</time>
      </trkpt>
      <trkpt lat="50.54951" lon="1.63789">
        <ele>89</ele>
        <time>2015-03-01T11:33:47Z</time>
      </trkpt>
      <trkpt lat="50.54956" lon="1.6379">
        <ele>88</ele>
        <time>2015-03-01T11:33:52Z</time>
      </trkpt>
      <trkpt lat="50.54963" lon="1.63792">
        <ele>88</ele>
        <time>2015-03-01T11:33:57Z</time>
      </trkpt>
      <trkpt lat="50.54967" lon="1.63793">
        <ele>88</ele>
        <time>2015-03-01T11:34:03Z</time>
      </trkpt>
      <trkpt lat="50.54979" lon="1.638">
        <ele>88</ele>
        <time>2015-03-01T11:34:12Z</time>
      </trkpt>
      <trkpt lat="50.54984" lon="1.63801">
        <ele>88</ele>
        <time>2015-03-01T11:34:18Z</time>
      </trkpt>
      <trkpt lat="50.54994" lon="1.63801">
        <ele>88</ele>
        <time>2015-03-01T11:34:23Z</time>
      </trkpt>
      <trkpt lat="50.55" lon="1.63803">
        <ele>88</ele>
        <time>2015-03-01T11:34:29Z</time>
      </trkpt>
      <trkpt lat="50.55006" lon="1.63802">
        <ele>86</ele>
        <time>2015-03-01T11:34:34Z</time>
      </trkpt>
      <trkpt lat="50.55009" lon="1.63802">
        <ele>86</ele>
        <time>2015-03-01T11:34:41Z</time>
      </trkpt>
      <trkpt lat="50.5502" lon="1.63802">
        <ele>86</ele>
        <time>2015-03-01T11:34:50Z</time>
      </trkpt>
      <trkpt lat="50.55027" lon="1.63801">
        <ele>86</ele>
        <time>2015-03-01T11:34:55Z</time>
      </trkpt>
      <trkpt lat="50.55034" lon="1.638">
        <ele>86</ele>
        <time>2015-03-01T11:35:01Z</time>
      </trkpt>
      <trkpt lat="50.55041" lon="1.63798">
        <ele>86</ele>
        <time>2015-03-01T11:35:06Z</time>
      </trkpt>
      <trkpt lat="50.55048" lon="1.63797">
        <ele>86</ele>
        <time>2015-03-01T11:35:11Z</time>
      </trkpt>
      <trkpt lat="50.55054" lon="1.63797">
        <ele>85</ele>
        <time>2015-03-01T11:35:16Z</time>
      </trkpt>
      <trkpt lat="50.55062" lon="1.63796">
        <ele>85</ele>
        <time>2015-03-01T11:35:22Z</time>
      </trkpt>
      <trkpt lat="50.55069" lon="1.63796">
        <ele>85</ele>
        <time>2015-03-01T11:35:27Z</time>
      </trkpt>
      <trkpt lat="50.55076" lon="1.63795">
        <ele>85</ele>
        <time>2015-03-01T11:35:33Z</time>
      </trkpt>
      <trkpt lat="50.55082" lon="1.63795">
        <ele>85</ele>
        <time>2015-03-01T11:35:38Z</time>
      </trkpt>
      <trkpt lat="50.55089" lon="1.63792">
        <ele>84</ele>
        <time>2015-03-01T11:35:44Z</time>
      </trkpt>
      <trkpt lat="50.55088" lon="1.6378">
        <ele>83</ele>
        <time>2015-03-01T11:35:50Z</time>
      </trkpt>
      <trkpt lat="50.55088" lon="1.63772">
        <ele>82</ele>
        <time>2015-03-01T11:35:55Z</time>
      </trkpt>
      <trkpt lat="50.5509" lon="1.63754">
        <ele>81</ele>
        <time>2015-03-01T11:36:03Z</time>
      </trkpt>
      <trkpt lat="50.55091" lon="1.63745">
        <ele>78</ele>
        <time>2015-03-01T11:36:09Z</time>
      </trkpt>
      <trkpt lat="50.55089" lon="1.63725">
        <ele>76</ele>
        <time>2015-03-01T11:36:17Z</time>
      </trkpt>
      <trkpt lat="50.5509" lon="1.63715">
        <ele>76</ele>
        <time>2015-03-01T11:36:22Z</time>
      </trkpt>
      <trkpt lat="50.55091" lon="1.63702">
        <ele>75</ele>
        <time>2015-03-01T11:36:28Z</time>
      </trkpt>
      <trkpt lat="50.55091" lon="1.63692">
        <ele>74</ele>
        <time>2015-03-01T11:36:33Z</time>
      </trkpt>
      <trkpt lat="50.55092" lon="1.63683">
        <ele>73</ele>
        <time>2015-03-01T11:36:38Z</time>
      </trkpt>
      <trkpt lat="50.55094" lon="1.63673">
        <ele>72</ele>
        <time>2015-03-01T11:36:44Z</time>
      </trkpt>
      <trkpt lat="50.55094" lon="1.63664">
        <ele>71</ele>
        <time>2015-03-01T11:36:49Z</time>
      </trkpt>
      <trkpt lat="50.55095" lon="1.63655">
        <ele>71</ele>
        <time>2015-03-01T11:36:54Z</time>
      </trkpt>
      <trkpt lat="50.55096" lon="1.63646">
        <ele>71</ele>
        <time>2015-03-01T11:36:59Z</time>
      </trkpt>
      <trkpt lat="50.55097" lon="1.63638">
        <ele>71</ele>
        <time>2015-03-01T11:37:04Z</time>
      </trkpt>
      <trkpt lat="50.55098" lon="1.6363">
        <ele>71</ele>
        <time>2015-03-01T11:37:09Z</time>
      </trkpt>
      <trkpt lat="50.55098" lon="1.63621">
        <ele>71</ele>
        <time>2015-03-01T11:37:14Z</time>
      </trkpt>
      <trkpt lat="50.55099" lon="1.63612">
        <ele>71</ele>
        <time>2015-03-01T11:37:19Z</time>
      </trkpt>
      <trkpt lat="50.55099" lon="1.63602">
        <ele>72</ele>
        <time>2015-03-01T11:37:24Z</time>
      </trkpt>
      <trkpt lat="50.551" lon="1.63594">
        <ele>72</ele>
        <time>2015-03-01T11:37:29Z</time>
      </trkpt>
      <trkpt lat="50.55098" lon="1.63585">
        <ele>72</ele>
        <time>2015-03-01T11:37:35Z</time>
      </trkpt>
      <trkpt lat="50.55096" lon="1.63583">
        <ele>72</ele>
        <time>2015-03-01T11:37:40Z</time>
      </trkpt>
      <trkpt lat="50.55096" lon="1.63579">
        <ele>72</ele>
        <time>2015-03-01T11:37:46Z</time>
      </trkpt>
      <trkpt lat="50.55098" lon="1.63574">
        <ele>72</ele>
        <time>2015-03-01T11:37:51Z</time>
      </trkpt>
      <trkpt lat="50.55099" lon="1.63566">
        <ele>72</ele>
        <time>2015-03-01T11:37:56Z</time>
      </trkpt>
      <trkpt lat="50.551" lon="1.63559">
        <ele>73</ele>
        <time>2015-03-01T11:38:01Z</time>
      </trkpt>
      <trkpt lat="50.55101" lon="1.6355">
        <ele>73</ele>
        <time>2015-03-01T11:38:07Z</time>
      </trkpt>
      <trkpt lat="50.55102" lon="1.63542">
        <ele>73</ele>
        <time>2015-03-01T11:38:12Z</time>
      </trkpt>
      <trkpt lat="50.55104" lon="1.63535">
        <ele>73</ele>
        <time>2015-03-01T11:38:17Z</time>
      </trkpt>
      <trkpt lat="50.55104" lon="1.63525">
        <ele>73</ele>
        <time>2015-03-01T11:38:23Z</time>
      </trkpt>
      <trkpt lat="50.55105" lon="1.63517">
        <ele>73</ele>
        <time>2015-03-01T11:38:28Z</time>
      </trkpt>
      <trkpt lat="50.55106" lon="1.63508">
        <ele>73</ele>
        <time>2015-03-01T11:38:33Z</time>
      </trkpt>
      <trkpt lat="50.55107" lon="1.635">
        <ele>73</ele>
        <time>2015-03-01T11:38:38Z</time>
      </trkpt>
      <trkpt lat="50.55108" lon="1.63491">
        <ele>75</ele>
        <time>2015-03-01T11:38:43Z</time>
      </trkpt>
      <trkpt lat="50.55109" lon="1.63483">
        <ele>75</ele>
        <time>2015-03-01T11:38:48Z</time>
      </trkpt>
      <trkpt lat="50.55111" lon="1.63476">
        <ele>75</ele>
        <time>2015-03-01T11:38:53Z</time>
      </trkpt>
      <trkpt lat="50.5511" lon="1.63467">
        <ele>76</ele>
        <time>2015-03-01T11:38:59Z</time>
      </trkpt>
      <trkpt lat="50.55109" lon="1.6346">
        <ele>76</ele>
        <time>2015-03-01T11:39:04Z</time>
      </trkpt>
      <trkpt lat="50.55107" lon="1.63456">
        <ele>76</ele>
        <time>2015-03-01T11:39:09Z</time>
      </trkpt>
      <trkpt lat="50.55107" lon="1.63445">
        <ele>76</ele>
        <time>2015-03-01T11:39:18Z</time>
      </trkpt>
      <trkpt lat="50.5511" lon="1.63438">
        <ele>77</ele>
        <time>2015-03-01T11:39:24Z</time>
      </trkpt>
      <trkpt lat="50.55116" lon="1.63424">
        <ele>77</ele>
        <time>2015-03-01T11:39:33Z</time>
      </trkpt>
      <trkpt lat="50.55119" lon="1.63416">
        <ele>80</ele>
        <time>2015-03-01T11:39:39Z</time>
      </trkpt>
      <trkpt lat="50.55122" lon="1.63409">
        <ele>81</ele>
        <time>2015-03-01T11:39:45Z</time>
      </trkpt>
      <trkpt lat="50.55124" lon="1.63401">
        <ele>81</ele>
        <time>2015-03-01T11:39:50Z</time>
      </trkpt>
      <trkpt lat="50.55127" lon="1.63392">
        <ele>81</ele>
        <time>2015-03-01T11:39:56Z</time>
      </trkpt>
      <trkpt lat="50.55127" lon="1.63385">
        <ele>81</ele>
        <time>2015-03-01T11:40:02Z</time>
      </trkpt>
      <trkpt lat="50.55129" lon="1.63375">
        <ele>82</ele>
        <time>2015-03-01T11:40:08Z</time>
      </trkpt>
      <trkpt lat="50.55132" lon="1.63363">
        <ele>82</ele>
        <time>2015-03-01T11:40:14Z</time>
      </trkpt>
      <trkpt lat="50.55134" lon="1.63354">
        <ele>83</ele>
        <time>2015-03-01T11:40:19Z</time>
      </trkpt>
      <trkpt lat="50.55137" lon="1.63346">
        <ele>83</ele>
        <time>2015-03-01T11:40:24Z</time>
      </trkpt>
      <trkpt lat="50.55139" lon="1.63338">
        <ele>83</ele>
        <time>2015-03-01T11:40:29Z</time>
      </trkpt>
      <trkpt lat="50.55142" lon="1.63328">
        <ele>86</ele>
        <time>2015-03-01T11:40:35Z</time>
      </trkpt>
      <trkpt lat="50.55144" lon="1.63319">
        <ele>86</ele>
        <time>2015-03-01T11:40:40Z</time>
      </trkpt>
      <trkpt lat="50.55146" lon="1.6331">
        <ele>86</ele>
        <time>2015-03-01T11:40:45Z</time>
      </trkpt>
      <trkpt lat="50.55148" lon="1.63299">
        <ele>86</ele>
        <time>2015-03-01T11:40:51Z</time>
      </trkpt>
      <trkpt lat="50.5515" lon="1.6329">
        <ele>87</ele>
        <time>2015-03-01T11:40:56Z</time>
      </trkpt>
      <trkpt lat="50.55152" lon="1.63281">
        <ele>87</ele>
        <time>2015-03-01T11:41:01Z</time>
      </trkpt>
      <trkpt lat="50.55155" lon="1.63273">
        <ele>87</ele>
        <time>2015-03-01T11:41:06Z</time>
      </trkpt>
      <trkpt lat="50.55158" lon="1.63265">
        <ele>88</ele>
        <time>2015-03-01T11:41:11Z</time>
      </trkpt>
      <trkpt lat="50.55158" lon="1.63258">
        <ele>88</ele>
        <time>2015-03-01T11:41:17Z</time>
      </trkpt>
      <trkpt lat="50.5516" lon="1.6325">
        <ele>90</ele>
        <time>2015-03-01T11:41:22Z</time>
      </trkpt>
      <trkpt lat="50.55163" lon="1.63241">
        <ele>90</ele>
        <time>2015-03-01T11:41:27Z</time>
      </trkpt>
      <trkpt lat="50.55165" lon="1.63231">
        <ele>90</ele>
        <time>2015-03-01T11:41:32Z</time>
      </trkpt>
      <trkpt lat="50.55168" lon="1.63222">
        <ele>91</ele>
        <time>2015-03-01T11:41:37Z</time>
      </trkpt>
      <trkpt lat="50.5517" lon="1.63213">
        <ele>91</ele>
        <time>2015-03-01T11:41:42Z</time>
      </trkpt>
      <trkpt lat="50.55173" lon="1.63203">
        <ele>91</ele>
        <time>2015-03-01T11:41:47Z</time>
      </trkpt>
      <trkpt lat="50.55175" lon="1.63194">
        <ele>91</ele>
        <time>2015-03-01T11:41:52Z</time>
      </trkpt>
      <trkpt lat="50.55177" lon="1.63184">
        <ele>91</ele>
        <time>2015-03-01T11:41:57Z</time>
      </trkpt>
      <trkpt lat="50.55179" lon="1.63174">
        <ele>92</ele>
        <time>2015-03-01T11:42:02Z</time>
      </trkpt>
      <trkpt lat="50.55181" lon="1.63164">
        <ele>90</ele>
        <time>2015-03-01T11:42:07Z</time>
      </trkpt>
      <trkpt lat="50.55183" lon="1.63154">
        <ele>90</ele>
        <time>2015-03-01T11:42:12Z</time>
      </trkpt>
      <trkpt lat="50.55185" lon="1.63146">
        <ele>89</ele>
        <time>2015-03-01T11:42:17Z</time>
      </trkpt>
      <trkpt lat="50.55187" lon="1.63137">
        <ele>89</ele>
        <time>2015-03-01T11:42:22Z</time>
      </trkpt>
      <trkpt lat="50.5519" lon="1.63128">
        <ele>88</ele>
        <time>2015-03-01T11:42:27Z</time>
      </trkpt>
      <trkpt lat="50.55194" lon="1.6312">
        <ele>88</ele>
        <time>2015-03-01T11:42:32Z</time>
      </trkpt>
      <trkpt lat="50.55199" lon="1.63117">
        <ele>88</ele>
        <time>2015-03-01T11:42:37Z</time>
      </trkpt>
      <trkpt lat="50.55204" lon="1.63117">
        <ele>87</ele>
        <time>2015-03-01T11:42:42Z</time>
      </trkpt>
      <trkpt lat="50.55212" lon="1.6312">
        <ele>87</ele>
        <time>2015-03-01T11:42:48Z</time>
      </trkpt>
      <trkpt lat="50.55218" lon="1.63125">
        <ele>88</ele>
        <time>2015-03-01T11:42:53Z</time>
      </trkpt>
      <trkpt lat="50.55224" lon="1.63128">
        <ele>88</ele>
        <time>2015-03-01T11:42:58Z</time>
      </trkpt>
      <trkpt lat="50.5523" lon="1.63132">
        <ele>88</ele>
        <time>2015-03-01T11:43:04Z</time>
      </trkpt>
      <trkpt lat="50.55236" lon="1.63135">
        <ele>88</ele>
        <time>2015-03-01T11:43:09Z</time>
      </trkpt>
      <trkpt lat="50.55241" lon="1.63138">
        <ele>88</ele>
        <time>2015-03-01T11:43:14Z</time>
      </trkpt>
      <trkpt lat="50.55248" lon="1.63142">
        <ele>89</ele>
        <time>2015-03-01T11:43:20Z</time>
      </trkpt>
      <trkpt lat="50.55255" lon="1.63145">
        <ele>88</ele>
        <time>2015-03-01T11:43:25Z</time>
      </trkpt>
      <trkpt lat="50.55261" lon="1.63148">
        <ele>88</ele>
        <time>2015-03-01T11:43:30Z</time>
      </trkpt>
      <trkpt lat="50.55269" lon="1.63152">
        <ele>88</ele>
        <time>2015-03-01T11:43:36Z</time>
      </trkpt>
      <trkpt lat="50.55275" lon="1.63155">
        <ele>88</ele>
        <time>2015-03-01T11:43:41Z</time>
      </trkpt>
      <trkpt lat="50.55281" lon="1.6316">
        <ele>88</ele>
        <time>2015-03-01T11:43:47Z</time>
      </trkpt>
      <trkpt lat="50.55286" lon="1.63165">
        <ele>88</ele>
        <time>2015-03-01T11:43:52Z</time>
      </trkpt>
      <trkpt lat="50.55292" lon="1.63167">
        <ele>91</ele>
        <time>2015-03-01T11:43:57Z</time>
      </trkpt>
      <trkpt lat="50.55297" lon="1.63165">
        <ele>88</ele>
        <time>2015-03-01T11:44:02Z</time>
      </trkpt>
      <trkpt lat="50.55303" lon="1.63157">
        <ele>88</ele>
        <time>2015-03-01T11:44:08Z</time>
      </trkpt>
      <trkpt lat="50.55306" lon="1.6315">
        <ele>87</ele>
        <time>2015-03-01T11:44:14Z</time>
      </trkpt>
      <trkpt lat="50.55309" lon="1.63143">
        <ele>87</ele>
        <time>2015-03-01T11:44:20Z</time>
      </trkpt>
      <trkpt lat="50.55313" lon="1.63135">
        <ele>87</ele>
        <time>2015-03-01T11:44:26Z</time>
      </trkpt>
      <trkpt lat="50.55318" lon="1.63129">
        <ele>86</ele>
        <time>2015-03-01T11:44:31Z</time>
      </trkpt>
      <trkpt lat="50.55321" lon="1.6312">
        <ele>85</ele>
        <time>2015-03-01T11:44:36Z</time>
      </trkpt>
      <trkpt lat="50.55324" lon="1.6311">
        <ele>85</ele>
        <time>2015-03-01T11:44:42Z</time>
      </trkpt>
      <trkpt lat="50.55328" lon="1.63103">
        <ele>84</ele>
        <time>2015-03-01T11:44:47Z</time>
      </trkpt>
      <trkpt lat="50.55333" lon="1.63096">
        <ele>83</ele>
        <time>2015-03-01T11:44:52Z</time>
      </trkpt>
      <trkpt lat="50.55336" lon="1.63088">
        <ele>82</ele>
        <time>2015-03-01T11:44:57Z</time>
      </trkpt>
      <trkpt lat="50.5534" lon="1.6308">
        <ele>80</ele>
        <time>2015-03-01T11:45:02Z</time>
      </trkpt>
      <trkpt lat="50.55344" lon="1.63072">
        <ele>79</ele>
        <time>2015-03-01T11:45:07Z</time>
      </trkpt>
      <trkpt lat="50.55348" lon="1.63064">
        <ele>79</ele>
        <time>2015-03-01T11:45:12Z</time>
      </trkpt>
      <trkpt lat="50.55353" lon="1.63058">
        <ele>78</ele>
        <time>2015-03-01T11:45:17Z</time>
      </trkpt>
      <trkpt lat="50.55357" lon="1.63048">
        <ele>78</ele>
        <time>2015-03-01T11:45:22Z</time>
      </trkpt>
      <trkpt lat="50.55362" lon="1.63039">
        <ele>77</ele>
        <time>2015-03-01T11:45:27Z</time>
      </trkpt>
      <trkpt lat="50.55366" lon="1.63032">
        <ele>77</ele>
        <time>2015-03-01T11:45:32Z</time>
      </trkpt>
      <trkpt lat="50.5537" lon="1.63023">
        <ele>76</ele>
        <time>2015-03-01T11:45:37Z</time>
      </trkpt>
      <trkpt lat="50.55375" lon="1.63015">
        <ele>76</ele>
        <time>2015-03-01T11:45:42Z</time>
      </trkpt>
      <trkpt lat="50.55379" lon="1.63007">
        <ele>76</ele>
        <time>2015-03-01T11:45:47Z</time>
      </trkpt>
      <trkpt lat="50.55384" lon="1.62999">
        <ele>73</ele>
        <time>2015-03-01T11:45:53Z</time>
      </trkpt>
      <trkpt lat="50.5539" lon="1.6299">
        <ele>73</ele>
        <time>2015-03-01T11:45:59Z</time>
      </trkpt>
      <trkpt lat="50.55395" lon="1.62982">
        <ele>73</ele>
        <time>2015-03-01T11:46:05Z</time>
      </trkpt>
      <trkpt lat="50.554" lon="1.62973">
        <ele>73</ele>
        <time>2015-03-01T11:46:11Z</time>
      </trkpt>
      <trkpt lat="50.55405" lon="1.62963">
        <ele>73</ele>
        <time>2015-03-01T11:46:17Z</time>
      </trkpt>
      <trkpt lat="50.5541" lon="1.62953">
        <ele>73</ele>
        <time>2015-03-01T11:46:23Z</time>
      </trkpt>
      <trkpt lat="50.55415" lon="1.62945">
        <ele>73</ele>
        <time>2015-03-01T11:46:28Z</time>
      </trkpt>
      <trkpt lat="50.55419" lon="1.62936">
        <ele>74</ele>
        <time>2015-03-01T11:46:34Z</time>
      </trkpt>
      <trkpt lat="50.55422" lon="1.62928">
        <ele>74</ele>
        <time>2015-03-01T11:46:39Z</time>
      </trkpt>
      <trkpt lat="50.55427" lon="1.62919">
        <ele>74</ele>
        <time>2015-03-01T11:46:45Z</time>
      </trkpt>
      <trkpt lat="50.55431" lon="1.62911">
        <ele>74</ele>
        <time>2015-03-01T11:46:50Z</time>
      </trkpt>
      <trkpt lat="50.55434" lon="1.62901">
        <ele>74</ele>
        <time>2015-03-01T11:46:55Z</time>
      </trkpt>
      <trkpt lat="50.55438" lon="1.62892">
        <ele>74</ele>
        <time>2015-03-01T11:47:01Z</time>
      </trkpt>
      <trkpt lat="50.55442" lon="1.62882">
        <ele>74</ele>
        <time>2015-03-01T11:47:07Z</time>
      </trkpt>
      <trkpt lat="50.55447" lon="1.62873">
        <ele>74</ele>
        <time>2015-03-01T11:47:12Z</time>
      </trkpt>
      <trkpt lat="50.55451" lon="1.62865">
        <ele>74</ele>
        <time>2015-03-01T11:47:17Z</time>
      </trkpt>
      <trkpt lat="50.55455" lon="1.62856">
        <ele>74</ele>
        <time>2015-03-01T11:47:22Z</time>
      </trkpt>
      <trkpt lat="50.55458" lon="1.62847">
        <ele>74</ele>
        <time>2015-03-01T11:47:27Z</time>
      </trkpt>
      <trkpt lat="50.55462" lon="1.62839">
        <ele>74</ele>
        <time>2015-03-01T11:47:32Z</time>
      </trkpt>
      <trkpt lat="50.55465" lon="1.62829">
        <ele>74</ele>
        <time>2015-03-01T11:47:38Z</time>
      </trkpt>
      <trkpt lat="50.55469" lon="1.62821">
        <ele>74</ele>
        <time>2015-03-01T11:47:43Z</time>
      </trkpt>
      <trkpt lat="50.55473" lon="1.62813">
        <ele>74</ele>
        <time>2015-03-01T11:47:49Z</time>
      </trkpt>
      <trkpt lat="50.55475" lon="1.62804">
        <ele>75</ele>
        <time>2015-03-01T11:47:54Z</time>
      </trkpt>
      <trkpt lat="50.55479" lon="1.62795">
        <ele>75</ele>
        <time>2015-03-01T11:48:00Z</time>
      </trkpt>
      <trkpt lat="50.55484" lon="1.62787">
        <ele>75</ele>
        <time>2015-03-01T11:48:05Z</time>
      </trkpt>
      <trkpt lat="50.55487" lon="1.62779">
        <ele>75</ele>
        <time>2015-03-01T11:48:10Z</time>
      </trkpt>
      <trkpt lat="50.55493" lon="1.62769">
        <ele>75</ele>
        <time>2015-03-01T11:48:16Z</time>
      </trkpt>
      <trkpt lat="50.55498" lon="1.62762">
        <ele>75</ele>
        <time>2015-03-01T11:48:21Z</time>
      </trkpt>
      <trkpt lat="50.55505" lon="1.62751">
        <ele>75</ele>
        <time>2015-03-01T11:48:27Z</time>
      </trkpt>
      <trkpt lat="50.55509" lon="1.62741">
        <ele>75</ele>
        <time>2015-03-01T11:48:33Z</time>
      </trkpt>
      <trkpt lat="50.55512" lon="1.62733">
        <ele>75</ele>
        <time>2015-03-01T11:48:38Z</time>
      </trkpt>
      <trkpt lat="50.55517" lon="1.62724">
        <ele>76</ele>
        <time>2015-03-01T11:48:43Z</time>
      </trkpt>
      <trkpt lat="50.55523" lon="1.62716">
        <ele>76</ele>
        <time>2015-03-01T11:48:48Z</time>
      </trkpt>
      <trkpt lat="50.55528" lon="1.62706">
        <ele>76</ele>
        <time>2015-03-01T11:48:54Z</time>
      </trkpt>
      <trkpt lat="50.55532" lon="1.62698">
        <ele>76</ele>
        <time>2015-03-01T11:49:00Z</time>
      </trkpt>
      <trkpt lat="50.55535" lon="1.62689">
        <ele>76</ele>
        <time>2015-03-01T11:49:06Z</time>
      </trkpt>
      <trkpt lat="50.55539" lon="1.6268">
        <ele>76</ele>
        <time>2015-03-01T11:49:12Z</time>
      </trkpt>
      <trkpt lat="50.55543" lon="1.62669">
        <ele>76</ele>
        <time>2015-03-01T11:49:18Z</time>
      </trkpt>
      <trkpt lat="50.55546" lon="1.62662">
        <ele>77</ele>
        <time>2015-03-01T11:49:23Z</time>
      </trkpt>
      <trkpt lat="50.55549" lon="1.62653">
        <ele>77</ele>
        <time>2015-03-01T11:49:28Z</time>
      </trkpt>
      <trkpt lat="50.55561" lon="1.62641">
        <ele>77</ele>
        <time>2015-03-01T11:49:38Z</time>
      </trkpt>
      <trkpt lat="50.55565" lon="1.62633">
        <ele>77</ele>
        <time>2015-03-01T11:49:43Z</time>
      </trkpt>
      <trkpt lat="50.55569" lon="1.62625">
        <ele>77</ele>
        <time>2015-03-01T11:49:48Z</time>
      </trkpt>
      <trkpt lat="50.55573" lon="1.62617">
        <ele>77</ele>
        <time>2015-03-01T11:49:53Z</time>
      </trkpt>
      <trkpt lat="50.55576" lon="1.62609">
        <ele>78</ele>
        <time>2015-03-01T11:49:59Z</time>
      </trkpt>
      <trkpt lat="50.55574" lon="1.62606">
        <ele>78</ele>
        <time>2015-03-01T11:50:04Z</time>
      </trkpt>
      <trkpt lat="50.55569" lon="1.62602">
        <ele>78</ele>
        <time>2015-03-01T11:50:09Z</time>
      </trkpt>
      <trkpt lat="50.55563" lon="1.62599">
        <ele>78</ele>
        <time>2015-03-01T11:50:14Z</time>
      </trkpt>
      <trkpt lat="50.55558" lon="1.62594">
        <ele>78</ele>
        <time>2015-03-01T11:50:20Z</time>
      </trkpt>
      <trkpt lat="50.55553" lon="1.62588">
        <ele>78</ele>
        <time>2015-03-01T11:50:26Z</time>
      </trkpt>
      <trkpt lat="50.55548" lon="1.62583">
        <ele>80</ele>
        <time>2015-03-01T11:50:32Z</time>
      </trkpt>
      <trkpt lat="50.55543" lon="1.62577">
        <ele>80</ele>
        <time>2015-03-01T11:50:38Z</time>
      </trkpt>
      <trkpt lat="50.55544" lon="1.62567">
        <ele>80</ele>
        <time>2015-03-01T11:50:44Z</time>
      </trkpt>
      <trkpt lat="50.55548" lon="1.6256">
        <ele>80</ele>
        <time>2015-03-01T11:50:50Z</time>
      </trkpt>
      <trkpt lat="50.5555" lon="1.62553">
        <ele>80</ele>
        <time>2015-03-01T11:50:55Z</time>
      </trkpt>
      <trkpt lat="50.55557" lon="1.62544">
        <ele>80</ele>
        <time>2015-03-01T11:51:01Z</time>
      </trkpt>
      <trkpt lat="50.55561" lon="1.62537">
        <ele>80</ele>
        <time>2015-03-01T11:51:06Z</time>
      </trkpt>
      <trkpt lat="50.55565" lon="1.62529">
        <ele>80</ele>
        <time>2015-03-01T11:51:11Z</time>
      </trkpt>
      <trkpt lat="50.55568" lon="1.6252">
        <ele>80</ele>
        <time>2015-03-01T11:51:17Z</time>
      </trkpt>
      <trkpt lat="50.55568" lon="1.62511">
        <ele>80</ele>
        <time>2015-03-01T11:51:22Z</time>
      </trkpt>
      <trkpt lat="50.55569" lon="1.62502">
        <ele>80</ele>
        <time>2015-03-01T11:51:27Z</time>
      </trkpt>
      <trkpt lat="50.55571" lon="1.62493">
        <ele>80</ele>
        <time>2015-03-01T11:51:32Z</time>
      </trkpt>
      <trkpt lat="50.55574" lon="1.62485">
        <ele>80</ele>
        <time>2015-03-01T11:51:37Z</time>
      </trkpt>
      <trkpt lat="50.55575" lon="1.62472">
        <ele>80</ele>
        <time>2015-03-01T11:51:43Z</time>
      </trkpt>
      <trkpt lat="50.55577" lon="1.62463">
        <ele>80</ele>
        <time>2015-03-01T11:51:49Z</time>
      </trkpt>
      <trkpt lat="50.55577" lon="1.62452">
        <ele>80</ele>
        <time>2015-03-01T11:51:54Z</time>
      </trkpt>
      <trkpt lat="50.55578" lon="1.6244">
        <ele>80</ele>
        <time>2015-03-01T11:51:59Z</time>
      </trkpt>
      <trkpt lat="50.55581" lon="1.62431">
        <ele>80</ele>
        <time>2015-03-01T11:52:04Z</time>
      </trkpt>
      <trkpt lat="50.55582" lon="1.62419">
        <ele>79</ele>
        <time>2015-03-01T11:52:09Z</time>
      </trkpt>
      <trkpt lat="50.55585" lon="1.62411">
        <ele>79</ele>
        <time>2015-03-01T11:52:14Z</time>
      </trkpt>
      <trkpt lat="50.55589" lon="1.62403">
        <ele>79</ele>
        <time>2015-03-01T11:52:19Z</time>
      </trkpt>
      <trkpt lat="50.5559" lon="1.62395">
        <ele>79</ele>
        <time>2015-03-01T11:52:24Z</time>
      </trkpt>
      <trkpt lat="50.55594" lon="1.62387">
        <ele>79</ele>
        <time>2015-03-01T11:52:29Z</time>
      </trkpt>
      <trkpt lat="50.55595" lon="1.62376">
        <ele>79</ele>
        <time>2015-03-01T11:52:34Z</time>
      </trkpt>
      <trkpt lat="50.55595" lon="1.62368">
        <ele>79</ele>
        <time>2015-03-01T11:52:40Z</time>
      </trkpt>
      <trkpt lat="50.55594" lon="1.62357">
        <ele>79</ele>
        <time>2015-03-01T11:52:45Z</time>
      </trkpt>
      <trkpt lat="50.55592" lon="1.62346">
        <ele>79</ele>
        <time>2015-03-01T11:52:50Z</time>
      </trkpt>
      <trkpt lat="50.55594" lon="1.62336">
        <ele>79</ele>
        <time>2015-03-01T11:52:55Z</time>
      </trkpt>
      <trkpt lat="50.55593" lon="1.62327">
        <ele>77</ele>
        <time>2015-03-01T11:53:00Z</time>
      </trkpt>
      <trkpt lat="50.55592" lon="1.62319">
        <ele>77</ele>
        <time>2015-03-01T11:53:05Z</time>
      </trkpt>
      <trkpt lat="50.55589" lon="1.62311">
        <ele>76</ele>
        <time>2015-03-01T11:53:10Z</time>
      </trkpt>
      <trkpt lat="50.55584" lon="1.623">
        <ele>75</ele>
        <time>2015-03-01T11:53:16Z</time>
      </trkpt>
      <trkpt lat="50.55582" lon="1.6229">
        <ele>74</ele>
        <time>2015-03-01T11:53:22Z</time>
      </trkpt>
      <trkpt lat="50.55582" lon="1.62283">
        <ele>74</ele>
        <time>2015-03-01T11:53:28Z</time>
      </trkpt>
      <trkpt lat="50.55579" lon="1.6227">
        <ele>72</ele>
        <time>2015-03-01T11:53:33Z</time>
      </trkpt>
      <trkpt lat="50.55579" lon="1.6226">
        <ele>71</ele>
        <time>2015-03-01T11:53:38Z</time>
      </trkpt>
      <trkpt lat="50.55582" lon="1.62255">
        <ele>70</ele>
        <time>2015-03-01T11:53:43Z</time>
      </trkpt>
      <trkpt lat="50.55585" lon="1.62248">
        <ele>69</ele>
        <time>2015-03-01T11:53:49Z</time>
      </trkpt>
      <trkpt lat="50.55589" lon="1.62241">
        <ele>68</ele>
        <time>2015-03-01T11:53:55Z</time>
      </trkpt>
      <trkpt lat="50.55594" lon="1.62238">
        <ele>67</ele>
        <time>2015-03-01T11:54:00Z</time>
      </trkpt>
      <trkpt lat="50.55599" lon="1.62233">
        <ele>67</ele>
        <time>2015-03-01T11:54:06Z</time>
      </trkpt>
      <trkpt lat="50.55603" lon="1.62228">
        <ele>66</ele>
        <time>2015-03-01T11:54:11Z</time>
      </trkpt>
      <trkpt lat="50.55607" lon="1.62222">
        <ele>66</ele>
        <time>2015-03-01T11:54:17Z</time>
      </trkpt>
      <trkpt lat="50.55613" lon="1.62215">
        <ele>65</ele>
        <time>2015-03-01T11:54:23Z</time>
      </trkpt>
      <trkpt lat="50.55618" lon="1.62209">
        <ele>65</ele>
        <time>2015-03-01T11:54:28Z</time>
      </trkpt>
      <trkpt lat="50.55623" lon="1.62205">
        <ele>65</ele>
        <time>2015-03-01T11:54:33Z</time>
      </trkpt>
      <trkpt lat="50.55629" lon="1.62199">
        <ele>65</ele>
        <time>2015-03-01T11:54:39Z</time>
      </trkpt>
      <trkpt lat="50.55635" lon="1.62195">
        <ele>64</ele>
        <time>2015-03-01T11:54:44Z</time>
      </trkpt>
      <trkpt lat="50.55639" lon="1.6219">
        <ele>64</ele>
        <time>2015-03-01T11:54:49Z</time>
      </trkpt>
      <trkpt lat="50.55646" lon="1.62187">
        <ele>64</ele>
        <time>2015-03-01T11:54:54Z</time>
      </trkpt>
      <trkpt lat="50.55653" lon="1.6218">
        <ele>63</ele>
        <time>2015-03-01T11:55:00Z</time>
      </trkpt>
      <trkpt lat="50.5566" lon="1.62178">
        <ele>63</ele>
        <time>2015-03-01T11:55:06Z</time>
      </trkpt>
      <trkpt lat="50.55666" lon="1.62176">
        <ele>62</ele>
        <time>2015-03-01T11:55:11Z</time>
      </trkpt>
      <trkpt lat="50.55673" lon="1.62174">
        <ele>62</ele>
        <time>2015-03-01T11:55:16Z</time>
      </trkpt>
      <trkpt lat="50.55681" lon="1.62172">
        <ele>63</ele>
        <time>2015-03-01T11:55:21Z</time>
      </trkpt>
      <trkpt lat="50.55686" lon="1.6217">
        <ele>63</ele>
        <time>2015-03-01T11:55:27Z</time>
      </trkpt>
      <trkpt lat="50.55689" lon="1.62167">
        <ele>63</ele>
        <time>2015-03-01T11:55:32Z</time>
      </trkpt>
      <trkpt lat="50.55695" lon="1.62165">
        <ele>58</ele>
        <time>2015-03-01T11:55:37Z</time>
      </trkpt>
      <trkpt lat="50.55699" lon="1.62163">
        <ele>58</ele>
        <time>2015-03-01T11:55:42Z</time>
      </trkpt>
      <trkpt lat="50.55704" lon="1.62158">
        <ele>57</ele>
        <time>2015-03-01T11:55:47Z</time>
      </trkpt>
      <trkpt lat="50.5571" lon="1.62152">
        <ele>57</ele>
        <time>2015-03-01T11:55:52Z</time>
      </trkpt>
      <trkpt lat="50.55715" lon="1.62149">
        <ele>57</ele>
        <time>2015-03-01T11:55:57Z</time>
      </trkpt>
      <trkpt lat="50.55719" lon="1.62145">
        <ele>57</ele>
        <time>2015-03-01T11:56:03Z</time>
      </trkpt>
      <trkpt lat="50.55725" lon="1.62141">
        <ele>56</ele>
        <time>2015-03-01T11:56:08Z</time>
      </trkpt>
      <trkpt lat="50.55733" lon="1.62138">
        <ele>56</ele>
        <time>2015-03-01T11:56:13Z</time>
      </trkpt>
      <trkpt lat="50.55739" lon="1.62137">
        <ele>56</ele>
        <time>2015-03-01T11:56:18Z</time>
      </trkpt>
      <trkpt lat="50.55746" lon="1.62137">
        <ele>56</ele>
        <time>2015-03-01T11:56:23Z</time>
      </trkpt>
      <trkpt lat="50.55752" lon="1.62136">
        <ele>55</ele>
        <time>2015-03-01T11:56:28Z</time>
      </trkpt>
      <trkpt lat="50.55759" lon="1.62132">
        <ele>54</ele>
        <time>2015-03-01T11:56:34Z</time>
      </trkpt>
      <trkpt lat="50.55764" lon="1.62131">
        <ele>54</ele>
        <time>2015-03-01T11:56:41Z</time>
      </trkpt>
      <trkpt lat="50.55769" lon="1.62132">
        <ele>54</ele>
        <time>2015-03-01T11:56:47Z</time>
      </trkpt>
      <trkpt lat="50.55775" lon="1.62131">
        <ele>54</ele>
        <time>2015-03-01T11:56:53Z</time>
      </trkpt>
      <trkpt lat="50.5578" lon="1.62125">
        <ele>53</ele>
        <time>2015-03-01T11:56:59Z</time>
      </trkpt>
      <trkpt lat="50.55784" lon="1.62118">
        <ele>53</ele>
        <time>2015-03-01T11:57:04Z</time>
      </trkpt>
      <trkpt lat="50.55784" lon="1.62103">
        <ele>52</ele>
        <time>2015-03-01T11:57:17Z</time>
      </trkpt>
      <trkpt lat="50.55789" lon="1.6209">
        <ele>52</ele>
        <time>2015-03-01T11:57:22Z</time>
      </trkpt>
      <trkpt lat="50.55793" lon="1.62083">
        <ele>47</ele>
        <time>2015-03-01T11:57:27Z</time>
      </trkpt>
      <trkpt lat="50.55795" lon="1.62075">
        <ele>47</ele>
        <time>2015-03-01T11:57:32Z</time>
      </trkpt>
      <trkpt lat="50.55798" lon="1.62066">
        <ele>47</ele>
        <time>2015-03-01T11:57:38Z</time>
      </trkpt>
      <trkpt lat="50.55801" lon="1.62059">
        <ele>47</ele>
        <time>2015-03-01T11:57:43Z</time>
      </trkpt>
      <trkpt lat="50.55804" lon="1.62051">
        <ele>46</ele>
        <time>2015-03-01T11:57:48Z</time>
      </trkpt>
      <trkpt lat="50.55808" lon="1.62043">
        <ele>46</ele>
        <time>2015-03-01T11:57:53Z</time>
      </trkpt>
      <trkpt lat="50.55811" lon="1.62036">
        <ele>46</ele>
        <time>2015-03-01T11:57:58Z</time>
      </trkpt>
      <trkpt lat="50.55813" lon="1.62026">
        <ele>45</ele>
        <time>2015-03-01T11:58:03Z</time>
      </trkpt>
      <trkpt lat="50.55816" lon="1.62018">
        <ele>45</ele>
        <time>2015-03-01T11:58:08Z</time>
      </trkpt>
      <trkpt lat="50.5582" lon="1.6201">
        <ele>44</ele>
        <time>2015-03-01T11:58:13Z</time>
      </trkpt>
      <trkpt lat="50.55825" lon="1.62">
        <ele>44</ele>
        <time>2015-03-01T11:58:19Z</time>
      </trkpt>
      <trkpt lat="50.55828" lon="1.61992">
        <ele>42</ele>
        <time>2015-03-01T11:58:24Z</time>
      </trkpt>
      <trkpt lat="50.55832" lon="1.61983">
        <ele>42</ele>
        <time>2015-03-01T11:58:29Z</time>
      </trkpt>
      <trkpt lat="50.55835" lon="1.61975">
        <ele>43</ele>
        <time>2015-03-01T11:58:34Z</time>
      </trkpt>
      <trkpt lat="50.55835" lon="1.61971">
        <ele>43</ele>
        <time>2015-03-01T11:58:40Z</time>
      </trkpt>
      <trkpt lat="50.55833" lon="1.61967">
        <ele>43</ele>
        <time>2015-03-01T11:58:48Z</time>
      </trkpt>
      <trkpt lat="50.55832" lon="1.61964">
        <ele>41</ele>
        <time>2015-03-01T11:58:56Z</time>
      </trkpt>
      <trkpt lat="50.55833" lon="1.61959">
        <ele>43</ele>
        <time>2015-03-01T11:59:03Z</time>
      </trkpt>
      <trkpt lat="50.55837" lon="1.61951">
        <ele>42</ele>
        <time>2015-03-01T11:59:08Z</time>
      </trkpt>
      <trkpt lat="50.55841" lon="1.61944">
        <ele>42</ele>
        <time>2015-03-01T11:59:13Z</time>
      </trkpt>
      <trkpt lat="50.55846" lon="1.61936">
        <ele>42</ele>
        <time>2015-03-01T11:59:19Z</time>
      </trkpt>
      <trkpt lat="50.5585" lon="1.61928">
        <ele>41</ele>
        <time>2015-03-01T11:59:24Z</time>
      </trkpt>
      <trkpt lat="50.55856" lon="1.61919">
        <ele>42</ele>
        <time>2015-03-01T11:59:30Z</time>
      </trkpt>
      <trkpt lat="50.55861" lon="1.61912">
        <ele>39</ele>
        <time>2015-03-01T11:59:35Z</time>
      </trkpt>
      <trkpt lat="50.55866" lon="1.61905">
        <ele>39</ele>
        <time>2015-03-01T11:59:41Z</time>
      </trkpt>
      <trkpt lat="50.55871" lon="1.61896">
        <ele>39</ele>
        <time>2015-03-01T11:59:47Z</time>
      </trkpt>
      <trkpt lat="50.55875" lon="1.61888">
        <ele>38</ele>
        <time>2015-03-01T11:59:52Z</time>
      </trkpt>
      <trkpt lat="50.5588" lon="1.61881">
        <ele>38</ele>
        <time>2015-03-01T11:59:57Z</time>
      </trkpt>
      <trkpt lat="50.55883" lon="1.61873">
        <ele>38</ele>
        <time>2015-03-01T12:00:02Z</time>
      </trkpt>
      <trkpt lat="50.55889" lon="1.61866">
        <ele>38</ele>
        <time>2015-03-01T12:00:07Z</time>
      </trkpt>
      <trkpt lat="50.55893" lon="1.61859">
        <ele>37</ele>
        <time>2015-03-01T12:00:12Z</time>
      </trkpt>
      <trkpt lat="50.55899" lon="1.61851">
        <ele>37</ele>
        <time>2015-03-01T12:00:18Z</time>
      </trkpt>
      <trkpt lat="50.55904" lon="1.61844">
        <ele>37</ele>
        <time>2015-03-01T12:00:23Z</time>
      </trkpt>
      <trkpt lat="50.55908" lon="1.61837">
        <ele>36</ele>
        <time>2015-03-01T12:00:28Z</time>
      </trkpt>
      <trkpt lat="50.55913" lon="1.61831">
        <ele>35</ele>
        <time>2015-03-01T12:00:33Z</time>
      </trkpt>
      <trkpt lat="50.55917" lon="1.61823">
        <ele>35</ele>
        <time>2015-03-01T12:00:38Z</time>
      </trkpt>
      <trkpt lat="50.5592" lon="1.61817">
        <ele>35</ele>
        <time>2015-03-01T12:00:44Z</time>
      </trkpt>
      <trkpt lat="50.55923" lon="1.6181">
        <ele>35</ele>
        <time>2015-03-01T12:00:49Z</time>
      </trkpt>
      <trkpt lat="50.55926" lon="1.61801">
        <ele>35</ele>
        <time>2015-03-01T12:00:54Z</time>
      </trkpt>
      <trkpt lat="50.55929" lon="1.61797">
        <ele>35</ele>
        <time>2015-03-01T12:00:59Z</time>
      </trkpt>
      <trkpt lat="50.55938" lon="1.61781">
        <ele>34</ele>
        <time>2015-03-01T12:01:05Z</time>
      </trkpt>
      <trkpt lat="50.55943" lon="1.61772">
        <ele>34</ele>
        <time>2015-03-01T12:01:11Z</time>
      </trkpt>
      <trkpt lat="50.55948" lon="1.61763">
        <ele>34</ele>
        <time>2015-03-01T12:01:16Z</time>
      </trkpt>
      <trkpt lat="50.55951" lon="1.61754">
        <ele>34</ele>
        <time>2015-03-01T12:01:21Z</time>
      </trkpt>
      <trkpt lat="50.55955" lon="1.61746">
        <ele>33</ele>
        <time>2015-03-01T12:01:26Z</time>
      </trkpt>
      <trkpt lat="50.55958" lon="1.61739">
        <ele>33</ele>
        <time>2015-03-01T12:01:31Z</time>
      </trkpt>
      <trkpt lat="50.55962" lon="1.61731">
        <ele>33</ele>
        <time>2015-03-01T12:01:37Z</time>
      </trkpt>
      <trkpt lat="50.55966" lon="1.61723">
        <ele>33</ele>
        <time>2015-03-01T12:01:42Z</time>
      </trkpt>
      <trkpt lat="50.5597" lon="1.61716">
        <ele>33</ele>
        <time>2015-03-01T12:01:47Z</time>
      </trkpt>
      <trkpt lat="50.55974" lon="1.61708">
        <ele>33</ele>
        <time>2015-03-01T12:01:53Z</time>
      </trkpt>
      <trkpt lat="50.5598" lon="1.61703">
        <ele>32</ele>
        <time>2015-03-01T12:01:59Z</time>
      </trkpt>
      <trkpt lat="50.55984" lon="1.61695">
        <ele>32</ele>
        <time>2015-03-01T12:02:04Z</time>
      </trkpt>
      <trkpt lat="50.55988" lon="1.61687">
        <ele>32</ele>
        <time>2015-03-01T12:02:09Z</time>
      </trkpt>
      <trkpt lat="50.55992" lon="1.61681">
        <ele>32</ele>
        <time>2015-03-01T12:02:14Z</time>
      </trkpt>
      <trkpt lat="50.55995" lon="1.61674">
        <ele>32</ele>
        <time>2015-03-01T12:02:19Z</time>
      </trkpt>
      <trkpt lat="50.55997" lon="1.61664">
        <ele>31</ele>
        <time>2015-03-01T12:02:24Z</time>
      </trkpt>
      <trkpt lat="50.56001" lon="1.61656">
        <ele>31</ele>
        <time>2015-03-01T12:02:30Z</time>
      </trkpt>
      <trkpt lat="50.56001" lon="1.61647">
        <ele>30</ele>
        <time>2015-03-01T12:02:35Z</time>
      </trkpt>
      <trkpt lat="50.56004" lon="1.61637">
        <ele>30</ele>
        <time>2015-03-01T12:02:41Z</time>
      </trkpt>
      <trkpt lat="50.56006" lon="1.61627">
        <ele>30</ele>
        <time>2015-03-01T12:02:47Z</time>
      </trkpt>
      <trkpt lat="50.56009" lon="1.61619">
        <ele>30</ele>
        <time>2015-03-01T12:02:52Z</time>
      </trkpt>
      <trkpt lat="50.56011" lon="1.61609">
        <ele>30</ele>
        <time>2015-03-01T12:02:57Z</time>
      </trkpt>
      <trkpt lat="50.56014" lon="1.616">
        <ele>30</ele>
        <time>2015-03-01T12:03:02Z</time>
      </trkpt>
      <trkpt lat="50.56016" lon="1.61595">
        <ele>29</ele>
        <time>2015-03-01T12:03:08Z</time>
      </trkpt>
      <trkpt lat="50.56019" lon="1.61595">
        <ele>30</ele>
        <time>2015-03-01T12:03:17Z</time>
      </trkpt>
      <trkpt lat="50.5602" lon="1.61583">
        <ele>29</ele>
        <time>2015-03-01T12:03:22Z</time>
      </trkpt>
      <trkpt lat="50.56022" lon="1.61574">
        <ele>28</ele>
        <time>2015-03-01T12:03:28Z</time>
      </trkpt>
      <trkpt lat="50.56023" lon="1.61564">
        <ele>28</ele>
        <time>2015-03-01T12:03:34Z</time>
      </trkpt>
      <trkpt lat="50.56023" lon="1.61555">
        <ele>28</ele>
        <time>2015-03-01T12:03:39Z</time>
      </trkpt>
      <trkpt lat="50.56024" lon="1.61546">
        <ele>27</ele>
        <time>2015-03-01T12:03:44Z</time>
      </trkpt>
      <trkpt lat="50.56028" lon="1.61536">
        <ele>27</ele>
        <time>2015-03-01T12:03:49Z</time>
      </trkpt>
      <trkpt lat="50.56031" lon="1.61526">
        <ele>27</ele>
        <time>2015-03-01T12:03:55Z</time>
      </trkpt>
      <trkpt lat="50.56033" lon="1.61518">
        <ele>27</ele>
        <time>2015-03-01T12:04:00Z</time>
      </trkpt>
      <trkpt lat="50.56037" lon="1.61511">
        <ele>27</ele>
        <time>2015-03-01T12:04:06Z</time>
      </trkpt>
      <trkpt lat="50.56039" lon="1.615">
        <ele>27</ele>
        <time>2015-03-01T12:04:11Z</time>
      </trkpt>
      <trkpt lat="50.5604" lon="1.61488">
        <ele>25</ele>
        <time>2015-03-01T12:04:16Z</time>
      </trkpt>
      <trkpt lat="50.56043" lon="1.61479">
        <ele>25</ele>
        <time>2015-03-01T12:04:21Z</time>
      </trkpt>
      <trkpt lat="50.56046" lon="1.61472">
        <ele>25</ele>
        <time>2015-03-01T12:04:26Z</time>
      </trkpt>
      <trkpt lat="50.56049" lon="1.61463">
        <ele>24</ele>
        <time>2015-03-01T12:04:31Z</time>
      </trkpt>
      <trkpt lat="50.56053" lon="1.61455">
        <ele>24</ele>
        <time>2015-03-01T12:04:36Z</time>
      </trkpt>
      <trkpt lat="50.56057" lon="1.61445">
        <ele>24</ele>
        <time>2015-03-01T12:04:42Z</time>
      </trkpt>
      <trkpt lat="50.56062" lon="1.61435">
        <ele>24</ele>
        <time>2015-03-01T12:04:48Z</time>
      </trkpt>
      <trkpt lat="50.56065" lon="1.61426">
        <ele>23</ele>
        <time>2015-03-01T12:04:53Z</time>
      </trkpt>
      <trkpt lat="50.56069" lon="1.61418">
        <ele>23</ele>
        <time>2015-03-01T12:04:59Z</time>
      </trkpt>
      <trkpt lat="50.56075" lon="1.61413">
        <ele>22</ele>
        <time>2015-03-01T12:05:05Z</time>
      </trkpt>
      <trkpt lat="50.56081" lon="1.61406">
        <ele>22</ele>
        <time>2015-03-01T12:05:10Z</time>
      </trkpt>
      <trkpt lat="50.56086" lon="1.61402">
        <ele>22</ele>
        <time>2015-03-01T12:05:15Z</time>
      </trkpt>
      <trkpt lat="50.56093" lon="1.614">
        <ele>22</ele>
        <time>2015-03-01T12:05:21Z</time>
      </trkpt>
      <trkpt lat="50.56098" lon="1.614">
        <ele>22</ele>
        <time>2015-03-01T12:05:27Z</time>
      </trkpt>
      <trkpt lat="50.56103" lon="1.61401">
        <ele>22</ele>
        <time>2015-03-01T12:05:32Z</time>
      </trkpt>
      <trkpt lat="50.56111" lon="1.61404">
        <ele>22</ele>
        <time>2015-03-01T12:05:37Z</time>
      </trkpt>
      <trkpt lat="50.56117" lon="1.61407">
        <ele>22</ele>
        <time>2015-03-01T12:05:42Z</time>
      </trkpt>
      <trkpt lat="50.56127" lon="1.61409">
        <ele>22</ele>
        <time>2015-03-01T12:05:47Z</time>
      </trkpt>
      <trkpt lat="50.56133" lon="1.61411">
        <ele>22</ele>
        <time>2015-03-01T12:05:52Z</time>
      </trkpt>
      <trkpt lat="50.56139" lon="1.61412">
        <ele>22</ele>
        <time>2015-03-01T12:05:57Z</time>
      </trkpt>
      <trkpt lat="50.56145" lon="1.61414">
        <ele>22</ele>
        <time>2015-03-01T12:06:02Z</time>
      </trkpt>
      <trkpt lat="50.56151" lon="1.61417">
        <ele>23</ele>
        <time>2015-03-01T12:06:08Z</time>
      </trkpt>
      <trkpt lat="50.56157" lon="1.61417">
        <ele>23</ele>
        <time>2015-03-01T12:06:13Z</time>
      </trkpt>
      <trkpt lat="50.56162" lon="1.61417">
        <ele>23</ele>
        <time>2015-03-01T12:06:18Z</time>
      </trkpt>
      <trkpt lat="50.56169" lon="1.61419">
        <ele>23</ele>
        <time>2015-03-01T12:06:23Z</time>
      </trkpt>
      <trkpt lat="50.56174" lon="1.61418">
        <ele>23</ele>
        <time>2015-03-01T12:06:28Z</time>
      </trkpt>
      <trkpt lat="50.56181" lon="1.61415">
        <ele>22</ele>
        <time>2015-03-01T12:06:33Z</time>
      </trkpt>
      <trkpt lat="50.56187" lon="1.61409">
        <ele>22</ele>
        <time>2015-03-01T12:06:38Z</time>
      </trkpt>
      <trkpt lat="50.56192" lon="1.61402">
        <ele>22</ele>
        <time>2015-03-01T12:06:44Z</time>
      </trkpt>
      <trkpt lat="50.56197" lon="1.614">
        <ele>21</ele>
        <time>2015-03-01T12:06:50Z</time>
      </trkpt>
      <trkpt lat="50.56198" lon="1.61402">
        <ele>21</ele>
        <time>2015-03-01T12:06:56Z</time>
      </trkpt>
      <trkpt lat="50.56202" lon="1.61395">
        <ele>21</ele>
        <time>2015-03-01T12:07:02Z</time>
      </trkpt>
      <trkpt lat="50.56208" lon="1.61388">
        <ele>21</ele>
        <time>2015-03-01T12:07:07Z</time>
      </trkpt>
      <trkpt lat="50.56213" lon="1.61383">
        <ele>21</ele>
        <time>2015-03-01T12:07:12Z</time>
      </trkpt>
      <trkpt lat="50.5622" lon="1.61377">
        <ele>21</ele>
        <time>2015-03-01T12:07:18Z</time>
      </trkpt>
      <trkpt lat="50.56226" lon="1.61373">
        <ele>21</ele>
        <time>2015-03-01T12:07:23Z</time>
      </trkpt>
      <trkpt lat="50.56229" lon="1.61368">
        <ele>21</ele>
        <time>2015-03-01T12:07:28Z</time>
      </trkpt>
      <trkpt lat="50.56232" lon="1.61364">
        <ele>21</ele>
        <time>2015-03-01T12:07:33Z</time>
      </trkpt>
      <trkpt lat="50.56239" lon="1.61361">
        <ele>20</ele>
        <time>2015-03-01T12:07:39Z</time>
      </trkpt>
      <trkpt lat="50.56245" lon="1.61355">
        <ele>20</ele>
        <time>2015-03-01T12:07:45Z</time>
      </trkpt>
      <trkpt lat="50.56251" lon="1.61353">
        <ele>19</ele>
        <time>2015-03-01T12:07:50Z</time>
      </trkpt>
      <trkpt lat="50.56257" lon="1.61352">
        <ele>19</ele>
        <time>2015-03-01T12:07:55Z</time>
      </trkpt>
      <trkpt lat="50.56263" lon="1.6135">
        <ele>19</ele>
        <time>2015-03-01T12:08:00Z</time>
      </trkpt>
      <trkpt lat="50.5627" lon="1.61349">
        <ele>19</ele>
        <time>2015-03-01T12:08:05Z</time>
      </trkpt>
      <trkpt lat="50.56277" lon="1.61348">
        <ele>20</ele>
        <time>2015-03-01T12:08:10Z</time>
      </trkpt>
      <trkpt lat="50.56285" lon="1.61348">
        <ele>20</ele>
        <time>2015-03-01T12:08:15Z</time>
      </trkpt>
      <trkpt lat="50.56292" lon="1.61347">
        <ele>20</ele>
        <time>2015-03-01T12:08:21Z</time>
      </trkpt>
      <trkpt lat="50.56299" lon="1.61346">
        <ele>20</ele>
        <time>2015-03-01T12:08:26Z</time>
      </trkpt>
      <trkpt lat="50.56304" lon="1.61346">
        <ele>19</ele>
        <time>2015-03-01T12:08:31Z</time>
      </trkpt>
      <trkpt lat="50.5631" lon="1.61345">
        <ele>19</ele>
        <time>2015-03-01T12:08:36Z</time>
      </trkpt>
      <trkpt lat="50.56317" lon="1.61345">
        <ele>19</ele>
        <time>2015-03-01T12:08:41Z</time>
      </trkpt>
      <trkpt lat="50.56322" lon="1.61344">
        <ele>19</ele>
        <time>2015-03-01T12:08:46Z</time>
      </trkpt>
      <trkpt lat="50.56328" lon="1.61341">
        <ele>19</ele>
        <time>2015-03-01T12:08:51Z</time>
      </trkpt>
      <trkpt lat="50.56334" lon="1.61336">
        <ele>19</ele>
        <time>2015-03-01T12:08:57Z</time>
      </trkpt>
      <trkpt lat="50.56339" lon="1.61334">
        <ele>19</ele>
        <time>2015-03-01T12:09:02Z</time>
      </trkpt>
      <trkpt lat="50.56345" lon="1.6133">
        <ele>19</ele>
        <time>2015-03-01T12:09:08Z</time>
      </trkpt>
      <trkpt lat="50.5635" lon="1.61325">
        <ele>19</ele>
        <time>2015-03-01T12:09:13Z</time>
      </trkpt>
      <trkpt lat="50.56354" lon="1.61316">
        <ele>20</ele>
        <time>2015-03-01T12:09:19Z</time>
      </trkpt>
      <trkpt lat="50.56359" lon="1.61309">
        <ele>20</ele>
        <time>2015-03-01T12:09:24Z</time>
      </trkpt>
      <trkpt lat="50.56361" lon="1.61302">
        <ele>20</ele>
        <time>2015-03-01T12:09:30Z</time>
      </trkpt>
      <trkpt lat="50.56364" lon="1.61298">
        <ele>20</ele>
        <time>2015-03-01T12:09:36Z</time>
      </trkpt>
      <trkpt lat="50.5637" lon="1.61293">
        <ele>20</ele>
        <time>2015-03-01T12:09:41Z</time>
      </trkpt>
      <trkpt lat="50.56376" lon="1.61286">
        <ele>20</ele>
        <time>2015-03-01T12:09:47Z</time>
      </trkpt>
      <trkpt lat="50.56381" lon="1.61279">
        <ele>20</ele>
        <time>2015-03-01T12:09:53Z</time>
      </trkpt>
      <trkpt lat="50.56386" lon="1.61274">
        <ele>20</ele>
        <time>2015-03-01T12:09:58Z</time>
      </trkpt>
      <trkpt lat="50.56391" lon="1.61266">
        <ele>20</ele>
        <time>2015-03-01T12:10:04Z</time>
      </trkpt>
      <trkpt lat="50.56396" lon="1.61259">
        <ele>20</ele>
        <time>2015-03-01T12:10:10Z</time>
      </trkpt>
      <trkpt lat="50.564" lon="1.61252">
        <ele>20</ele>
        <time>2015-03-01T12:10:16Z</time>
      </trkpt>
      <trkpt lat="50.56406" lon="1.61245">
        <ele>20</ele>
        <time>2015-03-01T12:10:22Z</time>
      </trkpt>
      <trkpt lat="50.56408" lon="1.61237">
        <ele>20</ele>
        <time>2015-03-01T12:10:27Z</time>
      </trkpt>
      <trkpt lat="50.56413" lon="1.61229">
        <ele>20</ele>
        <time>2015-03-01T12:10:32Z</time>
      </trkpt>
      <trkpt lat="50.56417" lon="1.61222">
        <ele>20</ele>
        <time>2015-03-01T12:10:37Z</time>
      </trkpt>
      <trkpt lat="50.56419" lon="1.61211">
        <ele>20</ele>
        <time>2015-03-01T12:10:42Z</time>
      </trkpt>
      <trkpt lat="50.56423" lon="1.61206">
        <ele>20</ele>
        <time>2015-03-01T12:10:47Z</time>
      </trkpt>
      <trkpt lat="50.56428" lon="1.61194">
        <ele>20</ele>
        <time>2015-03-01T12:10:52Z</time>
      </trkpt>
      <trkpt lat="50.56429" lon="1.61184">
        <ele>20</ele>
        <time>2015-03-01T12:10:57Z</time>
      </trkpt>
      <trkpt lat="50.56431" lon="1.61175">
        <ele>20</ele>
        <time>2015-03-01T12:11:03Z</time>
      </trkpt>
      <trkpt lat="50.56433" lon="1.61163">
        <ele>20</ele>
        <time>2015-03-01T12:11:09Z</time>
      </trkpt>
      <trkpt lat="50.56434" lon="1.61153">
        <ele>20</ele>
        <time>2015-03-01T12:11:14Z</time>
      </trkpt>
      <trkpt lat="50.56435" lon="1.61145">
        <ele>20</ele>
        <time>2015-03-01T12:11:19Z</time>
      </trkpt>
      <trkpt lat="50.56434" lon="1.61138">
        <ele>20</ele>
        <time>2015-03-01T12:11:24Z</time>
      </trkpt>
      <trkpt lat="50.56437" lon="1.61139">
        <ele>20</ele>
        <time>2015-03-01T12:11:31Z</time>
      </trkpt>
      <trkpt lat="50.5644" lon="1.61133">
        <ele>20</ele>
        <time>2015-03-01T12:11:36Z</time>
      </trkpt>
      <trkpt lat="50.56442" lon="1.61131">
        <ele>20</ele>
        <time>2015-03-01T12:11:44Z</time>
      </trkpt>
      <trkpt lat="50.56441" lon="1.61126">
        <ele>20</ele>
        <time>2015-03-01T12:11:52Z</time>
      </trkpt>
      <trkpt lat="50.56438" lon="1.61124">
        <ele>20</ele>
        <time>2015-03-01T12:12:00Z</time>
      </trkpt>
      <trkpt lat="50.56436" lon="1.61112">
        <ele>20</ele>
        <time>2015-03-01T12:12:10Z</time>
      </trkpt>
      <trkpt lat="50.56434" lon="1.61106">
        <ele>20</ele>
        <time>2015-03-01T12:12:17Z</time>
      </trkpt>
      <trkpt lat="50.56434" lon="1.61096">
        <ele>21</ele>
        <time>2015-03-01T12:12:22Z</time>
      </trkpt>
      <trkpt lat="50.56434" lon="1.61091">
        <ele>21</ele>
        <time>2015-03-01T12:12:27Z</time>
      </trkpt>
      <trkpt lat="50.56435" lon="1.61079">
        <ele>21</ele>
        <time>2015-03-01T12:12:36Z</time>
      </trkpt>
      <trkpt lat="50.56438" lon="1.61086">
        <ele>21</ele>
        <time>2015-03-01T12:12:45Z</time>
      </trkpt>
      <trkpt lat="50.56438" lon="1.61079">
        <ele>21</ele>
        <time>2015-03-01T12:12:52Z</time>
      </trkpt>
      <trkpt lat="50.56437" lon="1.61066">
        <ele>21</ele>
        <time>2015-03-01T12:12:57Z</time>
      </trkpt>
      <trkpt lat="50.56437" lon="1.61057">
        <ele>21</ele>
        <time>2015-03-01T12:13:03Z</time>
      </trkpt>
      <trkpt lat="50.56437" lon="1.61055">
        <ele>21</ele>
        <time>2015-03-01T12:13:10Z</time>
      </trkpt>
      <trkpt lat="50.56437" lon="1.61042">
        <ele>21</ele>
        <time>2015-03-01T12:13:17Z</time>
      </trkpt>
      <trkpt lat="50.56434" lon="1.61041">
        <ele>21</ele>
        <time>2015-03-01T12:13:22Z</time>
      </trkpt>
      <trkpt lat="50.56433" lon="1.61031">
        <ele>21</ele>
        <time>2015-03-01T12:13:29Z</time>
      </trkpt>
      <trkpt lat="50.56433" lon="1.61024">
        <ele>21</ele>
        <time>2015-03-01T12:13:35Z</time>
      </trkpt>
      <trkpt lat="50.56433" lon="1.61016">
        <ele>21</ele>
        <time>2015-03-01T12:13:40Z</time>
      </trkpt>
      <trkpt lat="50.56435" lon="1.61006">
        <ele>21</ele>
        <time>2015-03-01T12:13:45Z</time>
      </trkpt>
      <trkpt lat="50.56436" lon="1.60998">
        <ele>21</ele>
        <time>2015-03-01T12:13:50Z</time>
      </trkpt>
      <trkpt lat="50.56435" lon="1.60985">
        <ele>21</ele>
        <time>2015-03-01T12:13:55Z</time>
      </trkpt>
      <trkpt lat="50.56433" lon="1.60973">
        <ele>21</ele>
        <time>2015-03-01T12:14:01Z</time>
      </trkpt>
      <trkpt lat="50.56431" lon="1.60964">
        <ele>21</ele>
        <time>2015-03-01T12:14:06Z</time>
      </trkpt>
      <trkpt lat="50.56428" lon="1.60955">
        <ele>20</ele>
        <time>2015-03-01T12:14:12Z</time>
      </trkpt>
      <trkpt lat="50.56425" lon="1.60951">
        <ele>20</ele>
        <time>2015-03-01T12:14:17Z</time>
      </trkpt>
      <trkpt lat="50.56422" lon="1.60942">
        <ele>20</ele>
        <time>2015-03-01T12:14:22Z</time>
      </trkpt>
      <trkpt lat="50.56417" lon="1.60931">
        <ele>20</ele>
        <time>2015-03-01T12:14:27Z</time>
      </trkpt>
      <trkpt lat="50.56417" lon="1.6092">
        <ele>20</ele>
        <time>2015-03-01T12:14:33Z</time>
      </trkpt>
      <trkpt lat="50.56417" lon="1.60914">
        <ele>20</ele>
        <time>2015-03-01T12:14:38Z</time>
      </trkpt>
      <trkpt lat="50.56414" lon="1.60905">
        <ele>20</ele>
        <time>2015-03-01T12:14:43Z</time>
      </trkpt>
      <trkpt lat="50.56414" lon="1.60901">
        <ele>20</ele>
        <time>2015-03-01T12:14:48Z</time>
      </trkpt>
      <trkpt lat="50.56411" lon="1.60894">
        <ele>20</ele>
        <time>2015-03-01T12:14:54Z</time>
      </trkpt>
      <trkpt lat="50.56414" lon="1.60887">
        <ele>20</ele>
        <time>2015-03-01T12:15:00Z</time>
      </trkpt>
      <trkpt lat="50.56414" lon="1.6088">
        <ele>20</ele>
        <time>2015-03-01T12:15:06Z</time>
      </trkpt>
      <trkpt lat="50.56414" lon="1.60872">
        <ele>20</ele>
        <time>2015-03-01T12:15:11Z</time>
      </trkpt>
      <trkpt lat="50.56415" lon="1.60865">
        <ele>20</ele>
        <time>2015-03-01T12:15:17Z</time>
      </trkpt>
      <trkpt lat="50.56412" lon="1.60863">
        <ele>20</ele>
        <time>2015-03-01T12:15:22Z</time>
      </trkpt>
      <trkpt lat="50.56409" lon="1.60857">
        <ele>20</ele>
        <time>2015-03-01T12:15:28Z</time>
      </trkpt>
      <trkpt lat="50.56405" lon="1.60856">
        <ele>20</ele>
        <time>2015-03-01T12:15:35Z</time>
      </trkpt>
      <trkpt lat="50.56402" lon="1.60854">
        <ele>20</ele>
        <time>2015-03-01T12:15:40Z</time>
      </trkpt>
      <trkpt lat="50.56397" lon="1.60852">
        <ele>20</ele>
        <time>2015-03-01T12:15:45Z</time>
      </trkpt>
      <trkpt lat="50.56393" lon="1.60846">
        <ele>20</ele>
        <time>2015-03-01T12:15:51Z</time>
      </trkpt>
      <trkpt lat="50.56389" lon="1.6084">
        <ele>20</ele>
        <time>2015-03-01T12:15:57Z</time>
      </trkpt>
      <trkpt lat="50.56388" lon="1.60832">
        <ele>20</ele>
        <time>2015-03-01T12:16:03Z</time>
      </trkpt>
      <trkpt lat="50.56387" lon="1.60822">
        <ele>20</ele>
        <time>2015-03-01T12:16:08Z</time>
      </trkpt>
      <trkpt lat="50.56389" lon="1.60806">
        <ele>20</ele>
        <time>2015-03-01T12:16:18Z</time>
      </trkpt>
      <trkpt lat="50.56396" lon="1.60791">
        <ele>20</ele>
        <time>2015-03-01T12:16:27Z</time>
      </trkpt>
      <trkpt lat="50.56401" lon="1.60783">
        <ele>20</ele>
        <time>2015-03-01T12:16:33Z</time>
      </trkpt>
      <trkpt lat="50.56408" lon="1.6078">
        <ele>20</ele>
        <time>2015-03-01T12:16:39Z</time>
      </trkpt>
      <trkpt lat="50.56413" lon="1.60775">
        <ele>20</ele>
        <time>2015-03-01T12:16:44Z</time>
      </trkpt>
      <trkpt lat="50.56412" lon="1.60768">
        <ele>20</ele>
        <time>2015-03-01T12:16:49Z</time>
      </trkpt>
      <trkpt lat="50.5641" lon="1.60763">
        <ele>20</ele>
        <time>2015-03-01T12:16:56Z</time>
      </trkpt>
      <trkpt lat="50.56407" lon="1.60754">
        <ele>20</ele>
        <time>2015-03-01T12:17:02Z</time>
      </trkpt>
      <trkpt lat="50.56401" lon="1.60751">
        <ele>20</ele>
        <time>2015-03-01T12:17:08Z</time>
      </trkpt>
      <trkpt lat="50.56394" lon="1.60749">
        <ele>20</ele>
        <time>2015-03-01T12:17:13Z</time>
      </trkpt>
      <trkpt lat="50.56389" lon="1.60747">
        <ele>20</ele>
        <time>2015-03-01T12:17:18Z</time>
      </trkpt>
      <trkpt lat="50.56384" lon="1.60742">
        <ele>20</ele>
        <time>2015-03-01T12:17:24Z</time>
      </trkpt>
      <trkpt lat="50.56379" lon="1.60735">
        <ele>20</ele>
        <time>2015-03-01T12:17:30Z</time>
      </trkpt>
      <trkpt lat="50.56374" lon="1.60728">
        <ele>20</ele>
        <time>2015-03-01T12:17:36Z</time>
      </trkpt>
      <trkpt lat="50.56372" lon="1.6072">
        <ele>20</ele>
        <time>2015-03-01T12:17:41Z</time>
      </trkpt>
      <trkpt lat="50.56371" lon="1.60712">
        <ele>20</ele>
        <time>2015-03-01T12:17:46Z</time>
      </trkpt>
      <trkpt lat="50.56369" lon="1.60703">
        <ele>20</ele>
        <time>2015-03-01T12:17:51Z</time>
      </trkpt>
      <trkpt lat="50.56368" lon="1.60693">
        <ele>20</ele>
        <time>2015-03-01T12:17:57Z</time>
      </trkpt>
      <trkpt lat="50.56366" lon="1.60684">
        <ele>20</ele>
        <time>2015-03-01T12:18:02Z</time>
      </trkpt>
      <trkpt lat="50.56364" lon="1.60675">
        <ele>20</ele>
        <time>2015-03-01T12:18:07Z</time>
      </trkpt>
      <trkpt lat="50.56363" lon="1.60667">
        <ele>20</ele>
        <time>2015-03-01T12:18:12Z</time>
      </trkpt>
      <trkpt lat="50.56359" lon="1.6066">
        <ele>20</ele>
        <time>2015-03-01T12:18:17Z</time>
      </trkpt>
      <trkpt lat="50.56358" lon="1.60656">
        <ele>20</ele>
        <time>2015-03-01T12:18:22Z</time>
      </trkpt>
      <trkpt lat="50.56357" lon="1.60644">
        <ele>21</ele>
        <time>2015-03-01T12:18:27Z</time>
      </trkpt>
      <trkpt lat="50.56355" lon="1.60635">
        <ele>21</ele>
        <time>2015-03-01T12:18:33Z</time>
      </trkpt>
      <trkpt lat="50.56353" lon="1.60625">
        <ele>21</ele>
        <time>2015-03-01T12:18:40Z</time>
      </trkpt>
      <trkpt lat="50.56351" lon="1.60617">
        <ele>21</ele>
        <time>2015-03-01T12:18:45Z</time>
      </trkpt>
      <trkpt lat="50.56348" lon="1.60605">
        <ele>21</ele>
        <time>2015-03-01T12:18:51Z</time>
      </trkpt>
      <trkpt lat="50.56349" lon="1.60597">
        <ele>21</ele>
        <time>2015-03-01T12:18:56Z</time>
      </trkpt>
      <trkpt lat="50.56348" lon="1.60589">
        <ele>21</ele>
        <time>2015-03-01T12:19:01Z</time>
      </trkpt>
      <trkpt lat="50.56348" lon="1.60578">
        <ele>22</ele>
        <time>2015-03-01T12:19:07Z</time>
      </trkpt>
      <trkpt lat="50.56344" lon="1.60565">
        <ele>22</ele>
        <time>2015-03-01T12:19:12Z</time>
      </trkpt>
      <trkpt lat="50.5634" lon="1.60552">
        <ele>22</ele>
        <time>2015-03-01T12:19:17Z</time>
      </trkpt>
      <trkpt lat="50.56338" lon="1.60545">
        <ele>22</ele>
        <time>2015-03-01T12:19:22Z</time>
      </trkpt>
      <trkpt lat="50.56335" lon="1.60537">
        <ele>22</ele>
        <time>2015-03-01T12:19:27Z</time>
      </trkpt>
      <trkpt lat="50.56334" lon="1.60528">
        <ele>22</ele>
        <time>2015-03-01T12:19:32Z</time>
      </trkpt>
      <trkpt lat="50.56332" lon="1.60518">
        <ele>23</ele>
        <time>2015-03-01T12:19:37Z</time>
      </trkpt>
      <trkpt lat="50.5633" lon="1.60507">
        <ele>22</ele>
        <time>2015-03-01T12:19:42Z</time>
      </trkpt>
      <trkpt lat="50.56327" lon="1.60498">
        <ele>22</ele>
        <time>2015-03-01T12:19:47Z</time>
      </trkpt>
      <trkpt lat="50.56324" lon="1.60487">
        <ele>23</ele>
        <time>2015-03-01T12:19:53Z</time>
      </trkpt>
      <trkpt lat="50.56323" lon="1.60476">
        <ele>23</ele>
        <time>2015-03-01T12:19:58Z</time>
      </trkpt>
      <trkpt lat="50.56322" lon="1.60467">
        <ele>23</ele>
        <time>2015-03-01T12:20:03Z</time>
      </trkpt>
      <trkpt lat="50.56318" lon="1.60454">
        <ele>23</ele>
        <time>2015-03-01T12:20:09Z</time>
      </trkpt>
      <trkpt lat="50.56316" lon="1.60444">
        <ele>23</ele>
        <time>2015-03-01T12:20:14Z</time>
      </trkpt>
      <trkpt lat="50.56315" lon="1.60433">
        <ele>23</ele>
        <time>2015-03-01T12:20:20Z</time>
      </trkpt>
      <trkpt lat="50.56314" lon="1.60425">
        <ele>23</ele>
        <time>2015-03-01T12:20:26Z</time>
      </trkpt>
      <trkpt lat="50.56313" lon="1.60414">
        <ele>22</ele>
        <time>2015-03-01T12:20:31Z</time>
      </trkpt>
      <trkpt lat="50.5631" lon="1.60401">
        <ele>22</ele>
        <time>2015-03-01T12:20:37Z</time>
      </trkpt>
      <trkpt lat="50.5631" lon="1.60389">
        <ele>22</ele>
        <time>2015-03-01T12:20:42Z</time>
      </trkpt>
      <trkpt lat="50.56306" lon="1.60379">
        <ele>22</ele>
        <time>2015-03-01T12:20:47Z</time>
      </trkpt>
      <trkpt lat="50.56305" lon="1.6037">
        <ele>22</ele>
        <time>2015-03-01T12:20:52Z</time>
      </trkpt>
      <trkpt lat="50.56303" lon="1.6036">
        <ele>22</ele>
        <time>2015-03-01T12:20:57Z</time>
      </trkpt>
      <trkpt lat="50.56299" lon="1.60349">
        <ele>22</ele>
        <time>2015-03-01T12:21:02Z</time>
      </trkpt>
      <trkpt lat="50.56298" lon="1.60339">
        <ele>22</ele>
        <time>2015-03-01T12:21:08Z</time>
      </trkpt>
      <trkpt lat="50.563" lon="1.60331">
        <ele>22</ele>
        <time>2015-03-01T12:21:15Z</time>
      </trkpt>
      <trkpt lat="50.56298" lon="1.60324">
        <ele>22</ele>
        <time>2015-03-01T12:21:21Z</time>
      </trkpt>
      <trkpt lat="50.56299" lon="1.60318">
        <ele>22</ele>
        <time>2015-03-01T12:21:26Z</time>
      </trkpt>
      <trkpt lat="50.563" lon="1.6031">
        <ele>22</ele>
        <time>2015-03-01T12:21:31Z</time>
      </trkpt>
      <trkpt lat="50.56298" lon="1.603">
        <ele>22</ele>
        <time>2015-03-01T12:21:36Z</time>
      </trkpt>
      <trkpt lat="50.56296" lon="1.6029">
        <ele>22</ele>
        <time>2015-03-01T12:21:41Z</time>
      </trkpt>
      <trkpt lat="50.56292" lon="1.60277">
        <ele>22</ele>
        <time>2015-03-01T12:21:46Z</time>
      </trkpt>
      <trkpt lat="50.56289" lon="1.60258">
        <ele>22</ele>
        <time>2015-03-01T12:21:53Z</time>
      </trkpt>
      <trkpt lat="50.56285" lon="1.60239">
        <ele>22</ele>
        <time>2015-03-01T12:21:59Z</time>
      </trkpt>
      <trkpt lat="50.5628" lon="1.60225">
        <ele>22</ele>
        <time>2015-03-01T12:22:04Z</time>
      </trkpt>
      <trkpt lat="50.56276" lon="1.60216">
        <ele>22</ele>
        <time>2015-03-01T12:22:09Z</time>
      </trkpt>
      <trkpt lat="50.56276" lon="1.60205">
        <ele>22</ele>
        <time>2015-03-01T12:22:14Z</time>
      </trkpt>
      <trkpt lat="50.56274" lon="1.60195">
        <ele>22</ele>
        <time>2015-03-01T12:22:19Z</time>
      </trkpt>
      <trkpt lat="50.56271" lon="1.60185">
        <ele>21</ele>
        <time>2015-03-01T12:22:24Z</time>
      </trkpt>
      <trkpt lat="50.56271" lon="1.60176">
        <ele>21</ele>
        <time>2015-03-01T12:22:30Z</time>
      </trkpt>
      <trkpt lat="50.56269" lon="1.60166">
        <ele>21</ele>
        <time>2015-03-01T12:22:36Z</time>
      </trkpt>
      <trkpt lat="50.56266" lon="1.60158">
        <ele>21</ele>
        <time>2015-03-01T12:22:41Z</time>
      </trkpt>
      <trkpt lat="50.56266" lon="1.60146">
        <ele>21</ele>
        <time>2015-03-01T12:22:47Z</time>
      </trkpt>
      <trkpt lat="50.56263" lon="1.60136">
        <ele>21</ele>
        <time>2015-03-01T12:22:52Z</time>
      </trkpt>
      <trkpt lat="50.56263" lon="1.60126">
        <ele>21</ele>
        <time>2015-03-01T12:22:57Z</time>
      </trkpt>
      <trkpt lat="50.56261" lon="1.60116">
        <ele>20</ele>
        <time>2015-03-01T12:23:03Z</time>
      </trkpt>
      <trkpt lat="50.56259" lon="1.60107">
        <ele>20</ele>
        <time>2015-03-01T12:23:08Z</time>
      </trkpt>
      <trkpt lat="50.5626" lon="1.60098">
        <ele>20</ele>
        <time>2015-03-01T12:23:14Z</time>
      </trkpt>
      <trkpt lat="50.56259" lon="1.60091">
        <ele>20</ele>
        <time>2015-03-01T12:23:19Z</time>
      </trkpt>
      <trkpt lat="50.56255" lon="1.60085">
        <ele>19</ele>
        <time>2015-03-01T12:23:24Z</time>
      </trkpt>
      <trkpt lat="50.56257" lon="1.60076">
        <ele>19</ele>
        <time>2015-03-01T12:23:30Z</time>
      </trkpt>
      <trkpt lat="50.56254" lon="1.60066">
        <ele>19</ele>
        <time>2015-03-01T12:23:35Z</time>
      </trkpt>
      <trkpt lat="50.56253" lon="1.60057">
        <ele>19</ele>
        <time>2015-03-01T12:23:40Z</time>
      </trkpt>
      <trkpt lat="50.56249" lon="1.60045">
        <ele>19</ele>
        <time>2015-03-01T12:23:45Z</time>
      </trkpt>
      <trkpt lat="50.56246" lon="1.60035">
        <ele>19</ele>
        <time>2015-03-01T12:23:50Z</time>
      </trkpt>
      <trkpt lat="50.56244" lon="1.60025">
        <ele>19</ele>
        <time>2015-03-01T12:23:55Z</time>
      </trkpt>
      <trkpt lat="50.5624" lon="1.60014">
        <ele>19</ele>
        <time>2015-03-01T12:24:00Z</time>
      </trkpt>
      <trkpt lat="50.56237" lon="1.60011">
        <ele>19</ele>
        <time>2015-03-01T12:24:05Z</time>
      </trkpt>
      <trkpt lat="50.56237" lon="1.60009">
        <ele>19</ele>
        <time>2015-03-01T12:24:12Z</time>
      </trkpt>
      <trkpt lat="50.56238" lon="1.60001">
        <ele>19</ele>
        <time>2015-03-01T12:24:20Z</time>
      </trkpt>
      <trkpt lat="50.56236" lon="1.59997">
        <ele>19</ele>
        <time>2015-03-01T12:24:26Z</time>
      </trkpt>
      <trkpt lat="50.56234" lon="1.59995">
        <ele>19</ele>
        <time>2015-03-01T12:24:31Z</time>
      </trkpt>
      <trkpt lat="50.56237" lon="1.59989">
        <ele>19</ele>
        <time>2015-03-01T12:24:36Z</time>
      </trkpt>
      <trkpt lat="50.56241" lon="1.5999">
        <ele>19</ele>
        <time>2015-03-01T12:24:41Z</time>
      </trkpt>
      <trkpt lat="50.56242" lon="1.5999">
        <ele>19</ele>
        <time>2015-03-01T12:24:46Z</time>
      </trkpt>
      <trkpt lat="50.56242" lon="1.59991">
        <ele>19</ele>
        <time>2015-03-01T12:24:52Z</time>
      </trkpt>
      <trkpt lat="50.56243" lon="1.59999">
        <ele>19</ele>
        <time>2015-03-01T12:25:08Z</time>
      </trkpt>
      <trkpt lat="50.5624" lon="1.59999">
        <ele>19</ele>
        <time>2015-03-01T12:25:15Z</time>
      </trkpt>
      <trkpt lat="50.56239" lon="1.59995">
        <ele>19</ele>
        <time>2015-03-01T12:25:25Z</time>
      </trkpt>
      <trkpt lat="50.56239" lon="1.59992">
        <ele>19</ele>
        <time>2015-03-01T12:25:32Z</time>
      </trkpt>
      <trkpt lat="50.56242" lon="1.60011">
        <ele>19</ele>
        <time>2015-03-01T12:25:38Z</time>
      </trkpt>
      <trkpt lat="50.56242" lon="1.60019">
        <ele>19</ele>
        <time>2015-03-01T12:25:44Z</time>
      </trkpt>
      <trkpt lat="50.56243" lon="1.60031">
        <ele>19</ele>
        <time>2015-03-01T12:25:50Z</time>
      </trkpt>
      <trkpt lat="50.56243" lon="1.60038">
        <ele>19</ele>
        <time>2015-03-01T12:25:55Z</time>
      </trkpt>
      <trkpt lat="50.56246" lon="1.60046">
        <ele>19</ele>
        <time>2015-03-01T12:26:01Z</time>
      </trkpt>
      <trkpt lat="50.56246" lon="1.60058">
        <ele>19</ele>
        <time>2015-03-01T12:26:07Z</time>
      </trkpt>
      <trkpt lat="50.56254" lon="1.6007">
        <ele>19</ele>
        <time>2015-03-01T12:26:12Z</time>
      </trkpt>
      <trkpt lat="50.56256" lon="1.60082">
        <ele>19</ele>
        <time>2015-03-01T12:26:18Z</time>
      </trkpt>
      <trkpt lat="50.56256" lon="1.60091">
        <ele>20</ele>
        <time>2015-03-01T12:26:23Z</time>
      </trkpt>
      <trkpt lat="50.56253" lon="1.60098">
        <ele>20</ele>
        <time>2015-03-01T12:26:28Z</time>
      </trkpt>
      <trkpt lat="50.56256" lon="1.6011">
        <ele>20</ele>
        <time>2015-03-01T12:26:33Z</time>
      </trkpt>
      <trkpt lat="50.56262" lon="1.60119">
        <ele>20</ele>
        <time>2015-03-01T12:26:38Z</time>
      </trkpt>
      <trkpt lat="50.56265" lon="1.60128">
        <ele>21</ele>
        <time>2015-03-01T12:26:43Z</time>
      </trkpt>
      <trkpt lat="50.56265" lon="1.60138">
        <ele>21</ele>
        <time>2015-03-01T12:26:48Z</time>
      </trkpt>
      <trkpt lat="50.56266" lon="1.60149">
        <ele>21</ele>
        <time>2015-03-01T12:26:53Z</time>
      </trkpt>
      <trkpt lat="50.56268" lon="1.60157">
        <ele>21</ele>
        <time>2015-03-01T12:26:58Z</time>
      </trkpt>
      <trkpt lat="50.56266" lon="1.60167">
        <ele>21</ele>
        <time>2015-03-01T12:27:04Z</time>
      </trkpt>
      <trkpt lat="50.5627" lon="1.60175">
        <ele>21</ele>
        <time>2015-03-01T12:27:10Z</time>
      </trkpt>
      <trkpt lat="50.56273" lon="1.60186">
        <ele>21</ele>
        <time>2015-03-01T12:27:15Z</time>
      </trkpt>
      <trkpt lat="50.56275" lon="1.60199">
        <ele>22</ele>
        <time>2015-03-01T12:27:21Z</time>
      </trkpt>
      <trkpt lat="50.56277" lon="1.60207">
        <ele>22</ele>
        <time>2015-03-01T12:27:26Z</time>
      </trkpt>
      <trkpt lat="50.56278" lon="1.60221">
        <ele>22</ele>
        <time>2015-03-01T12:27:31Z</time>
      </trkpt>
      <trkpt lat="50.56279" lon="1.60234">
        <ele>22</ele>
        <time>2015-03-01T12:27:36Z</time>
      </trkpt>
      <trkpt lat="50.56281" lon="1.60244">
        <ele>22</ele>
        <time>2015-03-01T12:27:41Z</time>
      </trkpt>
      <trkpt lat="50.56283" lon="1.6025">
        <ele>22</ele>
        <time>2015-03-01T12:27:46Z</time>
      </trkpt>
      <trkpt lat="50.56285" lon="1.60261">
        <ele>22</ele>
        <time>2015-03-01T12:27:51Z</time>
      </trkpt>
      <trkpt lat="50.56286" lon="1.60272">
        <ele>22</ele>
        <time>2015-03-01T12:27:56Z</time>
      </trkpt>
      <trkpt lat="50.56286" lon="1.60281">
        <ele>22</ele>
        <time>2015-03-01T12:28:01Z</time>
      </trkpt>
      <trkpt lat="50.5629" lon="1.60287">
        <ele>22</ele>
        <time>2015-03-01T12:28:06Z</time>
      </trkpt>
      <trkpt lat="50.56292" lon="1.60299">
        <ele>22</ele>
        <time>2015-03-01T12:28:12Z</time>
      </trkpt>
      <trkpt lat="50.56294" lon="1.60317">
        <ele>22</ele>
        <time>2015-03-01T12:28:20Z</time>
      </trkpt>
      <trkpt lat="50.56298" lon="1.6033">
        <ele>22</ele>
        <time>2015-03-01T12:28:25Z</time>
      </trkpt>
      <trkpt lat="50.56297" lon="1.60339">
        <ele>22</ele>
        <time>2015-03-01T12:28:30Z</time>
      </trkpt>
      <trkpt lat="50.563" lon="1.60349">
        <ele>22</ele>
        <time>2015-03-01T12:28:35Z</time>
      </trkpt>
      <trkpt lat="50.56302" lon="1.60358">
        <ele>22</ele>
        <time>2015-03-01T12:28:41Z</time>
      </trkpt>
      <trkpt lat="50.56301" lon="1.60369">
        <ele>22</ele>
        <time>2015-03-01T12:28:46Z</time>
      </trkpt>
      <trkpt lat="50.56303" lon="1.60378">
        <ele>22</ele>
        <time>2015-03-01T12:28:51Z</time>
      </trkpt>
      <trkpt lat="50.56307" lon="1.60386">
        <ele>22</ele>
        <time>2015-03-01T12:28:56Z</time>
      </trkpt>
      <trkpt lat="50.56308" lon="1.60395">
        <ele>22</ele>
        <time>2015-03-01T12:29:01Z</time>
      </trkpt>
      <trkpt lat="50.56309" lon="1.60405">
        <ele>22</ele>
        <time>2015-03-01T12:29:06Z</time>
      </trkpt>
      <trkpt lat="50.56311" lon="1.60411">
        <ele>22</ele>
        <time>2015-03-01T12:29:11Z</time>
      </trkpt>
      <trkpt lat="50.56313" lon="1.60419">
        <ele>23</ele>
        <time>2015-03-01T12:29:16Z</time>
      </trkpt>
      <trkpt lat="50.56315" lon="1.60425">
        <ele>23</ele>
        <time>2015-03-01T12:29:21Z</time>
      </trkpt>
      <trkpt lat="50.56317" lon="1.60432">
        <ele>23</ele>
        <time>2015-03-01T12:29:26Z</time>
      </trkpt>
      <trkpt lat="50.56318" lon="1.6044">
        <ele>23</ele>
        <time>2015-03-01T12:29:32Z</time>
      </trkpt>
      <trkpt lat="50.56318" lon="1.60446">
        <ele>23</ele>
        <time>2015-03-01T12:29:38Z</time>
      </trkpt>
      <trkpt lat="50.56315" lon="1.60453">
        <ele>23</ele>
        <time>2015-03-01T12:29:43Z</time>
      </trkpt>
      <trkpt lat="50.56314" lon="1.60462">
        <ele>23</ele>
        <time>2015-03-01T12:29:48Z</time>
      </trkpt>
      <trkpt lat="50.56316" lon="1.60466">
        <ele>23</ele>
        <time>2015-03-01T12:29:53Z</time>
      </trkpt>
      <trkpt lat="50.56317" lon="1.60468">
        <ele>23</ele>
        <time>2015-03-01T12:29:58Z</time>
      </trkpt>
      <trkpt lat="50.56316" lon="1.60467">
        <ele>23</ele>
        <time>2015-03-01T12:30:05Z</time>
      </trkpt>
      <trkpt lat="50.56342" lon="1.60597">
        <ele>21</ele>
        <time>2015-03-01T12:30:13Z</time>
      </trkpt>
      <trkpt lat="50.56347" lon="1.60609">
        <ele>21</ele>
        <time>2015-03-01T12:30:18Z</time>
      </trkpt>
      <trkpt lat="50.56351" lon="1.60618">
        <ele>21</ele>
        <time>2015-03-01T12:30:23Z</time>
      </trkpt>
      <trkpt lat="50.56355" lon="1.60625">
        <ele>21</ele>
        <time>2015-03-01T12:30:28Z</time>
      </trkpt>
      <trkpt lat="50.56357" lon="1.60637">
        <ele>21</ele>
        <time>2015-03-01T12:30:33Z</time>
      </trkpt>
      <trkpt lat="50.56358" lon="1.60647">
        <ele>21</ele>
        <time>2015-03-01T12:30:38Z</time>
      </trkpt>
      <trkpt lat="50.56359" lon="1.60657">
        <ele>20</ele>
        <time>2015-03-01T12:30:43Z</time>
      </trkpt>
      <trkpt lat="50.56362" lon="1.60665">
        <ele>20</ele>
        <time>2015-03-01T12:30:48Z</time>
      </trkpt>
      <trkpt lat="50.56364" lon="1.60673">
        <ele>20</ele>
        <time>2015-03-01T12:30:53Z</time>
      </trkpt>
      <trkpt lat="50.56366" lon="1.60681">
        <ele>20</ele>
        <time>2015-03-01T12:30:58Z</time>
      </trkpt>
      <trkpt lat="50.56368" lon="1.60689">
        <ele>20</ele>
        <time>2015-03-01T12:31:03Z</time>
      </trkpt>
      <trkpt lat="50.56371" lon="1.60698">
        <ele>20</ele>
        <time>2015-03-01T12:31:08Z</time>
      </trkpt>
      <trkpt lat="50.56372" lon="1.60707">
        <ele>20</ele>
        <time>2015-03-01T12:31:13Z</time>
      </trkpt>
      <trkpt lat="50.56374" lon="1.60715">
        <ele>20</ele>
        <time>2015-03-01T12:31:18Z</time>
      </trkpt>
      <trkpt lat="50.56376" lon="1.60724">
        <ele>20</ele>
        <time>2015-03-01T12:31:23Z</time>
      </trkpt>
      <trkpt lat="50.5638" lon="1.60732">
        <ele>20</ele>
        <time>2015-03-01T12:31:28Z</time>
      </trkpt>
      <trkpt lat="50.56384" lon="1.60739">
        <ele>20</ele>
        <time>2015-03-01T12:31:33Z</time>
      </trkpt>
      <trkpt lat="50.56389" lon="1.60745">
        <ele>20</ele>
        <time>2015-03-01T12:31:38Z</time>
      </trkpt>
      <trkpt lat="50.56394" lon="1.60748">
        <ele>20</ele>
        <time>2015-03-01T12:31:44Z</time>
      </trkpt>
      <trkpt lat="50.564" lon="1.60749">
        <ele>20</ele>
        <time>2015-03-01T12:31:50Z</time>
      </trkpt>
      <trkpt lat="50.56405" lon="1.60752">
        <ele>20</ele>
        <time>2015-03-01T12:31:55Z</time>
      </trkpt>
      <trkpt lat="50.56408" lon="1.60761">
        <ele>20</ele>
        <time>2015-03-01T12:32:00Z</time>
      </trkpt>
      <trkpt lat="50.56409" lon="1.60765">
        <ele>20</ele>
        <time>2015-03-01T12:32:05Z</time>
      </trkpt>
      <trkpt lat="50.56412" lon="1.60772">
        <ele>20</ele>
        <time>2015-03-01T12:32:11Z</time>
      </trkpt>
      <trkpt lat="50.56411" lon="1.60778">
        <ele>20</ele>
        <time>2015-03-01T12:32:17Z</time>
      </trkpt>
      <trkpt lat="50.56404" lon="1.60782">
        <ele>20</ele>
        <time>2015-03-01T12:32:23Z</time>
      </trkpt>
      <trkpt lat="50.56398" lon="1.60785">
        <ele>20</ele>
        <time>2015-03-01T12:32:29Z</time>
      </trkpt>
      <trkpt lat="50.56392" lon="1.60788">
        <ele>20</ele>
        <time>2015-03-01T12:32:34Z</time>
      </trkpt>
      <trkpt lat="50.56386" lon="1.60791">
        <ele>20</ele>
        <time>2015-03-01T12:32:39Z</time>
      </trkpt>
      <trkpt lat="50.5638" lon="1.60794">
        <ele>20</ele>
        <time>2015-03-01T12:32:44Z</time>
      </trkpt>
      <trkpt lat="50.56372" lon="1.60797">
        <ele>20</ele>
        <time>2015-03-01T12:32:50Z</time>
      </trkpt>
      <trkpt lat="50.56366" lon="1.608">
        <ele>20</ele>
        <time>2015-03-01T12:32:55Z</time>
      </trkpt>
      <trkpt lat="50.5636" lon="1.60803">
        <ele>20</ele>
        <time>2015-03-01T12:33:00Z</time>
      </trkpt>
      <trkpt lat="50.56354" lon="1.60805">
        <ele>20</ele>
        <time>2015-03-01T12:33:05Z</time>
      </trkpt>
      <trkpt lat="50.56348" lon="1.60808">
        <ele>20</ele>
        <time>2015-03-01T12:33:10Z</time>
      </trkpt>
      <trkpt lat="50.56341" lon="1.60811">
        <ele>20</ele>
        <time>2015-03-01T12:33:15Z</time>
      </trkpt>
      <trkpt lat="50.56334" lon="1.60814">
        <ele>20</ele>
        <time>2015-03-01T12:33:21Z</time>
      </trkpt>
      <trkpt lat="50.56327" lon="1.60817">
        <ele>20</ele>
        <time>2015-03-01T12:33:26Z</time>
      </trkpt>
      <trkpt lat="50.56321" lon="1.6082">
        <ele>20</ele>
        <time>2015-03-01T12:33:31Z</time>
      </trkpt>
      <trkpt lat="50.56314" lon="1.60823">
        <ele>20</ele>
        <time>2015-03-01T12:33:36Z</time>
      </trkpt>
      <trkpt lat="50.56308" lon="1.60826">
        <ele>20</ele>
        <time>2015-03-01T12:33:41Z</time>
      </trkpt>
      <trkpt lat="50.56301" lon="1.60828">
        <ele>20</ele>
        <time>2015-03-01T12:33:46Z</time>
      </trkpt>
      <trkpt lat="50.56294" lon="1.60829">
        <ele>20</ele>
        <time>2015-03-01T12:33:51Z</time>
      </trkpt>
      <trkpt lat="50.56287" lon="1.6083">
        <ele>20</ele>
        <time>2015-03-01T12:33:56Z</time>
      </trkpt>
      <trkpt lat="50.56278" lon="1.60833">
        <ele>20</ele>
        <time>2015-03-01T12:34:02Z</time>
      </trkpt>
      <trkpt lat="50.56271" lon="1.60836">
        <ele>21</ele>
        <time>2015-03-01T12:34:07Z</time>
      </trkpt>
      <trkpt lat="50.56263" lon="1.60839">
        <ele>21</ele>
        <time>2015-03-01T12:34:12Z</time>
      </trkpt>
      <trkpt lat="50.56255" lon="1.60843">
        <ele>21</ele>
        <time>2015-03-01T12:34:18Z</time>
      </trkpt>
      <trkpt lat="50.56249" lon="1.60847">
        <ele>21</ele>
        <time>2015-03-01T12:34:23Z</time>
      </trkpt>
      <trkpt lat="50.56242" lon="1.60851">
        <ele>22</ele>
        <time>2015-03-01T12:34:28Z</time>
      </trkpt>
      <trkpt lat="50.56236" lon="1.60854">
        <ele>22</ele>
        <time>2015-03-01T12:34:33Z</time>
      </trkpt>
      <trkpt lat="50.56229" lon="1.60857">
        <ele>22</ele>
        <time>2015-03-01T12:34:38Z</time>
      </trkpt>
      <trkpt lat="50.56223" lon="1.6086">
        <ele>22</ele>
        <time>2015-03-01T12:34:43Z</time>
      </trkpt>
      <trkpt lat="50.56216" lon="1.60862">
        <ele>23</ele>
        <time>2015-03-01T12:34:48Z</time>
      </trkpt>
      <trkpt lat="50.5621" lon="1.60864">
        <ele>23</ele>
        <time>2015-03-01T12:34:53Z</time>
      </trkpt>
      <trkpt lat="50.56203" lon="1.60865">
        <ele>23</ele>
        <time>2015-03-01T12:34:58Z</time>
      </trkpt>
      <trkpt lat="50.56196" lon="1.60867">
        <ele>23</ele>
        <time>2015-03-01T12:35:03Z</time>
      </trkpt>
      <trkpt lat="50.5619" lon="1.6087">
        <ele>23</ele>
        <time>2015-03-01T12:35:08Z</time>
      </trkpt>
      <trkpt lat="50.56183" lon="1.60871">
        <ele>23</ele>
        <time>2015-03-01T12:35:13Z</time>
      </trkpt>
      <trkpt lat="50.56176" lon="1.60873">
        <ele>23</ele>
        <time>2015-03-01T12:35:18Z</time>
      </trkpt>
      <trkpt lat="50.5617" lon="1.60875">
        <ele>23</ele>
        <time>2015-03-01T12:35:23Z</time>
      </trkpt>
      <trkpt lat="50.56164" lon="1.60877">
        <ele>24</ele>
        <time>2015-03-01T12:35:28Z</time>
      </trkpt>
      <trkpt lat="50.56157" lon="1.60879">
        <ele>24</ele>
        <time>2015-03-01T12:35:33Z</time>
      </trkpt>
      <trkpt lat="50.5615" lon="1.60882">
        <ele>24</ele>
        <time>2015-03-01T12:35:38Z</time>
      </trkpt>
      <trkpt lat="50.56144" lon="1.60884">
        <ele>24</ele>
        <time>2015-03-01T12:35:43Z</time>
      </trkpt>
      <trkpt lat="50.56138" lon="1.60885">
        <ele>24</ele>
        <time>2015-03-01T12:35:48Z</time>
      </trkpt>
      <trkpt lat="50.5613" lon="1.60887">
        <ele>24</ele>
        <time>2015-03-01T12:35:54Z</time>
      </trkpt>
      <trkpt lat="50.56124" lon="1.60891">
        <ele>24</ele>
        <time>2015-03-01T12:35:59Z</time>
      </trkpt>
      <trkpt lat="50.56119" lon="1.60894">
        <ele>24</ele>
        <time>2015-03-01T12:36:04Z</time>
      </trkpt>
      <trkpt lat="50.56113" lon="1.60897">
        <ele>24</ele>
        <time>2015-03-01T12:36:09Z</time>
      </trkpt>
      <trkpt lat="50.56106" lon="1.60898">
        <ele>24</ele>
        <time>2015-03-01T12:36:14Z</time>
      </trkpt>
      <trkpt lat="50.561" lon="1.60901">
        <ele>24</ele>
        <time>2015-03-01T12:36:19Z</time>
      </trkpt>
      <trkpt lat="50.56093" lon="1.60903">
        <ele>25</ele>
        <time>2015-03-01T12:36:24Z</time>
      </trkpt>
      <trkpt lat="50.56086" lon="1.60905">
        <ele>25</ele>
        <time>2015-03-01T12:36:29Z</time>
      </trkpt>
      <trkpt lat="50.56079" lon="1.60906">
        <ele>24</ele>
        <time>2015-03-01T12:36:34Z</time>
      </trkpt>
      <trkpt lat="50.56073" lon="1.60908">
        <ele>24</ele>
        <time>2015-03-01T12:36:39Z</time>
      </trkpt>
      <trkpt lat="50.56067" lon="1.6091">
        <ele>24</ele>
        <time>2015-03-01T12:36:44Z</time>
      </trkpt>
      <trkpt lat="50.5606" lon="1.60912">
        <ele>24</ele>
        <time>2015-03-01T12:36:50Z</time>
      </trkpt>
      <trkpt lat="50.56054" lon="1.60914">
        <ele>24</ele>
        <time>2015-03-01T12:36:56Z</time>
      </trkpt>
      <trkpt lat="50.56048" lon="1.60916">
        <ele>23</ele>
        <time>2015-03-01T12:37:01Z</time>
      </trkpt>
      <trkpt lat="50.5604" lon="1.60918">
        <ele>24</ele>
        <time>2015-03-01T12:37:06Z</time>
      </trkpt>
      <trkpt lat="50.56033" lon="1.6092">
        <ele>24</ele>
        <time>2015-03-01T12:37:11Z</time>
      </trkpt>
      <trkpt lat="50.56026" lon="1.60922">
        <ele>24</ele>
        <time>2015-03-01T12:37:16Z</time>
      </trkpt>
      <trkpt lat="50.56019" lon="1.60924">
        <ele>23</ele>
        <time>2015-03-01T12:37:21Z</time>
      </trkpt>
      <trkpt lat="50.56012" lon="1.60928">
        <ele>23</ele>
        <time>2015-03-01T12:37:26Z</time>
      </trkpt>
      <trkpt lat="50.56006" lon="1.60931">
        <ele>23</ele>
        <time>2015-03-01T12:37:31Z</time>
      </trkpt>
      <trkpt lat="50.55999" lon="1.60932">
        <ele>22</ele>
        <time>2015-03-01T12:37:36Z</time>
      </trkpt>
      <trkpt lat="50.5599" lon="1.60933">
        <ele>22</ele>
        <time>2015-03-01T12:37:41Z</time>
      </trkpt>
      <trkpt lat="50.55984" lon="1.60935">
        <ele>22</ele>
        <time>2015-03-01T12:37:46Z</time>
      </trkpt>
      <trkpt lat="50.55978" lon="1.60938">
        <ele>22</ele>
        <time>2015-03-01T12:37:51Z</time>
      </trkpt>
      <trkpt lat="50.55972" lon="1.60941">
        <ele>22</ele>
        <time>2015-03-01T12:37:56Z</time>
      </trkpt>
      <trkpt lat="50.55965" lon="1.60944">
        <ele>22</ele>
        <time>2015-03-01T12:38:02Z</time>
      </trkpt>
      <trkpt lat="50.55959" lon="1.60947">
        <ele>22</ele>
        <time>2015-03-01T12:38:07Z</time>
      </trkpt>
      <trkpt lat="50.55952" lon="1.6095">
        <ele>22</ele>
        <time>2015-03-01T12:38:12Z</time>
      </trkpt>
      <trkpt lat="50.55944" lon="1.60954">
        <ele>22</ele>
        <time>2015-03-01T12:38:18Z</time>
      </trkpt>
      <trkpt lat="50.55938" lon="1.60959">
        <ele>22</ele>
        <time>2015-03-01T12:38:24Z</time>
      </trkpt>
      <trkpt lat="50.5593" lon="1.60964">
        <ele>22</ele>
        <time>2015-03-01T12:38:30Z</time>
      </trkpt>
      <trkpt lat="50.55924" lon="1.60968">
        <ele>22</ele>
        <time>2015-03-01T12:38:35Z</time>
      </trkpt>
      <trkpt lat="50.55918" lon="1.60972">
        <ele>22</ele>
        <time>2015-03-01T12:38:40Z</time>
      </trkpt>
      <trkpt lat="50.55912" lon="1.60976">
        <ele>22</ele>
        <time>2015-03-01T12:38:45Z</time>
      </trkpt>
      <trkpt lat="50.55906" lon="1.60979">
        <ele>22</ele>
        <time>2015-03-01T12:38:50Z</time>
      </trkpt>
      <trkpt lat="50.559" lon="1.60985">
        <ele>22</ele>
        <time>2015-03-01T12:38:55Z</time>
      </trkpt>
      <trkpt lat="50.55894" lon="1.60989">
        <ele>22</ele>
        <time>2015-03-01T12:39:00Z</time>
      </trkpt>
      <trkpt lat="50.55888" lon="1.60994">
        <ele>22</ele>
        <time>2015-03-01T12:39:05Z</time>
      </trkpt>
      <trkpt lat="50.55882" lon="1.60998">
        <ele>22</ele>
        <time>2015-03-01T12:39:10Z</time>
      </trkpt>
      <trkpt lat="50.55876" lon="1.61002">
        <ele>22</ele>
        <time>2015-03-01T12:39:15Z</time>
      </trkpt>
      <trkpt lat="50.55869" lon="1.61009">
        <ele>22</ele>
        <time>2015-03-01T12:39:22Z</time>
      </trkpt>
      <trkpt lat="50.55863" lon="1.61013">
        <ele>22</ele>
        <time>2015-03-01T12:39:27Z</time>
      </trkpt>
      <trkpt lat="50.55857" lon="1.61019">
        <ele>22</ele>
        <time>2015-03-01T12:39:32Z</time>
      </trkpt>
      <trkpt lat="50.55851" lon="1.61024">
        <ele>22</ele>
        <time>2015-03-01T12:39:37Z</time>
      </trkpt>
      <trkpt lat="50.55844" lon="1.6103">
        <ele>22</ele>
        <time>2015-03-01T12:39:43Z</time>
      </trkpt>
      <trkpt lat="50.55839" lon="1.61035">
        <ele>22</ele>
        <time>2015-03-01T12:39:48Z</time>
      </trkpt>
      <trkpt lat="50.55833" lon="1.61041">
        <ele>22</ele>
        <time>2015-03-01T12:39:53Z</time>
      </trkpt>
      <trkpt lat="50.55828" lon="1.61046">
        <ele>24</ele>
        <time>2015-03-01T12:39:58Z</time>
      </trkpt>
      <trkpt lat="50.55822" lon="1.61051">
        <ele>24</ele>
        <time>2015-03-01T12:40:03Z</time>
      </trkpt>
      <trkpt lat="50.55817" lon="1.61057">
        <ele>24</ele>
        <time>2015-03-01T12:40:08Z</time>
      </trkpt>
      <trkpt lat="50.5581" lon="1.61064">
        <ele>24</ele>
        <time>2015-03-01T12:40:14Z</time>
      </trkpt>
      <trkpt lat="50.55804" lon="1.6107">
        <ele>24</ele>
        <time>2015-03-01T12:40:19Z</time>
      </trkpt>
      <trkpt lat="50.55798" lon="1.61077">
        <ele>24</ele>
        <time>2015-03-01T12:40:25Z</time>
      </trkpt>
      <trkpt lat="50.55792" lon="1.61085">
        <ele>24</ele>
        <time>2015-03-01T12:40:31Z</time>
      </trkpt>
      <trkpt lat="50.55785" lon="1.61093">
        <ele>24</ele>
        <time>2015-03-01T12:40:37Z</time>
      </trkpt>
      <trkpt lat="50.5578" lon="1.61103">
        <ele>24</ele>
        <time>2015-03-01T12:40:42Z</time>
      </trkpt>
      <trkpt lat="50.55774" lon="1.61113">
        <ele>24</ele>
        <time>2015-03-01T12:40:48Z</time>
      </trkpt>
      <trkpt lat="50.55768" lon="1.61121">
        <ele>24</ele>
        <time>2015-03-01T12:40:54Z</time>
      </trkpt>
      <trkpt lat="50.55762" lon="1.61129">
        <ele>24</ele>
        <time>2015-03-01T12:41:00Z</time>
      </trkpt>
      <trkpt lat="50.55757" lon="1.61138">
        <ele>24</ele>
        <time>2015-03-01T12:41:06Z</time>
      </trkpt>
      <trkpt lat="50.55752" lon="1.61145">
        <ele>24</ele>
        <time>2015-03-01T12:41:12Z</time>
      </trkpt>
      <trkpt lat="50.55746" lon="1.61153">
        <ele>25</ele>
        <time>2015-03-01T12:41:18Z</time>
      </trkpt>
      <trkpt lat="50.55741" lon="1.61162">
        <ele>25</ele>
        <time>2015-03-01T12:41:24Z</time>
      </trkpt>
      <trkpt lat="50.55735" lon="1.61172">
        <ele>25</ele>
        <time>2015-03-01T12:41:30Z</time>
      </trkpt>
      <trkpt lat="50.5573" lon="1.6118">
        <ele>25</ele>
        <time>2015-03-01T12:41:36Z</time>
      </trkpt>
      <trkpt lat="50.55725" lon="1.61188">
        <ele>24</ele>
        <time>2015-03-01T12:41:42Z</time>
      </trkpt>
      <trkpt lat="50.5572" lon="1.61195">
        <ele>24</ele>
        <time>2015-03-01T12:41:47Z</time>
      </trkpt>
      <trkpt lat="50.55715" lon="1.61208">
        <ele>24</ele>
        <time>2015-03-01T12:41:52Z</time>
      </trkpt>
      <trkpt lat="50.55709" lon="1.61219">
        <ele>24</ele>
        <time>2015-03-01T12:41:58Z</time>
      </trkpt>
      <trkpt lat="50.55704" lon="1.61228">
        <ele>24</ele>
        <time>2015-03-01T12:42:04Z</time>
      </trkpt>
      <trkpt lat="50.55699" lon="1.61236">
        <ele>24</ele>
        <time>2015-03-01T12:42:10Z</time>
      </trkpt>
      <trkpt lat="50.55695" lon="1.61243">
        <ele>24</ele>
        <time>2015-03-01T12:42:16Z</time>
      </trkpt>
      <trkpt lat="50.55691" lon="1.6125">
        <ele>23</ele>
        <time>2015-03-01T12:42:22Z</time>
      </trkpt>
      <trkpt lat="50.55687" lon="1.61257">
        <ele>23</ele>
        <time>2015-03-01T12:42:27Z</time>
      </trkpt>
      <trkpt lat="50.55682" lon="1.61267">
        <ele>23</ele>
        <time>2015-03-01T12:42:32Z</time>
      </trkpt>
      <trkpt lat="50.55678" lon="1.61278">
        <ele>23</ele>
        <time>2015-03-01T12:42:37Z</time>
      </trkpt>
      <trkpt lat="50.55673" lon="1.61287">
        <ele>23</ele>
        <time>2015-03-01T12:42:43Z</time>
      </trkpt>
      <trkpt lat="50.55668" lon="1.61296">
        <ele>23</ele>
        <time>2015-03-01T12:42:48Z</time>
      </trkpt>
      <trkpt lat="50.55663" lon="1.61304">
        <ele>23</ele>
        <time>2015-03-01T12:42:54Z</time>
      </trkpt>
      <trkpt lat="50.55659" lon="1.61313">
        <ele>23</ele>
        <time>2015-03-01T12:42:59Z</time>
      </trkpt>
      <trkpt lat="50.55655" lon="1.61321">
        <ele>23</ele>
        <time>2015-03-01T12:43:05Z</time>
      </trkpt>
      <trkpt lat="50.55649" lon="1.61328">
        <ele>23</ele>
        <time>2015-03-01T12:43:11Z</time>
      </trkpt>
      <trkpt lat="50.55645" lon="1.61336">
        <ele>24</ele>
        <time>2015-03-01T12:43:16Z</time>
      </trkpt>
      <trkpt lat="50.5564" lon="1.61343">
        <ele>25</ele>
        <time>2015-03-01T12:43:21Z</time>
      </trkpt>
      <trkpt lat="50.55635" lon="1.6135">
        <ele>25</ele>
        <time>2015-03-01T12:43:26Z</time>
      </trkpt>
      <trkpt lat="50.5563" lon="1.61358">
        <ele>25</ele>
        <time>2015-03-01T12:43:32Z</time>
      </trkpt>
      <trkpt lat="50.55624" lon="1.61367">
        <ele>25</ele>
        <time>2015-03-01T12:43:38Z</time>
      </trkpt>
      <trkpt lat="50.5562" lon="1.61376">
        <ele>26</ele>
        <time>2015-03-01T12:43:43Z</time>
      </trkpt>
      <trkpt lat="50.55616" lon="1.61383">
        <ele>26</ele>
        <time>2015-03-01T12:43:49Z</time>
      </trkpt>
      <trkpt lat="50.55611" lon="1.61392">
        <ele>26</ele>
        <time>2015-03-01T12:43:54Z</time>
      </trkpt>
      <trkpt lat="50.55607" lon="1.614">
        <ele>27</ele>
        <time>2015-03-01T12:44:00Z</time>
      </trkpt>
      <trkpt lat="50.55603" lon="1.61407">
        <ele>27</ele>
        <time>2015-03-01T12:44:05Z</time>
      </trkpt>
      <trkpt lat="50.55597" lon="1.6141">
        <ele>27</ele>
        <time>2015-03-01T12:44:11Z</time>
      </trkpt>
      <trkpt lat="50.55592" lon="1.61416">
        <ele>28</ele>
        <time>2015-03-01T12:44:16Z</time>
      </trkpt>
      <trkpt lat="50.55587" lon="1.61427">
        <ele>30</ele>
        <time>2015-03-01T12:44:21Z</time>
      </trkpt>
      <trkpt lat="50.55582" lon="1.61438">
        <ele>30</ele>
        <time>2015-03-01T12:44:26Z</time>
      </trkpt>
      <trkpt lat="50.55576" lon="1.6145">
        <ele>30</ele>
        <time>2015-03-01T12:44:31Z</time>
      </trkpt>
      <trkpt lat="50.55571" lon="1.61458">
        <ele>31</ele>
        <time>2015-03-01T12:44:36Z</time>
      </trkpt>
      <trkpt lat="50.55566" lon="1.61462">
        <ele>31</ele>
        <time>2015-03-01T12:44:42Z</time>
      </trkpt>
      <trkpt lat="50.55561" lon="1.61468">
        <ele>31</ele>
        <time>2015-03-01T12:44:47Z</time>
      </trkpt>
      <trkpt lat="50.55557" lon="1.61475">
        <ele>31</ele>
        <time>2015-03-01T12:44:52Z</time>
      </trkpt>
      <trkpt lat="50.55551" lon="1.61484">
        <ele>31</ele>
        <time>2015-03-01T12:44:57Z</time>
      </trkpt>
      <trkpt lat="50.55543" lon="1.61493">
        <ele>31</ele>
        <time>2015-03-01T12:45:02Z</time>
      </trkpt>
      <trkpt lat="50.55538" lon="1.61499">
        <ele>31</ele>
        <time>2015-03-01T12:45:07Z</time>
      </trkpt>
      <trkpt lat="50.55532" lon="1.61503">
        <ele>33</ele>
        <time>2015-03-01T12:45:13Z</time>
      </trkpt>
      <trkpt lat="50.55527" lon="1.61513">
        <ele>33</ele>
        <time>2015-03-01T12:45:18Z</time>
      </trkpt>
      <trkpt lat="50.55522" lon="1.61518">
        <ele>33</ele>
        <time>2015-03-01T12:45:23Z</time>
      </trkpt>
      <trkpt lat="50.55516" lon="1.61528">
        <ele>33</ele>
        <time>2015-03-01T12:45:28Z</time>
      </trkpt>
      <trkpt lat="50.5551" lon="1.61536">
        <ele>34</ele>
        <time>2015-03-01T12:45:33Z</time>
      </trkpt>
      <trkpt lat="50.55504" lon="1.61546">
        <ele>34</ele>
        <time>2015-03-01T12:45:39Z</time>
      </trkpt>
      <trkpt lat="50.55497" lon="1.61554">
        <ele>31</ele>
        <time>2015-03-01T12:45:45Z</time>
      </trkpt>
      <trkpt lat="50.55491" lon="1.61557">
        <ele>31</ele>
        <time>2015-03-01T12:45:50Z</time>
      </trkpt>
      <trkpt lat="50.55484" lon="1.61562">
        <ele>31</ele>
        <time>2015-03-01T12:45:56Z</time>
      </trkpt>
      <trkpt lat="50.55478" lon="1.61568">
        <ele>31</ele>
        <time>2015-03-01T12:46:02Z</time>
      </trkpt>
      <trkpt lat="50.55471" lon="1.61571">
        <ele>30</ele>
        <time>2015-03-01T12:46:08Z</time>
      </trkpt>
      <trkpt lat="50.55465" lon="1.61577">
        <ele>30</ele>
        <time>2015-03-01T12:46:13Z</time>
      </trkpt>
      <trkpt lat="50.55457" lon="1.61586">
        <ele>32</ele>
        <time>2015-03-01T12:46:18Z</time>
      </trkpt>
      <trkpt lat="50.55452" lon="1.61598">
        <ele>32</ele>
        <time>2015-03-01T12:46:23Z</time>
      </trkpt>
      <trkpt lat="50.55448" lon="1.61604">
        <ele>32</ele>
        <time>2015-03-01T12:46:29Z</time>
      </trkpt>
      <trkpt lat="50.55444" lon="1.6161">
        <ele>32</ele>
        <time>2015-03-01T12:46:34Z</time>
      </trkpt>
      <trkpt lat="50.55437" lon="1.61612">
        <ele>32</ele>
        <time>2015-03-01T12:46:39Z</time>
      </trkpt>
      <trkpt lat="50.55429" lon="1.61616">
        <ele>32</ele>
        <time>2015-03-01T12:46:45Z</time>
      </trkpt>
      <trkpt lat="50.55421" lon="1.61618">
        <ele>32</ele>
        <time>2015-03-01T12:46:51Z</time>
      </trkpt>
      <trkpt lat="50.55415" lon="1.61622">
        <ele>28</ele>
        <time>2015-03-01T12:46:57Z</time>
      </trkpt>
      <trkpt lat="50.55408" lon="1.6163">
        <ele>29</ele>
        <time>2015-03-01T12:47:02Z</time>
      </trkpt>
      <trkpt lat="50.55403" lon="1.61637">
        <ele>29</ele>
        <time>2015-03-01T12:47:07Z</time>
      </trkpt>
      <trkpt lat="50.55397" lon="1.61642">
        <ele>29</ele>
        <time>2015-03-01T12:47:12Z</time>
      </trkpt>
      <trkpt lat="50.55391" lon="1.61646">
        <ele>29</ele>
        <time>2015-03-01T12:47:17Z</time>
      </trkpt>
      <trkpt lat="50.55384" lon="1.61651">
        <ele>28</ele>
        <time>2015-03-01T12:47:22Z</time>
      </trkpt>
      <trkpt lat="50.55377" lon="1.61657">
        <ele>28</ele>
        <time>2015-03-01T12:47:27Z</time>
      </trkpt>
      <trkpt lat="50.5537" lon="1.61662">
        <ele>28</ele>
        <time>2015-03-01T12:47:32Z</time>
      </trkpt>
      <trkpt lat="50.55363" lon="1.61667">
        <ele>27</ele>
        <time>2015-03-01T12:47:37Z</time>
      </trkpt>
      <trkpt lat="50.55356" lon="1.61671">
        <ele>30</ele>
        <time>2015-03-01T12:47:42Z</time>
      </trkpt>
      <trkpt lat="50.55349" lon="1.61674">
        <ele>29</ele>
        <time>2015-03-01T12:47:47Z</time>
      </trkpt>
      <trkpt lat="50.55343" lon="1.61678">
        <ele>29</ele>
        <time>2015-03-01T12:47:52Z</time>
      </trkpt>
      <trkpt lat="50.55336" lon="1.61681">
        <ele>29</ele>
        <time>2015-03-01T12:47:57Z</time>
      </trkpt>
      <trkpt lat="50.55326" lon="1.61687">
        <ele>27</ele>
        <time>2015-03-01T12:48:02Z</time>
      </trkpt>
      <trkpt lat="50.5532" lon="1.61689">
        <ele>27</ele>
        <time>2015-03-01T12:48:07Z</time>
      </trkpt>
      <trkpt lat="50.55314" lon="1.61695">
        <ele>27</ele>
        <time>2015-03-01T12:48:12Z</time>
      </trkpt>
      <trkpt lat="50.55307" lon="1.617">
        <ele>27</ele>
        <time>2015-03-01T12:48:18Z</time>
      </trkpt>
      <trkpt lat="50.55302" lon="1.61703">
        <ele>27</ele>
        <time>2015-03-01T12:48:23Z</time>
      </trkpt>
      <trkpt lat="50.55294" lon="1.61707">
        <ele>27</ele>
        <time>2015-03-01T12:48:29Z</time>
      </trkpt>
      <trkpt lat="50.55288" lon="1.61709">
        <ele>27</ele>
        <time>2015-03-01T12:48:34Z</time>
      </trkpt>
      <trkpt lat="50.55282" lon="1.61712">
        <ele>27</ele>
        <time>2015-03-01T12:48:39Z</time>
      </trkpt>
      <trkpt lat="50.55275" lon="1.61714">
        <ele>27</ele>
        <time>2015-03-01T12:48:44Z</time>
      </trkpt>
      <trkpt lat="50.55268" lon="1.61717">
        <ele>27</ele>
        <time>2015-03-01T12:48:49Z</time>
      </trkpt>
      <trkpt lat="50.5526" lon="1.61721">
        <ele>27</ele>
        <time>2015-03-01T12:48:54Z</time>
      </trkpt>
      <trkpt lat="50.55252" lon="1.61723">
        <ele>27</ele>
        <time>2015-03-01T12:48:59Z</time>
      </trkpt>
      <trkpt lat="50.55244" lon="1.61726">
        <ele>26</ele>
        <time>2015-03-01T12:49:04Z</time>
      </trkpt>
      <trkpt lat="50.55237" lon="1.61726">
        <ele>25</ele>
        <time>2015-03-01T12:49:10Z</time>
      </trkpt>
      <trkpt lat="50.55231" lon="1.61729">
        <ele>25</ele>
        <time>2015-03-01T12:49:15Z</time>
      </trkpt>
      <trkpt lat="50.55223" lon="1.61734">
        <ele>25</ele>
        <time>2015-03-01T12:49:20Z</time>
      </trkpt>
      <trkpt lat="50.55213" lon="1.61739">
        <ele>25</ele>
        <time>2015-03-01T12:49:27Z</time>
      </trkpt>
      <trkpt lat="50.55206" lon="1.61741">
        <ele>25</ele>
        <time>2015-03-01T12:49:32Z</time>
      </trkpt>
      <trkpt lat="50.55198" lon="1.61746">
        <ele>25</ele>
        <time>2015-03-01T12:49:38Z</time>
      </trkpt>
      <trkpt lat="50.55191" lon="1.61749">
        <ele>25</ele>
        <time>2015-03-01T12:49:43Z</time>
      </trkpt>
      <trkpt lat="50.55183" lon="1.61751">
        <ele>27</ele>
        <time>2015-03-01T12:49:49Z</time>
      </trkpt>
      <trkpt lat="50.55175" lon="1.61754">
        <ele>26</ele>
        <time>2015-03-01T12:49:54Z</time>
      </trkpt>
      <trkpt lat="50.55169" lon="1.61757">
        <ele>26</ele>
        <time>2015-03-01T12:49:59Z</time>
      </trkpt>
      <trkpt lat="50.55163" lon="1.6176">
        <ele>26</ele>
        <time>2015-03-01T12:50:04Z</time>
      </trkpt>
      <trkpt lat="50.55156" lon="1.61763">
        <ele>26</ele>
        <time>2015-03-01T12:50:09Z</time>
      </trkpt>
      <trkpt lat="50.55149" lon="1.61768">
        <ele>26</ele>
        <time>2015-03-01T12:50:14Z</time>
      </trkpt>
      <trkpt lat="50.55142" lon="1.61773">
        <ele>26</ele>
        <time>2015-03-01T12:50:19Z</time>
      </trkpt>
      <trkpt lat="50.55135" lon="1.61775">
        <ele>26</ele>
        <time>2015-03-01T12:50:24Z</time>
      </trkpt>
      <trkpt lat="50.55126" lon="1.61776">
        <ele>26</ele>
        <time>2015-03-01T12:50:29Z</time>
      </trkpt>
      <trkpt lat="50.55118" lon="1.61781">
        <ele>26</ele>
        <time>2015-03-01T12:50:36Z</time>
      </trkpt>
      <trkpt lat="50.55111" lon="1.61783">
        <ele>26</ele>
        <time>2015-03-01T12:50:41Z</time>
      </trkpt>
      <trkpt lat="50.55104" lon="1.61786">
        <ele>26</ele>
        <time>2015-03-01T12:50:46Z</time>
      </trkpt>
      <trkpt lat="50.55098" lon="1.61789">
        <ele>26</ele>
        <time>2015-03-01T12:50:51Z</time>
      </trkpt>
      <trkpt lat="50.55092" lon="1.61792">
        <ele>26</ele>
        <time>2015-03-01T12:50:56Z</time>
      </trkpt>
      <trkpt lat="50.55086" lon="1.61795">
        <ele>27</ele>
        <time>2015-03-01T12:51:01Z</time>
      </trkpt>
      <trkpt lat="50.5508" lon="1.61798">
        <ele>26</ele>
        <time>2015-03-01T12:51:06Z</time>
      </trkpt>
      <trkpt lat="50.55074" lon="1.61801">
        <ele>26</ele>
        <time>2015-03-01T12:51:11Z</time>
      </trkpt>
      <trkpt lat="50.55068" lon="1.61804">
        <ele>26</ele>
        <time>2015-03-01T12:51:16Z</time>
      </trkpt>
      <trkpt lat="50.55061" lon="1.61807">
        <ele>26</ele>
        <time>2015-03-01T12:51:21Z</time>
      </trkpt>
      <trkpt lat="50.55053" lon="1.61812">
        <ele>26</ele>
        <time>2015-03-01T12:51:26Z</time>
      </trkpt>
      <trkpt lat="50.55042" lon="1.61814">
        <ele>26</ele>
        <time>2015-03-01T12:51:33Z</time>
      </trkpt>
      <trkpt lat="50.55035" lon="1.6182">
        <ele>26</ele>
        <time>2015-03-01T12:51:39Z</time>
      </trkpt>
      <trkpt lat="50.55032" lon="1.6182">
        <ele>26</ele>
        <time>2015-03-01T12:51:47Z</time>
      </trkpt>
      <trkpt lat="50.55028" lon="1.61821">
        <ele>26</ele>
        <time>2015-03-01T12:51:52Z</time>
      </trkpt>
      <trkpt lat="50.55021" lon="1.61827">
        <ele>26</ele>
        <time>2015-03-01T12:51:57Z</time>
      </trkpt>
      <trkpt lat="50.55014" lon="1.61829">
        <ele>26</ele>
        <time>2015-03-01T12:52:02Z</time>
      </trkpt>
      <trkpt lat="50.55009" lon="1.61831">
        <ele>26</ele>
        <time>2015-03-01T12:52:07Z</time>
      </trkpt>
      <trkpt lat="50.55006" lon="1.61834">
        <ele>28</ele>
        <time>2015-03-01T12:52:13Z</time>
      </trkpt>
      <trkpt lat="50.55004" lon="1.61835">
        <ele>28</ele>
        <time>2015-03-01T12:52:19Z</time>
      </trkpt>
      <trkpt lat="50.55001" lon="1.61837">
        <ele>28</ele>
        <time>2015-03-01T12:52:24Z</time>
      </trkpt>
      <trkpt lat="50.54995" lon="1.61839">
        <ele>27</ele>
        <time>2015-03-01T12:52:30Z</time>
      </trkpt>
      <trkpt lat="50.5499" lon="1.61841">
        <ele>28</ele>
        <time>2015-03-01T12:52:35Z</time>
      </trkpt>
      <trkpt lat="50.54985" lon="1.61844">
        <ele>28</ele>
        <time>2015-03-01T12:52:41Z</time>
      </trkpt>
      <trkpt lat="50.54979" lon="1.61846">
        <ele>28</ele>
        <time>2015-03-01T12:52:46Z</time>
      </trkpt>
      <trkpt lat="50.54972" lon="1.6185">
        <ele>28</ele>
        <time>2015-03-01T12:52:52Z</time>
      </trkpt>
      <trkpt lat="50.54965" lon="1.61853">
        <ele>28</ele>
        <time>2015-03-01T12:52:58Z</time>
      </trkpt>
      <trkpt lat="50.5496" lon="1.61853">
        <ele>28</ele>
        <time>2015-03-01T12:53:05Z</time>
      </trkpt>
      <trkpt lat="50.54967" lon="1.61848">
        <ele>28</ele>
        <time>2015-03-01T12:53:10Z</time>
      </trkpt>
      <trkpt lat="50.54972" lon="1.61845">
        <ele>28</ele>
        <time>2015-03-01T12:53:16Z</time>
      </trkpt>
      <trkpt lat="50.54978" lon="1.61843">
        <ele>28</ele>
        <time>2015-03-01T12:53:21Z</time>
      </trkpt>
      <trkpt lat="50.54985" lon="1.61839">
        <ele>28</ele>
        <time>2015-03-01T12:53:26Z</time>
      </trkpt>
      <trkpt lat="50.54992" lon="1.61835">
        <ele>28</ele>
        <time>2015-03-01T12:53:31Z</time>
      </trkpt>
      <trkpt lat="50.54997" lon="1.61832">
        <ele>27</ele>
        <time>2015-03-01T12:53:36Z</time>
      </trkpt>
      <trkpt lat="50.55003" lon="1.61831">
        <ele>27</ele>
        <time>2015-03-01T12:53:41Z</time>
      </trkpt>
      <trkpt lat="50.55009" lon="1.61829">
        <ele>26</ele>
        <time>2015-03-01T12:53:46Z</time>
      </trkpt>
      <trkpt lat="50.55016" lon="1.61827">
        <ele>26</ele>
        <time>2015-03-01T12:53:51Z</time>
      </trkpt>
      <trkpt lat="50.55024" lon="1.61821">
        <ele>26</ele>
        <time>2015-03-01T12:53:57Z</time>
      </trkpt>
      <trkpt lat="50.55027" lon="1.61814">
        <ele>26</ele>
        <time>2015-03-01T12:54:02Z</time>
      </trkpt>
      <trkpt lat="50.55025" lon="1.61809">
        <ele>25</ele>
        <time>2015-03-01T12:54:07Z</time>
      </trkpt>
      <trkpt lat="50.55027" lon="1.61809">
        <ele>25</ele>
        <time>2015-03-01T12:54:15Z</time>
      </trkpt>
      <trkpt lat="50.55025" lon="1.61816">
        <ele>26</ele>
        <time>2015-03-01T12:54:21Z</time>
      </trkpt>
      <trkpt lat="50.55019" lon="1.61819">
        <ele>26</ele>
        <time>2015-03-01T12:54:27Z</time>
      </trkpt>
      <trkpt lat="50.55014" lon="1.61823">
        <ele>26</ele>
        <time>2015-03-01T12:54:32Z</time>
      </trkpt>
      <trkpt lat="50.55008" lon="1.61827">
        <ele>26</ele>
        <time>2015-03-01T12:54:41Z</time>
      </trkpt>
      <trkpt lat="50.55002" lon="1.61831">
        <ele>27</ele>
        <time>2015-03-01T12:54:46Z</time>
      </trkpt>
      <trkpt lat="50.54996" lon="1.61836">
        <ele>27</ele>
        <time>2015-03-01T12:54:51Z</time>
      </trkpt>
      <trkpt lat="50.5499" lon="1.61838">
        <ele>28</ele>
        <time>2015-03-01T12:54:56Z</time>
      </trkpt>
      <trkpt lat="50.54983" lon="1.61841">
        <ele>28</ele>
        <time>2015-03-01T12:55:01Z</time>
      </trkpt>
      <trkpt lat="50.54977" lon="1.61844">
        <ele>28</ele>
        <time>2015-03-01T12:55:06Z</time>
      </trkpt>
      <trkpt lat="50.54969" lon="1.61847">
        <ele>28</ele>
        <time>2015-03-01T12:55:12Z</time>
      </trkpt>
      <trkpt lat="50.54963" lon="1.61849">
        <ele>28</ele>
        <time>2015-03-01T12:55:17Z</time>
      </trkpt>
      <trkpt lat="50.54956" lon="1.61853">
        <ele>28</ele>
        <time>2015-03-01T12:55:22Z</time>
      </trkpt>
      <trkpt lat="50.54949" lon="1.61857">
        <ele>28</ele>
        <time>2015-03-01T12:55:27Z</time>
      </trkpt>
      <trkpt lat="50.54942" lon="1.61857">
        <ele>28</ele>
        <time>2015-03-01T12:55:32Z</time>
      </trkpt>
      <trkpt lat="50.54937" lon="1.61853">
        <ele>27</ele>
        <time>2015-03-01T12:55:37Z</time>
      </trkpt>
      <trkpt lat="50.54936" lon="1.6185">
        <ele>27</ele>
        <time>2015-03-01T12:55:43Z</time>
      </trkpt>
      <trkpt lat="50.54931" lon="1.61848">
        <ele>27</ele>
        <time>2015-03-01T12:55:48Z</time>
      </trkpt>
      <trkpt lat="50.54924" lon="1.61842">
        <ele>26</ele>
        <time>2015-03-01T12:55:53Z</time>
      </trkpt>
      <trkpt lat="50.54918" lon="1.61841">
        <ele>25</ele>
        <time>2015-03-01T12:55:59Z</time>
      </trkpt>
      <trkpt lat="50.54911" lon="1.61848">
        <ele>24</ele>
        <time>2015-03-01T12:56:05Z</time>
      </trkpt>
      <trkpt lat="50.54903" lon="1.61846">
        <ele>24</ele>
        <time>2015-03-01T12:56:11Z</time>
      </trkpt>
      <trkpt lat="50.54897" lon="1.61847">
        <ele>24</ele>
        <time>2015-03-01T12:56:17Z</time>
      </trkpt>
      <trkpt lat="50.5489" lon="1.61851">
        <ele>24</ele>
        <time>2015-03-01T12:56:23Z</time>
      </trkpt>
      <trkpt lat="50.54884" lon="1.61849">
        <ele>24</ele>
        <time>2015-03-01T12:56:28Z</time>
      </trkpt>
      <trkpt lat="50.54876" lon="1.61853">
        <ele>24</ele>
        <time>2015-03-01T12:56:33Z</time>
      </trkpt>
      <trkpt lat="50.54868" lon="1.61857">
        <ele>24</ele>
        <time>2015-03-01T12:56:38Z</time>
      </trkpt>
      <trkpt lat="50.54862" lon="1.61856">
        <ele>24</ele>
        <time>2015-03-01T12:56:43Z</time>
      </trkpt>
      <trkpt lat="50.54855" lon="1.61855">
        <ele>24</ele>
        <time>2015-03-01T12:56:48Z</time>
      </trkpt>
      <trkpt lat="50.54847" lon="1.61854">
        <ele>24</ele>
        <time>2015-03-01T12:56:54Z</time>
      </trkpt>
      <trkpt lat="50.5484" lon="1.61851">
        <ele>23</ele>
        <time>2015-03-01T12:56:59Z</time>
      </trkpt>
      <trkpt lat="50.54834" lon="1.61848">
        <ele>23</ele>
        <time>2015-03-01T12:57:05Z</time>
      </trkpt>
      <trkpt lat="50.54826" lon="1.61849">
        <ele>22</ele>
        <time>2015-03-01T12:57:10Z</time>
      </trkpt>
      <trkpt lat="50.54818" lon="1.61851">
        <ele>22</ele>
        <time>2015-03-01T12:57:15Z</time>
      </trkpt>
      <trkpt lat="50.54812" lon="1.61852">
        <ele>22</ele>
        <time>2015-03-01T12:57:21Z</time>
      </trkpt>
      <trkpt lat="50.54804" lon="1.61857">
        <ele>22</ele>
        <time>2015-03-01T12:57:26Z</time>
      </trkpt>
      <trkpt lat="50.54796" lon="1.61858">
        <ele>22</ele>
        <time>2015-03-01T12:57:32Z</time>
      </trkpt>
      <trkpt lat="50.54791" lon="1.61858">
        <ele>22</ele>
        <time>2015-03-01T12:57:37Z</time>
      </trkpt>
      <trkpt lat="50.54782" lon="1.61857">
        <ele>21</ele>
        <time>2015-03-01T12:57:42Z</time>
      </trkpt>
      <trkpt lat="50.54777" lon="1.61857">
        <ele>21</ele>
        <time>2015-03-01T12:57:47Z</time>
      </trkpt>
      <trkpt lat="50.5477" lon="1.61861">
        <ele>21</ele>
        <time>2015-03-01T12:57:52Z</time>
      </trkpt>
      <trkpt lat="50.54762" lon="1.61864">
        <ele>21</ele>
        <time>2015-03-01T12:57:58Z</time>
      </trkpt>
      <trkpt lat="50.54754" lon="1.61864">
        <ele>21</ele>
        <time>2015-03-01T12:58:03Z</time>
      </trkpt>
      <trkpt lat="50.54748" lon="1.61864">
        <ele>20</ele>
        <time>2015-03-01T12:58:09Z</time>
      </trkpt>
      <trkpt lat="50.54742" lon="1.61865">
        <ele>20</ele>
        <time>2015-03-01T12:58:14Z</time>
      </trkpt>
      <trkpt lat="50.54736" lon="1.61864">
        <ele>20</ele>
        <time>2015-03-01T12:58:20Z</time>
      </trkpt>
      <trkpt lat="50.5473" lon="1.6186">
        <ele>20</ele>
        <time>2015-03-01T12:58:25Z</time>
      </trkpt>
      <trkpt lat="50.54723" lon="1.61862">
        <ele>20</ele>
        <time>2015-03-01T12:58:30Z</time>
      </trkpt>
      <trkpt lat="50.54721" lon="1.6186">
        <ele>20</ele>
        <time>2015-03-01T12:58:36Z</time>
      </trkpt>
      <trkpt lat="50.54713" lon="1.61859">
        <ele>20</ele>
        <time>2015-03-01T12:58:41Z</time>
      </trkpt>
      <trkpt lat="50.54707" lon="1.6186">
        <ele>20</ele>
        <time>2015-03-01T12:58:46Z</time>
      </trkpt>
      <trkpt lat="50.54704" lon="1.61869">
        <ele>20</ele>
        <time>2015-03-01T12:58:51Z</time>
      </trkpt>
      <trkpt lat="50.54699" lon="1.61877">
        <ele>20</ele>
        <time>2015-03-01T12:58:57Z</time>
      </trkpt>
      <trkpt lat="50.54691" lon="1.61874">
        <ele>20</ele>
        <time>2015-03-01T12:59:02Z</time>
      </trkpt>
      <trkpt lat="50.54683" lon="1.61872">
        <ele>19</ele>
        <time>2015-03-01T12:59:07Z</time>
      </trkpt>
      <trkpt lat="50.5467" lon="1.61876">
        <ele>19</ele>
        <time>2015-03-01T12:59:12Z</time>
      </trkpt>
      <trkpt lat="50.54662" lon="1.61877">
        <ele>19</ele>
        <time>2015-03-01T12:59:19Z</time>
      </trkpt>
      <trkpt lat="50.54657" lon="1.61878">
        <ele>19</ele>
        <time>2015-03-01T12:59:27Z</time>
      </trkpt>
      <trkpt lat="50.5465" lon="1.61885">
        <ele>19</ele>
        <time>2015-03-01T12:59:33Z</time>
      </trkpt>
      <trkpt lat="50.54643" lon="1.6189">
        <ele>19</ele>
        <time>2015-03-01T12:59:39Z</time>
      </trkpt>
      <trkpt lat="50.54638" lon="1.61893">
        <ele>19</ele>
        <time>2015-03-01T12:59:45Z</time>
      </trkpt>
      <trkpt lat="50.54633" lon="1.61899">
        <ele>19</ele>
        <time>2015-03-01T12:59:51Z</time>
      </trkpt>
      <trkpt lat="50.54628" lon="1.61905">
        <ele>19</ele>
        <time>2015-03-01T12:59:56Z</time>
      </trkpt>
      <trkpt lat="50.54624" lon="1.61906">
        <ele>19</ele>
        <time>2015-03-01T13:00:01Z</time>
      </trkpt>
      <trkpt lat="50.54617" lon="1.61896">
        <ele>19</ele>
        <time>2015-03-01T13:00:06Z</time>
      </trkpt>
      <trkpt lat="50.54612" lon="1.61886">
        <ele>19</ele>
        <time>2015-03-01T13:00:13Z</time>
      </trkpt>
      <trkpt lat="50.54609" lon="1.61873">
        <ele>19</ele>
        <time>2015-03-01T13:00:18Z</time>
      </trkpt>
      <trkpt lat="50.54604" lon="1.61862">
        <ele>19</ele>
        <time>2015-03-01T13:00:23Z</time>
      </trkpt>
      <trkpt lat="50.54599" lon="1.61855">
        <ele>19</ele>
        <time>2015-03-01T13:00:28Z</time>
      </trkpt>
      <trkpt lat="50.54593" lon="1.61844">
        <ele>18</ele>
        <time>2015-03-01T13:00:34Z</time>
      </trkpt>
      <trkpt lat="50.54588" lon="1.61843">
        <ele>18</ele>
        <time>2015-03-01T13:00:39Z</time>
      </trkpt>
      <trkpt lat="50.5458" lon="1.61838">
        <ele>18</ele>
        <time>2015-03-01T13:00:44Z</time>
      </trkpt>
      <trkpt lat="50.54576" lon="1.61835">
        <ele>18</ele>
        <time>2015-03-01T13:00:49Z</time>
      </trkpt>
      <trkpt lat="50.5457" lon="1.61829">
        <ele>18</ele>
        <time>2015-03-01T13:00:55Z</time>
      </trkpt>
      <trkpt lat="50.54566" lon="1.6182">
        <ele>18</ele>
        <time>2015-03-01T13:01:02Z</time>
      </trkpt>
      <trkpt lat="50.54558" lon="1.61815">
        <ele>18</ele>
        <time>2015-03-01T13:01:08Z</time>
      </trkpt>
      <trkpt lat="50.54554" lon="1.61812">
        <ele>17</ele>
        <time>2015-03-01T13:01:14Z</time>
      </trkpt>
      <trkpt lat="50.54546" lon="1.61814">
        <ele>18</ele>
        <time>2015-03-01T13:01:20Z</time>
      </trkpt>
      <trkpt lat="50.54542" lon="1.6182">
        <ele>18</ele>
        <time>2015-03-01T13:01:25Z</time>
      </trkpt>
      <trkpt lat="50.54537" lon="1.61829">
        <ele>18</ele>
        <time>2015-03-01T13:01:30Z</time>
      </trkpt>
      <trkpt lat="50.5453" lon="1.61834">
        <ele>19</ele>
        <time>2015-03-01T13:01:35Z</time>
      </trkpt>
      <trkpt lat="50.54524" lon="1.61829">
        <ele>18</ele>
        <time>2015-03-01T13:01:40Z</time>
      </trkpt>
      <trkpt lat="50.5452" lon="1.61825">
        <ele>18</ele>
        <time>2015-03-01T13:01:46Z</time>
      </trkpt>
      <trkpt lat="50.54512" lon="1.61824">
        <ele>18</ele>
        <time>2015-03-01T13:01:52Z</time>
      </trkpt>
      <trkpt lat="50.54506" lon="1.61821">
        <ele>18</ele>
        <time>2015-03-01T13:01:57Z</time>
      </trkpt>
      <trkpt lat="50.545" lon="1.61819">
        <ele>18</ele>
        <time>2015-03-01T13:02:02Z</time>
      </trkpt>
      <trkpt lat="50.54494" lon="1.61816">
        <ele>19</ele>
        <time>2015-03-01T13:02:08Z</time>
      </trkpt>
      <trkpt lat="50.54484" lon="1.61813">
        <ele>19</ele>
        <time>2015-03-01T13:02:15Z</time>
      </trkpt>
      <trkpt lat="50.54475" lon="1.61809">
        <ele>18</ele>
        <time>2015-03-01T13:02:22Z</time>
      </trkpt>
      <trkpt lat="50.5447" lon="1.61808">
        <ele>18</ele>
        <time>2015-03-01T13:02:27Z</time>
      </trkpt>
      <trkpt lat="50.54465" lon="1.61807">
        <ele>18</ele>
        <time>2015-03-01T13:02:33Z</time>
      </trkpt>
      <trkpt lat="50.54461" lon="1.61806">
        <ele>19</ele>
        <time>2015-03-01T13:02:39Z</time>
      </trkpt>
      <trkpt lat="50.54455" lon="1.61804">
        <ele>19</ele>
        <time>2015-03-01T13:02:45Z</time>
      </trkpt>
      <trkpt lat="50.54446" lon="1.61806">
        <ele>19</ele>
        <time>2015-03-01T13:02:50Z</time>
      </trkpt>
      <trkpt lat="50.54438" lon="1.6181">
        <ele>19</ele>
        <time>2015-03-01T13:02:55Z</time>
      </trkpt>
      <trkpt lat="50.5443" lon="1.61808">
        <ele>19</ele>
        <time>2015-03-01T13:03:00Z</time>
      </trkpt>
      <trkpt lat="50.54425" lon="1.61806">
        <ele>19</ele>
        <time>2015-03-01T13:03:06Z</time>
      </trkpt>
      <trkpt lat="50.54417" lon="1.61804">
        <ele>19</ele>
        <time>2015-03-01T13:03:11Z</time>
      </trkpt>
      <trkpt lat="50.54412" lon="1.61802">
        <ele>19</ele>
        <time>2015-03-01T13:03:16Z</time>
      </trkpt>
      <trkpt lat="50.54407" lon="1.61801">
        <ele>19</ele>
        <time>2015-03-01T13:03:21Z</time>
      </trkpt>
      <trkpt lat="50.54399" lon="1.61802">
        <ele>19</ele>
        <time>2015-03-01T13:03:28Z</time>
      </trkpt>
      <trkpt lat="50.54393" lon="1.618">
        <ele>19</ele>
        <time>2015-03-01T13:03:33Z</time>
      </trkpt>
      <trkpt lat="50.54388" lon="1.618">
        <ele>19</ele>
        <time>2015-03-01T13:03:38Z</time>
      </trkpt>
      <trkpt lat="50.5438" lon="1.61807">
        <ele>19</ele>
        <time>2015-03-01T13:03:43Z</time>
      </trkpt>
      <trkpt lat="50.54372" lon="1.61811">
        <ele>19</ele>
        <time>2015-03-01T13:03:49Z</time>
      </trkpt>
      <trkpt lat="50.5437" lon="1.61816">
        <ele>19</ele>
        <time>2015-03-01T13:03:54Z</time>
      </trkpt>
      <trkpt lat="50.54366" lon="1.61822">
        <ele>19</ele>
        <time>2015-03-01T13:03:59Z</time>
      </trkpt>
      <trkpt lat="50.5436" lon="1.61822">
        <ele>19</ele>
        <time>2015-03-01T13:04:04Z</time>
      </trkpt>
      <trkpt lat="50.54357" lon="1.61827">
        <ele>19</ele>
        <time>2015-03-01T13:04:10Z</time>
      </trkpt>
      <trkpt lat="50.54351" lon="1.61834">
        <ele>21</ele>
        <time>2015-03-01T13:04:15Z</time>
      </trkpt>
      <trkpt lat="50.54343" lon="1.61843">
        <ele>21</ele>
        <time>2015-03-01T13:04:22Z</time>
      </trkpt>
      <trkpt lat="50.54342" lon="1.61847">
        <ele>21</ele>
        <time>2015-03-01T13:04:27Z</time>
      </trkpt>
      <trkpt lat="50.54338" lon="1.6185">
        <ele>21</ele>
        <time>2015-03-01T13:04:33Z</time>
      </trkpt>
      <trkpt lat="50.54335" lon="1.61858">
        <ele>21</ele>
        <time>2015-03-01T13:04:38Z</time>
      </trkpt>
      <trkpt lat="50.54329" lon="1.61864">
        <ele>20</ele>
        <time>2015-03-01T13:04:43Z</time>
      </trkpt>
      <trkpt lat="50.54324" lon="1.61866">
        <ele>20</ele>
        <time>2015-03-01T13:04:49Z</time>
      </trkpt>
      <trkpt lat="50.54317" lon="1.61866">
        <ele>20</ele>
        <time>2015-03-01T13:04:54Z</time>
      </trkpt>
      <trkpt lat="50.54316" lon="1.61872">
        <ele>20</ele>
        <time>2015-03-01T13:05:00Z</time>
      </trkpt>
      <trkpt lat="50.54313" lon="1.61879">
        <ele>20</ele>
        <time>2015-03-01T13:05:07Z</time>
      </trkpt>
      <trkpt lat="50.5431" lon="1.61887">
        <ele>20</ele>
        <time>2015-03-01T13:05:12Z</time>
      </trkpt>
      <trkpt lat="50.54306" lon="1.61898">
        <ele>20</ele>
        <time>2015-03-01T13:05:18Z</time>
      </trkpt>
      <trkpt lat="50.54302" lon="1.61907">
        <ele>20</ele>
        <time>2015-03-01T13:05:23Z</time>
      </trkpt>
      <trkpt lat="50.54297" lon="1.61915">
        <ele>20</ele>
        <time>2015-03-01T13:05:29Z</time>
      </trkpt>
      <trkpt lat="50.54294" lon="1.61923">
        <ele>22</ele>
        <time>2015-03-01T13:05:35Z</time>
      </trkpt>
      <trkpt lat="50.54295" lon="1.61931">
        <ele>22</ele>
        <time>2015-03-01T13:05:40Z</time>
      </trkpt>
      <trkpt lat="50.54298" lon="1.61942">
        <ele>22</ele>
        <time>2015-03-01T13:05:46Z</time>
      </trkpt>
      <trkpt lat="50.54298" lon="1.61952">
        <ele>23</ele>
        <time>2015-03-01T13:05:52Z</time>
      </trkpt>
      <trkpt lat="50.54295" lon="1.61959">
        <ele>23</ele>
        <time>2015-03-01T13:05:57Z</time>
      </trkpt>
      <trkpt lat="50.54292" lon="1.61965">
        <ele>23</ele>
        <time>2015-03-01T13:06:02Z</time>
      </trkpt>
      <trkpt lat="50.54285" lon="1.61974">
        <ele>23</ele>
        <time>2015-03-01T13:06:07Z</time>
      </trkpt>
      <trkpt lat="50.54281" lon="1.61981">
        <ele>23</ele>
        <time>2015-03-01T13:06:12Z</time>
      </trkpt>
      <trkpt lat="50.54281" lon="1.61982">
        <ele>23</ele>
        <time>2015-03-01T13:06:18Z</time>
      </trkpt>
      <trkpt lat="50.54272" lon="1.61998">
        <ele>23</ele>
        <time>2015-03-01T13:06:23Z</time>
      </trkpt>
      <trkpt lat="50.54266" lon="1.62005">
        <ele>25</ele>
        <time>2015-03-01T13:06:28Z</time>
      </trkpt>
      <trkpt lat="50.54259" lon="1.62012">
        <ele>25</ele>
        <time>2015-03-01T13:06:33Z</time>
      </trkpt>
      <trkpt lat="50.54251" lon="1.62017">
        <ele>25</ele>
        <time>2015-03-01T13:06:40Z</time>
      </trkpt>
      <trkpt lat="50.54243" lon="1.62022">
        <ele>25</ele>
        <time>2015-03-01T13:06:46Z</time>
      </trkpt>
      <trkpt lat="50.54239" lon="1.62021">
        <ele>25</ele>
        <time>2015-03-01T13:06:51Z</time>
      </trkpt>
      <trkpt lat="50.54241" lon="1.62022">
        <ele>25</ele>
        <time>2015-03-01T13:06:57Z</time>
      </trkpt>
      <trkpt lat="50.54235" lon="1.62027">
        <ele>25</ele>
        <time>2015-03-01T13:07:02Z</time>
      </trkpt>
      <trkpt lat="50.54231" lon="1.62025">
        <ele>25</ele>
        <time>2015-03-01T13:07:07Z</time>
      </trkpt>
      <trkpt lat="50.54226" lon="1.62029">
        <ele>25</ele>
        <time>2015-03-01T13:07:13Z</time>
      </trkpt>
      <trkpt lat="50.54222" lon="1.62036">
        <ele>25</ele>
        <time>2015-03-01T13:07:18Z</time>
      </trkpt>
      <trkpt lat="50.5422" lon="1.62041">
        <ele>25</ele>
        <time>2015-03-01T13:07:23Z</time>
      </trkpt>
      <trkpt lat="50.5422" lon="1.62045">
        <ele>25</ele>
        <time>2015-03-01T13:07:28Z</time>
      </trkpt>
      <trkpt lat="50.5422" lon="1.62053">
        <ele>26</ele>
        <time>2015-03-01T13:07:33Z</time>
      </trkpt>
      <trkpt lat="50.54221" lon="1.62062">
        <ele>26</ele>
        <time>2015-03-01T13:07:38Z</time>
      </trkpt>
      <trkpt lat="50.54224" lon="1.62072">
        <ele>26</ele>
        <time>2015-03-01T13:07:44Z</time>
      </trkpt>
      <trkpt lat="50.54224" lon="1.62079">
        <ele>26</ele>
        <time>2015-03-01T13:07:49Z</time>
      </trkpt>
      <trkpt lat="50.54224" lon="1.62088">
        <ele>28</ele>
        <time>2015-03-01T13:07:54Z</time>
      </trkpt>
      <trkpt lat="50.54222" lon="1.62097">
        <ele>28</ele>
        <time>2015-03-01T13:08:00Z</time>
      </trkpt>
      <trkpt lat="50.54223" lon="1.62108">
        <ele>29</ele>
        <time>2015-03-01T13:08:06Z</time>
      </trkpt>
      <trkpt lat="50.54218" lon="1.62121">
        <ele>29</ele>
        <time>2015-03-01T13:08:11Z</time>
      </trkpt>
      <trkpt lat="50.54216" lon="1.6213">
        <ele>29</ele>
        <time>2015-03-01T13:08:17Z</time>
      </trkpt>
      <trkpt lat="50.54214" lon="1.62139">
        <ele>29</ele>
        <time>2015-03-01T13:08:23Z</time>
      </trkpt>
      <trkpt lat="50.5421" lon="1.62152">
        <ele>30</ele>
        <time>2015-03-01T13:08:29Z</time>
      </trkpt>
      <trkpt lat="50.54203" lon="1.62158">
        <ele>30</ele>
        <time>2015-03-01T13:08:35Z</time>
      </trkpt>
      <trkpt lat="50.54198" lon="1.62158">
        <ele>30</ele>
        <time>2015-03-01T13:08:40Z</time>
      </trkpt>
      <trkpt lat="50.54195" lon="1.6216">
        <ele>30</ele>
        <time>2015-03-01T13:08:45Z</time>
      </trkpt>
      <trkpt lat="50.54189" lon="1.62164">
        <ele>30</ele>
        <time>2015-03-01T13:08:51Z</time>
      </trkpt>
      <trkpt lat="50.54187" lon="1.6217">
        <ele>32</ele>
        <time>2015-03-01T13:08:56Z</time>
      </trkpt>
      <trkpt lat="50.54187" lon="1.62176">
        <ele>33</ele>
        <time>2015-03-01T13:09:02Z</time>
      </trkpt>
      <trkpt lat="50.54188" lon="1.62183">
        <ele>33</ele>
        <time>2015-03-01T13:09:08Z</time>
      </trkpt>
      <trkpt lat="50.54182" lon="1.62187">
        <ele>33</ele>
        <time>2015-03-01T13:09:14Z</time>
      </trkpt>
      <trkpt lat="50.54176" lon="1.62188">
        <ele>33</ele>
        <time>2015-03-01T13:09:19Z</time>
      </trkpt>
      <trkpt lat="50.54171" lon="1.6219">
        <ele>33</ele>
        <time>2015-03-01T13:09:24Z</time>
      </trkpt>
      <trkpt lat="50.54162" lon="1.62196">
        <ele>32</ele>
        <time>2015-03-01T13:09:33Z</time>
      </trkpt>
      <trkpt lat="50.54156" lon="1.622">
        <ele>32</ele>
        <time>2015-03-01T13:09:39Z</time>
      </trkpt>
      <trkpt lat="50.5415" lon="1.62202">
        <ele>32</ele>
        <time>2015-03-01T13:09:44Z</time>
      </trkpt>
      <trkpt lat="50.54145" lon="1.62204">
        <ele>32</ele>
        <time>2015-03-01T13:09:49Z</time>
      </trkpt>
      <trkpt lat="50.54139" lon="1.62205">
        <ele>32</ele>
        <time>2015-03-01T13:09:54Z</time>
      </trkpt>
      <trkpt lat="50.54134" lon="1.62207">
        <ele>31</ele>
        <time>2015-03-01T13:09:59Z</time>
      </trkpt>
      <trkpt lat="50.54129" lon="1.62204">
        <ele>31</ele>
        <time>2015-03-01T13:10:04Z</time>
      </trkpt>
      <trkpt lat="50.54125" lon="1.62197">
        <ele>31</ele>
        <time>2015-03-01T13:10:09Z</time>
      </trkpt>
      <trkpt lat="50.54125" lon="1.62189">
        <ele>31</ele>
        <time>2015-03-01T13:10:14Z</time>
      </trkpt>
      <trkpt lat="50.54124" lon="1.62179">
        <ele>31</ele>
        <time>2015-03-01T13:10:19Z</time>
      </trkpt>
      <trkpt lat="50.54123" lon="1.62168">
        <ele>30</ele>
        <time>2015-03-01T13:10:24Z</time>
      </trkpt>
      <trkpt lat="50.5412" lon="1.62157">
        <ele>28</ele>
        <time>2015-03-01T13:10:29Z</time>
      </trkpt>
      <trkpt lat="50.54118" lon="1.62144">
        <ele>27</ele>
        <time>2015-03-01T13:10:35Z</time>
      </trkpt>
      <trkpt lat="50.54114" lon="1.62136">
        <ele>27</ele>
        <time>2015-03-01T13:10:41Z</time>
      </trkpt>
      <trkpt lat="50.54116" lon="1.62126">
        <ele>27</ele>
        <time>2015-03-01T13:10:46Z</time>
      </trkpt>
      <trkpt lat="50.54118" lon="1.62123">
        <ele>27</ele>
        <time>2015-03-01T13:10:53Z</time>
      </trkpt>
      <trkpt lat="50.54116" lon="1.62113">
        <ele>26</ele>
        <time>2015-03-01T13:10:58Z</time>
      </trkpt>
      <trkpt lat="50.54117" lon="1.62103">
        <ele>26</ele>
        <time>2015-03-01T13:11:04Z</time>
      </trkpt>
      <trkpt lat="50.54117" lon="1.62093">
        <ele>26</ele>
        <time>2015-03-01T13:11:09Z</time>
      </trkpt>
      <trkpt lat="50.54114" lon="1.62082">
        <ele>24</ele>
        <time>2015-03-01T13:11:15Z</time>
      </trkpt>
      <trkpt lat="50.54113" lon="1.62074">
        <ele>23</ele>
        <time>2015-03-01T13:11:20Z</time>
      </trkpt>
      <trkpt lat="50.54113" lon="1.62065">
        <ele>23</ele>
        <time>2015-03-01T13:11:25Z</time>
      </trkpt>
      <trkpt lat="50.54113" lon="1.62055">
        <ele>23</ele>
        <time>2015-03-01T13:11:30Z</time>
      </trkpt>
      <trkpt lat="50.54113" lon="1.62043">
        <ele>23</ele>
        <time>2015-03-01T13:11:35Z</time>
      </trkpt>
      <trkpt lat="50.5411" lon="1.62031">
        <ele>23</ele>
        <time>2015-03-01T13:11:40Z</time>
      </trkpt>
      <trkpt lat="50.54108" lon="1.62023">
        <ele>22</ele>
        <time>2015-03-01T13:11:45Z</time>
      </trkpt>
      <trkpt lat="50.54107" lon="1.62013">
        <ele>22</ele>
        <time>2015-03-01T13:11:50Z</time>
      </trkpt>
      <trkpt lat="50.54106" lon="1.62004">
        <ele>22</ele>
        <time>2015-03-01T13:11:55Z</time>
      </trkpt>
      <trkpt lat="50.54105" lon="1.61995">
        <ele>20</ele>
        <time>2015-03-01T13:12:00Z</time>
      </trkpt>
      <trkpt lat="50.54104" lon="1.61986">
        <ele>20</ele>
        <time>2015-03-01T13:12:05Z</time>
      </trkpt>
      <trkpt lat="50.54103" lon="1.61977">
        <ele>20</ele>
        <time>2015-03-01T13:12:10Z</time>
      </trkpt>
      <trkpt lat="50.54102" lon="1.61965">
        <ele>20</ele>
        <time>2015-03-01T13:12:15Z</time>
      </trkpt>
      <trkpt lat="50.54097" lon="1.61953">
        <ele>19</ele>
        <time>2015-03-01T13:12:20Z</time>
      </trkpt>
      <trkpt lat="50.54095" lon="1.61942">
        <ele>19</ele>
        <time>2015-03-01T13:12:25Z</time>
      </trkpt>
      <trkpt lat="50.54093" lon="1.61932">
        <ele>18</ele>
        <time>2015-03-01T13:12:30Z</time>
      </trkpt>
      <trkpt lat="50.54092" lon="1.61923">
        <ele>18</ele>
        <time>2015-03-01T13:12:36Z</time>
      </trkpt>
      <trkpt lat="50.54091" lon="1.61914">
        <ele>17</ele>
        <time>2015-03-01T13:12:41Z</time>
      </trkpt>
      <trkpt lat="50.5409" lon="1.61902">
        <ele>17</ele>
        <time>2015-03-01T13:12:46Z</time>
      </trkpt>
      <trkpt lat="50.54088" lon="1.61893">
        <ele>16</ele>
        <time>2015-03-01T13:12:51Z</time>
      </trkpt>
      <trkpt lat="50.54085" lon="1.61882">
        <ele>16</ele>
        <time>2015-03-01T13:12:56Z</time>
      </trkpt>
      <trkpt lat="50.54082" lon="1.61873">
        <ele>15</ele>
        <time>2015-03-01T13:13:01Z</time>
      </trkpt>
      <trkpt lat="50.5408" lon="1.61864">
        <ele>15</ele>
        <time>2015-03-01T13:13:06Z</time>
      </trkpt>
      <trkpt lat="50.54077" lon="1.61855">
        <ele>15</ele>
        <time>2015-03-01T13:13:11Z</time>
      </trkpt>
      <trkpt lat="50.54075" lon="1.61846">
        <ele>14</ele>
        <time>2015-03-01T13:13:16Z</time>
      </trkpt>
      <trkpt lat="50.54071" lon="1.61837">
        <ele>14</ele>
        <time>2015-03-01T13:13:21Z</time>
      </trkpt>
      <trkpt lat="50.5407" lon="1.61826">
        <ele>13</ele>
        <time>2015-03-01T13:13:26Z</time>
      </trkpt>
      <trkpt lat="50.5407" lon="1.61816">
        <ele>13</ele>
        <time>2015-03-01T13:13:31Z</time>
      </trkpt>
      <trkpt lat="50.54067" lon="1.61811">
        <ele>13</ele>
        <time>2015-03-01T13:13:37Z</time>
      </trkpt>
      <trkpt lat="50.54066" lon="1.61802">
        <ele>12</ele>
        <time>2015-03-01T13:13:44Z</time>
      </trkpt>
      <trkpt lat="50.54068" lon="1.61791">
        <ele>12</ele>
        <time>2015-03-01T13:13:49Z</time>
      </trkpt>
      <trkpt lat="50.54062" lon="1.61776">
        <ele>12</ele>
        <time>2015-03-01T13:13:54Z</time>
      </trkpt>
      <trkpt lat="50.54058" lon="1.61772">
        <ele>12</ele>
        <time>2015-03-01T13:14:00Z</time>
      </trkpt>
      <trkpt lat="50.54053" lon="1.61756">
        <ele>12</ele>
        <time>2015-03-01T13:14:10Z</time>
      </trkpt>
      <trkpt lat="50.54055" lon="1.61742">
        <ele>10</ele>
        <time>2015-03-01T13:14:16Z</time>
      </trkpt>
      <trkpt lat="50.54057" lon="1.61735">
        <ele>10</ele>
        <time>2015-03-01T13:14:22Z</time>
      </trkpt>
      <trkpt lat="50.54061" lon="1.61735">
        <ele>10</ele>
        <time>2015-03-01T13:14:31Z</time>
      </trkpt>
      <trkpt lat="50.54056" lon="1.61725">
        <ele>10</ele>
        <time>2015-03-01T13:14:41Z</time>
      </trkpt>
      <trkpt lat="50.54054" lon="1.61725">
        <ele>10</ele>
        <time>2015-03-01T13:14:49Z</time>
      </trkpt>
      <trkpt lat="50.54052" lon="1.61725">
        <ele>10</ele>
        <time>2015-03-01T13:14:55Z</time>
      </trkpt>
      <trkpt lat="50.54052" lon="1.61718">
        <ele>9</ele>
        <time>2015-03-01T13:15:00Z</time>
      </trkpt>
      <trkpt lat="50.54052" lon="1.61706">
        <ele>9</ele>
        <time>2015-03-01T13:15:06Z</time>
      </trkpt>
      <trkpt lat="50.54052" lon="1.61697">
        <ele>9</ele>
        <time>2015-03-01T13:15:11Z</time>
      </trkpt>
      <trkpt lat="50.54051" lon="1.61686">
        <ele>9</ele>
        <time>2015-03-01T13:15:16Z</time>
      </trkpt>
      <trkpt lat="50.5405" lon="1.61675">
        <ele>9</ele>
        <time>2015-03-01T13:15:21Z</time>
      </trkpt>
      <trkpt lat="50.54051" lon="1.61664">
        <ele>8</ele>
        <time>2015-03-01T13:15:26Z</time>
      </trkpt>
      <trkpt lat="50.54052" lon="1.61655">
        <ele>8</ele>
        <time>2015-03-01T13:15:32Z</time>
      </trkpt>
      <trkpt lat="50.54053" lon="1.61645">
        <ele>8</ele>
        <time>2015-03-01T13:15:38Z</time>
      </trkpt>
      <trkpt lat="50.54052" lon="1.61634">
        <ele>8</ele>
        <time>2015-03-01T13:15:43Z</time>
      </trkpt>
      <trkpt lat="50.54052" lon="1.61624">
        <ele>8</ele>
        <time>2015-03-01T13:15:48Z</time>
      </trkpt>
      <trkpt lat="50.54052" lon="1.61612">
        <ele>8</ele>
        <time>2015-03-01T13:15:53Z</time>
      </trkpt>
      <trkpt lat="50.5405" lon="1.61602">
        <ele>8</ele>
        <time>2015-03-01T13:15:58Z</time>
      </trkpt>
      <trkpt lat="50.5405" lon="1.61592">
        <ele>8</ele>
        <time>2015-03-01T13:16:03Z</time>
      </trkpt>
      <trkpt lat="50.54048" lon="1.61583">
        <ele>8</ele>
        <time>2015-03-01T13:16:08Z</time>
      </trkpt>
      <trkpt lat="50.54049" lon="1.61573">
        <ele>8</ele>
        <time>2015-03-01T13:16:13Z</time>
      </trkpt>
      <trkpt lat="50.5405" lon="1.61563">
        <ele>8</ele>
        <time>2015-03-01T13:16:18Z</time>
      </trkpt>
      <trkpt lat="50.54053" lon="1.61555">
        <ele>8</ele>
        <time>2015-03-01T13:16:23Z</time>
      </trkpt>
      <trkpt lat="50.54053" lon="1.61544">
        <ele>8</ele>
        <time>2015-03-01T13:16:28Z</time>
      </trkpt>
      <trkpt lat="50.54053" lon="1.61533">
        <ele>8</ele>
        <time>2015-03-01T13:16:33Z</time>
      </trkpt>
      <trkpt lat="50.54052" lon="1.61523">
        <ele>8</ele>
        <time>2015-03-01T13:16:38Z</time>
      </trkpt>
      <trkpt lat="50.54051" lon="1.61512">
        <ele>8</ele>
        <time>2015-03-01T13:16:43Z</time>
      </trkpt>
      <trkpt lat="50.54051" lon="1.61501">
        <ele>8</ele>
        <time>2015-03-01T13:16:48Z</time>
      </trkpt>
      <trkpt lat="50.5405" lon="1.61489">
        <ele>8</ele>
        <time>2015-03-01T13:16:53Z</time>
      </trkpt>
      <trkpt lat="50.54051" lon="1.61481">
        <ele>8</ele>
        <time>2015-03-01T13:16:58Z</time>
      </trkpt>
      <trkpt lat="50.54049" lon="1.6147">
        <ele>8</ele>
        <time>2015-03-01T13:17:03Z</time>
      </trkpt>
      <trkpt lat="50.5405" lon="1.61461">
        <ele>8</ele>
        <time>2015-03-01T13:17:09Z</time>
      </trkpt>
      <trkpt lat="50.54049" lon="1.61449">
        <ele>8</ele>
        <time>2015-03-01T13:17:14Z</time>
      </trkpt>
      <trkpt lat="50.5405" lon="1.61439">
        <ele>8</ele>
        <time>2015-03-01T13:17:19Z</time>
      </trkpt>
      <trkpt lat="50.54052" lon="1.61429">
        <ele>8</ele>
        <time>2015-03-01T13:17:24Z</time>
      </trkpt>
      <trkpt lat="50.54053" lon="1.61421">
        <ele>8</ele>
        <time>2015-03-01T13:17:29Z</time>
      </trkpt>
      <trkpt lat="50.54049" lon="1.61409">
        <ele>7</ele>
        <time>2015-03-01T13:17:34Z</time>
      </trkpt>
      <trkpt lat="50.54047" lon="1.61401">
        <ele>7</ele>
        <time>2015-03-01T13:17:39Z</time>
      </trkpt>
      <trkpt lat="50.54049" lon="1.61391">
        <ele>7</ele>
        <time>2015-03-01T13:17:44Z</time>
      </trkpt>
      <trkpt lat="50.54049" lon="1.61379">
        <ele>7</ele>
        <time>2015-03-01T13:17:49Z</time>
      </trkpt>
      <trkpt lat="50.5405" lon="1.61369">
        <ele>7</ele>
        <time>2015-03-01T13:17:54Z</time>
      </trkpt>
      <trkpt lat="50.54049" lon="1.61358">
        <ele>7</ele>
        <time>2015-03-01T13:17:59Z</time>
      </trkpt>
      <trkpt lat="50.5405" lon="1.61352">
        <ele>7</ele>
        <time>2015-03-01T13:18:04Z</time>
      </trkpt>
      <trkpt lat="50.54051" lon="1.61346">
        <ele>7</ele>
        <time>2015-03-01T13:18:09Z</time>
      </trkpt>
      <trkpt lat="50.54052" lon="1.61337">
        <ele>7</ele>
        <time>2015-03-01T13:18:14Z</time>
      </trkpt>
      <trkpt lat="50.54052" lon="1.61328">
        <ele>7</ele>
        <time>2015-03-01T13:18:19Z</time>
      </trkpt>
      <trkpt lat="50.54052" lon="1.61318">
        <ele>7</ele>
        <time>2015-03-01T13:18:24Z</time>
      </trkpt>
      <trkpt lat="50.54053" lon="1.61308">
        <ele>7</ele>
        <time>2015-03-01T13:18:29Z</time>
      </trkpt>
      <trkpt lat="50.54053" lon="1.61298">
        <ele>7</ele>
        <time>2015-03-01T13:18:34Z</time>
      </trkpt>
      <trkpt lat="50.54052" lon="1.61288">
        <ele>8</ele>
        <time>2015-03-01T13:18:39Z</time>
      </trkpt>
      <trkpt lat="50.54052" lon="1.61281">
        <ele>8</ele>
        <time>2015-03-01T13:18:44Z</time>
      </trkpt>
      <trkpt lat="50.54051" lon="1.6127">
        <ele>8</ele>
        <time>2015-03-01T13:18:49Z</time>
      </trkpt>
      <trkpt lat="50.54051" lon="1.61259">
        <ele>8</ele>
        <time>2015-03-01T13:18:55Z</time>
      </trkpt>
      <trkpt lat="50.54051" lon="1.6125">
        <ele>8</ele>
        <time>2015-03-01T13:19:00Z</time>
      </trkpt>
      <trkpt lat="50.54052" lon="1.61241">
        <ele>7</ele>
        <time>2015-03-01T13:19:05Z</time>
      </trkpt>
      <trkpt lat="50.54051" lon="1.61231">
        <ele>7</ele>
        <time>2015-03-01T13:19:10Z</time>
      </trkpt>
      <trkpt lat="50.54052" lon="1.61221">
        <ele>7</ele>
        <time>2015-03-01T13:19:16Z</time>
      </trkpt>
      <trkpt lat="50.54052" lon="1.61212">
        <ele>7</ele>
        <time>2015-03-01T13:19:21Z</time>
      </trkpt>
      <trkpt lat="50.54052" lon="1.61203">
        <ele>7</ele>
        <time>2015-03-01T13:19:26Z</time>
      </trkpt>
      <trkpt lat="50.54051" lon="1.61193">
        <ele>7</ele>
        <time>2015-03-01T13:19:31Z</time>
      </trkpt>
      <trkpt lat="50.5405" lon="1.61181">
        <ele>7</ele>
        <time>2015-03-01T13:19:37Z</time>
      </trkpt>
      <trkpt lat="50.54052" lon="1.61171">
        <ele>7</ele>
        <time>2015-03-01T13:19:42Z</time>
      </trkpt>
      <trkpt lat="50.54053" lon="1.61159">
        <ele>7</ele>
        <time>2015-03-01T13:19:47Z</time>
      </trkpt>
      <trkpt lat="50.54052" lon="1.61148">
        <ele>7</ele>
        <time>2015-03-01T13:19:52Z</time>
      </trkpt>
      <trkpt lat="50.54052" lon="1.6114">
        <ele>7</ele>
        <time>2015-03-01T13:19:57Z</time>
      </trkpt>
      <trkpt lat="50.54052" lon="1.61129">
        <ele>7</ele>
        <time>2015-03-01T13:20:03Z</time>
      </trkpt>
      <trkpt lat="50.54051" lon="1.6112">
        <ele>7</ele>
        <time>2015-03-01T13:20:08Z</time>
      </trkpt>
      <trkpt lat="50.54048" lon="1.61109">
        <ele>7</ele>
        <time>2015-03-01T13:20:14Z</time>
      </trkpt>
      <trkpt lat="50.54046" lon="1.611">
        <ele>7</ele>
        <time>2015-03-01T13:20:19Z</time>
      </trkpt>
      <trkpt lat="50.54044" lon="1.61092">
        <ele>7</ele>
        <time>2015-03-01T13:20:24Z</time>
      </trkpt>
      <trkpt lat="50.54041" lon="1.61083">
        <ele>6</ele>
        <time>2015-03-01T13:20:29Z</time>
      </trkpt>
      <trkpt lat="50.54037" lon="1.61076">
        <ele>6</ele>
        <time>2015-03-01T13:20:34Z</time>
      </trkpt>
      <trkpt lat="50.54032" lon="1.61069">
        <ele>6</ele>
        <time>2015-03-01T13:20:39Z</time>
      </trkpt>
      <trkpt lat="50.54027" lon="1.61061">
        <ele>6</ele>
        <time>2015-03-01T13:20:44Z</time>
      </trkpt>
      <trkpt lat="50.5402" lon="1.61051">
        <ele>6</ele>
        <time>2015-03-01T13:20:49Z</time>
      </trkpt>
      <trkpt lat="50.54017" lon="1.61047">
        <ele>6</ele>
        <time>2015-03-01T13:20:54Z</time>
      </trkpt>
      <trkpt lat="50.54014" lon="1.61039">
        <ele>6</ele>
        <time>2015-03-01T13:21:00Z</time>
      </trkpt>
      <trkpt lat="50.54015" lon="1.61033">
        <ele>6</ele>
        <time>2015-03-01T13:21:05Z</time>
      </trkpt>
      <trkpt lat="50.5402" lon="1.61037">
        <ele>6</ele>
        <time>2015-03-01T13:21:11Z</time>
      </trkpt>
      <trkpt lat="50.54021" lon="1.6104">
        <ele>6</ele>
        <time>2015-03-01T13:21:16Z</time>
      </trkpt>
      <trkpt lat="50.54022" lon="1.61035">
        <ele>6</ele>
        <time>2015-03-01T13:21:23Z</time>
      </trkpt>
      <trkpt lat="50.54021" lon="1.61033">
        <ele>6</ele>
        <time>2015-03-01T13:21:33Z</time>
      </trkpt>
      <trkpt lat="50.54021" lon="1.61032">
        <ele>6</ele>
        <time>2015-03-01T13:21:39Z</time>
      </trkpt>
      <trkpt lat="50.54017" lon="1.61033">
        <ele>6</ele>
        <time>2015-03-01T13:21:46Z</time>
      </trkpt>
      <trkpt lat="50.54021" lon="1.61035">
        <ele>6</ele>
        <time>2015-03-01T13:21:55Z</time>
      </trkpt>
      <trkpt lat="50.54018" lon="1.61032">
        <ele>6</ele>
        <time>2015-03-01T13:22:01Z</time>
      </trkpt>
      <trkpt lat="50.54024" lon="1.61033">
        <ele>6</ele>
        <time>2015-03-01T13:22:07Z</time>
      </trkpt>
      <trkpt lat="50.54021" lon="1.61036">
        <ele>6</ele>
        <time>2015-03-01T13:22:12Z</time>
      </trkpt>
      <trkpt lat="50.54025" lon="1.61035">
        <ele>6</ele>
        <time>2015-03-01T13:22:17Z</time>
      </trkpt>
      <trkpt lat="50.54018" lon="1.6103">
        <ele>6</ele>
        <time>2015-03-01T13:23:07Z</time>
      </trkpt>
      <trkpt lat="50.54017" lon="1.61035">
        <ele>6</ele>
        <time>2015-03-01T13:23:13Z</time>
      </trkpt>
      <trkpt lat="50.54014" lon="1.6104">
        <ele>6</ele>
        <time>2015-03-01T13:23:18Z</time>
      </trkpt>
      <trkpt lat="50.5402" lon="1.6104">
        <ele>6</ele>
        <time>2015-03-01T13:23:24Z</time>
      </trkpt>
      <trkpt lat="50.54019" lon="1.61031">
        <ele>6</ele>
        <time>2015-03-01T13:25:04Z</time>
      </trkpt>
      <trkpt lat="50.54018" lon="1.61033">
        <ele>6</ele>
        <time>2015-03-01T13:25:10Z</time>
      </trkpt>
      <trkpt lat="50.54016" lon="1.61035">
        <ele>6</ele>
        <time>2015-03-01T13:25:22Z</time>
      </trkpt>
      <trkpt lat="50.54014" lon="1.61033">
        <ele>6</ele>
        <time>2015-03-01T13:25:28Z</time>
      </trkpt>
      <trkpt lat="50.5401" lon="1.61031">
        <ele>6</ele>
        <time>2015-03-01T13:25:34Z</time>
      </trkpt>
      <trkpt lat="50.54005" lon="1.61026">
        <ele>6</ele>
        <time>2015-03-01T13:25:39Z</time>
      </trkpt>
      <trkpt lat="50.54002" lon="1.61019">
        <ele>6</ele>
        <time>2015-03-01T13:25:45Z</time>
      </trkpt>
      <trkpt lat="50.54" lon="1.61014">
        <ele>6</ele>
        <time>2015-03-01T13:25:51Z</time>
      </trkpt>
      <trkpt lat="50.53998" lon="1.61006">
        <ele>6</ele>
        <time>2015-03-01T13:25:56Z</time>
      </trkpt>
      <trkpt lat="50.53995" lon="1.60997">
        <ele>6</ele>
        <time>2015-03-01T13:26:02Z</time>
      </trkpt>
      <trkpt lat="50.53992" lon="1.6099">
        <ele>6</ele>
        <time>2015-03-01T13:26:07Z</time>
      </trkpt>
      <trkpt lat="50.53987" lon="1.60985">
        <ele>6</ele>
        <time>2015-03-01T13:26:13Z</time>
      </trkpt>
      <trkpt lat="50.53983" lon="1.60981">
        <ele>6</ele>
        <time>2015-03-01T13:26:18Z</time>
      </trkpt>
      <trkpt lat="50.53977" lon="1.6098">
        <ele>6</ele>
        <time>2015-03-01T13:26:24Z</time>
      </trkpt>
      <trkpt lat="50.53974" lon="1.60983">
        <ele>6</ele>
        <time>2015-03-01T13:26:31Z</time>
      </trkpt>
      <trkpt lat="50.53968" lon="1.60987">
        <ele>6</ele>
        <time>2015-03-01T13:26:37Z</time>
      </trkpt>
      <trkpt lat="50.53963" lon="1.6099">
        <ele>6</ele>
        <time>2015-03-01T13:26:42Z</time>
      </trkpt>
      <trkpt lat="50.53956" lon="1.60996">
        <ele>6</ele>
        <time>2015-03-01T13:26:49Z</time>
      </trkpt>
      <trkpt lat="50.53952" lon="1.61002">
        <ele>6</ele>
        <time>2015-03-01T13:26:54Z</time>
      </trkpt>
      <trkpt lat="50.53945" lon="1.61005">
        <ele>6</ele>
        <time>2015-03-01T13:27:00Z</time>
      </trkpt>
      <trkpt lat="50.5394" lon="1.61009">
        <ele>6</ele>
        <time>2015-03-01T13:27:05Z</time>
      </trkpt>
      <trkpt lat="50.53934" lon="1.61012">
        <ele>6</ele>
        <time>2015-03-01T13:27:10Z</time>
      </trkpt>
      <trkpt lat="50.53928" lon="1.61018">
        <ele>6</ele>
        <time>2015-03-01T13:27:16Z</time>
      </trkpt>
      <trkpt lat="50.53921" lon="1.61024">
        <ele>6</ele>
        <time>2015-03-01T13:27:22Z</time>
      </trkpt>
      <trkpt lat="50.53917" lon="1.61032">
        <ele>6</ele>
        <time>2015-03-01T13:27:29Z</time>
      </trkpt>
      <trkpt lat="50.53918" lon="1.61033">
        <ele>6</ele>
        <time>2015-03-01T13:27:34Z</time>
      </trkpt>
      <trkpt lat="50.53916" lon="1.61034">
        <ele>5</ele>
        <time>2015-03-01T13:27:39Z</time>
      </trkpt>
      <trkpt lat="50.53909" lon="1.61037">
        <ele>5</ele>
        <time>2015-03-01T13:27:45Z</time>
      </trkpt>
      <trkpt lat="50.53904" lon="1.61038">
        <ele>5</ele>
        <time>2015-03-01T13:27:50Z</time>
      </trkpt>
      <trkpt lat="50.53898" lon="1.61041">
        <ele>5</ele>
        <time>2015-03-01T13:27:55Z</time>
      </trkpt>
      <trkpt lat="50.53891" lon="1.61043">
        <ele>5</ele>
        <time>2015-03-01T13:28:01Z</time>
      </trkpt>
      <trkpt lat="50.53886" lon="1.61046">
        <ele>5</ele>
        <time>2015-03-01T13:28:07Z</time>
      </trkpt>
      <trkpt lat="50.5388" lon="1.6105">
        <ele>5</ele>
        <time>2015-03-01T13:28:12Z</time>
      </trkpt>
      <trkpt lat="50.53875" lon="1.61056">
        <ele>5</ele>
        <time>2015-03-01T13:28:18Z</time>
      </trkpt>
      <trkpt lat="50.53871" lon="1.61065">
        <ele>5</ele>
        <time>2015-03-01T13:28:23Z</time>
      </trkpt>
      <trkpt lat="50.53867" lon="1.61067">
        <ele>5</ele>
        <time>2015-03-01T13:28:28Z</time>
      </trkpt>
      <trkpt lat="50.5386" lon="1.61072">
        <ele>5</ele>
        <time>2015-03-01T13:28:34Z</time>
      </trkpt>
      <trkpt lat="50.53854" lon="1.61073">
        <ele>4</ele>
        <time>2015-03-01T13:28:40Z</time>
      </trkpt>
      <trkpt lat="50.5385" lon="1.61075">
        <ele>4</ele>
        <time>2015-03-01T13:28:47Z</time>
      </trkpt>
      <trkpt lat="50.53841" lon="1.61063">
        <ele>4</ele>
        <time>2015-03-01T13:28:53Z</time>
      </trkpt>
      <trkpt lat="50.53836" lon="1.61056">
        <ele>4</ele>
        <time>2015-03-01T13:28:59Z</time>
      </trkpt>
      <trkpt lat="50.5383" lon="1.6105">
        <ele>4</ele>
        <time>2015-03-01T13:29:05Z</time>
      </trkpt>
      <trkpt lat="50.53825" lon="1.61044">
        <ele>4</ele>
        <time>2015-03-01T13:29:11Z</time>
      </trkpt>
      <trkpt lat="50.5382" lon="1.61038">
        <ele>4</ele>
        <time>2015-03-01T13:29:17Z</time>
      </trkpt>
      <trkpt lat="50.53816" lon="1.6103">
        <ele>4</ele>
        <time>2015-03-01T13:29:23Z</time>
      </trkpt>
      <trkpt lat="50.53811" lon="1.61022">
        <ele>4</ele>
        <time>2015-03-01T13:29:29Z</time>
      </trkpt>
      <trkpt lat="50.53806" lon="1.61024">
        <ele>4</ele>
        <time>2015-03-01T13:29:34Z</time>
      </trkpt>
      <trkpt lat="50.538" lon="1.61022">
        <ele>4</ele>
        <time>2015-03-01T13:29:39Z</time>
      </trkpt>
      <trkpt lat="50.53792" lon="1.61018">
        <ele>4</ele>
        <time>2015-03-01T13:29:46Z</time>
      </trkpt>
      <trkpt lat="50.53788" lon="1.61016">
        <ele>3</ele>
        <time>2015-03-01T13:29:51Z</time>
      </trkpt>
      <trkpt lat="50.53785" lon="1.61012">
        <ele>3</ele>
        <time>2015-03-01T13:29:56Z</time>
      </trkpt>
      <trkpt lat="50.53791" lon="1.61021">
        <ele>3</ele>
        <time>2015-03-01T13:30:02Z</time>
      </trkpt>
      <trkpt lat="50.53798" lon="1.61027">
        <ele>4</ele>
        <time>2015-03-01T13:30:08Z</time>
      </trkpt>
      <trkpt lat="50.53805" lon="1.61029">
        <ele>4</ele>
        <time>2015-03-01T13:30:14Z</time>
      </trkpt>
      <trkpt lat="50.5381" lon="1.61026">
        <ele>4</ele>
        <time>2015-03-01T13:30:19Z</time>
      </trkpt>
      <trkpt lat="50.53815" lon="1.61026">
        <ele>4</ele>
        <time>2015-03-01T13:30:24Z</time>
      </trkpt>
      <trkpt lat="50.5382" lon="1.61035">
        <ele>4</ele>
        <time>2015-03-01T13:30:30Z</time>
      </trkpt>
      <trkpt lat="50.53822" lon="1.61043">
        <ele>4</ele>
        <time>2015-03-01T13:30:35Z</time>
      </trkpt>
      <trkpt lat="50.53827" lon="1.61048">
        <ele>4</ele>
        <time>2015-03-01T13:30:41Z</time>
      </trkpt>
      <trkpt lat="50.53831" lon="1.61052">
        <ele>4</ele>
        <time>2015-03-01T13:30:47Z</time>
      </trkpt>
      <trkpt lat="50.53835" lon="1.61056">
        <ele>4</ele>
        <time>2015-03-01T13:30:52Z</time>
      </trkpt>
      <trkpt lat="50.5384" lon="1.61064">
        <ele>4</ele>
        <time>2015-03-01T13:30:58Z</time>
      </trkpt>
      <trkpt lat="50.53842" lon="1.61072">
        <ele>4</ele>
        <time>2015-03-01T13:31:03Z</time>
      </trkpt>
      <trkpt lat="50.53843" lon="1.61081">
        <ele>4</ele>
        <time>2015-03-01T13:31:09Z</time>
      </trkpt>
      <trkpt lat="50.53846" lon="1.61089">
        <ele>4</ele>
        <time>2015-03-01T13:31:15Z</time>
      </trkpt>
      <trkpt lat="50.53846" lon="1.61095">
        <ele>4</ele>
        <time>2015-03-01T13:31:21Z</time>
      </trkpt>
      <trkpt lat="50.53845" lon="1.61103">
        <ele>4</ele>
        <time>2015-03-01T13:31:27Z</time>
      </trkpt>
      <trkpt lat="50.53843" lon="1.61111">
        <ele>4</ele>
        <time>2015-03-01T13:31:33Z</time>
      </trkpt>
      <trkpt lat="50.53846" lon="1.61118">
        <ele>4</ele>
        <time>2015-03-01T13:31:39Z</time>
      </trkpt>
      <trkpt lat="50.53849" lon="1.61124">
        <ele>4</ele>
        <time>2015-03-01T13:31:45Z</time>
      </trkpt>
      <trkpt lat="50.53851" lon="1.61131">
        <ele>4</ele>
        <time>2015-03-01T13:31:50Z</time>
      </trkpt>
      <trkpt lat="50.53853" lon="1.61139">
        <ele>4</ele>
        <time>2015-03-01T13:31:55Z</time>
      </trkpt>
      <trkpt lat="50.53855" lon="1.61148">
        <ele>4</ele>
        <time>2015-03-01T13:32:01Z</time>
      </trkpt>
      <trkpt lat="50.53858" lon="1.61156">
        <ele>4</ele>
        <time>2015-03-01T13:32:07Z</time>
      </trkpt>
      <trkpt lat="50.53861" lon="1.61163">
        <ele>4</ele>
        <time>2015-03-01T13:32:12Z</time>
      </trkpt>
      <trkpt lat="50.53865" lon="1.61167">
        <ele>4</ele>
        <time>2015-03-01T13:32:17Z</time>
      </trkpt>
      <trkpt lat="50.5387" lon="1.6117">
        <ele>4</ele>
        <time>2015-03-01T13:32:22Z</time>
      </trkpt>
      <trkpt lat="50.53876" lon="1.61174">
        <ele>4</ele>
        <time>2015-03-01T13:32:27Z</time>
      </trkpt>
      <trkpt lat="50.5388" lon="1.6118">
        <ele>4</ele>
        <time>2015-03-01T13:32:32Z</time>
      </trkpt>
      <trkpt lat="50.53885" lon="1.61187">
        <ele>4</ele>
        <time>2015-03-01T13:32:37Z</time>
      </trkpt>
      <trkpt lat="50.53889" lon="1.61196">
        <ele>4</ele>
        <time>2015-03-01T13:32:43Z</time>
      </trkpt>
      <trkpt lat="50.5389" lon="1.61206">
        <ele>4</ele>
        <time>2015-03-01T13:32:48Z</time>
      </trkpt>
      <trkpt lat="50.53891" lon="1.61215">
        <ele>5</ele>
        <time>2015-03-01T13:32:53Z</time>
      </trkpt>
      <trkpt lat="50.5389" lon="1.61225">
        <ele>5</ele>
        <time>2015-03-01T13:32:58Z</time>
      </trkpt>
      <trkpt lat="50.53889" lon="1.61233">
        <ele>5</ele>
        <time>2015-03-01T13:33:03Z</time>
      </trkpt>
      <trkpt lat="50.53888" lon="1.6124">
        <ele>5</ele>
        <time>2015-03-01T13:33:08Z</time>
      </trkpt>
      <trkpt lat="50.53887" lon="1.61249">
        <ele>5</ele>
        <time>2015-03-01T13:33:13Z</time>
      </trkpt>
      <trkpt lat="50.53886" lon="1.61258">
        <ele>5</ele>
        <time>2015-03-01T13:33:18Z</time>
      </trkpt>
      <trkpt lat="50.53883" lon="1.61267">
        <ele>6</ele>
        <time>2015-03-01T13:33:23Z</time>
      </trkpt>
      <trkpt lat="50.53876" lon="1.61276">
        <ele>6</ele>
        <time>2015-03-01T13:33:29Z</time>
      </trkpt>
      <trkpt lat="50.53873" lon="1.61284">
        <ele>6</ele>
        <time>2015-03-01T13:33:34Z</time>
      </trkpt>
      <trkpt lat="50.53868" lon="1.61291">
        <ele>6</ele>
        <time>2015-03-01T13:33:40Z</time>
      </trkpt>
      <trkpt lat="50.53862" lon="1.61294">
        <ele>6</ele>
        <time>2015-03-01T13:33:45Z</time>
      </trkpt>
      <trkpt lat="50.53858" lon="1.61298">
        <ele>6</ele>
        <time>2015-03-01T13:33:51Z</time>
      </trkpt>
      <trkpt lat="50.53855" lon="1.61302">
        <ele>6</ele>
        <time>2015-03-01T13:33:57Z</time>
      </trkpt>
      <trkpt lat="50.53851" lon="1.61308">
        <ele>6</ele>
        <time>2015-03-01T13:34:03Z</time>
      </trkpt>
      <trkpt lat="50.53846" lon="1.6131">
        <ele>6</ele>
        <time>2015-03-01T13:34:08Z</time>
      </trkpt>
      <trkpt lat="50.53841" lon="1.61313">
        <ele>6</ele>
        <time>2015-03-01T13:34:14Z</time>
      </trkpt>
      <trkpt lat="50.53838" lon="1.61312">
        <ele>6</ele>
        <time>2015-03-01T13:34:21Z</time>
      </trkpt>
      <trkpt lat="50.53834" lon="1.61316">
        <ele>6</ele>
        <time>2015-03-01T13:34:27Z</time>
      </trkpt>
      <trkpt lat="50.53828" lon="1.61323">
        <ele>5</ele>
        <time>2015-03-01T13:34:33Z</time>
      </trkpt>
      <trkpt lat="50.53824" lon="1.61328">
        <ele>5</ele>
        <time>2015-03-01T13:34:38Z</time>
      </trkpt>
      <trkpt lat="50.5382" lon="1.61331">
        <ele>5</ele>
        <time>2015-03-01T13:34:43Z</time>
      </trkpt>
      <trkpt lat="50.53814" lon="1.61331">
        <ele>5</ele>
        <time>2015-03-01T13:34:49Z</time>
      </trkpt>
      <trkpt lat="50.53805" lon="1.61333">
        <ele>5</ele>
        <time>2015-03-01T13:34:55Z</time>
      </trkpt>
      <trkpt lat="50.538" lon="1.61337">
        <ele>6</ele>
        <time>2015-03-01T13:35:01Z</time>
      </trkpt>
      <trkpt lat="50.53796" lon="1.61342">
        <ele>6</ele>
        <time>2015-03-01T13:35:07Z</time>
      </trkpt>
      <trkpt lat="50.53791" lon="1.61346">
        <ele>6</ele>
        <time>2015-03-01T13:35:13Z</time>
      </trkpt>
      <trkpt lat="50.53786" lon="1.61352">
        <ele>5</ele>
        <time>2015-03-01T13:35:19Z</time>
      </trkpt>
      <trkpt lat="50.53781" lon="1.61356">
        <ele>5</ele>
        <time>2015-03-01T13:35:25Z</time>
      </trkpt>
      <trkpt lat="50.53775" lon="1.61359">
        <ele>5</ele>
        <time>2015-03-01T13:35:31Z</time>
      </trkpt>
      <trkpt lat="50.53769" lon="1.61362">
        <ele>5</ele>
        <time>2015-03-01T13:35:36Z</time>
      </trkpt>
      <trkpt lat="50.53764" lon="1.61365">
        <ele>5</ele>
        <time>2015-03-01T13:35:42Z</time>
      </trkpt>
      <trkpt lat="50.53758" lon="1.61369">
        <ele>5</ele>
        <time>2015-03-01T13:35:48Z</time>
      </trkpt>
      <trkpt lat="50.53752" lon="1.61371">
        <ele>5</ele>
        <time>2015-03-01T13:35:53Z</time>
      </trkpt>
      <trkpt lat="50.53748" lon="1.61372">
        <ele>5</ele>
        <time>2015-03-01T13:35:58Z</time>
      </trkpt>
      <trkpt lat="50.53742" lon="1.61375">
        <ele>5</ele>
        <time>2015-03-01T13:36:03Z</time>
      </trkpt>
      <trkpt lat="50.53737" lon="1.61378">
        <ele>5</ele>
        <time>2015-03-01T13:36:09Z</time>
      </trkpt>
      <trkpt lat="50.53731" lon="1.61379">
        <ele>5</ele>
        <time>2015-03-01T13:36:15Z</time>
      </trkpt>
      <trkpt lat="50.53723" lon="1.61382">
        <ele>5</ele>
        <time>2015-03-01T13:36:22Z</time>
      </trkpt>
      <trkpt lat="50.53717" lon="1.61383">
        <ele>5</ele>
        <time>2015-03-01T13:36:28Z</time>
      </trkpt>
      <trkpt lat="50.53712" lon="1.61389">
        <ele>5</ele>
        <time>2015-03-01T13:36:34Z</time>
      </trkpt>
      <trkpt lat="50.53707" lon="1.61393">
        <ele>5</ele>
        <time>2015-03-01T13:36:40Z</time>
      </trkpt>
      <trkpt lat="50.53701" lon="1.61398">
        <ele>5</ele>
        <time>2015-03-01T13:36:46Z</time>
      </trkpt>
      <trkpt lat="50.53696" lon="1.61402">
        <ele>5</ele>
        <time>2015-03-01T13:36:51Z</time>
      </trkpt>
      <trkpt lat="50.53691" lon="1.61404">
        <ele>5</ele>
        <time>2015-03-01T13:36:56Z</time>
      </trkpt>
      <trkpt lat="50.53685" lon="1.61408">
        <ele>5</ele>
        <time>2015-03-01T13:37:02Z</time>
      </trkpt>
      <trkpt lat="50.53678" lon="1.61411">
        <ele>5</ele>
        <time>2015-03-01T13:37:08Z</time>
      </trkpt>
      <trkpt lat="50.53673" lon="1.61414">
        <ele>5</ele>
        <time>2015-03-01T13:37:14Z</time>
      </trkpt>
      <trkpt lat="50.53666" lon="1.61417">
        <ele>5</ele>
        <time>2015-03-01T13:37:20Z</time>
      </trkpt>
      <trkpt lat="50.53661" lon="1.61422">
        <ele>5</ele>
        <time>2015-03-01T13:37:26Z</time>
      </trkpt>
      <trkpt lat="50.53656" lon="1.61425">
        <ele>5</ele>
        <time>2015-03-01T13:37:32Z</time>
      </trkpt>
      <trkpt lat="50.53652" lon="1.61431">
        <ele>6</ele>
        <time>2015-03-01T13:37:38Z</time>
      </trkpt>
      <trkpt lat="50.53649" lon="1.61438">
        <ele>6</ele>
        <time>2015-03-01T13:37:44Z</time>
      </trkpt>
      <trkpt lat="50.53645" lon="1.61443">
        <ele>6</ele>
        <time>2015-03-01T13:37:50Z</time>
      </trkpt>
      <trkpt lat="50.53641" lon="1.61446">
        <ele>6</ele>
        <time>2015-03-01T13:37:56Z</time>
      </trkpt>
      <trkpt lat="50.5364" lon="1.61444">
        <ele>6</ele>
        <time>2015-03-01T13:38:01Z</time>
      </trkpt>
      <trkpt lat="50.53641" lon="1.6144">
        <ele>6</ele>
        <time>2015-03-01T13:38:06Z</time>
      </trkpt>
      <trkpt lat="50.53637" lon="1.61436">
        <ele>6</ele>
        <time>2015-03-01T13:38:12Z</time>
      </trkpt>
      <trkpt lat="50.53632" lon="1.61436">
        <ele>6</ele>
        <time>2015-03-01T13:38:17Z</time>
      </trkpt>
      <trkpt lat="50.53627" lon="1.61438">
        <ele>6</ele>
        <time>2015-03-01T13:38:23Z</time>
      </trkpt>
      <trkpt lat="50.53622" lon="1.61439">
        <ele>6</ele>
        <time>2015-03-01T13:38:28Z</time>
      </trkpt>
      <trkpt lat="50.53618" lon="1.61436">
        <ele>6</ele>
        <time>2015-03-01T13:38:38Z</time>
      </trkpt>
      <trkpt lat="50.53614" lon="1.61437">
        <ele>6</ele>
        <time>2015-03-01T13:38:45Z</time>
      </trkpt>
      <trkpt lat="50.53606" lon="1.61442">
        <ele>6</ele>
        <time>2015-03-01T13:38:51Z</time>
      </trkpt>
      <trkpt lat="50.536" lon="1.61445">
        <ele>6</ele>
        <time>2015-03-01T13:38:57Z</time>
      </trkpt>
      <trkpt lat="50.53595" lon="1.61448">
        <ele>6</ele>
        <time>2015-03-01T13:39:03Z</time>
      </trkpt>
      <trkpt lat="50.53589" lon="1.6145">
        <ele>6</ele>
        <time>2015-03-01T13:39:09Z</time>
      </trkpt>
      <trkpt lat="50.53584" lon="1.61451">
        <ele>6</ele>
        <time>2015-03-01T13:39:14Z</time>
      </trkpt>
      <trkpt lat="50.53577" lon="1.61454">
        <ele>5</ele>
        <time>2015-03-01T13:39:20Z</time>
      </trkpt>
      <trkpt lat="50.53571" lon="1.61455">
        <ele>5</ele>
        <time>2015-03-01T13:39:26Z</time>
      </trkpt>
      <trkpt lat="50.53565" lon="1.61455">
        <ele>5</ele>
        <time>2015-03-01T13:39:32Z</time>
      </trkpt>
      <trkpt lat="50.5356" lon="1.61458">
        <ele>5</ele>
        <time>2015-03-01T13:39:38Z</time>
      </trkpt>
      <trkpt lat="50.53555" lon="1.61461">
        <ele>5</ele>
        <time>2015-03-01T13:39:43Z</time>
      </trkpt>
      <trkpt lat="50.53549" lon="1.61462">
        <ele>5</ele>
        <time>2015-03-01T13:39:48Z</time>
      </trkpt>
      <trkpt lat="50.53547" lon="1.61464">
        <ele>5</ele>
        <time>2015-03-01T13:39:54Z</time>
      </trkpt>
      <trkpt lat="50.53542" lon="1.61467">
        <ele>5</ele>
        <time>2015-03-01T13:39:59Z</time>
      </trkpt>
      <trkpt lat="50.53537" lon="1.61469">
        <ele>5</ele>
        <time>2015-03-01T13:40:04Z</time>
      </trkpt>
      <trkpt lat="50.53531" lon="1.61471">
        <ele>5</ele>
        <time>2015-03-01T13:40:10Z</time>
      </trkpt>
      <trkpt lat="50.53525" lon="1.61479">
        <ele>5</ele>
        <time>2015-03-01T13:40:18Z</time>
      </trkpt>
      <trkpt lat="50.53513" lon="1.61488">
        <ele>5</ele>
        <time>2015-03-01T13:40:27Z</time>
      </trkpt>
      <trkpt lat="50.53508" lon="1.61491">
        <ele>5</ele>
        <time>2015-03-01T13:40:32Z</time>
      </trkpt>
      <trkpt lat="50.53502" lon="1.61494">
        <ele>5</ele>
        <time>2015-03-01T13:40:37Z</time>
      </trkpt>
      <trkpt lat="50.53498" lon="1.61497">
        <ele>5</ele>
        <time>2015-03-01T13:40:42Z</time>
      </trkpt>
      <trkpt lat="50.53492" lon="1.61501">
        <ele>5</ele>
        <time>2015-03-01T13:40:47Z</time>
      </trkpt>
      <trkpt lat="50.53488" lon="1.61508">
        <ele>4</ele>
        <time>2015-03-01T13:40:53Z</time>
      </trkpt>
      <trkpt lat="50.53482" lon="1.61516">
        <ele>4</ele>
        <time>2015-03-01T13:40:59Z</time>
      </trkpt>
      <trkpt lat="50.53477" lon="1.61525">
        <ele>4</ele>
        <time>2015-03-01T13:41:05Z</time>
      </trkpt>
      <trkpt lat="50.53474" lon="1.61533">
        <ele>4</ele>
        <time>2015-03-01T13:41:10Z</time>
      </trkpt>
      <trkpt lat="50.53472" lon="1.61542">
        <ele>4</ele>
        <time>2015-03-01T13:41:15Z</time>
      </trkpt>
      <trkpt lat="50.53468" lon="1.61552">
        <ele>4</ele>
        <time>2015-03-01T13:41:21Z</time>
      </trkpt>
      <trkpt lat="50.53466" lon="1.6156">
        <ele>4</ele>
        <time>2015-03-01T13:41:26Z</time>
      </trkpt>
      <trkpt lat="50.53465" lon="1.61569">
        <ele>4</ele>
        <time>2015-03-01T13:41:31Z</time>
      </trkpt>
      <trkpt lat="50.53463" lon="1.6158">
        <ele>4</ele>
        <time>2015-03-01T13:41:37Z</time>
      </trkpt>
      <trkpt lat="50.53461" lon="1.61589">
        <ele>4</ele>
        <time>2015-03-01T13:41:42Z</time>
      </trkpt>
      <trkpt lat="50.53462" lon="1.61598">
        <ele>4</ele>
        <time>2015-03-01T13:41:47Z</time>
      </trkpt>
      <trkpt lat="50.53463" lon="1.61607">
        <ele>4</ele>
        <time>2015-03-01T13:41:52Z</time>
      </trkpt>
      <trkpt lat="50.53466" lon="1.61614">
        <ele>4</ele>
        <time>2015-03-01T13:41:57Z</time>
      </trkpt>
      <trkpt lat="50.53471" lon="1.61624">
        <ele>4</ele>
        <time>2015-03-01T13:42:03Z</time>
      </trkpt>
      <trkpt lat="50.53474" lon="1.61631">
        <ele>4</ele>
        <time>2015-03-01T13:42:08Z</time>
      </trkpt>
      <trkpt lat="50.53479" lon="1.6164">
        <ele>5</ele>
        <time>2015-03-01T13:42:14Z</time>
      </trkpt>
      <trkpt lat="50.53484" lon="1.61649">
        <ele>5</ele>
        <time>2015-03-01T13:42:20Z</time>
      </trkpt>
      <trkpt lat="50.53488" lon="1.61657">
        <ele>5</ele>
        <time>2015-03-01T13:42:25Z</time>
      </trkpt>
      <trkpt lat="50.53492" lon="1.61665">
        <ele>5</ele>
        <time>2015-03-01T13:42:33Z</time>
      </trkpt>
      <trkpt lat="50.53496" lon="1.6167">
        <ele>6</ele>
        <time>2015-03-01T13:42:40Z</time>
      </trkpt>
      <trkpt lat="50.53497" lon="1.61678">
        <ele>5</ele>
        <time>2015-03-01T13:42:46Z</time>
      </trkpt>
      <trkpt lat="50.53502" lon="1.61689">
        <ele>6</ele>
        <time>2015-03-01T13:42:51Z</time>
      </trkpt>
      <trkpt lat="50.53507" lon="1.61697">
        <ele>6</ele>
        <time>2015-03-01T13:42:57Z</time>
      </trkpt>
      <trkpt lat="50.53509" lon="1.61705">
        <ele>6</ele>
        <time>2015-03-01T13:43:03Z</time>
      </trkpt>
      <trkpt lat="50.53511" lon="1.61717">
        <ele>6</ele>
        <time>2015-03-01T13:43:08Z</time>
      </trkpt>
      <trkpt lat="50.53513" lon="1.61725">
        <ele>6</ele>
        <time>2015-03-01T13:43:14Z</time>
      </trkpt>
      <trkpt lat="50.53516" lon="1.61736">
        <ele>6</ele>
        <time>2015-03-01T13:43:19Z</time>
      </trkpt>
      <trkpt lat="50.5352" lon="1.61745">
        <ele>6</ele>
        <time>2015-03-01T13:43:25Z</time>
      </trkpt>
      <trkpt lat="50.53523" lon="1.61755">
        <ele>6</ele>
        <time>2015-03-01T13:43:31Z</time>
      </trkpt>
      <trkpt lat="50.53525" lon="1.61766">
        <ele>6</ele>
        <time>2015-03-01T13:43:40Z</time>
      </trkpt>
      <trkpt lat="50.53526" lon="1.6177">
        <ele>6</ele>
        <time>2015-03-01T13:43:45Z</time>
      </trkpt>
      <trkpt lat="50.53524" lon="1.61781">
        <ele>6</ele>
        <time>2015-03-01T13:43:52Z</time>
      </trkpt>
      <trkpt lat="50.53514" lon="1.61798">
        <ele>6</ele>
        <time>2015-03-01T13:44:01Z</time>
      </trkpt>
      <trkpt lat="50.53517" lon="1.61804">
        <ele>6</ele>
        <time>2015-03-01T13:44:10Z</time>
      </trkpt>
      <trkpt lat="50.53513" lon="1.6181">
        <ele>6</ele>
        <time>2015-03-01T13:44:16Z</time>
      </trkpt>
      <trkpt lat="50.53507" lon="1.61816">
        <ele>6</ele>
        <time>2015-03-01T13:44:22Z</time>
      </trkpt>
      <trkpt lat="50.53496" lon="1.61811">
        <ele>5</ele>
        <time>2015-03-01T13:44:31Z</time>
      </trkpt>
      <trkpt lat="50.5349" lon="1.6181">
        <ele>5</ele>
        <time>2015-03-01T13:44:36Z</time>
      </trkpt>
      <trkpt lat="50.53484" lon="1.61811">
        <ele>5</ele>
        <time>2015-03-01T13:44:41Z</time>
      </trkpt>
      <trkpt lat="50.53477" lon="1.61812">
        <ele>5</ele>
        <time>2015-03-01T13:44:47Z</time>
      </trkpt>
      <trkpt lat="50.5347" lon="1.61818">
        <ele>5</ele>
        <time>2015-03-01T13:44:53Z</time>
      </trkpt>
      <trkpt lat="50.53464" lon="1.61826">
        <ele>5</ele>
        <time>2015-03-01T13:45:02Z</time>
      </trkpt>
      <trkpt lat="50.5346" lon="1.61831">
        <ele>5</ele>
        <time>2015-03-01T13:45:07Z</time>
      </trkpt>
      <trkpt lat="50.53454" lon="1.61841">
        <ele>5</ele>
        <time>2015-03-01T13:45:12Z</time>
      </trkpt>
      <trkpt lat="50.53451" lon="1.61844">
        <ele>5</ele>
        <time>2015-03-01T13:45:17Z</time>
      </trkpt>
      <trkpt lat="50.5345" lon="1.6185">
        <ele>5</ele>
        <time>2015-03-01T13:45:25Z</time>
      </trkpt>
      <trkpt lat="50.53447" lon="1.61858">
        <ele>5</ele>
        <time>2015-03-01T13:45:30Z</time>
      </trkpt>
      <trkpt lat="50.53445" lon="1.61865">
        <ele>5</ele>
        <time>2015-03-01T13:45:35Z</time>
      </trkpt>
      <trkpt lat="50.53441" lon="1.61874">
        <ele>5</ele>
        <time>2015-03-01T13:45:41Z</time>
      </trkpt>
      <trkpt lat="50.53437" lon="1.61882">
        <ele>5</ele>
        <time>2015-03-01T13:45:46Z</time>
      </trkpt>
      <trkpt lat="50.53434" lon="1.61888">
        <ele>5</ele>
        <time>2015-03-01T13:45:52Z</time>
      </trkpt>
      <trkpt lat="50.53429" lon="1.61901">
        <ele>5</ele>
        <time>2015-03-01T13:45:58Z</time>
      </trkpt>
      <trkpt lat="50.53425" lon="1.61909">
        <ele>5</ele>
        <time>2015-03-01T13:46:03Z</time>
      </trkpt>
      <trkpt lat="50.53423" lon="1.61915">
        <ele>5</ele>
        <time>2015-03-01T13:46:08Z</time>
      </trkpt>
      <trkpt lat="50.53418" lon="1.61922">
        <ele>5</ele>
        <time>2015-03-01T13:46:15Z</time>
      </trkpt>
      <trkpt lat="50.53413" lon="1.6193">
        <ele>5</ele>
        <time>2015-03-01T13:46:20Z</time>
      </trkpt>
      <trkpt lat="50.53408" lon="1.61936">
        <ele>5</ele>
        <time>2015-03-01T13:46:26Z</time>
      </trkpt>
      <trkpt lat="50.53403" lon="1.61945">
        <ele>5</ele>
        <time>2015-03-01T13:46:32Z</time>
      </trkpt>
      <trkpt lat="50.53399" lon="1.61953">
        <ele>5</ele>
        <time>2015-03-01T13:46:37Z</time>
      </trkpt>
      <trkpt lat="50.53392" lon="1.61962">
        <ele>5</ele>
        <time>2015-03-01T13:46:42Z</time>
      </trkpt>
      <trkpt lat="50.53387" lon="1.61968">
        <ele>5</ele>
        <time>2015-03-01T13:46:47Z</time>
      </trkpt>
      <trkpt lat="50.53384" lon="1.61973">
        <ele>5</ele>
        <time>2015-03-01T13:46:53Z</time>
      </trkpt>
      <trkpt lat="50.5338" lon="1.61979">
        <ele>5</ele>
        <time>2015-03-01T13:46:58Z</time>
      </trkpt>
      <trkpt lat="50.53376" lon="1.61984">
        <ele>5</ele>
        <time>2015-03-01T13:47:04Z</time>
      </trkpt>
      <trkpt lat="50.53372" lon="1.61991">
        <ele>5</ele>
        <time>2015-03-01T13:47:09Z</time>
      </trkpt>
      <trkpt lat="50.53362" lon="1.62007">
        <ele>7</ele>
        <time>2015-03-01T13:47:21Z</time>
      </trkpt>
      <trkpt lat="50.53357" lon="1.62014">
        <ele>7</ele>
        <time>2015-03-01T13:47:26Z</time>
      </trkpt>
      <trkpt lat="50.53352" lon="1.62016">
        <ele>7</ele>
        <time>2015-03-01T13:47:31Z</time>
      </trkpt>
      <trkpt lat="50.53345" lon="1.62021">
        <ele>7</ele>
        <time>2015-03-01T13:47:37Z</time>
      </trkpt>
      <trkpt lat="50.53339" lon="1.62025">
        <ele>7</ele>
        <time>2015-03-01T13:47:43Z</time>
      </trkpt>
      <trkpt lat="50.53335" lon="1.62032">
        <ele>7</ele>
        <time>2015-03-01T13:47:49Z</time>
      </trkpt>
      <trkpt lat="50.5333" lon="1.62038">
        <ele>6</ele>
        <time>2015-03-01T13:47:55Z</time>
      </trkpt>
      <trkpt lat="50.53324" lon="1.62042">
        <ele>6</ele>
        <time>2015-03-01T13:48:00Z</time>
      </trkpt>
      <trkpt lat="50.53318" lon="1.62047">
        <ele>6</ele>
        <time>2015-03-01T13:48:05Z</time>
      </trkpt>
      <trkpt lat="50.53313" lon="1.6205">
        <ele>7</ele>
        <time>2015-03-01T13:48:10Z</time>
      </trkpt>
      <trkpt lat="50.53307" lon="1.62052">
        <ele>7</ele>
        <time>2015-03-01T13:48:15Z</time>
      </trkpt>
      <trkpt lat="50.53302" lon="1.62054">
        <ele>7</ele>
        <time>2015-03-01T13:48:20Z</time>
      </trkpt>
      <trkpt lat="50.53295" lon="1.62056">
        <ele>7</ele>
        <time>2015-03-01T13:48:26Z</time>
      </trkpt>
      <trkpt lat="50.53289" lon="1.62058">
        <ele>7</ele>
        <time>2015-03-01T13:48:32Z</time>
      </trkpt>
      <trkpt lat="50.53283" lon="1.62062">
        <ele>7</ele>
        <time>2015-03-01T13:48:37Z</time>
      </trkpt>
      <trkpt lat="50.53277" lon="1.62065">
        <ele>7</ele>
        <time>2015-03-01T13:48:42Z</time>
      </trkpt>
      <trkpt lat="50.5327" lon="1.62068">
        <ele>7</ele>
        <time>2015-03-01T13:48:47Z</time>
      </trkpt>
      <trkpt lat="50.53264" lon="1.62072">
        <ele>7</ele>
        <time>2015-03-01T13:48:53Z</time>
      </trkpt>
      <trkpt lat="50.53257" lon="1.62076">
        <ele>7</ele>
        <time>2015-03-01T13:48:59Z</time>
      </trkpt>
      <trkpt lat="50.53252" lon="1.62079">
        <ele>8</ele>
        <time>2015-03-01T13:49:04Z</time>
      </trkpt>
      <trkpt lat="50.53246" lon="1.62082">
        <ele>7</ele>
        <time>2015-03-01T13:49:10Z</time>
      </trkpt>
      <trkpt lat="50.53241" lon="1.62085">
        <ele>8</ele>
        <time>2015-03-01T13:49:15Z</time>
      </trkpt>
      <trkpt lat="50.53236" lon="1.62089">
        <ele>8</ele>
        <time>2015-03-01T13:49:20Z</time>
      </trkpt>
      <trkpt lat="50.5323" lon="1.62094">
        <ele>8</ele>
        <time>2015-03-01T13:49:26Z</time>
      </trkpt>
      <trkpt lat="50.53224" lon="1.62097">
        <ele>8</ele>
        <time>2015-03-01T13:49:32Z</time>
      </trkpt>
      <trkpt lat="50.53219" lon="1.621">
        <ele>8</ele>
        <time>2015-03-01T13:49:37Z</time>
      </trkpt>
      <trkpt lat="50.53213" lon="1.62103">
        <ele>8</ele>
        <time>2015-03-01T13:49:43Z</time>
      </trkpt>
      <trkpt lat="50.53206" lon="1.62106">
        <ele>8</ele>
        <time>2015-03-01T13:49:49Z</time>
      </trkpt>
      <trkpt lat="50.532" lon="1.6211">
        <ele>8</ele>
        <time>2015-03-01T13:49:54Z</time>
      </trkpt>
      <trkpt lat="50.53193" lon="1.62115">
        <ele>8</ele>
        <time>2015-03-01T13:49:59Z</time>
      </trkpt>
      <trkpt lat="50.53188" lon="1.62117">
        <ele>8</ele>
        <time>2015-03-01T13:50:04Z</time>
      </trkpt>
      <trkpt lat="50.53183" lon="1.6212">
        <ele>8</ele>
        <time>2015-03-01T13:50:09Z</time>
      </trkpt>
      <trkpt lat="50.53179" lon="1.62123">
        <ele>8</ele>
        <time>2015-03-01T13:50:14Z</time>
      </trkpt>
      <trkpt lat="50.53174" lon="1.62123">
        <ele>8</ele>
        <time>2015-03-01T13:50:19Z</time>
      </trkpt>
      <trkpt lat="50.53169" lon="1.62126">
        <ele>8</ele>
        <time>2015-03-01T13:50:24Z</time>
      </trkpt>
      <trkpt lat="50.53162" lon="1.6213">
        <ele>7</ele>
        <time>2015-03-01T13:50:30Z</time>
      </trkpt>
      <trkpt lat="50.53156" lon="1.62133">
        <ele>7</ele>
        <time>2015-03-01T13:50:35Z</time>
      </trkpt>
      <trkpt lat="50.53151" lon="1.62135">
        <ele>7</ele>
        <time>2015-03-01T13:50:40Z</time>
      </trkpt>
      <trkpt lat="50.53145" lon="1.62136">
        <ele>7</ele>
        <time>2015-03-01T13:50:45Z</time>
      </trkpt>
      <trkpt lat="50.53139" lon="1.62138">
        <ele>7</ele>
        <time>2015-03-01T13:50:50Z</time>
      </trkpt>
      <trkpt lat="50.53133" lon="1.62141">
        <ele>7</ele>
        <time>2015-03-01T13:50:55Z</time>
      </trkpt>
      <trkpt lat="50.53127" lon="1.62142">
        <ele>7</ele>
        <time>2015-03-01T13:51:00Z</time>
      </trkpt>
      <trkpt lat="50.53121" lon="1.62144">
        <ele>7</ele>
        <time>2015-03-01T13:51:05Z</time>
      </trkpt>
      <trkpt lat="50.53115" lon="1.62145">
        <ele>7</ele>
        <time>2015-03-01T13:51:10Z</time>
      </trkpt>
      <trkpt lat="50.53109" lon="1.62147">
        <ele>7</ele>
        <time>2015-03-01T13:51:15Z</time>
      </trkpt>
      <trkpt lat="50.53104" lon="1.62148">
        <ele>7</ele>
        <time>2015-03-01T13:51:20Z</time>
      </trkpt>
      <trkpt lat="50.53097" lon="1.62148">
        <ele>7</ele>
        <time>2015-03-01T13:51:25Z</time>
      </trkpt>
      <trkpt lat="50.53091" lon="1.62148">
        <ele>7</ele>
        <time>2015-03-01T13:51:31Z</time>
      </trkpt>
      <trkpt lat="50.53084" lon="1.62151">
        <ele>7</ele>
        <time>2015-03-01T13:51:37Z</time>
      </trkpt>
      <trkpt lat="50.53078" lon="1.62154">
        <ele>6</ele>
        <time>2015-03-01T13:51:42Z</time>
      </trkpt>
      <trkpt lat="50.53072" lon="1.62157">
        <ele>6</ele>
        <time>2015-03-01T13:51:48Z</time>
      </trkpt>
      <trkpt lat="50.53067" lon="1.62161">
        <ele>6</ele>
        <time>2015-03-01T13:51:54Z</time>
      </trkpt>
      <trkpt lat="50.53059" lon="1.62163">
        <ele>6</ele>
        <time>2015-03-01T13:52:00Z</time>
      </trkpt>
      <trkpt lat="50.53053" lon="1.62162">
        <ele>6</ele>
        <time>2015-03-01T13:52:05Z</time>
      </trkpt>
      <trkpt lat="50.53047" lon="1.62162">
        <ele>6</ele>
        <time>2015-03-01T13:52:10Z</time>
      </trkpt>
      <trkpt lat="50.53041" lon="1.62162">
        <ele>6</ele>
        <time>2015-03-01T13:52:15Z</time>
      </trkpt>
      <trkpt lat="50.53035" lon="1.62164">
        <ele>5</ele>
        <time>2015-03-01T13:52:21Z</time>
      </trkpt>
      <trkpt lat="50.53029" lon="1.62168">
        <ele>6</ele>
        <time>2015-03-01T13:52:27Z</time>
      </trkpt>
      <trkpt lat="50.53023" lon="1.62168">
        <ele>6</ele>
        <time>2015-03-01T13:52:32Z</time>
      </trkpt>
      <trkpt lat="50.53017" lon="1.62169">
        <ele>6</ele>
        <time>2015-03-01T13:52:37Z</time>
      </trkpt>
      <trkpt lat="50.53011" lon="1.6217">
        <ele>6</ele>
        <time>2015-03-01T13:52:42Z</time>
      </trkpt>
      <trkpt lat="50.53004" lon="1.62171">
        <ele>5</ele>
        <time>2015-03-01T13:52:48Z</time>
      </trkpt>
      <trkpt lat="50.52999" lon="1.62174">
        <ele>5</ele>
        <time>2015-03-01T13:52:53Z</time>
      </trkpt>
      <trkpt lat="50.52993" lon="1.62175">
        <ele>5</ele>
        <time>2015-03-01T13:52:58Z</time>
      </trkpt>
      <trkpt lat="50.52987" lon="1.62178">
        <ele>5</ele>
        <time>2015-03-01T13:53:04Z</time>
      </trkpt>
      <trkpt lat="50.52977" lon="1.62182">
        <ele>6</ele>
        <time>2015-03-01T13:53:10Z</time>
      </trkpt>
      <trkpt lat="50.5297" lon="1.62184">
        <ele>6</ele>
        <time>2015-03-01T13:53:16Z</time>
      </trkpt>
      <trkpt lat="50.52964" lon="1.62186">
        <ele>6</ele>
        <time>2015-03-01T13:53:21Z</time>
      </trkpt>
      <trkpt lat="50.52958" lon="1.62189">
        <ele>6</ele>
        <time>2015-03-01T13:53:27Z</time>
      </trkpt>
      <trkpt lat="50.52953" lon="1.62191">
        <ele>6</ele>
        <time>2015-03-01T13:53:32Z</time>
      </trkpt>
      <trkpt lat="50.52947" lon="1.62194">
        <ele>6</ele>
        <time>2015-03-01T13:53:37Z</time>
      </trkpt>
      <trkpt lat="50.5294" lon="1.62195">
        <ele>6</ele>
        <time>2015-03-01T13:53:43Z</time>
      </trkpt>
      <trkpt lat="50.52934" lon="1.62196">
        <ele>6</ele>
        <time>2015-03-01T13:53:48Z</time>
      </trkpt>
      <trkpt lat="50.52929" lon="1.62199">
        <ele>6</ele>
        <time>2015-03-01T13:53:53Z</time>
      </trkpt>
      <trkpt lat="50.52923" lon="1.62202">
        <ele>6</ele>
        <time>2015-03-01T13:53:58Z</time>
      </trkpt>
      <trkpt lat="50.52917" lon="1.62205">
        <ele>6</ele>
        <time>2015-03-01T13:54:03Z</time>
      </trkpt>
      <trkpt lat="50.52911" lon="1.62208">
        <ele>5</ele>
        <time>2015-03-01T13:54:08Z</time>
      </trkpt>
      <trkpt lat="50.52906" lon="1.62212">
        <ele>5</ele>
        <time>2015-03-01T13:54:13Z</time>
      </trkpt>
      <trkpt lat="50.529" lon="1.62215">
        <ele>5</ele>
        <time>2015-03-01T13:54:18Z</time>
      </trkpt>
      <trkpt lat="50.52894" lon="1.6222">
        <ele>5</ele>
        <time>2015-03-01T13:54:24Z</time>
      </trkpt>
      <trkpt lat="50.52888" lon="1.62226">
        <ele>5</ele>
        <time>2015-03-01T13:54:30Z</time>
      </trkpt>
      <trkpt lat="50.52882" lon="1.62233">
        <ele>5</ele>
        <time>2015-03-01T13:54:35Z</time>
      </trkpt>
      <trkpt lat="50.52877" lon="1.62239">
        <ele>5</ele>
        <time>2015-03-01T13:54:41Z</time>
      </trkpt>
      <trkpt lat="50.52871" lon="1.62243">
        <ele>5</ele>
        <time>2015-03-01T13:54:46Z</time>
      </trkpt>
      <trkpt lat="50.52866" lon="1.62247">
        <ele>6</ele>
        <time>2015-03-01T13:54:51Z</time>
      </trkpt>
      <trkpt lat="50.52859" lon="1.6225">
        <ele>6</ele>
        <time>2015-03-01T13:54:57Z</time>
      </trkpt>
      <trkpt lat="50.52853" lon="1.62251">
        <ele>7</ele>
        <time>2015-03-01T13:55:02Z</time>
      </trkpt>
      <trkpt lat="50.52847" lon="1.62254">
        <ele>7</ele>
        <time>2015-03-01T13:55:07Z</time>
      </trkpt>
      <trkpt lat="50.52842" lon="1.62258">
        <ele>7</ele>
        <time>2015-03-01T13:55:12Z</time>
      </trkpt>
      <trkpt lat="50.52835" lon="1.62261">
        <ele>7</ele>
        <time>2015-03-01T13:55:18Z</time>
      </trkpt>
      <trkpt lat="50.52829" lon="1.62264">
        <ele>6</ele>
        <time>2015-03-01T13:55:23Z</time>
      </trkpt>
      <trkpt lat="50.52824" lon="1.62271">
        <ele>6</ele>
        <time>2015-03-01T13:55:28Z</time>
      </trkpt>
      <trkpt lat="50.52819" lon="1.62276">
        <ele>6</ele>
        <time>2015-03-01T13:55:33Z</time>
      </trkpt>
      <trkpt lat="50.52812" lon="1.6228">
        <ele>6</ele>
        <time>2015-03-01T13:55:39Z</time>
      </trkpt>
      <trkpt lat="50.52807" lon="1.62282">
        <ele>6</ele>
        <time>2015-03-01T13:55:44Z</time>
      </trkpt>
      <trkpt lat="50.52802" lon="1.62284">
        <ele>6</ele>
        <time>2015-03-01T13:55:49Z</time>
      </trkpt>
      <trkpt lat="50.52796" lon="1.62287">
        <ele>6</ele>
        <time>2015-03-01T13:55:54Z</time>
      </trkpt>
      <trkpt lat="50.5279" lon="1.62289">
        <ele>6</ele>
        <time>2015-03-01T13:55:59Z</time>
      </trkpt>
      <trkpt lat="50.52784" lon="1.62293">
        <ele>6</ele>
        <time>2015-03-01T13:56:04Z</time>
      </trkpt>
      <trkpt lat="50.52779" lon="1.62297">
        <ele>6</ele>
        <time>2015-03-01T13:56:09Z</time>
      </trkpt>
      <trkpt lat="50.52772" lon="1.623">
        <ele>5</ele>
        <time>2015-03-01T13:56:14Z</time>
      </trkpt>
      <trkpt lat="50.52766" lon="1.62302">
        <ele>5</ele>
        <time>2015-03-01T13:56:19Z</time>
      </trkpt>
      <trkpt lat="50.5276" lon="1.62307">
        <ele>5</ele>
        <time>2015-03-01T13:56:24Z</time>
      </trkpt>
      <trkpt lat="50.52755" lon="1.6231">
        <ele>5</ele>
        <time>2015-03-01T13:56:29Z</time>
      </trkpt>
      <trkpt lat="50.52748" lon="1.62315">
        <ele>4</ele>
        <time>2015-03-01T13:56:35Z</time>
      </trkpt>
      <trkpt lat="50.52743" lon="1.62318">
        <ele>4</ele>
        <time>2015-03-01T13:56:41Z</time>
      </trkpt>
      <trkpt lat="50.52738" lon="1.62321">
        <ele>4</ele>
        <time>2015-03-01T13:56:46Z</time>
      </trkpt>
      <trkpt lat="50.52733" lon="1.62326">
        <ele>4</ele>
        <time>2015-03-01T13:56:51Z</time>
      </trkpt>
      <trkpt lat="50.52727" lon="1.6233">
        <ele>4</ele>
        <time>2015-03-01T13:56:57Z</time>
      </trkpt>
      <trkpt lat="50.52722" lon="1.62335">
        <ele>6</ele>
        <time>2015-03-01T13:57:02Z</time>
      </trkpt>
      <trkpt lat="50.52717" lon="1.62341">
        <ele>6</ele>
        <time>2015-03-01T13:57:07Z</time>
      </trkpt>
      <trkpt lat="50.52711" lon="1.62346">
        <ele>6</ele>
        <time>2015-03-01T13:57:12Z</time>
      </trkpt>
      <trkpt lat="50.52705" lon="1.62355">
        <ele>6</ele>
        <time>2015-03-01T13:57:18Z</time>
      </trkpt>
      <trkpt lat="50.52699" lon="1.62357">
        <ele>6</ele>
        <time>2015-03-01T13:57:23Z</time>
      </trkpt>
      <trkpt lat="50.52694" lon="1.62361">
        <ele>6</ele>
        <time>2015-03-01T13:57:28Z</time>
      </trkpt>
      <trkpt lat="50.52687" lon="1.62366">
        <ele>6</ele>
        <time>2015-03-01T13:57:34Z</time>
      </trkpt>
      <trkpt lat="50.5268" lon="1.6237">
        <ele>6</ele>
        <time>2015-03-01T13:57:40Z</time>
      </trkpt>
      <trkpt lat="50.52675" lon="1.62375">
        <ele>6</ele>
        <time>2015-03-01T13:57:46Z</time>
      </trkpt>
      <trkpt lat="50.52671" lon="1.62382">
        <ele>6</ele>
        <time>2015-03-01T13:57:52Z</time>
      </trkpt>
      <trkpt lat="50.52665" lon="1.62386">
        <ele>6</ele>
        <time>2015-03-01T13:57:57Z</time>
      </trkpt>
      <trkpt lat="50.52659" lon="1.62389">
        <ele>6</ele>
        <time>2015-03-01T13:58:02Z</time>
      </trkpt>
      <trkpt lat="50.52652" lon="1.62394">
        <ele>6</ele>
        <time>2015-03-01T13:58:08Z</time>
      </trkpt>
      <trkpt lat="50.52647" lon="1.62399">
        <ele>6</ele>
        <time>2015-03-01T13:58:13Z</time>
      </trkpt>
      <trkpt lat="50.52641" lon="1.624">
        <ele>6</ele>
        <time>2015-03-01T13:58:18Z</time>
      </trkpt>
      <trkpt lat="50.52634" lon="1.62403">
        <ele>6</ele>
        <time>2015-03-01T13:58:23Z</time>
      </trkpt>
      <trkpt lat="50.52629" lon="1.62406">
        <ele>6</ele>
        <time>2015-03-01T13:58:28Z</time>
      </trkpt>
      <trkpt lat="50.52619" lon="1.62417">
        <ele>8</ele>
        <time>2015-03-01T13:58:40Z</time>
      </trkpt>
      <trkpt lat="50.52612" lon="1.62419">
        <ele>8</ele>
        <time>2015-03-01T13:58:45Z</time>
      </trkpt>
      <trkpt lat="50.52604" lon="1.62425">
        <ele>8</ele>
        <time>2015-03-01T13:58:50Z</time>
      </trkpt>
      <trkpt lat="50.52599" lon="1.62426">
        <ele>7</ele>
        <time>2015-03-01T13:58:55Z</time>
      </trkpt>
      <trkpt lat="50.52593" lon="1.62428">
        <ele>7</ele>
        <time>2015-03-01T13:59:00Z</time>
      </trkpt>
      <trkpt lat="50.52586" lon="1.62433">
        <ele>7</ele>
        <time>2015-03-01T13:59:06Z</time>
      </trkpt>
      <trkpt lat="50.52581" lon="1.62437">
        <ele>7</ele>
        <time>2015-03-01T13:59:11Z</time>
      </trkpt>
      <trkpt lat="50.52576" lon="1.62443">
        <ele>7</ele>
        <time>2015-03-01T13:59:17Z</time>
      </trkpt>
      <trkpt lat="50.5257" lon="1.62449">
        <ele>7</ele>
        <time>2015-03-01T13:59:23Z</time>
      </trkpt>
      <trkpt lat="50.52565" lon="1.62452">
        <ele>7</ele>
        <time>2015-03-01T13:59:28Z</time>
      </trkpt>
      <trkpt lat="50.52558" lon="1.62454">
        <ele>7</ele>
        <time>2015-03-01T13:59:33Z</time>
      </trkpt>
      <trkpt lat="50.52553" lon="1.62458">
        <ele>7</ele>
        <time>2015-03-01T13:59:38Z</time>
      </trkpt>
      <trkpt lat="50.52545" lon="1.62461">
        <ele>7</ele>
        <time>2015-03-01T13:59:44Z</time>
      </trkpt>
      <trkpt lat="50.52539" lon="1.62467">
        <ele>7</ele>
        <time>2015-03-01T13:59:50Z</time>
      </trkpt>
      <trkpt lat="50.52534" lon="1.62471">
        <ele>7</ele>
        <time>2015-03-01T13:59:55Z</time>
      </trkpt>
      <trkpt lat="50.52529" lon="1.62478">
        <ele>7</ele>
        <time>2015-03-01T14:00:00Z</time>
      </trkpt>
      <trkpt lat="50.52523" lon="1.62481">
        <ele>7</ele>
        <time>2015-03-01T14:00:05Z</time>
      </trkpt>
      <trkpt lat="50.52516" lon="1.62488">
        <ele>7</ele>
        <time>2015-03-01T14:00:11Z</time>
      </trkpt>
      <trkpt lat="50.52511" lon="1.62494">
        <ele>8</ele>
        <time>2015-03-01T14:00:17Z</time>
      </trkpt>
      <trkpt lat="50.52506" lon="1.62497">
        <ele>8</ele>
        <time>2015-03-01T14:00:22Z</time>
      </trkpt>
      <trkpt lat="50.525" lon="1.62502">
        <ele>8</ele>
        <time>2015-03-01T14:00:27Z</time>
      </trkpt>
      <trkpt lat="50.52494" lon="1.62504">
        <ele>8</ele>
        <time>2015-03-01T14:00:33Z</time>
      </trkpt>
      <trkpt lat="50.52488" lon="1.62505">
        <ele>8</ele>
        <time>2015-03-01T14:00:39Z</time>
      </trkpt>
      <trkpt lat="50.52483" lon="1.6251">
        <ele>8</ele>
        <time>2015-03-01T14:00:44Z</time>
      </trkpt>
      <trkpt lat="50.52475" lon="1.62515">
        <ele>8</ele>
        <time>2015-03-01T14:00:50Z</time>
      </trkpt>
      <trkpt lat="50.52469" lon="1.62516">
        <ele>8</ele>
        <time>2015-03-01T14:00:56Z</time>
      </trkpt>
      <trkpt lat="50.52462" lon="1.62516">
        <ele>7</ele>
        <time>2015-03-01T14:01:01Z</time>
      </trkpt>
      <trkpt lat="50.52457" lon="1.62517">
        <ele>7</ele>
        <time>2015-03-01T14:01:06Z</time>
      </trkpt>
      <trkpt lat="50.5245" lon="1.6252">
        <ele>7</ele>
        <time>2015-03-01T14:01:12Z</time>
      </trkpt>
      <trkpt lat="50.52444" lon="1.62523">
        <ele>7</ele>
        <time>2015-03-01T14:01:17Z</time>
      </trkpt>
      <trkpt lat="50.5244" lon="1.62528">
        <ele>7</ele>
        <time>2015-03-01T14:01:22Z</time>
      </trkpt>
      <trkpt lat="50.52436" lon="1.6253">
        <ele>7</ele>
        <time>2015-03-01T14:01:27Z</time>
      </trkpt>
      <trkpt lat="50.52433" lon="1.62531">
        <ele>7</ele>
        <time>2015-03-01T14:01:34Z</time>
      </trkpt>
      <trkpt lat="50.52428" lon="1.62534">
        <ele>7</ele>
        <time>2015-03-01T14:01:39Z</time>
      </trkpt>
      <trkpt lat="50.52422" lon="1.62536">
        <ele>7</ele>
        <time>2015-03-01T14:01:45Z</time>
      </trkpt>
      <trkpt lat="50.52414" lon="1.62537">
        <ele>5</ele>
        <time>2015-03-01T14:01:50Z</time>
      </trkpt>
      <trkpt lat="50.52407" lon="1.62538">
        <ele>5</ele>
        <time>2015-03-01T14:01:55Z</time>
      </trkpt>
      <trkpt lat="50.52402" lon="1.62539">
        <ele>5</ele>
        <time>2015-03-01T14:02:00Z</time>
      </trkpt>
      <trkpt lat="50.52396" lon="1.62541">
        <ele>5</ele>
        <time>2015-03-01T14:02:05Z</time>
      </trkpt>
      <trkpt lat="50.52391" lon="1.62543">
        <ele>5</ele>
        <time>2015-03-01T14:02:10Z</time>
      </trkpt>
      <trkpt lat="50.52385" lon="1.62545">
        <ele>5</ele>
        <time>2015-03-01T14:02:15Z</time>
      </trkpt>
      <trkpt lat="50.5238" lon="1.6255">
        <ele>5</ele>
        <time>2015-03-01T14:02:21Z</time>
      </trkpt>
      <trkpt lat="50.52376" lon="1.62555">
        <ele>6</ele>
        <time>2015-03-01T14:02:27Z</time>
      </trkpt>
      <trkpt lat="50.52372" lon="1.62562">
        <ele>6</ele>
        <time>2015-03-01T14:02:33Z</time>
      </trkpt>
      <trkpt lat="50.52367" lon="1.62571">
        <ele>6</ele>
        <time>2015-03-01T14:02:38Z</time>
      </trkpt>
      <trkpt lat="50.5236" lon="1.62575">
        <ele>6</ele>
        <time>2015-03-01T14:02:44Z</time>
      </trkpt>
      <trkpt lat="50.52355" lon="1.62577">
        <ele>6</ele>
        <time>2015-03-01T14:02:49Z</time>
      </trkpt>
      <trkpt lat="50.52348" lon="1.62581">
        <ele>6</ele>
        <time>2015-03-01T14:02:54Z</time>
      </trkpt>
      <trkpt lat="50.52343" lon="1.62584">
        <ele>7</ele>
        <time>2015-03-01T14:02:59Z</time>
      </trkpt>
      <trkpt lat="50.52338" lon="1.62586">
        <ele>7</ele>
        <time>2015-03-01T14:03:04Z</time>
      </trkpt>
      <trkpt lat="50.52332" lon="1.62589">
        <ele>6</ele>
        <time>2015-03-01T14:03:09Z</time>
      </trkpt>
      <trkpt lat="50.52325" lon="1.62591">
        <ele>6</ele>
        <time>2015-03-01T14:03:14Z</time>
      </trkpt>
      <trkpt lat="50.52319" lon="1.62591">
        <ele>6</ele>
        <time>2015-03-01T14:03:19Z</time>
      </trkpt>
      <trkpt lat="50.52314" lon="1.6259">
        <ele>6</ele>
        <time>2015-03-01T14:03:24Z</time>
      </trkpt>
      <trkpt lat="50.52309" lon="1.62592">
        <ele>6</ele>
        <time>2015-03-01T14:03:29Z</time>
      </trkpt>
      <trkpt lat="50.52303" lon="1.62592">
        <ele>6</ele>
        <time>2015-03-01T14:03:34Z</time>
      </trkpt>
      <trkpt lat="50.52297" lon="1.62593">
        <ele>6</ele>
        <time>2015-03-01T14:03:39Z</time>
      </trkpt>
      <trkpt lat="50.52291" lon="1.62598">
        <ele>6</ele>
        <time>2015-03-01T14:03:45Z</time>
      </trkpt>
      <trkpt lat="50.52286" lon="1.626">
        <ele>6</ele>
        <time>2015-03-01T14:03:50Z</time>
      </trkpt>
      <trkpt lat="50.52281" lon="1.62598">
        <ele>6</ele>
        <time>2015-03-01T14:03:55Z</time>
      </trkpt>
      <trkpt lat="50.52275" lon="1.62599">
        <ele>6</ele>
        <time>2015-03-01T14:04:00Z</time>
      </trkpt>
      <trkpt lat="50.5227" lon="1.62601">
        <ele>6</ele>
        <time>2015-03-01T14:04:05Z</time>
      </trkpt>
      <trkpt lat="50.52262" lon="1.6261">
        <ele>6</ele>
        <time>2015-03-01T14:04:11Z</time>
      </trkpt>
      <trkpt lat="50.52256" lon="1.62615">
        <ele>6</ele>
        <time>2015-03-01T14:04:16Z</time>
      </trkpt>
      <trkpt lat="50.52251" lon="1.6262">
        <ele>6</ele>
        <time>2015-03-01T14:04:22Z</time>
      </trkpt>
      <trkpt lat="50.52247" lon="1.62624">
        <ele>5</ele>
        <time>2015-03-01T14:04:28Z</time>
      </trkpt>
      <trkpt lat="50.52241" lon="1.62622">
        <ele>4</ele>
        <time>2015-03-01T14:04:33Z</time>
      </trkpt>
      <trkpt lat="50.52236" lon="1.62623">
        <ele>4</ele>
        <time>2015-03-01T14:04:38Z</time>
      </trkpt>
      <trkpt lat="50.52232" lon="1.62628">
        <ele>4</ele>
        <time>2015-03-01T14:04:44Z</time>
      </trkpt>
      <trkpt lat="50.52225" lon="1.62629">
        <ele>4</ele>
        <time>2015-03-01T14:04:50Z</time>
      </trkpt>
      <trkpt lat="50.52219" lon="1.62636">
        <ele>4</ele>
        <time>2015-03-01T14:04:55Z</time>
      </trkpt>
      <trkpt lat="50.52214" lon="1.62638">
        <ele>4</ele>
        <time>2015-03-01T14:05:00Z</time>
      </trkpt>
      <trkpt lat="50.52208" lon="1.62641">
        <ele>4</ele>
        <time>2015-03-01T14:05:05Z</time>
      </trkpt>
      <trkpt lat="50.52202" lon="1.62644">
        <ele>4</ele>
        <time>2015-03-01T14:05:10Z</time>
      </trkpt>
      <trkpt lat="50.52197" lon="1.62646">
        <ele>4</ele>
        <time>2015-03-01T14:05:16Z</time>
      </trkpt>
      <trkpt lat="50.52191" lon="1.62651">
        <ele>4</ele>
        <time>2015-03-01T14:05:21Z</time>
      </trkpt>
      <trkpt lat="50.52186" lon="1.62656">
        <ele>4</ele>
        <time>2015-03-01T14:05:26Z</time>
      </trkpt>
      <trkpt lat="50.52181" lon="1.62657">
        <ele>4</ele>
        <time>2015-03-01T14:05:33Z</time>
      </trkpt>
      <trkpt lat="50.52176" lon="1.62661">
        <ele>4</ele>
        <time>2015-03-01T14:05:38Z</time>
      </trkpt>
      <trkpt lat="50.52171" lon="1.62663">
        <ele>4</ele>
        <time>2015-03-01T14:05:43Z</time>
      </trkpt>
      <trkpt lat="50.52164" lon="1.62668">
        <ele>4</ele>
        <time>2015-03-01T14:05:49Z</time>
      </trkpt>
      <trkpt lat="50.52158" lon="1.62671">
        <ele>4</ele>
        <time>2015-03-01T14:05:54Z</time>
      </trkpt>
      <trkpt lat="50.52152" lon="1.62674">
        <ele>4</ele>
        <time>2015-03-01T14:05:59Z</time>
      </trkpt>
      <trkpt lat="50.52148" lon="1.62682">
        <ele>4</ele>
        <time>2015-03-01T14:06:04Z</time>
      </trkpt>
      <trkpt lat="50.52143" lon="1.62687">
        <ele>4</ele>
        <time>2015-03-01T14:06:10Z</time>
      </trkpt>
      <trkpt lat="50.52137" lon="1.62691">
        <ele>4</ele>
        <time>2015-03-01T14:06:16Z</time>
      </trkpt>
      <trkpt lat="50.52132" lon="1.62694">
        <ele>4</ele>
        <time>2015-03-01T14:06:21Z</time>
      </trkpt>
      <trkpt lat="50.52127" lon="1.62699">
        <ele>4</ele>
        <time>2015-03-01T14:06:26Z</time>
      </trkpt>
      <trkpt lat="50.52121" lon="1.62703">
        <ele>4</ele>
        <time>2015-03-01T14:06:32Z</time>
      </trkpt>
      <trkpt lat="50.52117" lon="1.62706">
        <ele>4</ele>
        <time>2015-03-01T14:06:38Z</time>
      </trkpt>
      <trkpt lat="50.52111" lon="1.62711">
        <ele>4</ele>
        <time>2015-03-01T14:06:43Z</time>
      </trkpt>
      <trkpt lat="50.52108" lon="1.62713">
        <ele>4</ele>
        <time>2015-03-01T14:06:48Z</time>
      </trkpt>
      <trkpt lat="50.52102" lon="1.62716">
        <ele>4</ele>
        <time>2015-03-01T14:06:53Z</time>
      </trkpt>
      <trkpt lat="50.52095" lon="1.62722">
        <ele>4</ele>
        <time>2015-03-01T14:06:58Z</time>
      </trkpt>
      <trkpt lat="50.52086" lon="1.6273">
        <ele>4</ele>
        <time>2015-03-01T14:07:04Z</time>
      </trkpt>
      <trkpt lat="50.52082" lon="1.62735">
        <ele>4</ele>
        <time>2015-03-01T14:07:09Z</time>
      </trkpt>
      <trkpt lat="50.52079" lon="1.62743">
        <ele>4</ele>
        <time>2015-03-01T14:07:14Z</time>
      </trkpt>
      <trkpt lat="50.52094" lon="1.62739">
        <ele>4</ele>
        <time>2015-03-01T14:07:28Z</time>
      </trkpt>
      <trkpt lat="50.52079" lon="1.62747">
        <ele>4</ele>
        <time>2015-03-01T14:07:33Z</time>
      </trkpt>
      <trkpt lat="50.52066" lon="1.62753">
        <ele>4</ele>
        <time>2015-03-01T14:07:38Z</time>
      </trkpt>
      <trkpt lat="50.52056" lon="1.62759">
        <ele>4</ele>
        <time>2015-03-01T14:07:43Z</time>
      </trkpt>
      <trkpt lat="50.5205" lon="1.62759">
        <ele>4</ele>
        <time>2015-03-01T14:07:48Z</time>
      </trkpt>
      <trkpt lat="50.52042" lon="1.62762">
        <ele>4</ele>
        <time>2015-03-01T14:07:54Z</time>
      </trkpt>
      <trkpt lat="50.52037" lon="1.62766">
        <ele>4</ele>
        <time>2015-03-01T14:07:59Z</time>
      </trkpt>
      <trkpt lat="50.52031" lon="1.62772">
        <ele>4</ele>
        <time>2015-03-01T14:08:04Z</time>
      </trkpt>
      <trkpt lat="50.52025" lon="1.62773">
        <ele>4</ele>
        <time>2015-03-01T14:08:09Z</time>
      </trkpt>
      <trkpt lat="50.5202" lon="1.62771">
        <ele>4</ele>
        <time>2015-03-01T14:08:14Z</time>
      </trkpt>
      <trkpt lat="50.52015" lon="1.62766">
        <ele>4</ele>
        <time>2015-03-01T14:08:19Z</time>
      </trkpt>
      <trkpt lat="50.52012" lon="1.62764">
        <ele>4</ele>
        <time>2015-03-01T14:08:24Z</time>
      </trkpt>
      <trkpt lat="50.52003" lon="1.62768">
        <ele>4</ele>
        <time>2015-03-01T14:08:30Z</time>
      </trkpt>
      <trkpt lat="50.51997" lon="1.62771">
        <ele>3</ele>
        <time>2015-03-01T14:08:36Z</time>
      </trkpt>
      <trkpt lat="50.51992" lon="1.62776">
        <ele>3</ele>
        <time>2015-03-01T14:08:41Z</time>
      </trkpt>
      <trkpt lat="50.51986" lon="1.62777">
        <ele>3</ele>
        <time>2015-03-01T14:08:46Z</time>
      </trkpt>
      <trkpt lat="50.5198" lon="1.62773">
        <ele>3</ele>
        <time>2015-03-01T14:08:51Z</time>
      </trkpt>
      <trkpt lat="50.51974" lon="1.62771">
        <ele>3</ele>
        <time>2015-03-01T14:08:56Z</time>
      </trkpt>
      <trkpt lat="50.51968" lon="1.62768">
        <ele>3</ele>
        <time>2015-03-01T14:09:01Z</time>
      </trkpt>
      <trkpt lat="50.51961" lon="1.62765">
        <ele>3</ele>
        <time>2015-03-01T14:09:07Z</time>
      </trkpt>
      <trkpt lat="50.51956" lon="1.62762">
        <ele>3</ele>
        <time>2015-03-01T14:09:12Z</time>
      </trkpt>
      <trkpt lat="50.5195" lon="1.62757">
        <ele>3</ele>
        <time>2015-03-01T14:09:18Z</time>
      </trkpt>
      <trkpt lat="50.51944" lon="1.62753">
        <ele>3</ele>
        <time>2015-03-01T14:09:24Z</time>
      </trkpt>
      <trkpt lat="50.51939" lon="1.62754">
        <ele>3</ele>
        <time>2015-03-01T14:09:29Z</time>
      </trkpt>
      <trkpt lat="50.51933" lon="1.62759">
        <ele>3</ele>
        <time>2015-03-01T14:09:34Z</time>
      </trkpt>
      <trkpt lat="50.51928" lon="1.62765">
        <ele>3</ele>
        <time>2015-03-01T14:09:39Z</time>
      </trkpt>
      <trkpt lat="50.51923" lon="1.62768">
        <ele>3</ele>
        <time>2015-03-01T14:09:44Z</time>
      </trkpt>
      <trkpt lat="50.51918" lon="1.62774">
        <ele>3</ele>
        <time>2015-03-01T14:09:50Z</time>
      </trkpt>
      <trkpt lat="50.51913" lon="1.6278">
        <ele>2</ele>
        <time>2015-03-01T14:09:56Z</time>
      </trkpt>
      <trkpt lat="50.51907" lon="1.62787">
        <ele>2</ele>
        <time>2015-03-01T14:10:02Z</time>
      </trkpt>
      <trkpt lat="50.51902" lon="1.62794">
        <ele>2</ele>
        <time>2015-03-01T14:10:07Z</time>
      </trkpt>
      <trkpt lat="50.51896" lon="1.62799">
        <ele>3</ele>
        <time>2015-03-01T14:10:12Z</time>
      </trkpt>
      <trkpt lat="50.51891" lon="1.62806">
        <ele>3</ele>
        <time>2015-03-01T14:10:18Z</time>
      </trkpt>
      <trkpt lat="50.51887" lon="1.62812">
        <ele>3</ele>
        <time>2015-03-01T14:10:23Z</time>
      </trkpt>
      <trkpt lat="50.51882" lon="1.62818">
        <ele>3</ele>
        <time>2015-03-01T14:10:28Z</time>
      </trkpt>
      <trkpt lat="50.51875" lon="1.62821">
        <ele>2</ele>
        <time>2015-03-01T14:10:34Z</time>
      </trkpt>
      <trkpt lat="50.51874" lon="1.62823">
        <ele>2</ele>
        <time>2015-03-01T14:10:42Z</time>
      </trkpt>
      <trkpt lat="50.51877" lon="1.62831">
        <ele>3</ele>
        <time>2015-03-01T14:10:47Z</time>
      </trkpt>
      <trkpt lat="50.51878" lon="1.62842">
        <ele>3</ele>
        <time>2015-03-01T14:10:53Z</time>
      </trkpt>
      <trkpt lat="50.51878" lon="1.6285">
        <ele>3</ele>
        <time>2015-03-01T14:10:58Z</time>
      </trkpt>
      <trkpt lat="50.51876" lon="1.62861">
        <ele>3</ele>
        <time>2015-03-01T14:11:04Z</time>
      </trkpt>
      <trkpt lat="50.51873" lon="1.6287">
        <ele>3</ele>
        <time>2015-03-01T14:11:09Z</time>
      </trkpt>
      <trkpt lat="50.51872" lon="1.62879">
        <ele>4</ele>
        <time>2015-03-01T14:11:14Z</time>
      </trkpt>
      <trkpt lat="50.51871" lon="1.62889">
        <ele>4</ele>
        <time>2015-03-01T14:11:19Z</time>
      </trkpt>
      <trkpt lat="50.5187" lon="1.629">
        <ele>4</ele>
        <time>2015-03-01T14:11:25Z</time>
      </trkpt>
      <trkpt lat="50.51868" lon="1.62909">
        <ele>4</ele>
        <time>2015-03-01T14:11:30Z</time>
      </trkpt>
      <trkpt lat="50.51867" lon="1.62919">
        <ele>4</ele>
        <time>2015-03-01T14:11:35Z</time>
      </trkpt>
      <trkpt lat="50.51867" lon="1.62928">
        <ele>5</ele>
        <time>2015-03-01T14:11:40Z</time>
      </trkpt>
      <trkpt lat="50.51867" lon="1.62936">
        <ele>5</ele>
        <time>2015-03-01T14:11:45Z</time>
      </trkpt>
      <trkpt lat="50.51869" lon="1.62945">
        <ele>5</ele>
        <time>2015-03-01T14:11:50Z</time>
      </trkpt>
      <trkpt lat="50.51869" lon="1.62954">
        <ele>5</ele>
        <time>2015-03-01T14:11:55Z</time>
      </trkpt>
      <trkpt lat="50.51871" lon="1.62964">
        <ele>5</ele>
        <time>2015-03-01T14:12:01Z</time>
      </trkpt>
      <trkpt lat="50.51872" lon="1.62973">
        <ele>5</ele>
        <time>2015-03-01T14:12:06Z</time>
      </trkpt>
      <trkpt lat="50.5187" lon="1.62978">
        <ele>5</ele>
        <time>2015-03-01T14:12:11Z</time>
      </trkpt>
      <trkpt lat="50.51866" lon="1.62983">
        <ele>5</ele>
        <time>2015-03-01T14:12:16Z</time>
      </trkpt>
      <trkpt lat="50.51861" lon="1.62986">
        <ele>5</ele>
        <time>2015-03-01T14:12:21Z</time>
      </trkpt>
      <trkpt lat="50.51859" lon="1.62991">
        <ele>5</ele>
        <time>2015-03-01T14:12:26Z</time>
      </trkpt>
      <trkpt lat="50.51854" lon="1.62998">
        <ele>5</ele>
        <time>2015-03-01T14:12:31Z</time>
      </trkpt>
      <trkpt lat="50.51852" lon="1.63004">
        <ele>6</ele>
        <time>2015-03-01T14:12:36Z</time>
      </trkpt>
      <trkpt lat="50.51846" lon="1.63013">
        <ele>6</ele>
        <time>2015-03-01T14:12:41Z</time>
      </trkpt>
      <trkpt lat="50.51841" lon="1.63018">
        <ele>6</ele>
        <time>2015-03-01T14:12:47Z</time>
      </trkpt>
      <trkpt lat="50.51835" lon="1.63026">
        <ele>6</ele>
        <time>2015-03-01T14:12:52Z</time>
      </trkpt>
      <trkpt lat="50.5183" lon="1.63032">
        <ele>5</ele>
        <time>2015-03-01T14:12:57Z</time>
      </trkpt>
      <trkpt lat="50.51825" lon="1.63038">
        <ele>5</ele>
        <time>2015-03-01T14:13:02Z</time>
      </trkpt>
      <trkpt lat="50.5182" lon="1.63044">
        <ele>5</ele>
        <time>2015-03-01T14:13:07Z</time>
      </trkpt>
      <trkpt lat="50.51813" lon="1.63051">
        <ele>5</ele>
        <time>2015-03-01T14:13:13Z</time>
      </trkpt>
      <trkpt lat="50.51808" lon="1.63058">
        <ele>5</ele>
        <time>2015-03-01T14:13:19Z</time>
      </trkpt>
      <trkpt lat="50.51804" lon="1.63062">
        <ele>5</ele>
        <time>2015-03-01T14:13:24Z</time>
      </trkpt>
      <trkpt lat="50.51799" lon="1.63068">
        <ele>5</ele>
        <time>2015-03-01T14:13:29Z</time>
      </trkpt>
      <trkpt lat="50.51794" lon="1.63077">
        <ele>5</ele>
        <time>2015-03-01T14:13:35Z</time>
      </trkpt>
      <trkpt lat="50.51788" lon="1.63083">
        <ele>5</ele>
        <time>2015-03-01T14:13:40Z</time>
      </trkpt>
      <trkpt lat="50.51782" lon="1.63093">
        <ele>5</ele>
        <time>2015-03-01T14:13:45Z</time>
      </trkpt>
      <trkpt lat="50.51777" lon="1.631">
        <ele>5</ele>
        <time>2015-03-01T14:13:51Z</time>
      </trkpt>
      <trkpt lat="50.51772" lon="1.63104">
        <ele>5</ele>
        <time>2015-03-01T14:13:57Z</time>
      </trkpt>
      <trkpt lat="50.51766" lon="1.63112">
        <ele>5</ele>
        <time>2015-03-01T14:14:02Z</time>
      </trkpt>
      <trkpt lat="50.5176" lon="1.63119">
        <ele>5</ele>
        <time>2015-03-01T14:14:08Z</time>
      </trkpt>
      <trkpt lat="50.51756" lon="1.63126">
        <ele>5</ele>
        <time>2015-03-01T14:14:14Z</time>
      </trkpt>
      <trkpt lat="50.51752" lon="1.63133">
        <ele>6</ele>
        <time>2015-03-01T14:14:19Z</time>
      </trkpt>
      <trkpt lat="50.51746" lon="1.63139">
        <ele>5</ele>
        <time>2015-03-01T14:14:24Z</time>
      </trkpt>
      <trkpt lat="50.51743" lon="1.63143">
        <ele>5</ele>
        <time>2015-03-01T14:14:29Z</time>
      </trkpt>
      <trkpt lat="50.51737" lon="1.63149">
        <ele>5</ele>
        <time>2015-03-01T14:14:34Z</time>
      </trkpt>
      <trkpt lat="50.51732" lon="1.63155">
        <ele>5</ele>
        <time>2015-03-01T14:14:40Z</time>
      </trkpt>
      <trkpt lat="50.51728" lon="1.63162">
        <ele>5</ele>
        <time>2015-03-01T14:14:46Z</time>
      </trkpt>
      <trkpt lat="50.51723" lon="1.63169">
        <ele>5</ele>
        <time>2015-03-01T14:14:52Z</time>
      </trkpt>
      <trkpt lat="50.51718" lon="1.63176">
        <ele>5</ele>
        <time>2015-03-01T14:14:57Z</time>
      </trkpt>
      <trkpt lat="50.51711" lon="1.63182">
        <ele>5</ele>
        <time>2015-03-01T14:15:02Z</time>
      </trkpt>
      <trkpt lat="50.51705" lon="1.63187">
        <ele>5</ele>
        <time>2015-03-01T14:15:07Z</time>
      </trkpt>
      <trkpt lat="50.51699" lon="1.63195">
        <ele>5</ele>
        <time>2015-03-01T14:15:12Z</time>
      </trkpt>
      <trkpt lat="50.51698" lon="1.63199">
        <ele>5</ele>
        <time>2015-03-01T14:15:17Z</time>
      </trkpt>
      <trkpt lat="50.51692" lon="1.63206">
        <ele>5</ele>
        <time>2015-03-01T14:15:22Z</time>
      </trkpt>
      <trkpt lat="50.51686" lon="1.63215">
        <ele>5</ele>
        <time>2015-03-01T14:15:28Z</time>
      </trkpt>
      <trkpt lat="50.51683" lon="1.63221">
        <ele>5</ele>
        <time>2015-03-01T14:15:34Z</time>
      </trkpt>
      <trkpt lat="50.51681" lon="1.63229">
        <ele>5</ele>
        <time>2015-03-01T14:15:40Z</time>
      </trkpt>
      <trkpt lat="50.51675" lon="1.63234">
        <ele>5</ele>
        <time>2015-03-01T14:15:45Z</time>
      </trkpt>
      <trkpt lat="50.51669" lon="1.6324">
        <ele>5</ele>
        <time>2015-03-01T14:15:50Z</time>
      </trkpt>
      <trkpt lat="50.51663" lon="1.63244">
        <ele>5</ele>
        <time>2015-03-01T14:15:55Z</time>
      </trkpt>
      <trkpt lat="50.5166" lon="1.63242">
        <ele>5</ele>
        <time>2015-03-01T14:16:01Z</time>
      </trkpt>
      <trkpt lat="50.51653" lon="1.63238">
        <ele>4</ele>
        <time>2015-03-01T14:16:06Z</time>
      </trkpt>
      <trkpt lat="50.51647" lon="1.63233">
        <ele>4</ele>
        <time>2015-03-01T14:16:11Z</time>
      </trkpt>
      <trkpt lat="50.51641" lon="1.63227">
        <ele>4</ele>
        <time>2015-03-01T14:16:16Z</time>
      </trkpt>
      <trkpt lat="50.51635" lon="1.63222">
        <ele>4</ele>
        <time>2015-03-01T14:16:21Z</time>
      </trkpt>
      <trkpt lat="50.51631" lon="1.63214">
        <ele>4</ele>
        <time>2015-03-01T14:16:27Z</time>
      </trkpt>
      <trkpt lat="50.51625" lon="1.63214">
        <ele>4</ele>
        <time>2015-03-01T14:16:32Z</time>
      </trkpt>
      <trkpt lat="50.51618" lon="1.63218">
        <ele>4</ele>
        <time>2015-03-01T14:16:37Z</time>
      </trkpt>
      <trkpt lat="50.51613" lon="1.63217">
        <ele>4</ele>
        <time>2015-03-01T14:16:42Z</time>
      </trkpt>
      <trkpt lat="50.51608" lon="1.63223">
        <ele>4</ele>
        <time>2015-03-01T14:16:47Z</time>
      </trkpt>
      <trkpt lat="50.51604" lon="1.63227">
        <ele>4</ele>
        <time>2015-03-01T14:16:52Z</time>
      </trkpt>
      <trkpt lat="50.51598" lon="1.63236">
        <ele>4</ele>
        <time>2015-03-01T14:16:58Z</time>
      </trkpt>
      <trkpt lat="50.51593" lon="1.63239">
        <ele>4</ele>
        <time>2015-03-01T14:17:03Z</time>
      </trkpt>
      <trkpt lat="50.51588" lon="1.63244">
        <ele>4</ele>
        <time>2015-03-01T14:17:08Z</time>
      </trkpt>
      <trkpt lat="50.51582" lon="1.63251">
        <ele>4</ele>
        <time>2015-03-01T14:17:13Z</time>
      </trkpt>
      <trkpt lat="50.51577" lon="1.63259">
        <ele>4</ele>
        <time>2015-03-01T14:17:19Z</time>
      </trkpt>
      <trkpt lat="50.51571" lon="1.63266">
        <ele>4</ele>
        <time>2015-03-01T14:17:25Z</time>
      </trkpt>
      <trkpt lat="50.51564" lon="1.63274">
        <ele>4</ele>
        <time>2015-03-01T14:17:30Z</time>
      </trkpt>
      <trkpt lat="50.51559" lon="1.63278">
        <ele>4</ele>
        <time>2015-03-01T14:17:36Z</time>
      </trkpt>
      <trkpt lat="50.51553" lon="1.63286">
        <ele>4</ele>
        <time>2015-03-01T14:17:42Z</time>
      </trkpt>
      <trkpt lat="50.51548" lon="1.63293">
        <ele>4</ele>
        <time>2015-03-01T14:17:47Z</time>
      </trkpt>
      <trkpt lat="50.51543" lon="1.633">
        <ele>4</ele>
        <time>2015-03-01T14:17:53Z</time>
      </trkpt>
      <trkpt lat="50.51538" lon="1.63304">
        <ele>3</ele>
        <time>2015-03-01T14:17:58Z</time>
      </trkpt>
      <trkpt lat="50.51532" lon="1.63311">
        <ele>3</ele>
        <time>2015-03-01T14:18:04Z</time>
      </trkpt>
      <trkpt lat="50.51527" lon="1.63319">
        <ele>3</ele>
        <time>2015-03-01T14:18:10Z</time>
      </trkpt>
      <trkpt lat="50.51521" lon="1.63328">
        <ele>3</ele>
        <time>2015-03-01T14:18:16Z</time>
      </trkpt>
      <trkpt lat="50.51516" lon="1.63333">
        <ele>3</ele>
        <time>2015-03-01T14:18:21Z</time>
      </trkpt>
      <trkpt lat="50.51512" lon="1.63341">
        <ele>3</ele>
        <time>2015-03-01T14:18:27Z</time>
      </trkpt>
      <trkpt lat="50.51508" lon="1.63347">
        <ele>3</ele>
        <time>2015-03-01T14:18:32Z</time>
      </trkpt>
      <trkpt lat="50.51505" lon="1.63352">
        <ele>3</ele>
        <time>2015-03-01T14:18:37Z</time>
      </trkpt>
      <trkpt lat="50.515" lon="1.63358">
        <ele>4</ele>
        <time>2015-03-01T14:18:42Z</time>
      </trkpt>
      <trkpt lat="50.51497" lon="1.63364">
        <ele>2</ele>
        <time>2015-03-01T14:18:48Z</time>
      </trkpt>
      <trkpt lat="50.51491" lon="1.63371">
        <ele>3</ele>
        <time>2015-03-01T14:18:54Z</time>
      </trkpt>
      <trkpt lat="50.51485" lon="1.63376">
        <ele>3</ele>
        <time>2015-03-01T14:19:00Z</time>
      </trkpt>
      <trkpt lat="50.51483" lon="1.6338">
        <ele>3</ele>
        <time>2015-03-01T14:19:07Z</time>
      </trkpt>
      <trkpt lat="50.51479" lon="1.63386">
        <ele>3</ele>
        <time>2015-03-01T14:19:13Z</time>
      </trkpt>
      <trkpt lat="50.51474" lon="1.63391">
        <ele>3</ele>
        <time>2015-03-01T14:19:18Z</time>
      </trkpt>
      <trkpt lat="50.51469" lon="1.63397">
        <ele>3</ele>
        <time>2015-03-01T14:19:24Z</time>
      </trkpt>
      <trkpt lat="50.51463" lon="1.63403">
        <ele>3</ele>
        <time>2015-03-01T14:19:29Z</time>
      </trkpt>
      <trkpt lat="50.51457" lon="1.63411">
        <ele>3</ele>
        <time>2015-03-01T14:19:34Z</time>
      </trkpt>
      <trkpt lat="50.51451" lon="1.63417">
        <ele>4</ele>
        <time>2015-03-01T14:19:40Z</time>
      </trkpt>
      <trkpt lat="50.51445" lon="1.63424">
        <ele>4</ele>
        <time>2015-03-01T14:19:46Z</time>
      </trkpt>
      <trkpt lat="50.51439" lon="1.63431">
        <ele>4</ele>
        <time>2015-03-01T14:19:51Z</time>
      </trkpt>
      <trkpt lat="50.51434" lon="1.63436">
        <ele>4</ele>
        <time>2015-03-01T14:19:56Z</time>
      </trkpt>
      <trkpt lat="50.51428" lon="1.63441">
        <ele>4</ele>
        <time>2015-03-01T14:20:01Z</time>
      </trkpt>
      <trkpt lat="50.51423" lon="1.63444">
        <ele>4</ele>
        <time>2015-03-01T14:20:06Z</time>
      </trkpt>
      <trkpt lat="50.51419" lon="1.63449">
        <ele>4</ele>
        <time>2015-03-01T14:20:11Z</time>
      </trkpt>
      <trkpt lat="50.51413" lon="1.63456">
        <ele>3</ele>
        <time>2015-03-01T14:20:16Z</time>
      </trkpt>
      <trkpt lat="50.51412" lon="1.63466">
        <ele>3</ele>
        <time>2015-03-01T14:20:22Z</time>
      </trkpt>
      <trkpt lat="50.51409" lon="1.63473">
        <ele>3</ele>
        <time>2015-03-01T14:20:28Z</time>
      </trkpt>
      <trkpt lat="50.51403" lon="1.63479">
        <ele>4</ele>
        <time>2015-03-01T14:20:33Z</time>
      </trkpt>
      <trkpt lat="50.51398" lon="1.63483">
        <ele>3</ele>
        <time>2015-03-01T14:20:38Z</time>
      </trkpt>
      <trkpt lat="50.51393" lon="1.63488">
        <ele>3</ele>
        <time>2015-03-01T14:20:43Z</time>
      </trkpt>
      <trkpt lat="50.51387" lon="1.63494">
        <ele>3</ele>
        <time>2015-03-01T14:20:49Z</time>
      </trkpt>
      <trkpt lat="50.51382" lon="1.63499">
        <ele>3</ele>
        <time>2015-03-01T14:20:54Z</time>
      </trkpt>
      <trkpt lat="50.51376" lon="1.63507">
        <ele>4</ele>
        <time>2015-03-01T14:21:00Z</time>
      </trkpt>
      <trkpt lat="50.51371" lon="1.63516">
        <ele>4</ele>
        <time>2015-03-01T14:21:06Z</time>
      </trkpt>
      <trkpt lat="50.51365" lon="1.63523">
        <ele>4</ele>
        <time>2015-03-01T14:21:12Z</time>
      </trkpt>
      <trkpt lat="50.5136" lon="1.6353">
        <ele>4</ele>
        <time>2015-03-01T14:21:18Z</time>
      </trkpt>
      <trkpt lat="50.51358" lon="1.63537">
        <ele>4</ele>
        <time>2015-03-01T14:21:23Z</time>
      </trkpt>
      <trkpt lat="50.51353" lon="1.63544">
        <ele>4</ele>
        <time>2015-03-01T14:21:28Z</time>
      </trkpt>
      <trkpt lat="50.51349" lon="1.63551">
        <ele>4</ele>
        <time>2015-03-01T14:21:34Z</time>
      </trkpt>
      <trkpt lat="50.51345" lon="1.63557">
        <ele>4</ele>
        <time>2015-03-01T14:21:39Z</time>
      </trkpt>
      <trkpt lat="50.51341" lon="1.63564">
        <ele>4</ele>
        <time>2015-03-01T14:21:44Z</time>
      </trkpt>
      <trkpt lat="50.51337" lon="1.63572">
        <ele>4</ele>
        <time>2015-03-01T14:21:49Z</time>
      </trkpt>
      <trkpt lat="50.51335" lon="1.6358">
        <ele>4</ele>
        <time>2015-03-01T14:21:54Z</time>
      </trkpt>
      <trkpt lat="50.51333" lon="1.63587">
        <ele>4</ele>
        <time>2015-03-01T14:21:59Z</time>
      </trkpt>
      <trkpt lat="50.51331" lon="1.63598">
        <ele>4</ele>
        <time>2015-03-01T14:22:04Z</time>
      </trkpt>
      <trkpt lat="50.51329" lon="1.63606">
        <ele>4</ele>
        <time>2015-03-01T14:22:09Z</time>
      </trkpt>
      <trkpt lat="50.51325" lon="1.63612">
        <ele>5</ele>
        <time>2015-03-01T14:22:14Z</time>
      </trkpt>
      <trkpt lat="50.51318" lon="1.63621">
        <ele>5</ele>
        <time>2015-03-01T14:22:20Z</time>
      </trkpt>
      <trkpt lat="50.51314" lon="1.63625">
        <ele>5</ele>
        <time>2015-03-01T14:22:26Z</time>
      </trkpt>
      <trkpt lat="50.51309" lon="1.63631">
        <ele>5</ele>
        <time>2015-03-01T14:22:31Z</time>
      </trkpt>
      <trkpt lat="50.51303" lon="1.63634">
        <ele>5</ele>
        <time>2015-03-01T14:22:36Z</time>
      </trkpt>
      <trkpt lat="50.51298" lon="1.63629">
        <ele>4</ele>
        <time>2015-03-01T14:22:41Z</time>
      </trkpt>
      <trkpt lat="50.51293" lon="1.63622">
        <ele>4</ele>
        <time>2015-03-01T14:22:46Z</time>
      </trkpt>
      <trkpt lat="50.5129" lon="1.63613">
        <ele>4</ele>
        <time>2015-03-01T14:22:52Z</time>
      </trkpt>
      <trkpt lat="50.51286" lon="1.63603">
        <ele>4</ele>
        <time>2015-03-01T14:22:58Z</time>
      </trkpt>
      <trkpt lat="50.51281" lon="1.63595">
        <ele>4</ele>
        <time>2015-03-01T14:23:04Z</time>
      </trkpt>
      <trkpt lat="50.51277" lon="1.63589">
        <ele>3</ele>
        <time>2015-03-01T14:23:09Z</time>
      </trkpt>
      <trkpt lat="50.51273" lon="1.63583">
        <ele>2</ele>
        <time>2015-03-01T14:23:14Z</time>
      </trkpt>
      <trkpt lat="50.51267" lon="1.63573">
        <ele>2</ele>
        <time>2015-03-01T14:23:20Z</time>
      </trkpt>
      <trkpt lat="50.51262" lon="1.63566">
        <ele>2</ele>
        <time>2015-03-01T14:23:26Z</time>
      </trkpt>
      <trkpt lat="50.51258" lon="1.63558">
        <ele>2</ele>
        <time>2015-03-01T14:23:31Z</time>
      </trkpt>
      <trkpt lat="50.51252" lon="1.63549">
        <ele>2</ele>
        <time>2015-03-01T14:23:37Z</time>
      </trkpt>
      <trkpt lat="50.51246" lon="1.63543">
        <ele>2</ele>
        <time>2015-03-01T14:23:42Z</time>
      </trkpt>
      <trkpt lat="50.5124" lon="1.63534">
        <ele>2</ele>
        <time>2015-03-01T14:23:48Z</time>
      </trkpt>
      <trkpt lat="50.51236" lon="1.63525">
        <ele>2</ele>
        <time>2015-03-01T14:23:53Z</time>
      </trkpt>
      <trkpt lat="50.51231" lon="1.63516">
        <ele>2</ele>
        <time>2015-03-01T14:23:59Z</time>
      </trkpt>
      <trkpt lat="50.51226" lon="1.63507">
        <ele>2</ele>
        <time>2015-03-01T14:24:04Z</time>
      </trkpt>
      <trkpt lat="50.51221" lon="1.635">
        <ele>2</ele>
        <time>2015-03-01T14:24:10Z</time>
      </trkpt>
      <trkpt lat="50.51217" lon="1.63494">
        <ele>2</ele>
        <time>2015-03-01T14:24:16Z</time>
      </trkpt>
      <trkpt lat="50.51212" lon="1.63487">
        <ele>2</ele>
        <time>2015-03-01T14:24:21Z</time>
      </trkpt>
      <trkpt lat="50.51206" lon="1.63479">
        <ele>2</ele>
        <time>2015-03-01T14:24:27Z</time>
      </trkpt>
      <trkpt lat="50.51201" lon="1.6347">
        <ele>2</ele>
        <time>2015-03-01T14:24:33Z</time>
      </trkpt>
      <trkpt lat="50.51196" lon="1.63462">
        <ele>2</ele>
        <time>2015-03-01T14:24:39Z</time>
      </trkpt>
      <trkpt lat="50.51192" lon="1.63453">
        <ele>2</ele>
        <time>2015-03-01T14:24:44Z</time>
      </trkpt>
      <trkpt lat="50.51189" lon="1.63445">
        <ele>2</ele>
        <time>2015-03-01T14:24:49Z</time>
      </trkpt>
      <trkpt lat="50.51184" lon="1.63437">
        <ele>2</ele>
        <time>2015-03-01T14:24:54Z</time>
      </trkpt>
      <trkpt lat="50.5118" lon="1.63429">
        <ele>2</ele>
        <time>2015-03-01T14:24:59Z</time>
      </trkpt>
      <trkpt lat="50.51177" lon="1.63423">
        <ele>2</ele>
        <time>2015-03-01T14:25:04Z</time>
      </trkpt>
      <trkpt lat="50.51176" lon="1.63415">
        <ele>2</ele>
        <time>2015-03-01T14:25:09Z</time>
      </trkpt>
      <trkpt lat="50.51183" lon="1.63408">
        <ele>2</ele>
        <time>2015-03-01T14:25:17Z</time>
      </trkpt>
      <trkpt lat="50.51189" lon="1.63401">
        <ele>2</ele>
        <time>2015-03-01T14:25:23Z</time>
      </trkpt>
      <trkpt lat="50.51195" lon="1.63391">
        <ele>2</ele>
        <time>2015-03-01T14:25:29Z</time>
      </trkpt>
      <trkpt lat="50.512" lon="1.63384">
        <ele>2</ele>
        <time>2015-03-01T14:25:35Z</time>
      </trkpt>
      <trkpt lat="50.51205" lon="1.63376">
        <ele>2</ele>
        <time>2015-03-01T14:25:41Z</time>
      </trkpt>
      <trkpt lat="50.5121" lon="1.63369">
        <ele>2</ele>
        <time>2015-03-01T14:25:47Z</time>
      </trkpt>
      <trkpt lat="50.51215" lon="1.63363">
        <ele>2</ele>
        <time>2015-03-01T14:25:53Z</time>
      </trkpt>
      <trkpt lat="50.51219" lon="1.63356">
        <ele>2</ele>
        <time>2015-03-01T14:25:59Z</time>
      </trkpt>
      <trkpt lat="50.51224" lon="1.6335">
        <ele>2</ele>
        <time>2015-03-01T14:26:05Z</time>
      </trkpt>
      <trkpt lat="50.51228" lon="1.63343">
        <ele>2</ele>
        <time>2015-03-01T14:26:11Z</time>
      </trkpt>
      <trkpt lat="50.51231" lon="1.63337">
        <ele>2</ele>
        <time>2015-03-01T14:26:17Z</time>
      </trkpt>
      <trkpt lat="50.51235" lon="1.63329">
        <ele>2</ele>
        <time>2015-03-01T14:26:23Z</time>
      </trkpt>
      <trkpt lat="50.51239" lon="1.63321">
        <ele>2</ele>
        <time>2015-03-01T14:26:28Z</time>
      </trkpt>
      <trkpt lat="50.51243" lon="1.63312">
        <ele>2</ele>
        <time>2015-03-01T14:26:34Z</time>
      </trkpt>
      <trkpt lat="50.51246" lon="1.63304">
        <ele>2</ele>
        <time>2015-03-01T14:26:39Z</time>
      </trkpt>
      <trkpt lat="50.5125" lon="1.63296">
        <ele>2</ele>
        <time>2015-03-01T14:26:45Z</time>
      </trkpt>
      <trkpt lat="50.51255" lon="1.63288">
        <ele>2</ele>
        <time>2015-03-01T14:26:50Z</time>
      </trkpt>
      <trkpt lat="50.51258" lon="1.6328">
        <ele>2</ele>
        <time>2015-03-01T14:26:55Z</time>
      </trkpt>
      <trkpt lat="50.51262" lon="1.63274">
        <ele>2</ele>
        <time>2015-03-01T14:27:00Z</time>
      </trkpt>
      <trkpt lat="50.51266" lon="1.63266">
        <ele>2</ele>
        <time>2015-03-01T14:27:05Z</time>
      </trkpt>
      <trkpt lat="50.51271" lon="1.63256">
        <ele>2</ele>
        <time>2015-03-01T14:27:11Z</time>
      </trkpt>
      <trkpt lat="50.51277" lon="1.63248">
        <ele>2</ele>
        <time>2015-03-01T14:27:17Z</time>
      </trkpt>
      <trkpt lat="50.51282" lon="1.63242">
        <ele>2</ele>
        <time>2015-03-01T14:27:23Z</time>
      </trkpt>
      <trkpt lat="50.51288" lon="1.63233">
        <ele>2</ele>
        <time>2015-03-01T14:27:30Z</time>
      </trkpt>
      <trkpt lat="50.51293" lon="1.63224">
        <ele>2</ele>
        <time>2015-03-01T14:27:36Z</time>
      </trkpt>
      <trkpt lat="50.51298" lon="1.63217">
        <ele>2</ele>
        <time>2015-03-01T14:27:42Z</time>
      </trkpt>
      <trkpt lat="50.51302" lon="1.6321">
        <ele>2</ele>
        <time>2015-03-01T14:27:48Z</time>
      </trkpt>
      <trkpt lat="50.51306" lon="1.63205">
        <ele>2</ele>
        <time>2015-03-01T14:27:53Z</time>
      </trkpt>
      <trkpt lat="50.51311" lon="1.63198">
        <ele>2</ele>
        <time>2015-03-01T14:27:59Z</time>
      </trkpt>
      <trkpt lat="50.51316" lon="1.6319">
        <ele>2</ele>
        <time>2015-03-01T14:28:05Z</time>
      </trkpt>
      <trkpt lat="50.5132" lon="1.63183">
        <ele>2</ele>
        <time>2015-03-01T14:28:11Z</time>
      </trkpt>
      <trkpt lat="50.51325" lon="1.63176">
        <ele>2</ele>
        <time>2015-03-01T14:28:16Z</time>
      </trkpt>
      <trkpt lat="50.5133" lon="1.63171">
        <ele>2</ele>
        <time>2015-03-01T14:28:22Z</time>
      </trkpt>
      <trkpt lat="50.51334" lon="1.63164">
        <ele>2</ele>
        <time>2015-03-01T14:28:27Z</time>
      </trkpt>
      <trkpt lat="50.51338" lon="1.63157">
        <ele>2</ele>
        <time>2015-03-01T14:28:32Z</time>
      </trkpt>
      <trkpt lat="50.51344" lon="1.6315">
        <ele>2</ele>
        <time>2015-03-01T14:28:38Z</time>
      </trkpt>
      <trkpt lat="50.51347" lon="1.63143">
        <ele>2</ele>
        <time>2015-03-01T14:28:43Z</time>
      </trkpt>
      <trkpt lat="50.51352" lon="1.63136">
        <ele>2</ele>
        <time>2015-03-01T14:28:48Z</time>
      </trkpt>
      <trkpt lat="50.51355" lon="1.63129">
        <ele>2</ele>
        <time>2015-03-01T14:28:53Z</time>
      </trkpt>
      <trkpt lat="50.5136" lon="1.63119">
        <ele>3</ele>
        <time>2015-03-01T14:28:59Z</time>
      </trkpt>
      <trkpt lat="50.51364" lon="1.63109">
        <ele>3</ele>
        <time>2015-03-01T14:29:05Z</time>
      </trkpt>
      <trkpt lat="50.51368" lon="1.63102">
        <ele>3</ele>
        <time>2015-03-01T14:29:10Z</time>
      </trkpt>
      <trkpt lat="50.51374" lon="1.63096">
        <ele>3</ele>
        <time>2015-03-01T14:29:16Z</time>
      </trkpt>
      <trkpt lat="50.51379" lon="1.63088">
        <ele>2</ele>
        <time>2015-03-01T14:29:21Z</time>
      </trkpt>
      <trkpt lat="50.51384" lon="1.63079">
        <ele>3</ele>
        <time>2015-03-01T14:29:27Z</time>
      </trkpt>
      <trkpt lat="50.51389" lon="1.63072">
        <ele>3</ele>
        <time>2015-03-01T14:29:33Z</time>
      </trkpt>
      <trkpt lat="50.51393" lon="1.63064">
        <ele>3</ele>
        <time>2015-03-01T14:29:38Z</time>
      </trkpt>
      <trkpt lat="50.51398" lon="1.63057">
        <ele>3</ele>
        <time>2015-03-01T14:29:44Z</time>
      </trkpt>
      <trkpt lat="50.51402" lon="1.6305">
        <ele>3</ele>
        <time>2015-03-01T14:29:49Z</time>
      </trkpt>
      <trkpt lat="50.51407" lon="1.63043">
        <ele>3</ele>
        <time>2015-03-01T14:29:54Z</time>
      </trkpt>
      <trkpt lat="50.51411" lon="1.63038">
        <ele>2</ele>
        <time>2015-03-01T14:29:59Z</time>
      </trkpt>
      <trkpt lat="50.51413" lon="1.63031">
        <ele>2</ele>
        <time>2015-03-01T14:30:04Z</time>
      </trkpt>
      <trkpt lat="50.51417" lon="1.63023">
        <ele>2</ele>
        <time>2015-03-01T14:30:10Z</time>
      </trkpt>
      <trkpt lat="50.51423" lon="1.63016">
        <ele>2</ele>
        <time>2015-03-01T14:30:16Z</time>
      </trkpt>
      <trkpt lat="50.51428" lon="1.63008">
        <ele>2</ele>
        <time>2015-03-01T14:30:22Z</time>
      </trkpt>
      <trkpt lat="50.51432" lon="1.63">
        <ele>2</ele>
        <time>2015-03-01T14:30:27Z</time>
      </trkpt>
      <trkpt lat="50.51436" lon="1.62993">
        <ele>2</ele>
        <time>2015-03-01T14:30:32Z</time>
      </trkpt>
      <trkpt lat="50.51441" lon="1.62986">
        <ele>2</ele>
        <time>2015-03-01T14:30:38Z</time>
      </trkpt>
      <trkpt lat="50.51446" lon="1.62979">
        <ele>2</ele>
        <time>2015-03-01T14:30:44Z</time>
      </trkpt>
      <trkpt lat="50.5145" lon="1.62973">
        <ele>2</ele>
        <time>2015-03-01T14:30:49Z</time>
      </trkpt>
      <trkpt lat="50.51456" lon="1.62966">
        <ele>2</ele>
        <time>2015-03-01T14:30:55Z</time>
      </trkpt>
      <trkpt lat="50.51461" lon="1.62958">
        <ele>3</ele>
        <time>2015-03-01T14:31:01Z</time>
      </trkpt>
      <trkpt lat="50.51466" lon="1.62952">
        <ele>3</ele>
        <time>2015-03-01T14:31:06Z</time>
      </trkpt>
      <trkpt lat="50.51471" lon="1.62943">
        <ele>3</ele>
        <time>2015-03-01T14:31:12Z</time>
      </trkpt>
      <trkpt lat="50.51475" lon="1.62934">
        <ele>3</ele>
        <time>2015-03-01T14:31:18Z</time>
      </trkpt>
      <trkpt lat="50.51479" lon="1.62927">
        <ele>3</ele>
        <time>2015-03-01T14:31:23Z</time>
      </trkpt>
      <trkpt lat="50.51483" lon="1.6292">
        <ele>3</ele>
        <time>2015-03-01T14:31:29Z</time>
      </trkpt>
      <trkpt lat="50.51487" lon="1.62912">
        <ele>3</ele>
        <time>2015-03-01T14:31:34Z</time>
      </trkpt>
      <trkpt lat="50.51491" lon="1.62905">
        <ele>3</ele>
        <time>2015-03-01T14:31:39Z</time>
      </trkpt>
      <trkpt lat="50.51495" lon="1.62897">
        <ele>3</ele>
        <time>2015-03-01T14:31:44Z</time>
      </trkpt>
      <trkpt lat="50.51501" lon="1.62891">
        <ele>3</ele>
        <time>2015-03-01T14:31:49Z</time>
      </trkpt>
      <trkpt lat="50.51506" lon="1.62884">
        <ele>3</ele>
        <time>2015-03-01T14:31:54Z</time>
      </trkpt>
      <trkpt lat="50.51509" lon="1.62877">
        <ele>3</ele>
        <time>2015-03-01T14:31:59Z</time>
      </trkpt>
      <trkpt lat="50.51514" lon="1.62871">
        <ele>3</ele>
        <time>2015-03-01T14:32:04Z</time>
      </trkpt>
      <trkpt lat="50.51519" lon="1.62866">
        <ele>3</ele>
        <time>2015-03-01T14:32:10Z</time>
      </trkpt>
      <trkpt lat="50.51523" lon="1.62859">
        <ele>3</ele>
        <time>2015-03-01T14:32:16Z</time>
      </trkpt>
      <trkpt lat="50.51527" lon="1.62851">
        <ele>3</ele>
        <time>2015-03-01T14:32:21Z</time>
      </trkpt>
      <trkpt lat="50.51532" lon="1.62845">
        <ele>3</ele>
        <time>2015-03-01T14:32:27Z</time>
      </trkpt>
      <trkpt lat="50.51537" lon="1.62838">
        <ele>3</ele>
        <time>2015-03-01T14:32:33Z</time>
      </trkpt>
      <trkpt lat="50.51541" lon="1.6283">
        <ele>3</ele>
        <time>2015-03-01T14:32:38Z</time>
      </trkpt>
      <trkpt lat="50.51545" lon="1.62821">
        <ele>3</ele>
        <time>2015-03-01T14:32:44Z</time>
      </trkpt>
      <trkpt lat="50.51549" lon="1.62813">
        <ele>3</ele>
        <time>2015-03-01T14:32:49Z</time>
      </trkpt>
      <trkpt lat="50.51555" lon="1.62805">
        <ele>3</ele>
        <time>2015-03-01T14:32:55Z</time>
      </trkpt>
      <trkpt lat="50.5156" lon="1.62798">
        <ele>3</ele>
        <time>2015-03-01T14:33:01Z</time>
      </trkpt>
      <trkpt lat="50.51566" lon="1.62789">
        <ele>3</ele>
        <time>2015-03-01T14:33:07Z</time>
      </trkpt>
      <trkpt lat="50.5157" lon="1.62782">
        <ele>3</ele>
        <time>2015-03-01T14:33:13Z</time>
      </trkpt>
      <trkpt lat="50.51575" lon="1.62775">
        <ele>3</ele>
        <time>2015-03-01T14:33:19Z</time>
      </trkpt>
      <trkpt lat="50.5158" lon="1.62769">
        <ele>3</ele>
        <time>2015-03-01T14:33:25Z</time>
      </trkpt>
      <trkpt lat="50.51586" lon="1.62758">
        <ele>2</ele>
        <time>2015-03-01T14:33:32Z</time>
      </trkpt>
      <trkpt lat="50.51591" lon="1.62756">
        <ele>2</ele>
        <time>2015-03-01T14:33:37Z</time>
      </trkpt>
      <trkpt lat="50.51596" lon="1.62752">
        <ele>2</ele>
        <time>2015-03-01T14:33:43Z</time>
      </trkpt>
      <trkpt lat="50.516" lon="1.62745">
        <ele>2</ele>
        <time>2015-03-01T14:33:50Z</time>
      </trkpt>
      <trkpt lat="50.51604" lon="1.62739">
        <ele>2</ele>
        <time>2015-03-01T14:33:57Z</time>
      </trkpt>
      <trkpt lat="50.51607" lon="1.62732">
        <ele>2</ele>
        <time>2015-03-01T14:34:03Z</time>
      </trkpt>
      <trkpt lat="50.51612" lon="1.62724">
        <ele>2</ele>
        <time>2015-03-01T14:34:09Z</time>
      </trkpt>
      <trkpt lat="50.51617" lon="1.62719">
        <ele>2</ele>
        <time>2015-03-01T14:34:15Z</time>
      </trkpt>
      <trkpt lat="50.51622" lon="1.62712">
        <ele>2</ele>
        <time>2015-03-01T14:34:21Z</time>
      </trkpt>
      <trkpt lat="50.51627" lon="1.62706">
        <ele>2</ele>
        <time>2015-03-01T14:34:27Z</time>
      </trkpt>
      <trkpt lat="50.51632" lon="1.62703">
        <ele>2</ele>
        <time>2015-03-01T14:34:32Z</time>
      </trkpt>
      <trkpt lat="50.51637" lon="1.62696">
        <ele>2</ele>
        <time>2015-03-01T14:34:38Z</time>
      </trkpt>
      <trkpt lat="50.5164" lon="1.62689">
        <ele>2</ele>
        <time>2015-03-01T14:34:43Z</time>
      </trkpt>
      <trkpt lat="50.51643" lon="1.62682">
        <ele>2</ele>
        <time>2015-03-01T14:34:48Z</time>
      </trkpt>
      <trkpt lat="50.51643" lon="1.62678">
        <ele>2</ele>
        <time>2015-03-01T14:34:54Z</time>
      </trkpt>
      <trkpt lat="50.51646" lon="1.62671">
        <ele>2</ele>
        <time>2015-03-01T14:35:00Z</time>
      </trkpt>
      <trkpt lat="50.51648" lon="1.62664">
        <ele>2</ele>
        <time>2015-03-01T14:35:06Z</time>
      </trkpt>
      <trkpt lat="50.51651" lon="1.62657">
        <ele>2</ele>
        <time>2015-03-01T14:35:12Z</time>
      </trkpt>
      <trkpt lat="50.51653" lon="1.62651">
        <ele>2</ele>
        <time>2015-03-01T14:35:18Z</time>
      </trkpt>
      <trkpt lat="50.51656" lon="1.62644">
        <ele>2</ele>
        <time>2015-03-01T14:35:24Z</time>
      </trkpt>
      <trkpt lat="50.51659" lon="1.62637">
        <ele>2</ele>
        <time>2015-03-01T14:35:30Z</time>
      </trkpt>
      <trkpt lat="50.51661" lon="1.62631">
        <ele>2</ele>
        <time>2015-03-01T14:35:35Z</time>
      </trkpt>
      <trkpt lat="50.51664" lon="1.62626">
        <ele>2</ele>
        <time>2015-03-01T14:35:41Z</time>
      </trkpt>
      <trkpt lat="50.51667" lon="1.62622">
        <ele>1</ele>
        <time>2015-03-01T14:35:46Z</time>
      </trkpt>
      <trkpt lat="50.51672" lon="1.62618">
        <ele>1</ele>
        <time>2015-03-01T14:35:52Z</time>
      </trkpt>
      <trkpt lat="50.51675" lon="1.62612">
        <ele>1</ele>
        <time>2015-03-01T14:36:00Z</time>
      </trkpt>
      <trkpt lat="50.51683" lon="1.626">
        <ele>1</ele>
        <time>2015-03-01T14:36:06Z</time>
      </trkpt>
      <trkpt lat="50.51686" lon="1.62592">
        <ele>1</ele>
        <time>2015-03-01T14:36:12Z</time>
      </trkpt>
      <trkpt lat="50.5169" lon="1.62585">
        <ele>1</ele>
        <time>2015-03-01T14:36:18Z</time>
      </trkpt>
      <trkpt lat="50.51694" lon="1.62579">
        <ele>1</ele>
        <time>2015-03-01T14:36:24Z</time>
      </trkpt>
      <trkpt lat="50.51697" lon="1.62573">
        <ele>1</ele>
        <time>2015-03-01T14:36:30Z</time>
      </trkpt>
      <trkpt lat="50.51702" lon="1.62567">
        <ele>1</ele>
        <time>2015-03-01T14:36:36Z</time>
      </trkpt>
      <trkpt lat="50.51704" lon="1.62561">
        <ele>1</ele>
        <time>2015-03-01T14:36:41Z</time>
      </trkpt>
      <trkpt lat="50.51707" lon="1.62546">
        <ele>1</ele>
        <time>2015-03-01T14:36:50Z</time>
      </trkpt>
      <trkpt lat="50.51713" lon="1.62539">
        <ele>2</ele>
        <time>2015-03-01T14:36:56Z</time>
      </trkpt>
      <trkpt lat="50.51718" lon="1.62532">
        <ele>2</ele>
        <time>2015-03-01T14:37:02Z</time>
      </trkpt>
      <trkpt lat="50.5172" lon="1.62528">
        <ele>2</ele>
        <time>2015-03-01T14:37:09Z</time>
      </trkpt>
      <trkpt lat="50.51724" lon="1.62522">
        <ele>2</ele>
        <time>2015-03-01T14:37:14Z</time>
      </trkpt>
      <trkpt lat="50.51728" lon="1.62515">
        <ele>2</ele>
        <time>2015-03-01T14:37:19Z</time>
      </trkpt>
      <trkpt lat="50.51732" lon="1.62509">
        <ele>2</ele>
        <time>2015-03-01T14:37:25Z</time>
      </trkpt>
      <trkpt lat="50.51733" lon="1.62507">
        <ele>2</ele>
        <time>2015-03-01T14:37:30Z</time>
      </trkpt>
      <trkpt lat="50.51738" lon="1.625">
        <ele>2</ele>
        <time>2015-03-01T14:37:36Z</time>
      </trkpt>
      <trkpt lat="50.51742" lon="1.62492">
        <ele>2</ele>
        <time>2015-03-01T14:37:42Z</time>
      </trkpt>
      <trkpt lat="50.51746" lon="1.62484">
        <ele>2</ele>
        <time>2015-03-01T14:37:48Z</time>
      </trkpt>
      <trkpt lat="50.51751" lon="1.62478">
        <ele>2</ele>
        <time>2015-03-01T14:37:53Z</time>
      </trkpt>
      <trkpt lat="50.51756" lon="1.6247">
        <ele>2</ele>
        <time>2015-03-01T14:37:59Z</time>
      </trkpt>
      <trkpt lat="50.51761" lon="1.62462">
        <ele>2</ele>
        <time>2015-03-01T14:38:05Z</time>
      </trkpt>
      <trkpt lat="50.51766" lon="1.62455">
        <ele>2</ele>
        <time>2015-03-01T14:38:11Z</time>
      </trkpt>
      <trkpt lat="50.5177" lon="1.62446">
        <ele>2</ele>
        <time>2015-03-01T14:38:17Z</time>
      </trkpt>
      <trkpt lat="50.51776" lon="1.62438">
        <ele>2</ele>
        <time>2015-03-01T14:38:23Z</time>
      </trkpt>
      <trkpt lat="50.5178" lon="1.62431">
        <ele>2</ele>
        <time>2015-03-01T14:38:29Z</time>
      </trkpt>
      <trkpt lat="50.51786" lon="1.62424">
        <ele>2</ele>
        <time>2015-03-01T14:38:35Z</time>
      </trkpt>
      <trkpt lat="50.51791" lon="1.62418">
        <ele>2</ele>
        <time>2015-03-01T14:38:41Z</time>
      </trkpt>
      <trkpt lat="50.51794" lon="1.6241">
        <ele>2</ele>
        <time>2015-03-01T14:38:47Z</time>
      </trkpt>
      <trkpt lat="50.51797" lon="1.62403">
        <ele>2</ele>
        <time>2015-03-01T14:38:53Z</time>
      </trkpt>
      <trkpt lat="50.51802" lon="1.62396">
        <ele>2</ele>
        <time>2015-03-01T14:38:59Z</time>
      </trkpt>
      <trkpt lat="50.51807" lon="1.6239">
        <ele>2</ele>
        <time>2015-03-01T14:39:04Z</time>
      </trkpt>
      <trkpt lat="50.51809" lon="1.62382">
        <ele>2</ele>
        <time>2015-03-01T14:39:10Z</time>
      </trkpt>
      <trkpt lat="50.51813" lon="1.62375">
        <ele>2</ele>
        <time>2015-03-01T14:39:16Z</time>
      </trkpt>
      <trkpt lat="50.51817" lon="1.62367">
        <ele>2</ele>
        <time>2015-03-01T14:39:22Z</time>
      </trkpt>
      <trkpt lat="50.51822" lon="1.6236">
        <ele>2</ele>
        <time>2015-03-01T14:39:28Z</time>
      </trkpt>
      <trkpt lat="50.51826" lon="1.62354">
        <ele>2</ele>
        <time>2015-03-01T14:39:33Z</time>
      </trkpt>
      <trkpt lat="50.51831" lon="1.62345">
        <ele>2</ele>
        <time>2015-03-01T14:39:39Z</time>
      </trkpt>
      <trkpt lat="50.51835" lon="1.62337">
        <ele>2</ele>
        <time>2015-03-01T14:39:45Z</time>
      </trkpt>
      <trkpt lat="50.51839" lon="1.6233">
        <ele>2</ele>
        <time>2015-03-01T14:39:51Z</time>
      </trkpt>
      <trkpt lat="50.51842" lon="1.62323">
        <ele>2</ele>
        <time>2015-03-01T14:39:57Z</time>
      </trkpt>
      <trkpt lat="50.51847" lon="1.62315">
        <ele>2</ele>
        <time>2015-03-01T14:40:03Z</time>
      </trkpt>
      <trkpt lat="50.51851" lon="1.62307">
        <ele>2</ele>
        <time>2015-03-01T14:40:09Z</time>
      </trkpt>
      <trkpt lat="50.51854" lon="1.623">
        <ele>2</ele>
        <time>2015-03-01T14:40:14Z</time>
      </trkpt>
      <trkpt lat="50.5186" lon="1.6229">
        <ele>2</ele>
        <time>2015-03-01T14:40:21Z</time>
      </trkpt>
      <trkpt lat="50.51864" lon="1.62283">
        <ele>2</ele>
        <time>2015-03-01T14:40:27Z</time>
      </trkpt>
      <trkpt lat="50.51867" lon="1.6228">
        <ele>2</ele>
        <time>2015-03-01T14:40:37Z</time>
      </trkpt>
      <trkpt lat="50.51871" lon="1.62272">
        <ele>2</ele>
        <time>2015-03-01T14:40:43Z</time>
      </trkpt>
      <trkpt lat="50.51875" lon="1.62267">
        <ele>2</ele>
        <time>2015-03-01T14:40:49Z</time>
      </trkpt>
      <trkpt lat="50.51879" lon="1.6226">
        <ele>2</ele>
        <time>2015-03-01T14:40:55Z</time>
      </trkpt>
      <trkpt lat="50.51883" lon="1.62252">
        <ele>2</ele>
        <time>2015-03-01T14:41:01Z</time>
      </trkpt>
      <trkpt lat="50.51887" lon="1.62246">
        <ele>2</ele>
        <time>2015-03-01T14:41:07Z</time>
      </trkpt>
      <trkpt lat="50.51891" lon="1.62241">
        <ele>2</ele>
        <time>2015-03-01T14:41:14Z</time>
      </trkpt>
      <trkpt lat="50.51894" lon="1.62239">
        <ele>2</ele>
        <time>2015-03-01T14:41:19Z</time>
      </trkpt>
      <trkpt lat="50.51897" lon="1.62232">
        <ele>2</ele>
        <time>2015-03-01T14:41:25Z</time>
      </trkpt>
      <trkpt lat="50.51901" lon="1.62225">
        <ele>2</ele>
        <time>2015-03-01T14:41:31Z</time>
      </trkpt>
      <trkpt lat="50.51906" lon="1.62219">
        <ele>2</ele>
        <time>2015-03-01T14:41:37Z</time>
      </trkpt>
      <trkpt lat="50.5191" lon="1.62211">
        <ele>2</ele>
        <time>2015-03-01T14:41:43Z</time>
      </trkpt>
      <trkpt lat="50.51914" lon="1.62205">
        <ele>2</ele>
        <time>2015-03-01T14:41:49Z</time>
      </trkpt>
      <trkpt lat="50.51918" lon="1.62198">
        <ele>2</ele>
        <time>2015-03-01T14:41:55Z</time>
      </trkpt>
      <trkpt lat="50.51922" lon="1.6219">
        <ele>2</ele>
        <time>2015-03-01T14:42:01Z</time>
      </trkpt>
      <trkpt lat="50.51927" lon="1.62182">
        <ele>2</ele>
        <time>2015-03-01T14:42:07Z</time>
      </trkpt>
      <trkpt lat="50.51936" lon="1.62169">
        <ele>2</ele>
        <time>2015-03-01T14:42:16Z</time>
      </trkpt>
      <trkpt lat="50.51941" lon="1.62163">
        <ele>2</ele>
        <time>2015-03-01T14:42:21Z</time>
      </trkpt>
      <trkpt lat="50.51946" lon="1.62157">
        <ele>2</ele>
        <time>2015-03-01T14:42:27Z</time>
      </trkpt>
      <trkpt lat="50.5195" lon="1.62151">
        <ele>2</ele>
        <time>2015-03-01T14:42:33Z</time>
      </trkpt>
      <trkpt lat="50.51955" lon="1.62146">
        <ele>2</ele>
        <time>2015-03-01T14:42:38Z</time>
      </trkpt>
      <trkpt lat="50.5196" lon="1.6214">
        <ele>2</ele>
        <time>2015-03-01T14:42:43Z</time>
      </trkpt>
      <trkpt lat="50.51965" lon="1.62134">
        <ele>2</ele>
        <time>2015-03-01T14:42:49Z</time>
      </trkpt>
      <trkpt lat="50.51971" lon="1.62126">
        <ele>2</ele>
        <time>2015-03-01T14:42:55Z</time>
      </trkpt>
      <trkpt lat="50.51976" lon="1.62119">
        <ele>2</ele>
        <time>2015-03-01T14:43:01Z</time>
      </trkpt>
      <trkpt lat="50.5198" lon="1.62112">
        <ele>2</ele>
        <time>2015-03-01T14:43:07Z</time>
      </trkpt>
      <trkpt lat="50.51986" lon="1.62104">
        <ele>2</ele>
        <time>2015-03-01T14:43:13Z</time>
      </trkpt>
      <trkpt lat="50.51991" lon="1.62097">
        <ele>3</ele>
        <time>2015-03-01T14:43:19Z</time>
      </trkpt>
      <trkpt lat="50.51996" lon="1.62089">
        <ele>3</ele>
        <time>2015-03-01T14:43:25Z</time>
      </trkpt>
      <trkpt lat="50.52" lon="1.62081">
        <ele>3</ele>
        <time>2015-03-01T14:43:30Z</time>
      </trkpt>
      <trkpt lat="50.52005" lon="1.62071">
        <ele>3</ele>
        <time>2015-03-01T14:43:37Z</time>
      </trkpt>
      <trkpt lat="50.52009" lon="1.62063">
        <ele>3</ele>
        <time>2015-03-01T14:43:43Z</time>
      </trkpt>
      <trkpt lat="50.52014" lon="1.62058">
        <ele>3</ele>
        <time>2015-03-01T14:43:51Z</time>
      </trkpt>
      <trkpt lat="50.52018" lon="1.62054">
        <ele>3</ele>
        <time>2015-03-01T14:43:56Z</time>
      </trkpt>
      <trkpt lat="50.52022" lon="1.62049">
        <ele>3</ele>
        <time>2015-03-01T14:44:01Z</time>
      </trkpt>
      <trkpt lat="50.52027" lon="1.62042">
        <ele>3</ele>
        <time>2015-03-01T14:44:07Z</time>
      </trkpt>
      <trkpt lat="50.52031" lon="1.62033">
        <ele>3</ele>
        <time>2015-03-01T14:44:13Z</time>
      </trkpt>
      <trkpt lat="50.52034" lon="1.62027">
        <ele>3</ele>
        <time>2015-03-01T14:44:19Z</time>
      </trkpt>
      <trkpt lat="50.52038" lon="1.62019">
        <ele>3</ele>
        <time>2015-03-01T14:44:24Z</time>
      </trkpt>
      <trkpt lat="50.52044" lon="1.62011">
        <ele>3</ele>
        <time>2015-03-01T14:44:30Z</time>
      </trkpt>
      <trkpt lat="50.52048" lon="1.62003">
        <ele>3</ele>
        <time>2015-03-01T14:44:36Z</time>
      </trkpt>
      <trkpt lat="50.52053" lon="1.61996">
        <ele>3</ele>
        <time>2015-03-01T14:44:42Z</time>
      </trkpt>
      <trkpt lat="50.52058" lon="1.61989">
        <ele>3</ele>
        <time>2015-03-01T14:44:48Z</time>
      </trkpt>
      <trkpt lat="50.52061" lon="1.61982">
        <ele>3</ele>
        <time>2015-03-01T14:44:54Z</time>
      </trkpt>
      <trkpt lat="50.52067" lon="1.61974">
        <ele>3</ele>
        <time>2015-03-01T14:45:00Z</time>
      </trkpt>
      <trkpt lat="50.52071" lon="1.61967">
        <ele>3</ele>
        <time>2015-03-01T14:45:06Z</time>
      </trkpt>
      <trkpt lat="50.52076" lon="1.61959">
        <ele>3</ele>
        <time>2015-03-01T14:45:12Z</time>
      </trkpt>
      <trkpt lat="50.52081" lon="1.61952">
        <ele>3</ele>
        <time>2015-03-01T14:45:18Z</time>
      </trkpt>
      <trkpt lat="50.52085" lon="1.61944">
        <ele>4</ele>
        <time>2015-03-01T14:45:24Z</time>
      </trkpt>
      <trkpt lat="50.52091" lon="1.61936">
        <ele>4</ele>
        <time>2015-03-01T14:45:29Z</time>
      </trkpt>
      <trkpt lat="50.52098" lon="1.6193">
        <ele>4</ele>
        <time>2015-03-01T14:45:35Z</time>
      </trkpt>
      <trkpt lat="50.52102" lon="1.61922">
        <ele>4</ele>
        <time>2015-03-01T14:45:41Z</time>
      </trkpt>
      <trkpt lat="50.52106" lon="1.61914">
        <ele>4</ele>
        <time>2015-03-01T14:45:47Z</time>
      </trkpt>
      <trkpt lat="50.5211" lon="1.61907">
        <ele>4</ele>
        <time>2015-03-01T14:45:53Z</time>
      </trkpt>
      <trkpt lat="50.52113" lon="1.61899">
        <ele>4</ele>
        <time>2015-03-01T14:45:59Z</time>
      </trkpt>
      <trkpt lat="50.52117" lon="1.61891">
        <ele>4</ele>
        <time>2015-03-01T14:46:05Z</time>
      </trkpt>
      <trkpt lat="50.52122" lon="1.61883">
        <ele>4</ele>
        <time>2015-03-01T14:46:11Z</time>
      </trkpt>
      <trkpt lat="50.52128" lon="1.61873">
        <ele>4</ele>
        <time>2015-03-01T14:46:18Z</time>
      </trkpt>
      <trkpt lat="50.52133" lon="1.61865">
        <ele>4</ele>
        <time>2015-03-01T14:46:24Z</time>
      </trkpt>
      <trkpt lat="50.5214" lon="1.61857">
        <ele>4</ele>
        <time>2015-03-01T14:46:31Z</time>
      </trkpt>
      <trkpt lat="50.52144" lon="1.61851">
        <ele>4</ele>
        <time>2015-03-01T14:46:37Z</time>
      </trkpt>
      <trkpt lat="50.52148" lon="1.61845">
        <ele>4</ele>
        <time>2015-03-01T14:46:42Z</time>
      </trkpt>
      <trkpt lat="50.52152" lon="1.61839">
        <ele>4</ele>
        <time>2015-03-01T14:46:47Z</time>
      </trkpt>
      <trkpt lat="50.52156" lon="1.6183">
        <ele>4</ele>
        <time>2015-03-01T14:46:53Z</time>
      </trkpt>
      <trkpt lat="50.5216" lon="1.61823">
        <ele>4</ele>
        <time>2015-03-01T14:46:58Z</time>
      </trkpt>
      <trkpt lat="50.52164" lon="1.61816">
        <ele>4</ele>
        <time>2015-03-01T14:47:04Z</time>
      </trkpt>
      <trkpt lat="50.52169" lon="1.61808">
        <ele>3</ele>
        <time>2015-03-01T14:47:10Z</time>
      </trkpt>
      <trkpt lat="50.52174" lon="1.618">
        <ele>3</ele>
        <time>2015-03-01T14:47:15Z</time>
      </trkpt>
      <trkpt lat="50.52178" lon="1.61793">
        <ele>3</ele>
        <time>2015-03-01T14:47:20Z</time>
      </trkpt>
      <trkpt lat="50.52182" lon="1.61785">
        <ele>3</ele>
        <time>2015-03-01T14:47:26Z</time>
      </trkpt>
      <trkpt lat="50.52187" lon="1.61777">
        <ele>3</ele>
        <time>2015-03-01T14:47:32Z</time>
      </trkpt>
      <trkpt lat="50.52191" lon="1.6177">
        <ele>3</ele>
        <time>2015-03-01T14:47:38Z</time>
      </trkpt>
      <trkpt lat="50.52199" lon="1.61759">
        <ele>3</ele>
        <time>2015-03-01T14:47:46Z</time>
      </trkpt>
      <trkpt lat="50.52204" lon="1.61751">
        <ele>3</ele>
        <time>2015-03-01T14:47:52Z</time>
      </trkpt>
      <trkpt lat="50.52208" lon="1.61743">
        <ele>2</ele>
        <time>2015-03-01T14:47:58Z</time>
      </trkpt>
      <trkpt lat="50.52212" lon="1.61736">
        <ele>2</ele>
        <time>2015-03-01T14:48:03Z</time>
      </trkpt>
      <trkpt lat="50.52216" lon="1.61729">
        <ele>2</ele>
        <time>2015-03-01T14:48:08Z</time>
      </trkpt>
      <trkpt lat="50.52222" lon="1.61721">
        <ele>2</ele>
        <time>2015-03-01T14:48:14Z</time>
      </trkpt>
      <trkpt lat="50.52225" lon="1.61716">
        <ele>2</ele>
        <time>2015-03-01T14:48:21Z</time>
      </trkpt>
      <trkpt lat="50.52232" lon="1.61706">
        <ele>2</ele>
        <time>2015-03-01T14:48:27Z</time>
      </trkpt>
      <trkpt lat="50.52237" lon="1.61696">
        <ele>2</ele>
        <time>2015-03-01T14:48:34Z</time>
      </trkpt>
      <trkpt lat="50.52242" lon="1.61688">
        <ele>2</ele>
        <time>2015-03-01T14:48:40Z</time>
      </trkpt>
      <trkpt lat="50.52246" lon="1.6168">
        <ele>2</ele>
        <time>2015-03-01T14:48:46Z</time>
      </trkpt>
      <trkpt lat="50.52251" lon="1.61671">
        <ele>2</ele>
        <time>2015-03-01T14:48:52Z</time>
      </trkpt>
      <trkpt lat="50.52256" lon="1.61663">
        <ele>2</ele>
        <time>2015-03-01T14:48:58Z</time>
      </trkpt>
      <trkpt lat="50.52261" lon="1.61656">
        <ele>2</ele>
        <time>2015-03-01T14:49:04Z</time>
      </trkpt>
      <trkpt lat="50.52266" lon="1.61648">
        <ele>2</ele>
        <time>2015-03-01T14:49:10Z</time>
      </trkpt>
      <trkpt lat="50.5227" lon="1.61641">
        <ele>2</ele>
        <time>2015-03-01T14:49:15Z</time>
      </trkpt>
      <trkpt lat="50.52275" lon="1.61633">
        <ele>2</ele>
        <time>2015-03-01T14:49:21Z</time>
      </trkpt>
      <trkpt lat="50.52279" lon="1.61625">
        <ele>2</ele>
        <time>2015-03-01T14:49:27Z</time>
      </trkpt>
      <trkpt lat="50.52284" lon="1.61618">
        <ele>2</ele>
        <time>2015-03-01T14:49:33Z</time>
      </trkpt>
      <trkpt lat="50.52288" lon="1.61609">
        <ele>2</ele>
        <time>2015-03-01T14:49:39Z</time>
      </trkpt>
      <trkpt lat="50.52292" lon="1.61602">
        <ele>2</ele>
        <time>2015-03-01T14:49:45Z</time>
      </trkpt>
      <trkpt lat="50.52297" lon="1.61594">
        <ele>2</ele>
        <time>2015-03-01T14:49:51Z</time>
      </trkpt>
      <trkpt lat="50.52299" lon="1.61589">
        <ele>2</ele>
        <time>2015-03-01T14:49:56Z</time>
      </trkpt>
      <trkpt lat="50.52303" lon="1.61583">
        <ele>3</ele>
        <time>2015-03-01T14:50:02Z</time>
      </trkpt>
      <trkpt lat="50.52307" lon="1.61576">
        <ele>3</ele>
        <time>2015-03-01T14:50:08Z</time>
      </trkpt>
      <trkpt lat="50.52312" lon="1.61569">
        <ele>3</ele>
        <time>2015-03-01T14:50:14Z</time>
      </trkpt>
      <trkpt lat="50.52317" lon="1.61562">
        <ele>3</ele>
        <time>2015-03-01T14:50:20Z</time>
      </trkpt>
      <trkpt lat="50.52322" lon="1.61555">
        <ele>3</ele>
        <time>2015-03-01T14:50:26Z</time>
      </trkpt>
      <trkpt lat="50.52326" lon="1.61549">
        <ele>3</ele>
        <time>2015-03-01T14:50:32Z</time>
      </trkpt>
      <trkpt lat="50.52339" lon="1.61529">
        <ele>3</ele>
        <time>2015-03-01T14:50:48Z</time>
      </trkpt>
      <trkpt lat="50.52342" lon="1.61521">
        <ele>3</ele>
        <time>2015-03-01T14:50:53Z</time>
      </trkpt>
      <trkpt lat="50.52346" lon="1.61514">
        <ele>3</ele>
        <time>2015-03-01T14:50:58Z</time>
      </trkpt>
      <trkpt lat="50.5235" lon="1.61505">
        <ele>3</ele>
        <time>2015-03-01T14:51:04Z</time>
      </trkpt>
      <trkpt lat="50.52355" lon="1.61498">
        <ele>3</ele>
        <time>2015-03-01T14:51:10Z</time>
      </trkpt>
      <trkpt lat="50.5236" lon="1.6149">
        <ele>3</ele>
        <time>2015-03-01T14:51:16Z</time>
      </trkpt>
      <trkpt lat="50.52363" lon="1.61484">
        <ele>3</ele>
        <time>2015-03-01T14:51:22Z</time>
      </trkpt>
      <trkpt lat="50.52367" lon="1.61477">
        <ele>3</ele>
        <time>2015-03-01T14:51:28Z</time>
      </trkpt>
      <trkpt lat="50.5237" lon="1.6147">
        <ele>3</ele>
        <time>2015-03-01T14:51:33Z</time>
      </trkpt>
      <trkpt lat="50.52375" lon="1.61463">
        <ele>3</ele>
        <time>2015-03-01T14:51:39Z</time>
      </trkpt>
      <trkpt lat="50.52381" lon="1.61454">
        <ele>3</ele>
        <time>2015-03-01T14:51:46Z</time>
      </trkpt>
      <trkpt lat="50.52385" lon="1.61445">
        <ele>3</ele>
        <time>2015-03-01T14:51:52Z</time>
      </trkpt>
      <trkpt lat="50.52388" lon="1.61442">
        <ele>3</ele>
        <time>2015-03-01T14:51:58Z</time>
      </trkpt>
      <trkpt lat="50.52394" lon="1.61432">
        <ele>3</ele>
        <time>2015-03-01T14:52:04Z</time>
      </trkpt>
      <trkpt lat="50.52399" lon="1.61425">
        <ele>2</ele>
        <time>2015-03-01T14:52:10Z</time>
      </trkpt>
      <trkpt lat="50.52404" lon="1.61417">
        <ele>2</ele>
        <time>2015-03-01T14:52:16Z</time>
      </trkpt>
      <trkpt lat="50.52409" lon="1.61409">
        <ele>2</ele>
        <time>2015-03-01T14:52:22Z</time>
      </trkpt>
      <trkpt lat="50.52414" lon="1.614">
        <ele>2</ele>
        <time>2015-03-01T14:52:28Z</time>
      </trkpt>
      <trkpt lat="50.52419" lon="1.61392">
        <ele>2</ele>
        <time>2015-03-01T14:52:34Z</time>
      </trkpt>
      <trkpt lat="50.52425" lon="1.61381">
        <ele>2</ele>
        <time>2015-03-01T14:52:41Z</time>
      </trkpt>
      <trkpt lat="50.52428" lon="1.61373">
        <ele>2</ele>
        <time>2015-03-01T14:52:46Z</time>
      </trkpt>
      <trkpt lat="50.52433" lon="1.61364">
        <ele>2</ele>
        <time>2015-03-01T14:52:52Z</time>
      </trkpt>
      <trkpt lat="50.52437" lon="1.61357">
        <ele>2</ele>
        <time>2015-03-01T14:52:57Z</time>
      </trkpt>
      <trkpt lat="50.52443" lon="1.6135">
        <ele>2</ele>
        <time>2015-03-01T14:53:03Z</time>
      </trkpt>
      <trkpt lat="50.52448" lon="1.61343">
        <ele>2</ele>
        <time>2015-03-01T14:53:09Z</time>
      </trkpt>
      <trkpt lat="50.52453" lon="1.61335">
        <ele>2</ele>
        <time>2015-03-01T14:53:15Z</time>
      </trkpt>
      <trkpt lat="50.52458" lon="1.61328">
        <ele>3</ele>
        <time>2015-03-01T14:53:21Z</time>
      </trkpt>
      <trkpt lat="50.52463" lon="1.61321">
        <ele>3</ele>
        <time>2015-03-01T14:53:27Z</time>
      </trkpt>
      <trkpt lat="50.52467" lon="1.61315">
        <ele>3</ele>
        <time>2015-03-01T14:53:33Z</time>
      </trkpt>
      <trkpt lat="50.5247" lon="1.61307">
        <ele>3</ele>
        <time>2015-03-01T14:53:38Z</time>
      </trkpt>
      <trkpt lat="50.52475" lon="1.61299">
        <ele>3</ele>
        <time>2015-03-01T14:53:44Z</time>
      </trkpt>
      <trkpt lat="50.52478" lon="1.61292">
        <ele>3</ele>
        <time>2015-03-01T14:53:49Z</time>
      </trkpt>
      <trkpt lat="50.52482" lon="1.61284">
        <ele>3</ele>
        <time>2015-03-01T14:53:55Z</time>
      </trkpt>
      <trkpt lat="50.52487" lon="1.61276">
        <ele>3</ele>
        <time>2015-03-01T14:54:01Z</time>
      </trkpt>
      <trkpt lat="50.52491" lon="1.61269">
        <ele>3</ele>
        <time>2015-03-01T14:54:07Z</time>
      </trkpt>
      <trkpt lat="50.52495" lon="1.6126">
        <ele>4</ele>
        <time>2015-03-01T14:54:14Z</time>
      </trkpt>
      <trkpt lat="50.52499" lon="1.61252">
        <ele>4</ele>
        <time>2015-03-01T14:54:20Z</time>
      </trkpt>
      <trkpt lat="50.52504" lon="1.61245">
        <ele>4</ele>
        <time>2015-03-01T14:54:26Z</time>
      </trkpt>
      <trkpt lat="50.52508" lon="1.61238">
        <ele>4</ele>
        <time>2015-03-01T14:54:31Z</time>
      </trkpt>
      <trkpt lat="50.52513" lon="1.6123">
        <ele>4</ele>
        <time>2015-03-01T14:54:37Z</time>
      </trkpt>
      <trkpt lat="50.52518" lon="1.61223">
        <ele>4</ele>
        <time>2015-03-01T14:54:43Z</time>
      </trkpt>
      <trkpt lat="50.52523" lon="1.61216">
        <ele>3</ele>
        <time>2015-03-01T14:54:49Z</time>
      </trkpt>
      <trkpt lat="50.52528" lon="1.61209">
        <ele>3</ele>
        <time>2015-03-01T14:54:55Z</time>
      </trkpt>
      <trkpt lat="50.52533" lon="1.612">
        <ele>3</ele>
        <time>2015-03-01T14:55:01Z</time>
      </trkpt>
      <trkpt lat="50.52537" lon="1.61193">
        <ele>3</ele>
        <time>2015-03-01T14:55:07Z</time>
      </trkpt>
      <trkpt lat="50.52542" lon="1.61186">
        <ele>3</ele>
        <time>2015-03-01T14:55:13Z</time>
      </trkpt>
      <trkpt lat="50.52546" lon="1.6118">
        <ele>3</ele>
        <time>2015-03-01T14:55:19Z</time>
      </trkpt>
      <trkpt lat="50.52551" lon="1.61173">
        <ele>3</ele>
        <time>2015-03-01T14:55:25Z</time>
      </trkpt>
      <trkpt lat="50.52555" lon="1.61166">
        <ele>3</ele>
        <time>2015-03-01T14:55:31Z</time>
      </trkpt>
      <trkpt lat="50.5256" lon="1.61161">
        <ele>3</ele>
        <time>2015-03-01T14:55:36Z</time>
      </trkpt>
      <trkpt lat="50.52564" lon="1.61154">
        <ele>3</ele>
        <time>2015-03-01T14:55:42Z</time>
      </trkpt>
      <trkpt lat="50.52569" lon="1.61146">
        <ele>3</ele>
        <time>2015-03-01T14:55:48Z</time>
      </trkpt>
      <trkpt lat="50.52573" lon="1.61138">
        <ele>3</ele>
        <time>2015-03-01T14:55:54Z</time>
      </trkpt>
      <trkpt lat="50.52577" lon="1.61131">
        <ele>3</ele>
        <time>2015-03-01T14:55:59Z</time>
      </trkpt>
      <trkpt lat="50.52582" lon="1.61125">
        <ele>3</ele>
        <time>2015-03-01T14:56:05Z</time>
      </trkpt>
      <trkpt lat="50.52586" lon="1.61118">
        <ele>3</ele>
        <time>2015-03-01T14:56:11Z</time>
      </trkpt>
      <trkpt lat="50.52591" lon="1.61112">
        <ele>3</ele>
        <time>2015-03-01T14:56:17Z</time>
      </trkpt>
      <trkpt lat="50.52595" lon="1.61105">
        <ele>3</ele>
        <time>2015-03-01T14:56:23Z</time>
      </trkpt>
      <trkpt lat="50.52597" lon="1.61101">
        <ele>3</ele>
        <time>2015-03-01T14:56:28Z</time>
      </trkpt>
      <trkpt lat="50.52602" lon="1.61094">
        <ele>3</ele>
        <time>2015-03-01T14:56:34Z</time>
      </trkpt>
      <trkpt lat="50.52606" lon="1.61086">
        <ele>3</ele>
        <time>2015-03-01T14:56:40Z</time>
      </trkpt>
      <trkpt lat="50.52611" lon="1.61079">
        <ele>3</ele>
        <time>2015-03-01T14:56:46Z</time>
      </trkpt>
      <trkpt lat="50.52615" lon="1.61072">
        <ele>3</ele>
        <time>2015-03-01T14:56:52Z</time>
      </trkpt>
      <trkpt lat="50.5262" lon="1.61064">
        <ele>3</ele>
        <time>2015-03-01T14:56:58Z</time>
      </trkpt>
      <trkpt lat="50.52622" lon="1.61059">
        <ele>3</ele>
        <time>2015-03-01T14:57:04Z</time>
      </trkpt>
      <trkpt lat="50.52626" lon="1.61052">
        <ele>2</ele>
        <time>2015-03-01T14:57:10Z</time>
      </trkpt>
      <trkpt lat="50.52631" lon="1.61045">
        <ele>2</ele>
        <time>2015-03-01T14:57:16Z</time>
      </trkpt>
      <trkpt lat="50.52634" lon="1.61039">
        <ele>2</ele>
        <time>2015-03-01T14:57:21Z</time>
      </trkpt>
      <trkpt lat="50.52639" lon="1.61031">
        <ele>2</ele>
        <time>2015-03-01T14:57:27Z</time>
      </trkpt>
      <trkpt lat="50.52644" lon="1.61023">
        <ele>2</ele>
        <time>2015-03-01T14:57:33Z</time>
      </trkpt>
      <trkpt lat="50.52649" lon="1.61013">
        <ele>2</ele>
        <time>2015-03-01T14:57:40Z</time>
      </trkpt>
      <trkpt lat="50.52656" lon="1.61004">
        <ele>2</ele>
        <time>2015-03-01T14:57:47Z</time>
      </trkpt>
      <trkpt lat="50.5266" lon="1.60997">
        <ele>2</ele>
        <time>2015-03-01T14:57:52Z</time>
      </trkpt>
      <trkpt lat="50.52665" lon="1.60989">
        <ele>2</ele>
        <time>2015-03-01T14:57:58Z</time>
      </trkpt>
      <trkpt lat="50.5267" lon="1.60982">
        <ele>2</ele>
        <time>2015-03-01T14:58:04Z</time>
      </trkpt>
      <trkpt lat="50.52675" lon="1.60974">
        <ele>2</ele>
        <time>2015-03-01T14:58:10Z</time>
      </trkpt>
      <trkpt lat="50.5268" lon="1.60967">
        <ele>2</ele>
        <time>2015-03-01T14:58:16Z</time>
      </trkpt>
      <trkpt lat="50.52684" lon="1.60958">
        <ele>2</ele>
        <time>2015-03-01T14:58:22Z</time>
      </trkpt>
      <trkpt lat="50.52687" lon="1.6095">
        <ele>2</ele>
        <time>2015-03-01T14:58:28Z</time>
      </trkpt>
      <trkpt lat="50.52689" lon="1.60941">
        <ele>2</ele>
        <time>2015-03-01T14:58:33Z</time>
      </trkpt>
      <trkpt lat="50.52692" lon="1.60931">
        <ele>2</ele>
        <time>2015-03-01T14:58:39Z</time>
      </trkpt>
      <trkpt lat="50.52695" lon="1.60922">
        <ele>2</ele>
        <time>2015-03-01T14:58:45Z</time>
      </trkpt>
      <trkpt lat="50.52697" lon="1.60913">
        <ele>3</ele>
        <time>2015-03-01T14:58:50Z</time>
      </trkpt>
      <trkpt lat="50.52699" lon="1.60903">
        <ele>3</ele>
        <time>2015-03-01T14:58:56Z</time>
      </trkpt>
      <trkpt lat="50.527" lon="1.60893">
        <ele>3</ele>
        <time>2015-03-01T14:59:02Z</time>
      </trkpt>
      <trkpt lat="50.527" lon="1.60885">
        <ele>3</ele>
        <time>2015-03-01T14:59:07Z</time>
      </trkpt>
      <trkpt lat="50.527" lon="1.60869">
        <ele>3</ele>
        <time>2015-03-01T14:59:15Z</time>
      </trkpt>
      <trkpt lat="50.52699" lon="1.60859">
        <ele>3</ele>
        <time>2015-03-01T14:59:21Z</time>
      </trkpt>
      <trkpt lat="50.52698" lon="1.6085">
        <ele>3</ele>
        <time>2015-03-01T14:59:26Z</time>
      </trkpt>
      <trkpt lat="50.52698" lon="1.60839">
        <ele>3</ele>
        <time>2015-03-01T14:59:32Z</time>
      </trkpt>
      <trkpt lat="50.52699" lon="1.60829">
        <ele>3</ele>
        <time>2015-03-01T14:59:38Z</time>
      </trkpt>
      <trkpt lat="50.52699" lon="1.6082">
        <ele>3</ele>
        <time>2015-03-01T14:59:44Z</time>
      </trkpt>
      <trkpt lat="50.52699" lon="1.60816">
        <ele>3</ele>
        <time>2015-03-01T14:59:51Z</time>
      </trkpt>
      <trkpt lat="50.527" lon="1.60809">
        <ele>3</ele>
        <time>2015-03-01T14:59:56Z</time>
      </trkpt>
      <trkpt lat="50.52702" lon="1.608">
        <ele>3</ele>
        <time>2015-03-01T15:00:02Z</time>
      </trkpt>
      <trkpt lat="50.52702" lon="1.60799">
        <ele>3</ele>
        <time>2015-03-01T15:00:07Z</time>
      </trkpt>
      <trkpt lat="50.52703" lon="1.60791">
        <ele>3</ele>
        <time>2015-03-01T15:00:13Z</time>
      </trkpt>
      <trkpt lat="50.52703" lon="1.60784">
        <ele>3</ele>
        <time>2015-03-01T15:00:18Z</time>
      </trkpt>
      <trkpt lat="50.52711" lon="1.60768">
        <ele>3</ele>
        <time>2015-03-01T15:00:28Z</time>
      </trkpt>
      <trkpt lat="50.52714" lon="1.6076">
        <ele>3</ele>
        <time>2015-03-01T15:00:34Z</time>
      </trkpt>
      <trkpt lat="50.52717" lon="1.60753">
        <ele>3</ele>
        <time>2015-03-01T15:00:39Z</time>
      </trkpt>
      <trkpt lat="50.52721" lon="1.60744">
        <ele>3</ele>
        <time>2015-03-01T15:00:45Z</time>
      </trkpt>
      <trkpt lat="50.52725" lon="1.60736">
        <ele>3</ele>
        <time>2015-03-01T15:00:51Z</time>
      </trkpt>
      <trkpt lat="50.52729" lon="1.60728">
        <ele>3</ele>
        <time>2015-03-01T15:00:57Z</time>
      </trkpt>
      <trkpt lat="50.52734" lon="1.6072">
        <ele>3</ele>
        <time>2015-03-01T15:01:03Z</time>
      </trkpt>
      <trkpt lat="50.52738" lon="1.60712">
        <ele>3</ele>
        <time>2015-03-01T15:01:08Z</time>
      </trkpt>
      <trkpt lat="50.52741" lon="1.60704">
        <ele>3</ele>
        <time>2015-03-01T15:01:14Z</time>
      </trkpt>
      <trkpt lat="50.52745" lon="1.60697">
        <ele>3</ele>
        <time>2015-03-01T15:01:20Z</time>
      </trkpt>
      <trkpt lat="50.5275" lon="1.60689">
        <ele>3</ele>
        <time>2015-03-01T15:01:25Z</time>
      </trkpt>
      <trkpt lat="50.52754" lon="1.60682">
        <ele>3</ele>
        <time>2015-03-01T15:01:31Z</time>
      </trkpt>
      <trkpt lat="50.52758" lon="1.60675">
        <ele>3</ele>
        <time>2015-03-01T15:01:37Z</time>
      </trkpt>
      <trkpt lat="50.52761" lon="1.60668">
        <ele>3</ele>
        <time>2015-03-01T15:01:42Z</time>
      </trkpt>
      <trkpt lat="50.52765" lon="1.60662">
        <ele>3</ele>
        <time>2015-03-01T15:01:48Z</time>
      </trkpt>
      <trkpt lat="50.52767" lon="1.60655">
        <ele>3</ele>
        <time>2015-03-01T15:01:53Z</time>
      </trkpt>
      <trkpt lat="50.52771" lon="1.60646">
        <ele>3</ele>
        <time>2015-03-01T15:01:58Z</time>
      </trkpt>
      <trkpt lat="50.52775" lon="1.60639">
        <ele>3</ele>
        <time>2015-03-01T15:02:03Z</time>
      </trkpt>
      <trkpt lat="50.52778" lon="1.60632">
        <ele>3</ele>
        <time>2015-03-01T15:02:08Z</time>
      </trkpt>
      <trkpt lat="50.52782" lon="1.60624">
        <ele>3</ele>
        <time>2015-03-01T15:02:14Z</time>
      </trkpt>
      <trkpt lat="50.52787" lon="1.60616">
        <ele>3</ele>
        <time>2015-03-01T15:02:20Z</time>
      </trkpt>
      <trkpt lat="50.5279" lon="1.60608">
        <ele>3</ele>
        <time>2015-03-01T15:02:26Z</time>
      </trkpt>
      <trkpt lat="50.52795" lon="1.60601">
        <ele>3</ele>
        <time>2015-03-01T15:02:32Z</time>
      </trkpt>
      <trkpt lat="50.52799" lon="1.60594">
        <ele>3</ele>
        <time>2015-03-01T15:02:38Z</time>
      </trkpt>
      <trkpt lat="50.52803" lon="1.60586">
        <ele>3</ele>
        <time>2015-03-01T15:02:44Z</time>
      </trkpt>
      <trkpt lat="50.52807" lon="1.60578">
        <ele>3</ele>
        <time>2015-03-01T15:02:50Z</time>
      </trkpt>
      <trkpt lat="50.52803" lon="1.60564">
        <ele>3</ele>
        <time>2015-03-01T15:02:57Z</time>
      </trkpt>
      <trkpt lat="50.52803" lon="1.60554">
        <ele>3</ele>
        <time>2015-03-01T15:03:03Z</time>
      </trkpt>
      <trkpt lat="50.52811" lon="1.60535">
        <ele>3</ele>
        <time>2015-03-01T15:03:13Z</time>
      </trkpt>
      <trkpt lat="50.52814" lon="1.60529">
        <ele>3</ele>
        <time>2015-03-01T15:03:18Z</time>
      </trkpt>
      <trkpt lat="50.52818" lon="1.60521">
        <ele>3</ele>
        <time>2015-03-01T15:03:24Z</time>
      </trkpt>
      <trkpt lat="50.52824" lon="1.60512">
        <ele>4</ele>
        <time>2015-03-01T15:03:30Z</time>
      </trkpt>
      <trkpt lat="50.52829" lon="1.60502">
        <ele>4</ele>
        <time>2015-03-01T15:03:37Z</time>
      </trkpt>
      <trkpt lat="50.52831" lon="1.60496">
        <ele>4</ele>
        <time>2015-03-01T15:03:42Z</time>
      </trkpt>
      <trkpt lat="50.52832" lon="1.60494">
        <ele>4</ele>
        <time>2015-03-01T15:03:48Z</time>
      </trkpt>
      <trkpt lat="50.52837" lon="1.60486">
        <ele>4</ele>
        <time>2015-03-01T15:03:54Z</time>
      </trkpt>
      <trkpt lat="50.52841" lon="1.60479">
        <ele>4</ele>
        <time>2015-03-01T15:03:59Z</time>
      </trkpt>
      <trkpt lat="50.52846" lon="1.6047">
        <ele>4</ele>
        <time>2015-03-01T15:04:05Z</time>
      </trkpt>
      <trkpt lat="50.52851" lon="1.6046">
        <ele>4</ele>
        <time>2015-03-01T15:04:12Z</time>
      </trkpt>
      <trkpt lat="50.52855" lon="1.60452">
        <ele>4</ele>
        <time>2015-03-01T15:04:17Z</time>
      </trkpt>
      <trkpt lat="50.52858" lon="1.60444">
        <ele>4</ele>
        <time>2015-03-01T15:04:22Z</time>
      </trkpt>
      <trkpt lat="50.52863" lon="1.60436">
        <ele>4</ele>
        <time>2015-03-01T15:04:28Z</time>
      </trkpt>
      <trkpt lat="50.52867" lon="1.60428">
        <ele>4</ele>
        <time>2015-03-01T15:04:34Z</time>
      </trkpt>
      <trkpt lat="50.52871" lon="1.60419">
        <ele>4</ele>
        <time>2015-03-01T15:04:40Z</time>
      </trkpt>
      <trkpt lat="50.52875" lon="1.60411">
        <ele>4</ele>
        <time>2015-03-01T15:04:46Z</time>
      </trkpt>
      <trkpt lat="50.52879" lon="1.60404">
        <ele>4</ele>
        <time>2015-03-01T15:04:52Z</time>
      </trkpt>
      <trkpt lat="50.52879" lon="1.60398">
        <ele>4</ele>
        <time>2015-03-01T15:04:58Z</time>
      </trkpt>
      <trkpt lat="50.52881" lon="1.60394">
        <ele>4</ele>
        <time>2015-03-01T15:05:03Z</time>
      </trkpt>
      <trkpt lat="50.52885" lon="1.60389">
        <ele>4</ele>
        <time>2015-03-01T15:05:09Z</time>
      </trkpt>
      <trkpt lat="50.52888" lon="1.60382">
        <ele>4</ele>
        <time>2015-03-01T15:05:14Z</time>
      </trkpt>
      <trkpt lat="50.52891" lon="1.60373">
        <ele>4</ele>
        <time>2015-03-01T15:05:19Z</time>
      </trkpt>
      <trkpt lat="50.52895" lon="1.60366">
        <ele>4</ele>
        <time>2015-03-01T15:05:24Z</time>
      </trkpt>
      <trkpt lat="50.52898" lon="1.60359">
        <ele>4</ele>
        <time>2015-03-01T15:05:29Z</time>
      </trkpt>
      <trkpt lat="50.52903" lon="1.60352">
        <ele>4</ele>
        <time>2015-03-01T15:05:35Z</time>
      </trkpt>
      <trkpt lat="50.52907" lon="1.60342">
        <ele>4</ele>
        <time>2015-03-01T15:05:42Z</time>
      </trkpt>
      <trkpt lat="50.52911" lon="1.60334">
        <ele>3</ele>
        <time>2015-03-01T15:05:48Z</time>
      </trkpt>
      <trkpt lat="50.52911" lon="1.6033">
        <ele>3</ele>
        <time>2015-03-01T15:05:56Z</time>
      </trkpt>
      <trkpt lat="50.52916" lon="1.60323">
        <ele>4</ele>
        <time>2015-03-01T15:06:03Z</time>
      </trkpt>
      <trkpt lat="50.5292" lon="1.60317">
        <ele>3</ele>
        <time>2015-03-01T15:06:08Z</time>
      </trkpt>
      <trkpt lat="50.52924" lon="1.60309">
        <ele>3</ele>
        <time>2015-03-01T15:06:14Z</time>
      </trkpt>
      <trkpt lat="50.52926" lon="1.603">
        <ele>3</ele>
        <time>2015-03-01T15:06:19Z</time>
      </trkpt>
      <trkpt lat="50.52928" lon="1.60292">
        <ele>3</ele>
        <time>2015-03-01T15:06:24Z</time>
      </trkpt>
      <trkpt lat="50.52927" lon="1.60282">
        <ele>3</ele>
        <time>2015-03-01T15:06:29Z</time>
      </trkpt>
      <trkpt lat="50.52926" lon="1.60273">
        <ele>3</ele>
        <time>2015-03-01T15:06:34Z</time>
      </trkpt>
      <trkpt lat="50.52924" lon="1.60264">
        <ele>3</ele>
        <time>2015-03-01T15:06:39Z</time>
      </trkpt>
      <trkpt lat="50.52922" lon="1.60256">
        <ele>4</ele>
        <time>2015-03-01T15:06:44Z</time>
      </trkpt>
      <trkpt lat="50.52919" lon="1.60247">
        <ele>4</ele>
        <time>2015-03-01T15:06:49Z</time>
      </trkpt>
      <trkpt lat="50.52915" lon="1.60238">
        <ele>4</ele>
        <time>2015-03-01T15:06:55Z</time>
      </trkpt>
      <trkpt lat="50.5291" lon="1.60231">
        <ele>4</ele>
        <time>2015-03-01T15:07:00Z</time>
      </trkpt>
      <trkpt lat="50.52906" lon="1.60223">
        <ele>4</ele>
        <time>2015-03-01T15:07:05Z</time>
      </trkpt>
      <trkpt lat="50.529" lon="1.60214">
        <ele>4</ele>
        <time>2015-03-01T15:07:11Z</time>
      </trkpt>
      <trkpt lat="50.52896" lon="1.60206">
        <ele>4</ele>
        <time>2015-03-01T15:07:17Z</time>
      </trkpt>
      <trkpt lat="50.52893" lon="1.60199">
        <ele>4</ele>
        <time>2015-03-01T15:07:22Z</time>
      </trkpt>
      <trkpt lat="50.52888" lon="1.60192">
        <ele>4</ele>
        <time>2015-03-01T15:07:27Z</time>
      </trkpt>
      <trkpt lat="50.52883" lon="1.60185">
        <ele>4</ele>
        <time>2015-03-01T15:07:33Z</time>
      </trkpt>
      <trkpt lat="50.5288" lon="1.60181">
        <ele>4</ele>
        <time>2015-03-01T15:07:38Z</time>
      </trkpt>
      <trkpt lat="50.52877" lon="1.60175">
        <ele>4</ele>
        <time>2015-03-01T15:07:44Z</time>
      </trkpt>
      <trkpt lat="50.52873" lon="1.60168">
        <ele>5</ele>
        <time>2015-03-01T15:07:49Z</time>
      </trkpt>
      <trkpt lat="50.52867" lon="1.6016">
        <ele>4</ele>
        <time>2015-03-01T15:07:55Z</time>
      </trkpt>
      <trkpt lat="50.52862" lon="1.60152">
        <ele>4</ele>
        <time>2015-03-01T15:08:01Z</time>
      </trkpt>
      <trkpt lat="50.52857" lon="1.60145">
        <ele>4</ele>
        <time>2015-03-01T15:08:07Z</time>
      </trkpt>
      <trkpt lat="50.52852" lon="1.60138">
        <ele>4</ele>
        <time>2015-03-01T15:08:13Z</time>
      </trkpt>
      <trkpt lat="50.52846" lon="1.60131">
        <ele>4</ele>
        <time>2015-03-01T15:08:19Z</time>
      </trkpt>
      <trkpt lat="50.52841" lon="1.60123">
        <ele>4</ele>
        <time>2015-03-01T15:08:25Z</time>
      </trkpt>
      <trkpt lat="50.52838" lon="1.60118">
        <ele>4</ele>
        <time>2015-03-01T15:08:32Z</time>
      </trkpt>
      <trkpt lat="50.52833" lon="1.60111">
        <ele>5</ele>
        <time>2015-03-01T15:08:38Z</time>
      </trkpt>
      <trkpt lat="50.52829" lon="1.60107">
        <ele>5</ele>
        <time>2015-03-01T15:08:43Z</time>
      </trkpt>
      <trkpt lat="50.52825" lon="1.60098">
        <ele>5</ele>
        <time>2015-03-01T15:08:49Z</time>
      </trkpt>
      <trkpt lat="50.52819" lon="1.60091">
        <ele>5</ele>
        <time>2015-03-01T15:08:55Z</time>
      </trkpt>
      <trkpt lat="50.52814" lon="1.60084">
        <ele>5</ele>
        <time>2015-03-01T15:09:01Z</time>
      </trkpt>
      <trkpt lat="50.52809" lon="1.60077">
        <ele>5</ele>
        <time>2015-03-01T15:09:07Z</time>
      </trkpt>
      <trkpt lat="50.52804" lon="1.60072">
        <ele>5</ele>
        <time>2015-03-01T15:09:13Z</time>
      </trkpt>
      <trkpt lat="50.52798" lon="1.60067">
        <ele>5</ele>
        <time>2015-03-01T15:09:19Z</time>
      </trkpt>
      <trkpt lat="50.52793" lon="1.60064">
        <ele>5</ele>
        <time>2015-03-01T15:09:24Z</time>
      </trkpt>
      <trkpt lat="50.52788" lon="1.60062">
        <ele>6</ele>
        <time>2015-03-01T15:09:29Z</time>
      </trkpt>
      <trkpt lat="50.52782" lon="1.60058">
        <ele>6</ele>
        <time>2015-03-01T15:09:35Z</time>
      </trkpt>
      <trkpt lat="50.52776" lon="1.60056">
        <ele>6</ele>
        <time>2015-03-01T15:09:40Z</time>
      </trkpt>
      <trkpt lat="50.52769" lon="1.60055">
        <ele>6</ele>
        <time>2015-03-01T15:09:45Z</time>
      </trkpt>
      <trkpt lat="50.52763" lon="1.60055">
        <ele>6</ele>
        <time>2015-03-01T15:09:50Z</time>
      </trkpt>
      <trkpt lat="50.52757" lon="1.60054">
        <ele>6</ele>
        <time>2015-03-01T15:09:55Z</time>
      </trkpt>
      <trkpt lat="50.52748" lon="1.60048">
        <ele>7</ele>
        <time>2015-03-01T15:10:03Z</time>
      </trkpt>
      <trkpt lat="50.52742" lon="1.60042">
        <ele>7</ele>
        <time>2015-03-01T15:10:09Z</time>
      </trkpt>
      <trkpt lat="50.52734" lon="1.60036">
        <ele>7</ele>
        <time>2015-03-01T15:10:15Z</time>
      </trkpt>
      <trkpt lat="50.52729" lon="1.60029">
        <ele>7</ele>
        <time>2015-03-01T15:10:21Z</time>
      </trkpt>
      <trkpt lat="50.52723" lon="1.60024">
        <ele>7</ele>
        <time>2015-03-01T15:10:27Z</time>
      </trkpt>
      <trkpt lat="50.52718" lon="1.60016">
        <ele>7</ele>
        <time>2015-03-01T15:10:33Z</time>
      </trkpt>
      <trkpt lat="50.52713" lon="1.6001">
        <ele>7</ele>
        <time>2015-03-01T15:10:39Z</time>
      </trkpt>
      <trkpt lat="50.52709" lon="1.60003">
        <ele>7</ele>
        <time>2015-03-01T15:10:44Z</time>
      </trkpt>
      <trkpt lat="50.52708" lon="1.6">
        <ele>7</ele>
        <time>2015-03-01T15:10:49Z</time>
      </trkpt>
      <trkpt lat="50.52706" lon="1.59994">
        <ele>6</ele>
        <time>2015-03-01T15:10:54Z</time>
      </trkpt>
      <trkpt lat="50.52702" lon="1.59986">
        <ele>6</ele>
        <time>2015-03-01T15:10:59Z</time>
      </trkpt>
      <trkpt lat="50.52697" lon="1.59977">
        <ele>6</ele>
        <time>2015-03-01T15:11:05Z</time>
      </trkpt>
      <trkpt lat="50.52693" lon="1.59969">
        <ele>6</ele>
        <time>2015-03-01T15:11:11Z</time>
      </trkpt>
      <trkpt lat="50.52688" lon="1.5996">
        <ele>6</ele>
        <time>2015-03-01T15:11:17Z</time>
      </trkpt>
      <trkpt lat="50.52684" lon="1.59951">
        <ele>7</ele>
        <time>2015-03-01T15:11:23Z</time>
      </trkpt>
      <trkpt lat="50.5268" lon="1.59943">
        <ele>7</ele>
        <time>2015-03-01T15:11:29Z</time>
      </trkpt>
      <trkpt lat="50.52676" lon="1.59935">
        <ele>7</ele>
        <time>2015-03-01T15:11:35Z</time>
      </trkpt>
      <trkpt lat="50.52673" lon="1.59926">
        <ele>7</ele>
        <time>2015-03-01T15:11:45Z</time>
      </trkpt>
      <trkpt lat="50.5267" lon="1.59918">
        <ele>7</ele>
        <time>2015-03-01T15:11:50Z</time>
      </trkpt>
      <trkpt lat="50.52665" lon="1.59909">
        <ele>7</ele>
        <time>2015-03-01T15:11:56Z</time>
      </trkpt>
      <trkpt lat="50.5266" lon="1.59903">
        <ele>7</ele>
        <time>2015-03-01T15:12:02Z</time>
      </trkpt>
      <trkpt lat="50.52658" lon="1.59895">
        <ele>8</ele>
        <time>2015-03-01T15:12:07Z</time>
      </trkpt>
      <trkpt lat="50.52654" lon="1.59891">
        <ele>8</ele>
        <time>2015-03-01T15:12:12Z</time>
      </trkpt>
      <trkpt lat="50.52648" lon="1.59881">
        <ele>8</ele>
        <time>2015-03-01T15:12:18Z</time>
      </trkpt>
      <trkpt lat="50.52643" lon="1.59872">
        <ele>8</ele>
        <time>2015-03-01T15:12:24Z</time>
      </trkpt>
      <trkpt lat="50.52639" lon="1.59866">
        <ele>8</ele>
        <time>2015-03-01T15:12:29Z</time>
      </trkpt>
      <trkpt lat="50.52637" lon="1.59859">
        <ele>8</ele>
        <time>2015-03-01T15:12:35Z</time>
      </trkpt>
      <trkpt lat="50.52633" lon="1.59851">
        <ele>8</ele>
        <time>2015-03-01T15:12:40Z</time>
      </trkpt>
      <trkpt lat="50.52628" lon="1.59843">
        <ele>8</ele>
        <time>2015-03-01T15:12:45Z</time>
      </trkpt>
      <trkpt lat="50.52628" lon="1.5984">
        <ele>8</ele>
        <time>2015-03-01T15:12:51Z</time>
      </trkpt>
      <trkpt lat="50.52627" lon="1.59833">
        <ele>8</ele>
        <time>2015-03-01T15:12:56Z</time>
      </trkpt>
      <trkpt lat="50.52625" lon="1.59825">
        <ele>8</ele>
        <time>2015-03-01T15:13:01Z</time>
      </trkpt>
      <trkpt lat="50.52621" lon="1.59815">
        <ele>8</ele>
        <time>2015-03-01T15:13:06Z</time>
      </trkpt>
      <trkpt lat="50.52619" lon="1.59808">
        <ele>8</ele>
        <time>2015-03-01T15:13:11Z</time>
      </trkpt>
      <trkpt lat="50.5262" lon="1.59801">
        <ele>8</ele>
        <time>2015-03-01T15:13:16Z</time>
      </trkpt>
      <trkpt lat="50.5262" lon="1.59791">
        <ele>9</ele>
        <time>2015-03-01T15:13:22Z</time>
      </trkpt>
      <trkpt lat="50.52619" lon="1.59781">
        <ele>9</ele>
        <time>2015-03-01T15:13:28Z</time>
      </trkpt>
      <trkpt lat="50.52617" lon="1.59773">
        <ele>9</ele>
        <time>2015-03-01T15:13:34Z</time>
      </trkpt>
      <trkpt lat="50.52612" lon="1.59767">
        <ele>9</ele>
        <time>2015-03-01T15:13:39Z</time>
      </trkpt>
      <trkpt lat="50.52605" lon="1.5976">
        <ele>9</ele>
        <time>2015-03-01T15:13:46Z</time>
      </trkpt>
      <trkpt lat="50.52601" lon="1.59754">
        <ele>9</ele>
        <time>2015-03-01T15:13:51Z</time>
      </trkpt>
      <trkpt lat="50.52596" lon="1.59746">
        <ele>9</ele>
        <time>2015-03-01T15:13:56Z</time>
      </trkpt>
      <trkpt lat="50.52594" lon="1.5974">
        <ele>9</ele>
        <time>2015-03-01T15:14:01Z</time>
      </trkpt>
      <trkpt lat="50.52592" lon="1.59732">
        <ele>9</ele>
        <time>2015-03-01T15:14:06Z</time>
      </trkpt>
      <trkpt lat="50.52589" lon="1.59725">
        <ele>9</ele>
        <time>2015-03-01T15:14:11Z</time>
      </trkpt>
      <trkpt lat="50.52583" lon="1.59721">
        <ele>9</ele>
        <time>2015-03-01T15:14:16Z</time>
      </trkpt>
      <trkpt lat="50.52579" lon="1.59717">
        <ele>9</ele>
        <time>2015-03-01T15:14:21Z</time>
      </trkpt>
      <trkpt lat="50.52574" lon="1.59711">
        <ele>9</ele>
        <time>2015-03-01T15:14:26Z</time>
      </trkpt>
      <trkpt lat="50.52573" lon="1.59706">
        <ele>9</ele>
        <time>2015-03-01T15:14:31Z</time>
      </trkpt>
      <trkpt lat="50.52571" lon="1.59696">
        <ele>9</ele>
        <time>2015-03-01T15:14:37Z</time>
      </trkpt>
      <trkpt lat="50.52567" lon="1.59686">
        <ele>9</ele>
        <time>2015-03-01T15:14:42Z</time>
      </trkpt>
      <trkpt lat="50.52562" lon="1.59677">
        <ele>9</ele>
        <time>2015-03-01T15:14:47Z</time>
      </trkpt>
      <trkpt lat="50.52559" lon="1.59672">
        <ele>9</ele>
        <time>2015-03-01T15:14:52Z</time>
      </trkpt>
      <trkpt lat="50.52554" lon="1.59664">
        <ele>9</ele>
        <time>2015-03-01T15:14:58Z</time>
      </trkpt>
      <trkpt lat="50.52554" lon="1.59657">
        <ele>9</ele>
        <time>2015-03-01T15:15:03Z</time>
      </trkpt>
      <trkpt lat="50.52554" lon="1.59646">
        <ele>9</ele>
        <time>2015-03-01T15:15:09Z</time>
      </trkpt>
      <trkpt lat="50.52554" lon="1.59636">
        <ele>9</ele>
        <time>2015-03-01T15:15:16Z</time>
      </trkpt>
      <trkpt lat="50.52552" lon="1.59624">
        <ele>9</ele>
        <time>2015-03-01T15:15:21Z</time>
      </trkpt>
      <trkpt lat="50.52557" lon="1.59617">
        <ele>9</ele>
        <time>2015-03-01T15:15:27Z</time>
      </trkpt>
      <trkpt lat="50.52561" lon="1.59612">
        <ele>9</ele>
        <time>2015-03-01T15:15:33Z</time>
      </trkpt>
      <trkpt lat="50.52565" lon="1.59607">
        <ele>9</ele>
        <time>2015-03-01T15:15:38Z</time>
      </trkpt>
      <trkpt lat="50.5257" lon="1.59608">
        <ele>9</ele>
        <time>2015-03-01T15:15:43Z</time>
      </trkpt>
      <trkpt lat="50.52574" lon="1.59602">
        <ele>9</ele>
        <time>2015-03-01T15:15:48Z</time>
      </trkpt>
      <trkpt lat="50.52573" lon="1.59594">
        <ele>9</ele>
        <time>2015-03-01T15:15:53Z</time>
      </trkpt>
      <trkpt lat="50.52571" lon="1.5959">
        <ele>9</ele>
        <time>2015-03-01T15:15:58Z</time>
      </trkpt>
      <trkpt lat="50.52568" lon="1.59575">
        <ele>9</ele>
        <time>2015-03-01T15:16:03Z</time>
      </trkpt>
      <trkpt lat="50.5257" lon="1.59563">
        <ele>9</ele>
        <time>2015-03-01T15:16:09Z</time>
      </trkpt>
      <trkpt lat="50.52572" lon="1.59556">
        <ele>9</ele>
        <time>2015-03-01T15:16:14Z</time>
      </trkpt>
      <trkpt lat="50.52575" lon="1.59548">
        <ele>9</ele>
        <time>2015-03-01T15:16:19Z</time>
      </trkpt>
      <trkpt lat="50.5258" lon="1.59544">
        <ele>9</ele>
        <time>2015-03-01T15:16:24Z</time>
      </trkpt>
      <trkpt lat="50.52584" lon="1.59535">
        <ele>9</ele>
        <time>2015-03-01T15:16:30Z</time>
      </trkpt>
      <trkpt lat="50.52586" lon="1.59529">
        <ele>9</ele>
        <time>2015-03-01T15:16:36Z</time>
      </trkpt>
      <trkpt lat="50.5259" lon="1.59521">
        <ele>9</ele>
        <time>2015-03-01T15:16:42Z</time>
      </trkpt>
      <trkpt lat="50.52596" lon="1.59516">
        <ele>9</ele>
        <time>2015-03-01T15:16:48Z</time>
      </trkpt>
      <trkpt lat="50.52601" lon="1.59511">
        <ele>9</ele>
        <time>2015-03-01T15:16:53Z</time>
      </trkpt>
      <trkpt lat="50.52605" lon="1.59504">
        <ele>9</ele>
        <time>2015-03-01T15:16:59Z</time>
      </trkpt>
      <trkpt lat="50.52609" lon="1.59501">
        <ele>9</ele>
        <time>2015-03-01T15:17:05Z</time>
      </trkpt>
      <trkpt lat="50.52612" lon="1.59494">
        <ele>10</ele>
        <time>2015-03-01T15:17:10Z</time>
      </trkpt>
      <trkpt lat="50.52613" lon="1.59485">
        <ele>10</ele>
        <time>2015-03-01T15:17:15Z</time>
      </trkpt>
      <trkpt lat="50.5261" lon="1.59474">
        <ele>10</ele>
        <time>2015-03-01T15:17:21Z</time>
      </trkpt>
      <trkpt lat="50.5261" lon="1.59464">
        <ele>10</ele>
        <time>2015-03-01T15:17:27Z</time>
      </trkpt>
      <trkpt lat="50.52607" lon="1.59455">
        <ele>10</ele>
        <time>2015-03-01T15:17:32Z</time>
      </trkpt>
      <trkpt lat="50.52607" lon="1.59445">
        <ele>10</ele>
        <time>2015-03-01T15:17:37Z</time>
      </trkpt>
      <trkpt lat="50.5261" lon="1.59435">
        <ele>10</ele>
        <time>2015-03-01T15:17:42Z</time>
      </trkpt>
      <trkpt lat="50.52612" lon="1.59429">
        <ele>10</ele>
        <time>2015-03-01T15:17:48Z</time>
      </trkpt>
      <trkpt lat="50.52614" lon="1.59421">
        <ele>10</ele>
        <time>2015-03-01T15:17:53Z</time>
      </trkpt>
      <trkpt lat="50.52617" lon="1.59414">
        <ele>10</ele>
        <time>2015-03-01T15:17:59Z</time>
      </trkpt>
      <trkpt lat="50.52619" lon="1.59409">
        <ele>11</ele>
        <time>2015-03-01T15:18:04Z</time>
      </trkpt>
      <trkpt lat="50.52618" lon="1.59399">
        <ele>11</ele>
        <time>2015-03-01T15:18:09Z</time>
      </trkpt>
      <trkpt lat="50.52624" lon="1.59388">
        <ele>11</ele>
        <time>2015-03-01T15:18:14Z</time>
      </trkpt>
      <trkpt lat="50.5263" lon="1.59391">
        <ele>11</ele>
        <time>2015-03-01T15:18:19Z</time>
      </trkpt>
      <trkpt lat="50.52632" lon="1.59394">
        <ele>11</ele>
        <time>2015-03-01T15:18:24Z</time>
      </trkpt>
      <trkpt lat="50.52634" lon="1.59398">
        <ele>11</ele>
        <time>2015-03-01T15:18:30Z</time>
      </trkpt>
      <trkpt lat="50.52634" lon="1.59397">
        <ele>11</ele>
        <time>2015-03-01T15:18:32Z</time>
      </trkpt>
    </trkseg>
  </trk>
</gpx>